<?xml version='1.0' encoding='UTF-8'?><gpx version="1.1" creator="JPX - https://github.com/jenetics/jpx" xmlns="http://www.topografix.com/GPX/1/1"><trk><trkseg><trkpt lat="45.6277709" lon="9.0308406"><ele>216.0</ele><time>2026-04-06T12:47:55.787Z</time></trkpt><trkpt lat="45.6276938" lon="9.0308638"><ele>216.0</ele><time>2026-04-06T12:48:02.786Z</time></trkpt><trkpt lat="45.6276139" lon="9.030882"><ele>216.0</ele><time>2026-04-06T12:48:05.787Z</time></trkpt><trkpt lat="45.6275339" lon="9.0309076"><ele>216.0</ele><time>2026-04-06T12:48:08.786Z</time></trkpt><trkpt lat="45.6274483" lon="9.0309217"><ele>216.0</ele><time>2026-04-06T12:48:12.786Z</time></trkpt><trkpt lat="45.6273796" lon="9.0309354"><ele>216.0</ele><time>2026-04-06T12:48:14.786Z</time></trkpt><trkpt lat="45.6273064" lon="9.0309425"><ele>216.0</ele><time>2026-04-06T12:48:16.786Z</time></trkpt><trkpt lat="45.6272289" lon="9.0309411"><ele>216.00000000000003</ele><time>2026-04-06T12:48:18.786Z</time></trkpt><trkpt lat="45.6271473" lon="9.0309357"><ele>216.00000000000003</ele><time>2026-04-06T12:48:20.786Z</time></trkpt><trkpt lat="45.6270527" lon="9.0309348"><ele>216.0</ele><time>2026-04-06T12:48:22.787Z</time></trkpt><trkpt lat="45.6269437" lon="9.0309409"><ele>216.0</ele><time>2026-04-06T12:48:24.786Z</time></trkpt><trkpt lat="45.6268218" lon="9.0309395"><ele>216.20000000000002</ele><time>2026-04-06T12:48:26.786Z</time></trkpt><trkpt lat="45.6267054" lon="9.0309364"><ele>216.40000000000003</ele><time>2026-04-06T12:48:28.786Z</time></trkpt><trkpt lat="45.6266154" lon="9.0309353"><ele>216.6</ele><time>2026-04-06T12:48:30.786Z</time></trkpt><trkpt lat="45.6265194" lon="9.0309309"><ele>216.8</ele><time>2026-04-06T12:48:32.786Z</time></trkpt><trkpt lat="45.6264204" lon="9.0309264"><ele>217.0</ele><time>2026-04-06T12:48:34.787Z</time></trkpt><trkpt lat="45.6263376" lon="9.0309289"><ele>216.99999999999997</ele><time>2026-04-06T12:48:36.786Z</time></trkpt><trkpt lat="45.62627" lon="9.0309258"><ele>217.0</ele><time>2026-04-06T12:48:38.787Z</time></trkpt><trkpt lat="45.6262063" lon="9.0309126"><ele>217.0</ele><time>2026-04-06T12:48:41.786Z</time></trkpt><trkpt lat="45.6261763" lon="9.0307582"><ele>217.0</ele><time>2026-04-06T12:48:45.786Z</time></trkpt><trkpt lat="45.626182" lon="9.0306233"><ele>216.99999999999997</ele><time>2026-04-06T12:48:47.786Z</time></trkpt><trkpt lat="45.626187" lon="9.0304778"><ele>217.0</ele><time>2026-04-06T12:48:49.787Z</time></trkpt><trkpt lat="45.6261875" lon="9.0303399"><ele>217.16666666666666</ele><time>2026-04-06T12:48:51.787Z</time></trkpt><trkpt lat="45.6261844" lon="9.0302473"><ele>217.33333333333331</ele><time>2026-04-06T12:48:53.787Z</time></trkpt><trkpt lat="45.6261678" lon="9.0301591"><ele>217.5</ele><time>2026-04-06T12:48:56.786Z</time></trkpt><trkpt lat="45.6260987" lon="9.0300857"><ele>217.66666666666669</ele><time>2026-04-06T12:49:02.786Z</time></trkpt><trkpt lat="45.6259947" lon="9.0301128"><ele>217.83333333333334</ele><time>2026-04-06T12:49:04.786Z</time></trkpt><trkpt lat="45.6259032" lon="9.030221"><ele>218.0</ele><time>2026-04-06T12:49:06.787Z</time></trkpt><trkpt lat="45.6258579" lon="9.0302885"><ele>217.2</ele><time>2026-04-06T12:49:07.787Z</time></trkpt><trkpt lat="45.6257793" lon="9.0304203"><ele>216.4</ele><time>2026-04-06T12:49:09.786Z</time></trkpt><trkpt lat="45.6257007" lon="9.0305331"><ele>215.59999999999997</ele><time>2026-04-06T12:49:11.787Z</time></trkpt><trkpt lat="45.6256299" lon="9.0306021"><ele>214.79999999999998</ele><time>2026-04-06T12:49:13.787Z</time></trkpt><trkpt lat="45.6255659" lon="9.0306845"><ele>214.0</ele><time>2026-04-06T12:49:50.787Z</time></trkpt><trkpt lat="45.6254881" lon="9.0308312"><ele>213.99999999999997</ele><time>2026-04-06T12:49:53.787Z</time></trkpt><trkpt lat="45.6254392" lon="9.030895"><ele>214.0</ele><time>2026-04-06T12:49:54.787Z</time></trkpt><trkpt lat="45.625354" lon="9.0310211"><ele>214.0</ele><time>2026-04-06T12:49:56.786Z</time></trkpt><trkpt lat="45.6253158" lon="9.0310959"><ele>214.0</ele><time>2026-04-06T12:49:57.786Z</time></trkpt><trkpt lat="45.6252708" lon="9.0311691"><ele>213.99999999999997</ele><time>2026-04-06T12:49:58.786Z</time></trkpt><trkpt lat="45.6252238" lon="9.0312457"><ele>214.0</ele><time>2026-04-06T12:49:59.786Z</time></trkpt><trkpt lat="45.6251722" lon="9.0313272"><ele>214.16666666666666</ele><time>2026-04-06T12:50:00.786Z</time></trkpt><trkpt lat="45.6251152" lon="9.0314127"><ele>214.33333333333331</ele><time>2026-04-06T12:50:01.787Z</time></trkpt><trkpt lat="45.6250553" lon="9.0315091"><ele>214.5</ele><time>2026-04-06T12:50:02.787Z</time></trkpt><trkpt lat="45.6250048" lon="9.031618"><ele>214.66666666666669</ele><time>2026-04-06T12:50:03.786Z</time></trkpt><trkpt lat="45.6249622" lon="9.0317242"><ele>214.83333333333334</ele><time>2026-04-06T12:50:04.787Z</time></trkpt><trkpt lat="45.6249344" lon="9.0318419"><ele>215.0</ele><time>2026-04-06T12:50:05.787Z</time></trkpt><trkpt lat="45.624911" lon="9.0319764"><ele>215.0</ele><time>2026-04-06T12:50:06.786Z</time></trkpt><trkpt lat="45.6248911" lon="9.0321214"><ele>215.0</ele><time>2026-04-06T12:50:07.786Z</time></trkpt><trkpt lat="45.6248625" lon="9.0322682"><ele>215.0</ele><time>2026-04-06T12:50:08.786Z</time></trkpt><trkpt lat="45.6248303" lon="9.032414"><ele>215.0</ele><time>2026-04-06T12:50:09.787Z</time></trkpt><trkpt lat="45.6248043" lon="9.0325586"><ele>215.0</ele><time>2026-04-06T12:50:10.786Z</time></trkpt><trkpt lat="45.6247768" lon="9.0326971"><ele>215.0</ele><time>2026-04-06T12:50:11.786Z</time></trkpt><trkpt lat="45.6247504" lon="9.0328345"><ele>215.0</ele><time>2026-04-06T12:50:12.786Z</time></trkpt><trkpt lat="45.6247185" lon="9.032962"><ele>215.0</ele><time>2026-04-06T12:50:13.786Z</time></trkpt><trkpt lat="45.6246955" lon="9.0331084"><ele>215.0</ele><time>2026-04-06T12:50:14.786Z</time></trkpt><trkpt lat="45.6246669" lon="9.033262"><ele>215.0</ele><time>2026-04-06T12:50:15.786Z</time></trkpt><trkpt lat="45.62464" lon="9.0334122"><ele>214.8</ele><time>2026-04-06T12:50:16.786Z</time></trkpt><trkpt lat="45.6246111" lon="9.0335543"><ele>214.6</ele><time>2026-04-06T12:50:17.785Z</time></trkpt><trkpt lat="45.6245806" lon="9.0337055"><ele>214.39999999999998</ele><time>2026-04-06T12:50:18.786Z</time></trkpt><trkpt lat="45.6245488" lon="9.0338564"><ele>214.2</ele><time>2026-04-06T12:50:19.785Z</time></trkpt><trkpt lat="45.6245231" lon="9.0340143"><ele>214.0</ele><time>2026-04-06T12:50:20.785Z</time></trkpt><trkpt lat="45.6244973" lon="9.0341761"><ele>213.6</ele><time>2026-04-06T12:50:21.785Z</time></trkpt><trkpt lat="45.6244766" lon="9.0343278"><ele>213.2</ele><time>2026-04-06T12:50:22.785Z</time></trkpt><trkpt lat="45.6244501" lon="9.0344805"><ele>212.79999999999998</ele><time>2026-04-06T12:50:23.785Z</time></trkpt><trkpt lat="45.6244214" lon="9.0346334"><ele>212.39999999999998</ele><time>2026-04-06T12:50:24.785Z</time></trkpt><trkpt lat="45.6243929" lon="9.0347813"><ele>212.0</ele><time>2026-04-06T12:50:25.785Z</time></trkpt><trkpt lat="45.624367" lon="9.034925"><ele>212.2</ele><time>2026-04-06T12:50:26.786Z</time></trkpt><trkpt lat="45.6243288" lon="9.035065"><ele>212.39999999999998</ele><time>2026-04-06T12:50:27.786Z</time></trkpt><trkpt lat="45.6242976" lon="9.0352061"><ele>212.60000000000002</ele><time>2026-04-06T12:50:28.786Z</time></trkpt><trkpt lat="45.6242756" lon="9.0353376"><ele>212.8</ele><time>2026-04-06T12:50:29.785Z</time></trkpt><trkpt lat="45.6242541" lon="9.0354526"><ele>213.0</ele><time>2026-04-06T12:50:30.786Z</time></trkpt><trkpt lat="45.6242377" lon="9.0355433"><ele>213.0</ele><time>2026-04-06T12:50:31.785Z</time></trkpt><trkpt lat="45.6242087" lon="9.0356242"><ele>213.0</ele><time>2026-04-06T12:50:32.785Z</time></trkpt><trkpt lat="45.6241697" lon="9.0356949"><ele>213.0</ele><time>2026-04-06T12:50:33.785Z</time></trkpt><trkpt lat="45.6241163" lon="9.0357543"><ele>213.0</ele><time>2026-04-06T12:50:34.785Z</time></trkpt><trkpt lat="45.6240814" lon="9.0358433"><ele>213.0</ele><time>2026-04-06T12:50:35.785Z</time></trkpt><trkpt lat="45.6240732" lon="9.0359619"><ele>213.0</ele><time>2026-04-06T12:50:36.785Z</time></trkpt><trkpt lat="45.6240775" lon="9.0361075"><ele>213.4</ele><time>2026-04-06T12:50:37.786Z</time></trkpt><trkpt lat="45.6240752" lon="9.036236"><ele>213.8</ele><time>2026-04-06T12:50:38.785Z</time></trkpt><trkpt lat="45.6240781" lon="9.0363797"><ele>214.2</ele><time>2026-04-06T12:50:39.786Z</time></trkpt><trkpt lat="45.6240775" lon="9.0365321"><ele>214.6</ele><time>2026-04-06T12:50:40.785Z</time></trkpt><trkpt lat="45.6240725" lon="9.0366745"><ele>215.0</ele><time>2026-04-06T12:50:41.786Z</time></trkpt><trkpt lat="45.6240668" lon="9.0368224"><ele>215.2</ele><time>2026-04-06T12:50:42.785Z</time></trkpt><trkpt lat="45.6240714" lon="9.036967"><ele>215.4</ele><time>2026-04-06T12:50:43.785Z</time></trkpt><trkpt lat="45.6240723" lon="9.0371181"><ele>215.60000000000002</ele><time>2026-04-06T12:50:44.785Z</time></trkpt><trkpt lat="45.6240686" lon="9.0372714"><ele>215.8</ele><time>2026-04-06T12:50:45.785Z</time></trkpt><trkpt lat="45.6240679" lon="9.0374242"><ele>216.0</ele><time>2026-04-06T12:50:46.786Z</time></trkpt><trkpt lat="45.6240671" lon="9.03758"><ele>215.60000000000002</ele><time>2026-04-06T12:50:47.785Z</time></trkpt><trkpt lat="45.6240669" lon="9.0377292"><ele>215.20000000000002</ele><time>2026-04-06T12:50:48.785Z</time></trkpt><trkpt lat="45.6240633" lon="9.0378803"><ele>214.79999999999998</ele><time>2026-04-06T12:50:49.785Z</time></trkpt><trkpt lat="45.6240562" lon="9.038034"><ele>214.39999999999998</ele><time>2026-04-06T12:50:50.785Z</time></trkpt><trkpt lat="45.6240501" lon="9.0381809"><ele>214.0</ele><time>2026-04-06T12:50:51.786Z</time></trkpt><trkpt lat="45.6240449" lon="9.0383312"><ele>214.0</ele><time>2026-04-06T12:50:52.785Z</time></trkpt><trkpt lat="45.6240456" lon="9.0384813"><ele>213.99999999999997</ele><time>2026-04-06T12:50:53.786Z</time></trkpt><trkpt lat="45.6240428" lon="9.0386283"><ele>213.99999999999997</ele><time>2026-04-06T12:50:54.785Z</time></trkpt><trkpt lat="45.6240352" lon="9.0387699"><ele>214.0</ele><time>2026-04-06T12:50:55.785Z</time></trkpt><trkpt lat="45.624032" lon="9.0389024"><ele>214.0</ele><time>2026-04-06T12:50:56.785Z</time></trkpt><trkpt lat="45.6240282" lon="9.0390238"><ele>213.83333333333331</ele><time>2026-04-06T12:50:57.785Z</time></trkpt><trkpt lat="45.6240276" lon="9.0391344"><ele>213.66666666666666</ele><time>2026-04-06T12:50:58.785Z</time></trkpt><trkpt lat="45.6240197" lon="9.0392439"><ele>213.5</ele><time>2026-04-06T12:50:59.785Z</time></trkpt><trkpt lat="45.6240151" lon="9.0393467"><ele>213.33333333333331</ele><time>2026-04-06T12:51:00.785Z</time></trkpt><trkpt lat="45.6240095" lon="9.0394503"><ele>213.16666666666666</ele><time>2026-04-06T12:51:01.786Z</time></trkpt><trkpt lat="45.6240049" lon="9.0395597"><ele>213.0</ele><time>2026-04-06T12:51:02.786Z</time></trkpt><trkpt lat="45.6239973" lon="9.0396763"><ele>213.0</ele><time>2026-04-06T12:51:03.785Z</time></trkpt><trkpt lat="45.6239917" lon="9.0398042"><ele>213.0</ele><time>2026-04-06T12:51:04.785Z</time></trkpt><trkpt lat="45.6239835" lon="9.0399371"><ele>213.0</ele><time>2026-04-06T12:51:05.786Z</time></trkpt><trkpt lat="45.6239719" lon="9.0400696"><ele>213.0</ele><time>2026-04-06T12:51:06.786Z</time></trkpt><trkpt lat="45.6239668" lon="9.0402119"><ele>213.0</ele><time>2026-04-06T12:51:07.785Z</time></trkpt><trkpt lat="45.62396" lon="9.0403602"><ele>213.2</ele><time>2026-04-06T12:51:08.785Z</time></trkpt><trkpt lat="45.623954" lon="9.0405054"><ele>213.4</ele><time>2026-04-06T12:51:09.786Z</time></trkpt><trkpt lat="45.6239517" lon="9.0406573"><ele>213.59999999999997</ele><time>2026-04-06T12:51:10.785Z</time></trkpt><trkpt lat="45.6239482" lon="9.0408076"><ele>213.79999999999998</ele><time>2026-04-06T12:51:11.785Z</time></trkpt><trkpt lat="45.6239415" lon="9.0409509"><ele>214.0</ele><time>2026-04-06T12:51:12.785Z</time></trkpt><trkpt lat="45.6239353" lon="9.0410993"><ele>214.0</ele><time>2026-04-06T12:51:13.785Z</time></trkpt><trkpt lat="45.6239327" lon="9.0412403"><ele>213.99999999999997</ele><time>2026-04-06T12:51:14.785Z</time></trkpt><trkpt lat="45.6239319" lon="9.0413741"><ele>213.99999999999997</ele><time>2026-04-06T12:51:15.785Z</time></trkpt><trkpt lat="45.6239241" lon="9.0415132"><ele>214.0</ele><time>2026-04-06T12:51:16.785Z</time></trkpt><trkpt lat="45.6239198" lon="9.0416522"><ele>214.0</ele><time>2026-04-06T12:51:17.785Z</time></trkpt><trkpt lat="45.6239159" lon="9.0417974"><ele>213.6</ele><time>2026-04-06T12:51:18.785Z</time></trkpt><trkpt lat="45.6239108" lon="9.0419445"><ele>213.2</ele><time>2026-04-06T12:51:19.785Z</time></trkpt><trkpt lat="45.6239132" lon="9.0421013"><ele>212.79999999999998</ele><time>2026-04-06T12:51:20.785Z</time></trkpt><trkpt lat="45.6239096" lon="9.0422608"><ele>212.39999999999998</ele><time>2026-04-06T12:51:21.786Z</time></trkpt><trkpt lat="45.6239021" lon="9.0424245"><ele>212.0</ele><time>2026-04-06T12:51:22.786Z</time></trkpt><trkpt lat="45.6238948" lon="9.0425901"><ele>212.0</ele><time>2026-04-06T12:51:23.786Z</time></trkpt><trkpt lat="45.6238855" lon="9.0427563"><ele>212.0</ele><time>2026-04-06T12:51:24.785Z</time></trkpt><trkpt lat="45.6238758" lon="9.042921"><ele>212.0</ele><time>2026-04-06T12:51:25.785Z</time></trkpt><trkpt lat="45.6238639" lon="9.0430716"><ele>212.0</ele><time>2026-04-06T12:51:26.785Z</time></trkpt><trkpt lat="45.6238499" lon="9.0432227"><ele>212.0</ele><time>2026-04-06T12:51:27.785Z</time></trkpt><trkpt lat="45.6238425" lon="9.0433762"><ele>212.0</ele><time>2026-04-06T12:51:28.785Z</time></trkpt><trkpt lat="45.623827" lon="9.0435262"><ele>212.0</ele><time>2026-04-06T12:51:29.785Z</time></trkpt><trkpt lat="45.6238177" lon="9.0436863"><ele>212.0</ele><time>2026-04-06T12:51:30.785Z</time></trkpt><trkpt lat="45.6238062" lon="9.0438438"><ele>212.0</ele><time>2026-04-06T12:51:31.785Z</time></trkpt><trkpt lat="45.6237918" lon="9.0440028"><ele>212.0</ele><time>2026-04-06T12:51:32.785Z</time></trkpt><trkpt lat="45.6237798" lon="9.044161"><ele>212.2</ele><time>2026-04-06T12:51:33.785Z</time></trkpt><trkpt lat="45.6237653" lon="9.044311"><ele>212.39999999999998</ele><time>2026-04-06T12:51:34.785Z</time></trkpt><trkpt lat="45.6237583" lon="9.0444645"><ele>212.60000000000002</ele><time>2026-04-06T12:51:35.786Z</time></trkpt><trkpt lat="45.6237495" lon="9.0446218"><ele>212.8</ele><time>2026-04-06T12:51:36.786Z</time></trkpt><trkpt lat="45.6237419" lon="9.0447733"><ele>213.0</ele><time>2026-04-06T12:51:37.786Z</time></trkpt><trkpt lat="45.6237343" lon="9.0449315"><ele>213.0</ele><time>2026-04-06T12:51:38.785Z</time></trkpt><trkpt lat="45.6237292" lon="9.0450924"><ele>213.0</ele><time>2026-04-06T12:51:39.785Z</time></trkpt><trkpt lat="45.6237238" lon="9.0452504"><ele>213.0</ele><time>2026-04-06T12:51:40.785Z</time></trkpt><trkpt lat="45.6237194" lon="9.0453965"><ele>213.0</ele><time>2026-04-06T12:51:41.785Z</time></trkpt><trkpt lat="45.6237132" lon="9.0455327"><ele>213.0</ele><time>2026-04-06T12:51:42.785Z</time></trkpt><trkpt lat="45.6237" lon="9.0456662"><ele>213.0</ele><time>2026-04-06T12:51:43.786Z</time></trkpt><trkpt lat="45.6236935" lon="9.0457842"><ele>213.0</ele><time>2026-04-06T12:51:44.786Z</time></trkpt><trkpt lat="45.6236851" lon="9.0458957"><ele>213.0</ele><time>2026-04-06T12:51:45.785Z</time></trkpt><trkpt lat="45.6236747" lon="9.0460095"><ele>213.0</ele><time>2026-04-06T12:51:46.786Z</time></trkpt><trkpt lat="45.6236638" lon="9.0461341"><ele>213.0</ele><time>2026-04-06T12:51:47.786Z</time></trkpt><trkpt lat="45.623665" lon="9.0462674"><ele>213.0</ele><time>2026-04-06T12:51:48.785Z</time></trkpt><trkpt lat="45.6236614" lon="9.0464086"><ele>213.25</ele><time>2026-04-06T12:51:49.785Z</time></trkpt><trkpt lat="45.6236573" lon="9.0465677"><ele>213.5</ele><time>2026-04-06T12:51:50.785Z</time></trkpt><trkpt lat="45.6236539" lon="9.0467249"><ele>213.75</ele><time>2026-04-06T12:51:51.786Z</time></trkpt><trkpt lat="45.6236327" lon="9.0468782"><ele>214.0</ele><time>2026-04-06T12:51:52.785Z</time></trkpt><trkpt lat="45.6236203" lon="9.047068"><ele>214.0</ele><time>2026-04-06T12:51:53.785Z</time></trkpt><trkpt lat="45.6236127" lon="9.0472376"><ele>214.0</ele><time>2026-04-06T12:51:54.786Z</time></trkpt><trkpt lat="45.6235994" lon="9.0474142"><ele>214.0</ele><time>2026-04-06T12:51:55.785Z</time></trkpt><trkpt lat="45.6235945" lon="9.0475744"><ele>214.0</ele><time>2026-04-06T12:51:56.786Z</time></trkpt><trkpt lat="45.6235777" lon="9.0477354"><ele>214.0</ele><time>2026-04-06T12:51:57.786Z</time></trkpt><trkpt lat="45.6235811" lon="9.0479099"><ele>214.0</ele><time>2026-04-06T12:51:58.786Z</time></trkpt><trkpt lat="45.6235689" lon="9.0480866"><ele>214.0</ele><time>2026-04-06T12:51:59.785Z</time></trkpt><trkpt lat="45.6235573" lon="9.0482756"><ele>214.0</ele><time>2026-04-06T12:52:00.786Z</time></trkpt><trkpt lat="45.6235528" lon="9.0484294"><ele>214.0</ele><time>2026-04-06T12:52:01.785Z</time></trkpt><trkpt lat="45.623541" lon="9.0486117"><ele>214.0</ele><time>2026-04-06T12:52:02.786Z</time></trkpt><trkpt lat="45.6235275" lon="9.0487898"><ele>214.0</ele><time>2026-04-06T12:52:03.785Z</time></trkpt><trkpt lat="45.6235162" lon="9.0489779"><ele>214.0</ele><time>2026-04-06T12:52:04.785Z</time></trkpt><trkpt lat="45.6235058" lon="9.0491661"><ele>214.25</ele><time>2026-04-06T12:52:05.785Z</time></trkpt><trkpt lat="45.623494" lon="9.0493592"><ele>214.5</ele><time>2026-04-06T12:52:06.786Z</time></trkpt><trkpt lat="45.623488" lon="9.0495552"><ele>214.75</ele><time>2026-04-06T12:52:07.786Z</time></trkpt><trkpt lat="45.6234741" lon="9.049775"><ele>215.0</ele><time>2026-04-06T12:52:08.786Z</time></trkpt><trkpt lat="45.623463" lon="9.0499856"><ele>215.0</ele><time>2026-04-06T12:52:09.786Z</time></trkpt><trkpt lat="45.6234561" lon="9.050195"><ele>215.0</ele><time>2026-04-06T12:52:10.785Z</time></trkpt><trkpt lat="45.6234389" lon="9.0504025"><ele>215.0</ele><time>2026-04-06T12:52:11.786Z</time></trkpt><trkpt lat="45.6234239" lon="9.0506072"><ele>215.0</ele><time>2026-04-06T12:52:12.785Z</time></trkpt><trkpt lat="45.6234112" lon="9.0508198"><ele>214.5</ele><time>2026-04-06T12:52:13.785Z</time></trkpt><trkpt lat="45.6234013" lon="9.0510289"><ele>214.0</ele><time>2026-04-06T12:52:14.786Z</time></trkpt><trkpt lat="45.6233877" lon="9.051245"><ele>213.5</ele><time>2026-04-06T12:52:15.786Z</time></trkpt><trkpt lat="45.6233712" lon="9.0514569"><ele>213.0</ele><time>2026-04-06T12:52:16.785Z</time></trkpt><trkpt lat="45.6233555" lon="9.0516819"><ele>212.75</ele><time>2026-04-06T12:52:17.786Z</time></trkpt><trkpt lat="45.6233434" lon="9.0519027"><ele>212.5</ele><time>2026-04-06T12:52:18.785Z</time></trkpt><trkpt lat="45.6233318" lon="9.0521055"><ele>212.25</ele><time>2026-04-06T12:52:19.785Z</time></trkpt><trkpt lat="45.6233175" lon="9.0523205"><ele>212.0</ele><time>2026-04-06T12:52:20.786Z</time></trkpt><trkpt lat="45.6233038" lon="9.0525384"><ele>212.66666666666669</ele><time>2026-04-06T12:52:21.785Z</time></trkpt><trkpt lat="45.6232932" lon="9.0527607"><ele>213.33333333333331</ele><time>2026-04-06T12:52:22.786Z</time></trkpt><trkpt lat="45.6232814" lon="9.0529881"><ele>214.0</ele><time>2026-04-06T12:52:23.785Z</time></trkpt><trkpt lat="45.6232674" lon="9.0532147"><ele>214.0</ele><time>2026-04-06T12:52:24.785Z</time></trkpt><trkpt lat="45.6232502" lon="9.053445"><ele>214.0</ele><time>2026-04-06T12:52:25.786Z</time></trkpt><trkpt lat="45.623238" lon="9.0536685"><ele>214.0</ele><time>2026-04-06T12:52:26.786Z</time></trkpt><trkpt lat="45.6232217" lon="9.0538891"><ele>214.0</ele><time>2026-04-06T12:52:27.786Z</time></trkpt><trkpt lat="45.6232135" lon="9.0541213"><ele>214.0</ele><time>2026-04-06T12:52:28.785Z</time></trkpt><trkpt lat="45.6232096" lon="9.054352"><ele>214.0</ele><time>2026-04-06T12:52:29.785Z</time></trkpt><trkpt lat="45.6232134" lon="9.0545885"><ele>213.0</ele><time>2026-04-06T12:52:30.786Z</time></trkpt><trkpt lat="45.6232218" lon="9.054824"><ele>212.0</ele><time>2026-04-06T12:52:31.786Z</time></trkpt><trkpt lat="45.6232362" lon="9.0550601"><ele>211.0</ele><time>2026-04-06T12:52:32.785Z</time></trkpt><trkpt lat="45.6232507" lon="9.0553004"><ele>211.0</ele><time>2026-04-06T12:52:33.785Z</time></trkpt><trkpt lat="45.6232618" lon="9.0555329"><ele>211.0</ele><time>2026-04-06T12:52:34.785Z</time></trkpt><trkpt lat="45.623267" lon="9.0557634"><ele>211.0</ele><time>2026-04-06T12:52:35.786Z</time></trkpt><trkpt lat="45.6232601" lon="9.0559953"><ele>211.0</ele><time>2026-04-06T12:52:36.786Z</time></trkpt><trkpt lat="45.6232438" lon="9.0562352"><ele>211.0</ele><time>2026-04-06T12:52:37.786Z</time></trkpt><trkpt lat="45.6232246" lon="9.0564814"><ele>211.0</ele><time>2026-04-06T12:52:38.786Z</time></trkpt><trkpt lat="45.6232025" lon="9.0567284"><ele>211.0</ele><time>2026-04-06T12:52:39.785Z</time></trkpt><trkpt lat="45.6231785" lon="9.0569873"><ele>211.0</ele><time>2026-04-06T12:52:40.785Z</time></trkpt><trkpt lat="45.6231553" lon="9.0572367"><ele>211.0</ele><time>2026-04-06T12:52:41.785Z</time></trkpt><trkpt lat="45.6231355" lon="9.0574691"><ele>211.0</ele><time>2026-04-06T12:52:42.785Z</time></trkpt><trkpt lat="45.6231192" lon="9.0576756"><ele>211.0</ele><time>2026-04-06T12:52:43.784Z</time></trkpt><trkpt lat="45.623104" lon="9.057853"><ele>211.0</ele><time>2026-04-06T12:52:44.784Z</time></trkpt><trkpt lat="45.6230845" lon="9.0579953"><ele>211.0</ele><time>2026-04-06T12:52:45.785Z</time></trkpt><trkpt lat="45.6230579" lon="9.0581167"><ele>210.99999999999997</ele><time>2026-04-06T12:52:46.784Z</time></trkpt><trkpt lat="45.6230121" lon="9.0582175"><ele>211.0</ele><time>2026-04-06T12:52:47.785Z</time></trkpt><trkpt lat="45.6229544" lon="9.0582931"><ele>211.0</ele><time>2026-04-06T12:52:48.784Z</time></trkpt><trkpt lat="45.6228886" lon="9.0583676"><ele>211.0</ele><time>2026-04-06T12:52:49.785Z</time></trkpt><trkpt lat="45.6228395" lon="9.0584768"><ele>210.99999999999997</ele><time>2026-04-06T12:52:50.784Z</time></trkpt><trkpt lat="45.6228185" lon="9.0585979"><ele>211.0</ele><time>2026-04-06T12:52:51.784Z</time></trkpt><trkpt lat="45.6228339" lon="9.0587259"><ele>211.0</ele><time>2026-04-06T12:52:52.783Z</time></trkpt><trkpt lat="45.6228858" lon="9.0588326"><ele>211.0</ele><time>2026-04-06T12:52:53.784Z</time></trkpt><trkpt lat="45.6229671" lon="9.0588967"><ele>211.0</ele><time>2026-04-06T12:52:54.784Z</time></trkpt><trkpt lat="45.6230628" lon="9.0589117"><ele>211.0</ele><time>2026-04-06T12:52:55.784Z</time></trkpt><trkpt lat="45.6231731" lon="9.0588831"><ele>211.0</ele><time>2026-04-06T12:52:56.784Z</time></trkpt><trkpt lat="45.6232879" lon="9.0588509"><ele>211.0</ele><time>2026-04-06T12:52:57.784Z</time></trkpt><trkpt lat="45.6234009" lon="9.0588415"><ele>211.0</ele><time>2026-04-06T12:52:58.784Z</time></trkpt><trkpt lat="45.6235237" lon="9.058871"><ele>211.0</ele><time>2026-04-06T12:52:59.784Z</time></trkpt><trkpt lat="45.6236487" lon="9.0589366"><ele>211.0</ele><time>2026-04-06T12:53:00.784Z</time></trkpt><trkpt lat="45.6237872" lon="9.0590109"><ele>211.0</ele><time>2026-04-06T12:53:01.784Z</time></trkpt><trkpt lat="45.62394" lon="9.0590857"><ele>211.0</ele><time>2026-04-06T12:53:02.784Z</time></trkpt><trkpt lat="45.6240962" lon="9.0591684"><ele>211.0</ele><time>2026-04-06T12:53:03.785Z</time></trkpt><trkpt lat="45.624245" lon="9.0592437"><ele>210.66666666666666</ele><time>2026-04-06T12:53:04.784Z</time></trkpt><trkpt lat="45.624393" lon="9.0593164"><ele>210.33333333333331</ele><time>2026-04-06T12:53:05.785Z</time></trkpt><trkpt lat="45.6245433" lon="9.0593875"><ele>210.0</ele><time>2026-04-06T12:53:06.784Z</time></trkpt><trkpt lat="45.6246981" lon="9.0594631"><ele>209.66666666666669</ele><time>2026-04-06T12:53:07.785Z</time></trkpt><trkpt lat="45.6248557" lon="9.0595375"><ele>209.33333333333334</ele><time>2026-04-06T12:53:08.785Z</time></trkpt><trkpt lat="45.6250171" lon="9.059614"><ele>209.0</ele><time>2026-04-06T12:53:09.784Z</time></trkpt><trkpt lat="45.6251796" lon="9.0596946"><ele>210.0</ele><time>2026-04-06T12:53:10.784Z</time></trkpt><trkpt lat="45.6253449" lon="9.0597786"><ele>211.0</ele><time>2026-04-06T12:53:11.785Z</time></trkpt><trkpt lat="45.6255113" lon="9.0598544"><ele>212.0</ele><time>2026-04-06T12:53:12.785Z</time></trkpt><trkpt lat="45.6256748" lon="9.0599286"><ele>212.0</ele><time>2026-04-06T12:53:13.785Z</time></trkpt><trkpt lat="45.6258434" lon="9.0599977"><ele>212.0</ele><time>2026-04-06T12:53:14.785Z</time></trkpt><trkpt lat="45.626012" lon="9.0600697"><ele>212.0</ele><time>2026-04-06T12:53:15.784Z</time></trkpt><trkpt lat="45.6261867" lon="9.0601258"><ele>213.0</ele><time>2026-04-06T12:53:16.784Z</time></trkpt><trkpt lat="45.6263545" lon="9.060172"><ele>214.0</ele><time>2026-04-06T12:53:17.784Z</time></trkpt><trkpt lat="45.6265203" lon="9.0602073"><ele>215.0</ele><time>2026-04-06T12:53:18.784Z</time></trkpt><trkpt lat="45.626692" lon="9.0602337"><ele>215.0</ele><time>2026-04-06T12:53:19.784Z</time></trkpt><trkpt lat="45.6268672" lon="9.0602579"><ele>215.0</ele><time>2026-04-06T12:53:20.784Z</time></trkpt><trkpt lat="45.6270479" lon="9.0602741"><ele>215.0</ele><time>2026-04-06T12:53:21.785Z</time></trkpt><trkpt lat="45.627231" lon="9.0602833"><ele>216.0</ele><time>2026-04-06T12:53:22.784Z</time></trkpt><trkpt lat="45.6274172" lon="9.0602926"><ele>217.0</ele><time>2026-04-06T12:53:23.784Z</time></trkpt><trkpt lat="45.6275985" lon="9.0602967"><ele>218.0</ele><time>2026-04-06T12:53:24.784Z</time></trkpt><trkpt lat="45.6277766" lon="9.0603012"><ele>218.66666666666669</ele><time>2026-04-06T12:53:25.785Z</time></trkpt><trkpt lat="45.6279494" lon="9.0603045"><ele>219.33333333333331</ele><time>2026-04-06T12:53:26.784Z</time></trkpt><trkpt lat="45.6281084" lon="9.0603118"><ele>220.0</ele><time>2026-04-06T12:53:27.784Z</time></trkpt><trkpt lat="45.6282519" lon="9.0603185"><ele>220.0</ele><time>2026-04-06T12:53:28.784Z</time></trkpt><trkpt lat="45.6283926" lon="9.0603261"><ele>220.0</ele><time>2026-04-06T12:53:29.785Z</time></trkpt><trkpt lat="45.6285175" lon="9.0603323"><ele>220.0</ele><time>2026-04-06T12:53:30.785Z</time></trkpt><trkpt lat="45.6286365" lon="9.0603384"><ele>220.0</ele><time>2026-04-06T12:53:31.785Z</time></trkpt><trkpt lat="45.6287417" lon="9.0603503"><ele>219.4</ele><time>2026-04-06T12:53:32.784Z</time></trkpt><trkpt lat="45.628839" lon="9.060377"><ele>218.8</ele><time>2026-04-06T12:53:33.784Z</time></trkpt><trkpt lat="45.6289327" lon="9.060437"><ele>218.2</ele><time>2026-04-06T12:53:34.785Z</time></trkpt><trkpt lat="45.6290174" lon="9.0605305"><ele>217.6</ele><time>2026-04-06T12:53:35.785Z</time></trkpt><trkpt lat="45.6291163" lon="9.0606069"><ele>217.0</ele><time>2026-04-06T12:53:36.785Z</time></trkpt><trkpt lat="45.6292387" lon="9.0606324"><ele>217.0</ele><time>2026-04-06T12:53:37.785Z</time></trkpt><trkpt lat="45.6293707" lon="9.0605978"><ele>217.0</ele><time>2026-04-06T12:53:38.785Z</time></trkpt><trkpt lat="45.6295055" lon="9.0605151"><ele>217.0</ele><time>2026-04-06T12:53:39.785Z</time></trkpt><trkpt lat="45.6296589" lon="9.0604499"><ele>217.0</ele><time>2026-04-06T12:53:40.785Z</time></trkpt><trkpt lat="45.629846" lon="9.0604311"><ele>216.66666666666666</ele><time>2026-04-06T12:53:41.784Z</time></trkpt><trkpt lat="45.6300327" lon="9.0604428"><ele>216.33333333333331</ele><time>2026-04-06T12:53:42.785Z</time></trkpt><trkpt lat="45.6302142" lon="9.0604626"><ele>216.0</ele><time>2026-04-06T12:53:43.785Z</time></trkpt><trkpt lat="45.6303988" lon="9.0604741"><ele>216.0</ele><time>2026-04-06T12:53:44.785Z</time></trkpt><trkpt lat="45.6305877" lon="9.0604857"><ele>216.0</ele><time>2026-04-06T12:53:45.784Z</time></trkpt><trkpt lat="45.6307668" lon="9.0604996"><ele>216.0</ele><time>2026-04-06T12:53:46.784Z</time></trkpt><trkpt lat="45.630951" lon="9.0605171"><ele>216.0</ele><time>2026-04-06T12:53:47.785Z</time></trkpt><trkpt lat="45.6311379" lon="9.0605299"><ele>216.0</ele><time>2026-04-06T12:53:48.784Z</time></trkpt><trkpt lat="45.6313262" lon="9.060545"><ele>216.0</ele><time>2026-04-06T12:53:49.785Z</time></trkpt><trkpt lat="45.6315161" lon="9.0605578"><ele>216.0</ele><time>2026-04-06T12:53:50.785Z</time></trkpt><trkpt lat="45.6317057" lon="9.060563"><ele>216.0</ele><time>2026-04-06T12:53:51.785Z</time></trkpt><trkpt lat="45.6318952" lon="9.0605654"><ele>216.0</ele><time>2026-04-06T12:53:52.785Z</time></trkpt><trkpt lat="45.6320849" lon="9.0605654"><ele>216.0</ele><time>2026-04-06T12:53:53.784Z</time></trkpt><trkpt lat="45.6322709" lon="9.0605603"><ele>216.0</ele><time>2026-04-06T12:53:54.784Z</time></trkpt><trkpt lat="45.6324562" lon="9.060549"><ele>216.0</ele><time>2026-04-06T12:53:55.785Z</time></trkpt><trkpt lat="45.6326413" lon="9.0605317"><ele>216.66666666666669</ele><time>2026-04-06T12:53:56.784Z</time></trkpt><trkpt lat="45.6328239" lon="9.0605091"><ele>217.33333333333334</ele><time>2026-04-06T12:53:57.785Z</time></trkpt><trkpt lat="45.6330068" lon="9.0604797"><ele>218.0</ele><time>2026-04-06T12:53:58.785Z</time></trkpt><trkpt lat="45.6331891" lon="9.0604454"><ele>218.0</ele><time>2026-04-06T12:53:59.785Z</time></trkpt><trkpt lat="45.6333732" lon="9.0604042"><ele>218.0</ele><time>2026-04-06T12:54:00.785Z</time></trkpt><trkpt lat="45.6335551" lon="9.0603564"><ele>218.0</ele><time>2026-04-06T12:54:01.784Z</time></trkpt><trkpt lat="45.6337355" lon="9.0603031"><ele>217.66666666666669</ele><time>2026-04-06T12:54:02.784Z</time></trkpt><trkpt lat="45.6339158" lon="9.0602422"><ele>217.33333333333331</ele><time>2026-04-06T12:54:03.785Z</time></trkpt><trkpt lat="45.6340956" lon="9.0601803"><ele>217.0</ele><time>2026-04-06T12:54:04.784Z</time></trkpt><trkpt lat="45.6342648" lon="9.0601216"><ele>217.0</ele><time>2026-04-06T12:54:05.784Z</time></trkpt><trkpt lat="45.6344221" lon="9.0600613"><ele>217.0</ele><time>2026-04-06T12:54:06.784Z</time></trkpt><trkpt lat="45.6345712" lon="9.0600026"><ele>217.0</ele><time>2026-04-06T12:54:07.785Z</time></trkpt><trkpt lat="45.6347182" lon="9.0599371"><ele>217.66666666666666</ele><time>2026-04-06T12:54:08.784Z</time></trkpt><trkpt lat="45.6348644" lon="9.0598672"><ele>218.33333333333331</ele><time>2026-04-06T12:54:09.784Z</time></trkpt><trkpt lat="45.635006" lon="9.059793"><ele>219.0</ele><time>2026-04-06T12:54:10.784Z</time></trkpt><trkpt lat="45.6351438" lon="9.0597165"><ele>219.0</ele><time>2026-04-06T12:54:11.784Z</time></trkpt><trkpt lat="45.6352774" lon="9.0596383"><ele>219.0</ele><time>2026-04-06T12:54:12.784Z</time></trkpt><trkpt lat="45.6354142" lon="9.0595541"><ele>219.0</ele><time>2026-04-06T12:54:13.784Z</time></trkpt><trkpt lat="45.6355484" lon="9.0594671"><ele>219.0</ele><time>2026-04-06T12:54:14.784Z</time></trkpt><trkpt lat="45.6356743" lon="9.0593855"><ele>219.0</ele><time>2026-04-06T12:54:15.785Z</time></trkpt><trkpt lat="45.635793" lon="9.0593074"><ele>218.99999999999997</ele><time>2026-04-06T12:54:16.784Z</time></trkpt><trkpt lat="45.6359042" lon="9.0592307"><ele>218.99999999999997</ele><time>2026-04-06T12:54:17.784Z</time></trkpt><trkpt lat="45.6359973" lon="9.0591602"><ele>219.0</ele><time>2026-04-06T12:54:18.785Z</time></trkpt><trkpt lat="45.6360736" lon="9.0591016"><ele>219.0</ele><time>2026-04-06T12:54:19.784Z</time></trkpt><trkpt lat="45.636142" lon="9.0590463"><ele>218.83333333333334</ele><time>2026-04-06T12:54:20.785Z</time></trkpt><trkpt lat="45.6361996" lon="9.0590016"><ele>218.66666666666669</ele><time>2026-04-06T12:54:21.784Z</time></trkpt><trkpt lat="45.6362779" lon="9.0589348"><ele>218.5</ele><time>2026-04-06T12:54:23.784Z</time></trkpt><trkpt lat="45.636338" lon="9.0589024"><ele>218.33333333333334</ele><time>2026-04-06T12:55:10.784Z</time></trkpt><trkpt lat="45.6364015" lon="9.0588377"><ele>218.16666666666669</ele><time>2026-04-06T12:55:12.784Z</time></trkpt><trkpt lat="45.6365116" lon="9.058726"><ele>218.0</ele><time>2026-04-06T12:55:14.783Z</time></trkpt><trkpt lat="45.6365693" lon="9.0586633"><ele>218.0</ele><time>2026-04-06T12:55:15.783Z</time></trkpt><trkpt lat="45.6366321" lon="9.0586054"><ele>218.0</ele><time>2026-04-06T12:55:16.784Z</time></trkpt><trkpt lat="45.6367048" lon="9.0585464"><ele>218.0</ele><time>2026-04-06T12:55:17.784Z</time></trkpt><trkpt lat="45.6367843" lon="9.0584774"><ele>218.0</ele><time>2026-04-06T12:55:18.784Z</time></trkpt><trkpt lat="45.6368761" lon="9.0584005"><ele>218.0</ele><time>2026-04-06T12:55:19.784Z</time></trkpt><trkpt lat="45.6369624" lon="9.0583268"><ele>218.0</ele><time>2026-04-06T12:55:20.783Z</time></trkpt><trkpt lat="45.6370503" lon="9.0582562"><ele>218.0</ele><time>2026-04-06T12:55:21.783Z</time></trkpt><trkpt lat="45.6371451" lon="9.0581758"><ele>218.0</ele><time>2026-04-06T12:55:22.784Z</time></trkpt><trkpt lat="45.6372511" lon="9.0580905"><ele>218.0</ele><time>2026-04-06T12:55:23.784Z</time></trkpt><trkpt lat="45.637363" lon="9.0579909"><ele>218.0</ele><time>2026-04-06T12:55:24.783Z</time></trkpt><trkpt lat="45.6374816" lon="9.0578888"><ele>218.0</ele><time>2026-04-06T12:55:25.783Z</time></trkpt><trkpt lat="45.6375893" lon="9.0577943"><ele>218.0</ele><time>2026-04-06T12:55:26.784Z</time></trkpt><trkpt lat="45.6377074" lon="9.0576946"><ele>218.0</ele><time>2026-04-06T12:55:27.783Z</time></trkpt><trkpt lat="45.6378305" lon="9.057587"><ele>218.66666666666669</ele><time>2026-04-06T12:55:28.784Z</time></trkpt><trkpt lat="45.6379612" lon="9.0574745"><ele>219.33333333333331</ele><time>2026-04-06T12:55:29.783Z</time></trkpt><trkpt lat="45.6381011" lon="9.0573508"><ele>220.0</ele><time>2026-04-06T12:55:30.784Z</time></trkpt><trkpt lat="45.6382458" lon="9.0572252"><ele>220.0</ele><time>2026-04-06T12:55:31.783Z</time></trkpt><trkpt lat="45.638384" lon="9.057106"><ele>220.0</ele><time>2026-04-06T12:55:32.783Z</time></trkpt><trkpt lat="45.6385255" lon="9.0569866"><ele>220.0</ele><time>2026-04-06T12:55:33.783Z</time></trkpt><trkpt lat="45.6386749" lon="9.0568538"><ele>220.0</ele><time>2026-04-06T12:55:34.783Z</time></trkpt><trkpt lat="45.6388319" lon="9.056718"><ele>220.0</ele><time>2026-04-06T12:55:35.783Z</time></trkpt><trkpt lat="45.6389889" lon="9.0565816"><ele>220.0</ele><time>2026-04-06T12:55:36.783Z</time></trkpt><trkpt lat="45.6391419" lon="9.0564475"><ele>220.33333333333331</ele><time>2026-04-06T12:55:37.784Z</time></trkpt><trkpt lat="45.6392988" lon="9.0563134"><ele>220.66666666666669</ele><time>2026-04-06T12:55:38.784Z</time></trkpt><trkpt lat="45.6394591" lon="9.0561781"><ele>221.0</ele><time>2026-04-06T12:55:39.783Z</time></trkpt><trkpt lat="45.6396198" lon="9.0560409"><ele>221.33333333333334</ele><time>2026-04-06T12:55:40.783Z</time></trkpt><trkpt lat="45.639777" lon="9.0559013"><ele>221.66666666666669</ele><time>2026-04-06T12:55:41.784Z</time></trkpt><trkpt lat="45.6399383" lon="9.0557598"><ele>222.0</ele><time>2026-04-06T12:55:42.784Z</time></trkpt><trkpt lat="45.6401023" lon="9.0556152"><ele>222.66666666666669</ele><time>2026-04-06T12:55:43.784Z</time></trkpt><trkpt lat="45.6402689" lon="9.055471"><ele>223.33333333333334</ele><time>2026-04-06T12:55:44.783Z</time></trkpt><trkpt lat="45.6404354" lon="9.0553254"><ele>224.0</ele><time>2026-04-06T12:55:45.784Z</time></trkpt><trkpt lat="45.6406045" lon="9.0551802"><ele>224.0</ele><time>2026-04-06T12:55:46.784Z</time></trkpt><trkpt lat="45.6407744" lon="9.0550327"><ele>224.0</ele><time>2026-04-06T12:55:47.783Z</time></trkpt><trkpt lat="45.6409461" lon="9.0548817"><ele>224.0</ele><time>2026-04-06T12:55:48.784Z</time></trkpt><trkpt lat="45.6411192" lon="9.0547323"><ele>224.66666666666669</ele><time>2026-04-06T12:55:49.784Z</time></trkpt><trkpt lat="45.6412932" lon="9.0545824"><ele>225.33333333333331</ele><time>2026-04-06T12:55:50.783Z</time></trkpt><trkpt lat="45.6414684" lon="9.0544348"><ele>226.0</ele><time>2026-04-06T12:55:51.783Z</time></trkpt><trkpt lat="45.6416405" lon="9.0542857"><ele>226.0</ele><time>2026-04-06T12:55:52.784Z</time></trkpt><trkpt lat="45.6418137" lon="9.0541311"><ele>226.0</ele><time>2026-04-06T12:55:53.783Z</time></trkpt><trkpt lat="45.6419843" lon="9.0539821"><ele>226.0</ele><time>2026-04-06T12:55:54.783Z</time></trkpt><trkpt lat="45.6421552" lon="9.0538345"><ele>226.0</ele><time>2026-04-06T12:55:55.783Z</time></trkpt><trkpt lat="45.6423235" lon="9.0536874"><ele>226.0</ele><time>2026-04-06T12:55:56.784Z</time></trkpt><trkpt lat="45.6424949" lon="9.0535404"><ele>226.0</ele><time>2026-04-06T12:55:57.784Z</time></trkpt><trkpt lat="45.6426633" lon="9.0533937"><ele>225.66666666666666</ele><time>2026-04-06T12:55:58.784Z</time></trkpt><trkpt lat="45.642835" lon="9.0532452"><ele>225.33333333333331</ele><time>2026-04-06T12:55:59.783Z</time></trkpt><trkpt lat="45.6430009" lon="9.053101"><ele>225.0</ele><time>2026-04-06T12:56:00.783Z</time></trkpt><trkpt lat="45.6431675" lon="9.052957"><ele>225.0</ele><time>2026-04-06T12:56:01.783Z</time></trkpt><trkpt lat="45.6433327" lon="9.0528134"><ele>225.0</ele><time>2026-04-06T12:56:02.783Z</time></trkpt><trkpt lat="45.6434992" lon="9.0526712"><ele>225.0</ele><time>2026-04-06T12:56:03.783Z</time></trkpt><trkpt lat="45.6436679" lon="9.0525342"><ele>225.0</ele><time>2026-04-06T12:56:04.784Z</time></trkpt><trkpt lat="45.6438353" lon="9.0524165"><ele>225.0</ele><time>2026-04-06T12:56:05.783Z</time></trkpt><trkpt lat="45.6440048" lon="9.0523101"><ele>225.0</ele><time>2026-04-06T12:56:06.783Z</time></trkpt><trkpt lat="45.6441818" lon="9.0522094"><ele>225.0</ele><time>2026-04-06T12:56:07.784Z</time></trkpt><trkpt lat="45.6443575" lon="9.0521227"><ele>225.0</ele><time>2026-04-06T12:56:08.783Z</time></trkpt><trkpt lat="45.6445382" lon="9.0520438"><ele>225.0</ele><time>2026-04-06T12:56:09.783Z</time></trkpt><trkpt lat="45.644721" lon="9.0519748"><ele>225.33333333333331</ele><time>2026-04-06T12:56:10.784Z</time></trkpt><trkpt lat="45.6449054" lon="9.05192"><ele>225.66666666666666</ele><time>2026-04-06T12:56:11.783Z</time></trkpt><trkpt lat="45.6450907" lon="9.0518741"><ele>226.0</ele><time>2026-04-06T12:56:12.784Z</time></trkpt><trkpt lat="45.6452742" lon="9.0518417"><ele>227.0</ele><time>2026-04-06T12:56:13.784Z</time></trkpt><trkpt lat="45.6454579" lon="9.0518247"><ele>228.0</ele><time>2026-04-06T12:56:14.783Z</time></trkpt><trkpt lat="45.6456375" lon="9.0518165"><ele>229.0</ele><time>2026-04-06T12:56:15.784Z</time></trkpt><trkpt lat="45.6458181" lon="9.051824"><ele>229.0</ele><time>2026-04-06T12:56:16.784Z</time></trkpt><trkpt lat="45.6459973" lon="9.0518497"><ele>229.0</ele><time>2026-04-06T12:56:17.784Z</time></trkpt><trkpt lat="45.6461661" lon="9.051881"><ele>229.0</ele><time>2026-04-06T12:56:18.783Z</time></trkpt><trkpt lat="45.6463202" lon="9.05191"><ele>229.25</ele><time>2026-04-06T12:56:19.783Z</time></trkpt><trkpt lat="45.6464628" lon="9.0519235"><ele>229.5</ele><time>2026-04-06T12:56:20.783Z</time></trkpt><trkpt lat="45.6465935" lon="9.0519062"><ele>229.75</ele><time>2026-04-06T12:56:21.784Z</time></trkpt><trkpt lat="45.6467133" lon="9.0518573"><ele>230.0</ele><time>2026-04-06T12:56:22.784Z</time></trkpt><trkpt lat="45.6468233" lon="9.0517882"><ele>230.0</ele><time>2026-04-06T12:56:23.784Z</time></trkpt><trkpt lat="45.6469426" lon="9.0517257"><ele>230.0</ele><time>2026-04-06T12:56:24.783Z</time></trkpt><trkpt lat="45.6470661" lon="9.0516785"><ele>230.0</ele><time>2026-04-06T12:56:25.783Z</time></trkpt><trkpt lat="45.6471765" lon="9.0516287"><ele>230.0</ele><time>2026-04-06T12:56:26.784Z</time></trkpt><trkpt lat="45.6472795" lon="9.0516213"><ele>229.8</ele><time>2026-04-06T12:56:27.783Z</time></trkpt><trkpt lat="45.647386" lon="9.0516603"><ele>229.6</ele><time>2026-04-06T12:56:28.783Z</time></trkpt><trkpt lat="45.6474757" lon="9.0517439"><ele>229.39999999999998</ele><time>2026-04-06T12:56:29.783Z</time></trkpt><trkpt lat="45.6475457" lon="9.0518665"><ele>229.2</ele><time>2026-04-06T12:56:30.784Z</time></trkpt><trkpt lat="45.6476018" lon="9.0519928"><ele>229.0</ele><time>2026-04-06T12:56:31.783Z</time></trkpt><trkpt lat="45.6476763" lon="9.0520901"><ele>229.0</ele><time>2026-04-06T12:56:32.783Z</time></trkpt><trkpt lat="45.6477776" lon="9.0521513"><ele>229.0</ele><time>2026-04-06T12:56:33.783Z</time></trkpt><trkpt lat="45.6479001" lon="9.0521559"><ele>229.0</ele><time>2026-04-06T12:56:34.783Z</time></trkpt><trkpt lat="45.648043" lon="9.0521596"><ele>229.0</ele><time>2026-04-06T12:56:35.783Z</time></trkpt><trkpt lat="45.6482057" lon="9.0522257"><ele>229.0</ele><time>2026-04-06T12:56:36.783Z</time></trkpt><trkpt lat="45.6483836" lon="9.0522999"><ele>229.0</ele><time>2026-04-06T12:56:37.783Z</time></trkpt><trkpt lat="45.6485566" lon="9.0523549"><ele>229.0</ele><time>2026-04-06T12:56:38.783Z</time></trkpt><trkpt lat="45.6487488" lon="9.0523899"><ele>229.0</ele><time>2026-04-06T12:56:39.784Z</time></trkpt><trkpt lat="45.6489303" lon="9.0524138"><ele>229.0</ele><time>2026-04-06T12:56:40.784Z</time></trkpt><trkpt lat="45.6491119" lon="9.0524256"><ele>229.0</ele><time>2026-04-06T12:56:41.783Z</time></trkpt><trkpt lat="45.6492916" lon="9.0524334"><ele>228.66666666666666</ele><time>2026-04-06T12:56:42.783Z</time></trkpt><trkpt lat="45.6494726" lon="9.0524353"><ele>228.33333333333331</ele><time>2026-04-06T12:56:43.783Z</time></trkpt><trkpt lat="45.6496474" lon="9.0524418"><ele>228.0</ele><time>2026-04-06T12:56:44.784Z</time></trkpt><trkpt lat="45.6498217" lon="9.0524496"><ele>228.0</ele><time>2026-04-06T12:56:45.784Z</time></trkpt><trkpt lat="45.6499915" lon="9.052456"><ele>228.0</ele><time>2026-04-06T12:56:46.783Z</time></trkpt><trkpt lat="45.6501605" lon="9.0524649"><ele>228.0</ele><time>2026-04-06T12:56:47.783Z</time></trkpt><trkpt lat="45.650331" lon="9.0524712"><ele>228.66666666666669</ele><time>2026-04-06T12:56:48.784Z</time></trkpt><trkpt lat="45.6505014" lon="9.0524773"><ele>229.33333333333334</ele><time>2026-04-06T12:56:49.783Z</time></trkpt><trkpt lat="45.6506688" lon="9.0524873"><ele>230.0</ele><time>2026-04-06T12:56:50.783Z</time></trkpt><trkpt lat="45.6508364" lon="9.0524954"><ele>230.0</ele><time>2026-04-06T12:56:51.783Z</time></trkpt><trkpt lat="45.6509978" lon="9.0525028"><ele>230.0</ele><time>2026-04-06T12:56:52.784Z</time></trkpt><trkpt lat="45.6511489" lon="9.0525115"><ele>230.0</ele><time>2026-04-06T12:56:53.783Z</time></trkpt><trkpt lat="45.6512891" lon="9.0525266"><ele>230.8</ele><time>2026-04-06T12:56:54.783Z</time></trkpt><trkpt lat="45.6514066" lon="9.0525557"><ele>231.6</ele><time>2026-04-06T12:56:55.783Z</time></trkpt><trkpt lat="45.6515067" lon="9.0526136"><ele>232.39999999999998</ele><time>2026-04-06T12:56:56.784Z</time></trkpt><trkpt lat="45.6515865" lon="9.0527116"><ele>233.2</ele><time>2026-04-06T12:56:57.784Z</time></trkpt><trkpt lat="45.651671" lon="9.0528047"><ele>234.0</ele><time>2026-04-06T12:56:58.784Z</time></trkpt><trkpt lat="45.6517785" lon="9.0528401"><ele>234.0</ele><time>2026-04-06T12:56:59.784Z</time></trkpt><trkpt lat="45.6518959" lon="9.0528105"><ele>234.0</ele><time>2026-04-06T12:57:00.784Z</time></trkpt><trkpt lat="45.6520293" lon="9.0527286"><ele>234.0</ele><time>2026-04-06T12:57:01.784Z</time></trkpt><trkpt lat="45.6521873" lon="9.0526543"><ele>234.0</ele><time>2026-04-06T12:57:02.783Z</time></trkpt><trkpt lat="45.6523402" lon="9.0525906"><ele>234.0</ele><time>2026-04-06T12:57:03.784Z</time></trkpt><trkpt lat="45.6524933" lon="9.0525262"><ele>234.0</ele><time>2026-04-06T12:57:04.783Z</time></trkpt><trkpt lat="45.6526522" lon="9.0524687"><ele>234.0</ele><time>2026-04-06T12:57:05.784Z</time></trkpt><trkpt lat="45.6528188" lon="9.0524178"><ele>234.0</ele><time>2026-04-06T12:57:06.783Z</time></trkpt><trkpt lat="45.6529953" lon="9.0523778"><ele>234.0</ele><time>2026-04-06T12:57:07.783Z</time></trkpt><trkpt lat="45.6531723" lon="9.0523458"><ele>234.0</ele><time>2026-04-06T12:57:08.783Z</time></trkpt><trkpt lat="45.6533415" lon="9.0523203"><ele>234.0</ele><time>2026-04-06T12:57:09.783Z</time></trkpt><trkpt lat="45.6535144" lon="9.0522992"><ele>234.0</ele><time>2026-04-06T12:57:10.784Z</time></trkpt><trkpt lat="45.6536874" lon="9.0522868"><ele>234.0</ele><time>2026-04-06T12:57:11.783Z</time></trkpt><trkpt lat="45.6538628" lon="9.0522832"><ele>234.66666666666669</ele><time>2026-04-06T12:57:12.783Z</time></trkpt><trkpt lat="45.6540374" lon="9.0522882"><ele>235.33333333333334</ele><time>2026-04-06T12:57:13.783Z</time></trkpt><trkpt lat="45.654213" lon="9.0522984"><ele>236.0</ele><time>2026-04-06T12:57:14.783Z</time></trkpt><trkpt lat="45.6543834" lon="9.0523117"><ele>236.33333333333334</ele><time>2026-04-06T12:57:15.784Z</time></trkpt><trkpt lat="45.6545589" lon="9.0523267"><ele>236.66666666666669</ele><time>2026-04-06T12:57:16.783Z</time></trkpt><trkpt lat="45.6547277" lon="9.0523449"><ele>237.0</ele><time>2026-04-06T12:57:17.784Z</time></trkpt><trkpt lat="45.6548978" lon="9.0523572"><ele>237.0</ele><time>2026-04-06T12:57:18.784Z</time></trkpt><trkpt lat="45.6550734" lon="9.0523763"><ele>237.0</ele><time>2026-04-06T12:57:19.783Z</time></trkpt><trkpt lat="45.6552462" lon="9.0523953"><ele>237.0</ele><time>2026-04-06T12:57:20.784Z</time></trkpt><trkpt lat="45.6554234" lon="9.0524119"><ele>236.33333333333331</ele><time>2026-04-06T12:57:21.783Z</time></trkpt><trkpt lat="45.6556015" lon="9.0524278"><ele>235.66666666666666</ele><time>2026-04-06T12:57:22.783Z</time></trkpt><trkpt lat="45.6557806" lon="9.0524433"><ele>235.0</ele><time>2026-04-06T12:57:23.783Z</time></trkpt><trkpt lat="45.6559598" lon="9.0524629"><ele>235.0</ele><time>2026-04-06T12:57:24.784Z</time></trkpt><trkpt lat="45.6561398" lon="9.0524831"><ele>235.0</ele><time>2026-04-06T12:57:25.783Z</time></trkpt><trkpt lat="45.6563193" lon="9.0524999"><ele>235.0</ele><time>2026-04-06T12:57:26.783Z</time></trkpt><trkpt lat="45.6564956" lon="9.0525212"><ele>235.0</ele><time>2026-04-06T12:57:27.784Z</time></trkpt><trkpt lat="45.6566583" lon="9.0525344"><ele>235.0</ele><time>2026-04-06T12:57:28.783Z</time></trkpt><trkpt lat="45.6568056" lon="9.0525441"><ele>235.0</ele><time>2026-04-06T12:57:29.783Z</time></trkpt><trkpt lat="45.6569334" lon="9.0525591"><ele>235.0</ele><time>2026-04-06T12:57:30.783Z</time></trkpt><trkpt lat="45.6570479" lon="9.0526033"><ele>235.75</ele><time>2026-04-06T12:57:31.783Z</time></trkpt><trkpt lat="45.6571485" lon="9.0526985"><ele>236.5</ele><time>2026-04-06T12:57:32.782Z</time></trkpt><trkpt lat="45.6572387" lon="9.0528331"><ele>237.25</ele><time>2026-04-06T12:57:33.782Z</time></trkpt><trkpt lat="45.6573262" lon="9.0529974"><ele>238.0</ele><time>2026-04-06T12:57:34.783Z</time></trkpt><trkpt lat="45.6573958" lon="9.0531903"><ele>238.66666666666666</ele><time>2026-04-06T12:57:35.782Z</time></trkpt><trkpt lat="45.6574308" lon="9.0534233"><ele>239.33333333333331</ele><time>2026-04-06T12:57:36.783Z</time></trkpt><trkpt lat="45.6574444" lon="9.0536933"><ele>240.0</ele><time>2026-04-06T12:57:37.782Z</time></trkpt><trkpt lat="45.6574427" lon="9.0539537"><ele>239.66666666666669</ele><time>2026-04-06T12:57:38.782Z</time></trkpt><trkpt lat="45.6574465" lon="9.0542123"><ele>239.33333333333334</ele><time>2026-04-06T12:57:39.783Z</time></trkpt><trkpt lat="45.657457" lon="9.0544836"><ele>239.0</ele><time>2026-04-06T12:57:40.782Z</time></trkpt><trkpt lat="45.6574841" lon="9.0547549"><ele>238.0</ele><time>2026-04-06T12:57:41.782Z</time></trkpt><trkpt lat="45.657527" lon="9.055005"><ele>237.0</ele><time>2026-04-06T12:57:42.782Z</time></trkpt><trkpt lat="45.6575832" lon="9.0552624"><ele>236.0</ele><time>2026-04-06T12:57:43.783Z</time></trkpt><trkpt lat="45.6576401" lon="9.0555242"><ele>236.33333333333334</ele><time>2026-04-06T12:57:44.782Z</time></trkpt><trkpt lat="45.657686" lon="9.0557911"><ele>236.66666666666669</ele><time>2026-04-06T12:57:45.782Z</time></trkpt><trkpt lat="45.6577151" lon="9.0560631"><ele>237.0</ele><time>2026-04-06T12:57:46.783Z</time></trkpt><trkpt lat="45.6577251" lon="9.0563384"><ele>237.0</ele><time>2026-04-06T12:57:47.783Z</time></trkpt><trkpt lat="45.6577157" lon="9.0566151"><ele>237.0</ele><time>2026-04-06T12:57:48.783Z</time></trkpt><trkpt lat="45.6576895" lon="9.0568878"><ele>237.0</ele><time>2026-04-06T12:57:49.782Z</time></trkpt><trkpt lat="45.6576499" lon="9.0571667"><ele>237.0</ele><time>2026-04-06T12:57:50.782Z</time></trkpt><trkpt lat="45.6576076" lon="9.0574511"><ele>237.0</ele><time>2026-04-06T12:57:51.782Z</time></trkpt><trkpt lat="45.6575657" lon="9.0577378"><ele>237.0</ele><time>2026-04-06T12:57:52.783Z</time></trkpt><trkpt lat="45.6575329" lon="9.0580292"><ele>237.33333333333331</ele><time>2026-04-06T12:57:53.782Z</time></trkpt><trkpt lat="45.6575109" lon="9.0583288"><ele>237.66666666666666</ele><time>2026-04-06T12:57:54.783Z</time></trkpt><trkpt lat="45.6575069" lon="9.0586381"><ele>238.0</ele><time>2026-04-06T12:57:55.782Z</time></trkpt><trkpt lat="45.6575188" lon="9.0589528"><ele>237.0</ele><time>2026-04-06T12:57:56.783Z</time></trkpt><trkpt lat="45.657538" lon="9.0592716"><ele>236.0</ele><time>2026-04-06T12:57:57.783Z</time></trkpt><trkpt lat="45.6575539" lon="9.0595755"><ele>235.0</ele><time>2026-04-06T12:57:58.783Z</time></trkpt><trkpt lat="45.6575659" lon="9.0598619"><ele>235.66666666666666</ele><time>2026-04-06T12:57:59.782Z</time></trkpt><trkpt lat="45.6575724" lon="9.0601216"><ele>236.33333333333331</ele><time>2026-04-06T12:58:00.783Z</time></trkpt><trkpt lat="45.657578" lon="9.0603528"><ele>237.0</ele><time>2026-04-06T12:58:01.782Z</time></trkpt><trkpt lat="45.6575868" lon="9.060552"><ele>237.0</ele><time>2026-04-06T12:58:02.783Z</time></trkpt><trkpt lat="45.6575945" lon="9.060726"><ele>237.0</ele><time>2026-04-06T12:58:03.783Z</time></trkpt><trkpt lat="45.6575926" lon="9.0608794"><ele>237.0</ele><time>2026-04-06T12:58:04.783Z</time></trkpt><trkpt lat="45.6575734" lon="9.0610186"><ele>237.0</ele><time>2026-04-06T12:58:05.783Z</time></trkpt><trkpt lat="45.6575334" lon="9.0611498"><ele>237.0</ele><time>2026-04-06T12:58:06.782Z</time></trkpt><trkpt lat="45.6574864" lon="9.0612859"><ele>237.0</ele><time>2026-04-06T12:58:07.782Z</time></trkpt><trkpt lat="45.6574636" lon="9.0614368"><ele>237.0</ele><time>2026-04-06T12:58:08.783Z</time></trkpt><trkpt lat="45.6574844" lon="9.0615942"><ele>237.0</ele><time>2026-04-06T12:58:09.782Z</time></trkpt><trkpt lat="45.6575474" lon="9.0617289"><ele>237.0</ele><time>2026-04-06T12:58:10.783Z</time></trkpt><trkpt lat="45.6576489" lon="9.061814"><ele>237.0</ele><time>2026-04-06T12:58:11.782Z</time></trkpt><trkpt lat="45.6577749" lon="9.0618249"><ele>237.0</ele><time>2026-04-06T12:58:12.783Z</time></trkpt><trkpt lat="45.6579144" lon="9.0617847"><ele>237.0</ele><time>2026-04-06T12:58:13.782Z</time></trkpt><trkpt lat="45.6580574" lon="9.0617655"><ele>237.0</ele><time>2026-04-06T12:58:14.783Z</time></trkpt><trkpt lat="45.6582236" lon="9.0617932"><ele>237.0</ele><time>2026-04-06T12:58:15.782Z</time></trkpt><trkpt lat="45.6584067" lon="9.0618599"><ele>237.0</ele><time>2026-04-06T12:58:16.782Z</time></trkpt><trkpt lat="45.6585854" lon="9.0619327"><ele>237.0</ele><time>2026-04-06T12:58:17.782Z</time></trkpt><trkpt lat="45.658777" lon="9.0619957"><ele>237.33333333333331</ele><time>2026-04-06T12:58:18.783Z</time></trkpt><trkpt lat="45.6589712" lon="9.0620506"><ele>237.66666666666666</ele><time>2026-04-06T12:58:19.783Z</time></trkpt><trkpt lat="45.6591528" lon="9.0621066"><ele>238.0</ele><time>2026-04-06T12:58:20.782Z</time></trkpt><trkpt lat="45.6593379" lon="9.0621614"><ele>237.33333333333331</ele><time>2026-04-06T12:58:21.783Z</time></trkpt><trkpt lat="45.6595223" lon="9.0622098"><ele>236.66666666666669</ele><time>2026-04-06T12:58:22.783Z</time></trkpt><trkpt lat="45.6597031" lon="9.0622549"><ele>236.0</ele><time>2026-04-06T12:58:23.783Z</time></trkpt><trkpt lat="45.6598858" lon="9.0623041"><ele>236.0</ele><time>2026-04-06T12:58:24.783Z</time></trkpt><trkpt lat="45.6600684" lon="9.0623541"><ele>236.0</ele><time>2026-04-06T12:58:25.782Z</time></trkpt><trkpt lat="45.6602508" lon="9.0624093"><ele>236.0</ele><time>2026-04-06T12:58:26.783Z</time></trkpt><trkpt lat="45.660433" lon="9.0624604"><ele>237.0</ele><time>2026-04-06T12:58:27.783Z</time></trkpt><trkpt lat="45.6606164" lon="9.0625066"><ele>238.0</ele><time>2026-04-06T12:58:28.782Z</time></trkpt><trkpt lat="45.6608054" lon="9.062549"><ele>239.0</ele><time>2026-04-06T12:58:29.782Z</time></trkpt><trkpt lat="45.6609972" lon="9.0625812"><ele>239.0</ele><time>2026-04-06T12:58:30.783Z</time></trkpt><trkpt lat="45.6611943" lon="9.0626075"><ele>239.0</ele><time>2026-04-06T12:58:31.783Z</time></trkpt><trkpt lat="45.6613831" lon="9.0626259"><ele>239.0</ele><time>2026-04-06T12:58:32.783Z</time></trkpt><trkpt lat="45.6615683" lon="9.0626382"><ele>239.0</ele><time>2026-04-06T12:58:33.782Z</time></trkpt><trkpt lat="45.6617518" lon="9.0626477"><ele>239.0</ele><time>2026-04-06T12:58:34.783Z</time></trkpt><trkpt lat="45.6619373" lon="9.0626477"><ele>239.0</ele><time>2026-04-06T12:58:35.782Z</time></trkpt><trkpt lat="45.6621249" lon="9.0626454"><ele>240.33333333333334</ele><time>2026-04-06T12:58:36.782Z</time></trkpt><trkpt lat="45.6623084" lon="9.0626405"><ele>241.66666666666669</ele><time>2026-04-06T12:58:37.782Z</time></trkpt><trkpt lat="45.6624926" lon="9.0626253"><ele>243.0</ele><time>2026-04-06T12:58:38.783Z</time></trkpt><trkpt lat="45.6626772" lon="9.0626075"><ele>242.66666666666669</ele><time>2026-04-06T12:58:39.782Z</time></trkpt><trkpt lat="45.6628619" lon="9.0625878"><ele>242.33333333333334</ele><time>2026-04-06T12:58:40.782Z</time></trkpt><trkpt lat="45.6630425" lon="9.0625626"><ele>242.0</ele><time>2026-04-06T12:58:41.782Z</time></trkpt><trkpt lat="45.6632232" lon="9.0625313"><ele>242.0</ele><time>2026-04-06T12:58:42.783Z</time></trkpt><trkpt lat="45.6634033" lon="9.0625041"><ele>242.0</ele><time>2026-04-06T12:58:43.782Z</time></trkpt><trkpt lat="45.6635865" lon="9.0624765"><ele>242.0</ele><time>2026-04-06T12:58:44.783Z</time></trkpt><trkpt lat="45.6637682" lon="9.062447"><ele>242.0</ele><time>2026-04-06T12:58:45.782Z</time></trkpt><trkpt lat="45.663948" lon="9.0624168"><ele>242.0</ele><time>2026-04-06T12:58:46.783Z</time></trkpt><trkpt lat="45.6641285" lon="9.062385"><ele>242.0</ele><time>2026-04-06T12:58:47.782Z</time></trkpt><trkpt lat="45.6643096" lon="9.0623547"><ele>242.0</ele><time>2026-04-06T12:58:48.782Z</time></trkpt><trkpt lat="45.6644874" lon="9.0623307"><ele>242.0</ele><time>2026-04-06T12:58:49.781Z</time></trkpt><trkpt lat="45.6646661" lon="9.06231"><ele>242.0</ele><time>2026-04-06T12:58:50.783Z</time></trkpt><trkpt lat="45.6648484" lon="9.0622835"><ele>242.0</ele><time>2026-04-06T12:58:51.782Z</time></trkpt><trkpt lat="45.66503" lon="9.0622592"><ele>242.0</ele><time>2026-04-06T12:58:52.782Z</time></trkpt><trkpt lat="45.665213" lon="9.0622327"><ele>242.0</ele><time>2026-04-06T12:58:53.783Z</time></trkpt><trkpt lat="45.665401" lon="9.0622071"><ele>242.0</ele><time>2026-04-06T12:58:54.782Z</time></trkpt><trkpt lat="45.6655928" lon="9.0621786"><ele>242.0</ele><time>2026-04-06T12:58:55.782Z</time></trkpt><trkpt lat="45.6657846" lon="9.0621523"><ele>242.0</ele><time>2026-04-06T12:58:56.782Z</time></trkpt><trkpt lat="45.6659771" lon="9.0621231"><ele>243.66666666666669</ele><time>2026-04-06T12:58:57.782Z</time></trkpt><trkpt lat="45.6661709" lon="9.0620905"><ele>245.33333333333331</ele><time>2026-04-06T12:58:58.783Z</time></trkpt><trkpt lat="45.6663674" lon="9.0620608"><ele>247.0</ele><time>2026-04-06T12:58:59.782Z</time></trkpt><trkpt lat="45.6665635" lon="9.0620393"><ele>247.0</ele><time>2026-04-06T12:59:00.783Z</time></trkpt><trkpt lat="45.6667633" lon="9.0620182"><ele>247.0</ele><time>2026-04-06T12:59:01.782Z</time></trkpt><trkpt lat="45.6669635" lon="9.0619995"><ele>247.0</ele><time>2026-04-06T12:59:02.782Z</time></trkpt><trkpt lat="45.667162" lon="9.0619836"><ele>247.33333333333331</ele><time>2026-04-06T12:59:03.783Z</time></trkpt><trkpt lat="45.6673633" lon="9.0619731"><ele>247.66666666666669</ele><time>2026-04-06T12:59:04.782Z</time></trkpt><trkpt lat="45.6675638" lon="9.06197"><ele>248.0</ele><time>2026-04-06T12:59:05.782Z</time></trkpt><trkpt lat="45.6677671" lon="9.0619749"><ele>248.66666666666669</ele><time>2026-04-06T12:59:06.782Z</time></trkpt><trkpt lat="45.66797" lon="9.0619877"><ele>249.33333333333331</ele><time>2026-04-06T12:59:07.783Z</time></trkpt><trkpt lat="45.6681713" lon="9.0620086"><ele>250.0</ele><time>2026-04-06T12:59:08.782Z</time></trkpt><trkpt lat="45.6683696" lon="9.0620381"><ele>250.0</ele><time>2026-04-06T12:59:09.782Z</time></trkpt><trkpt lat="45.6685706" lon="9.0620764"><ele>250.0</ele><time>2026-04-06T12:59:10.783Z</time></trkpt><trkpt lat="45.6687651" lon="9.0621205"><ele>250.0</ele><time>2026-04-06T12:59:11.782Z</time></trkpt><trkpt lat="45.6689596" lon="9.0621688"><ele>250.33333333333331</ele><time>2026-04-06T12:59:12.783Z</time></trkpt><trkpt lat="45.6691553" lon="9.0622166"><ele>250.66666666666669</ele><time>2026-04-06T12:59:13.782Z</time></trkpt><trkpt lat="45.6693481" lon="9.0622699"><ele>251.0</ele><time>2026-04-06T12:59:14.783Z</time></trkpt><trkpt lat="45.6695389" lon="9.0623331"><ele>251.33333333333334</ele><time>2026-04-06T12:59:15.783Z</time></trkpt><trkpt lat="45.6697259" lon="9.0623953"><ele>251.66666666666669</ele><time>2026-04-06T12:59:16.782Z</time></trkpt><trkpt lat="45.6699127" lon="9.0624614"><ele>252.0</ele><time>2026-04-06T12:59:17.783Z</time></trkpt><trkpt lat="45.6701015" lon="9.0625245"><ele>252.33333333333331</ele><time>2026-04-06T12:59:18.783Z</time></trkpt><trkpt lat="45.6702888" lon="9.0625882"><ele>252.66666666666666</ele><time>2026-04-06T12:59:19.782Z</time></trkpt><trkpt lat="45.6704741" lon="9.0626562"><ele>253.0</ele><time>2026-04-06T12:59:20.782Z</time></trkpt><trkpt lat="45.6706634" lon="9.0627189"><ele>253.0</ele><time>2026-04-06T12:59:21.782Z</time></trkpt><trkpt lat="45.6708514" lon="9.0627838"><ele>253.0</ele><time>2026-04-06T12:59:22.782Z</time></trkpt><trkpt lat="45.6710397" lon="9.0628471"><ele>253.0</ele><time>2026-04-06T12:59:23.783Z</time></trkpt><trkpt lat="45.6712293" lon="9.0629143"><ele>253.0</ele><time>2026-04-06T12:59:24.781Z</time></trkpt><trkpt lat="45.671415" lon="9.0629789"><ele>253.0</ele><time>2026-04-06T12:59:25.782Z</time></trkpt><trkpt lat="45.6715902" lon="9.0630388"><ele>253.0</ele><time>2026-04-06T12:59:26.782Z</time></trkpt><trkpt lat="45.6717549" lon="9.0630912"><ele>253.0</ele><time>2026-04-06T12:59:27.782Z</time></trkpt><trkpt lat="45.6719147" lon="9.0631418"><ele>253.0</ele><time>2026-04-06T12:59:28.782Z</time></trkpt><trkpt lat="45.6720606" lon="9.0631911"><ele>253.0</ele><time>2026-04-06T12:59:29.782Z</time></trkpt><trkpt lat="45.6721947" lon="9.0632376"><ele>253.0</ele><time>2026-04-06T12:59:30.783Z</time></trkpt><trkpt lat="45.6723179" lon="9.0632788"><ele>253.0</ele><time>2026-04-06T12:59:31.783Z</time></trkpt><trkpt lat="45.6724247" lon="9.063314"><ele>253.0</ele><time>2026-04-06T12:59:32.783Z</time></trkpt><trkpt lat="45.6725234" lon="9.0633624"><ele>253.0</ele><time>2026-04-06T12:59:33.783Z</time></trkpt><trkpt lat="45.6726058" lon="9.0634341"><ele>253.0</ele><time>2026-04-06T12:59:34.783Z</time></trkpt><trkpt lat="45.6726839" lon="9.0635316"><ele>253.0</ele><time>2026-04-06T12:59:35.782Z</time></trkpt><trkpt lat="45.6727546" lon="9.0636543"><ele>253.0</ele><time>2026-04-06T12:59:36.783Z</time></trkpt><trkpt lat="45.6728237" lon="9.0637938"><ele>253.0</ele><time>2026-04-06T12:59:37.782Z</time></trkpt><trkpt lat="45.6728726" lon="9.0639545"><ele>253.0</ele><time>2026-04-06T12:59:38.783Z</time></trkpt><trkpt lat="45.6728946" lon="9.0641435"><ele>253.0</ele><time>2026-04-06T12:59:39.782Z</time></trkpt><trkpt lat="45.6728952" lon="9.0643568"><ele>253.0</ele><time>2026-04-06T12:59:40.783Z</time></trkpt><trkpt lat="45.6728872" lon="9.0645878"><ele>253.0</ele><time>2026-04-06T12:59:41.782Z</time></trkpt><trkpt lat="45.672877" lon="9.0648174"><ele>253.33333333333331</ele><time>2026-04-06T12:59:42.782Z</time></trkpt><trkpt lat="45.6728711" lon="9.0650497"><ele>253.66666666666669</ele><time>2026-04-06T12:59:43.783Z</time></trkpt><trkpt lat="45.672862" lon="9.0652936"><ele>254.0</ele><time>2026-04-06T12:59:44.783Z</time></trkpt><trkpt lat="45.6728527" lon="9.0655539"><ele>255.0</ele><time>2026-04-06T12:59:45.782Z</time></trkpt><trkpt lat="45.6728436" lon="9.0658247"><ele>256.0</ele><time>2026-04-06T12:59:46.783Z</time></trkpt><trkpt lat="45.6728357" lon="9.066099"><ele>257.0</ele><time>2026-04-06T12:59:47.783Z</time></trkpt><trkpt lat="45.6728267" lon="9.0663563"><ele>255.66666666666669</ele><time>2026-04-06T12:59:48.782Z</time></trkpt><trkpt lat="45.6728175" lon="9.0666159"><ele>254.33333333333331</ele><time>2026-04-06T12:59:49.782Z</time></trkpt><trkpt lat="45.6728051" lon="9.0668803"><ele>253.0</ele><time>2026-04-06T12:59:50.781Z</time></trkpt><trkpt lat="45.6727966" lon="9.0671474"><ele>253.0</ele><time>2026-04-06T12:59:51.782Z</time></trkpt><trkpt lat="45.6727861" lon="9.0674193"><ele>253.0</ele><time>2026-04-06T12:59:52.782Z</time></trkpt><trkpt lat="45.672776" lon="9.0676915"><ele>253.0</ele><time>2026-04-06T12:59:53.781Z</time></trkpt><trkpt lat="45.6727657" lon="9.0679551"><ele>252.66666666666666</ele><time>2026-04-06T12:59:54.782Z</time></trkpt><trkpt lat="45.6727558" lon="9.0682039"><ele>252.33333333333331</ele><time>2026-04-06T12:59:55.782Z</time></trkpt><trkpt lat="45.6727458" lon="9.068435"><ele>252.0</ele><time>2026-04-06T12:59:56.781Z</time></trkpt><trkpt lat="45.6727368" lon="9.068641"><ele>252.0</ele><time>2026-04-06T12:59:57.781Z</time></trkpt><trkpt lat="45.6727297" lon="9.0688366"><ele>252.0</ele><time>2026-04-06T12:59:58.781Z</time></trkpt><trkpt lat="45.6727228" lon="9.0690223"><ele>252.0</ele><time>2026-04-06T12:59:59.782Z</time></trkpt><trkpt lat="45.6727194" lon="9.0691857"><ele>252.0</ele><time>2026-04-06T13:00:00.782Z</time></trkpt><trkpt lat="45.6727159" lon="9.0693282"><ele>252.16666666666666</ele><time>2026-04-06T13:00:01.782Z</time></trkpt><trkpt lat="45.6727117" lon="9.0694611"><ele>252.33333333333331</ele><time>2026-04-06T13:00:02.782Z</time></trkpt><trkpt lat="45.672706" lon="9.069587"><ele>252.5</ele><time>2026-04-06T13:00:03.781Z</time></trkpt><trkpt lat="45.6726946" lon="9.0697033"><ele>252.66666666666666</ele><time>2026-04-06T13:00:04.781Z</time></trkpt><trkpt lat="45.6726642" lon="9.0698056"><ele>252.83333333333331</ele><time>2026-04-06T13:00:05.781Z</time></trkpt><trkpt lat="45.6726117" lon="9.0698946"><ele>253.0</ele><time>2026-04-06T13:00:06.782Z</time></trkpt><trkpt lat="45.6725578" lon="9.069999"><ele>253.0</ele><time>2026-04-06T13:00:07.781Z</time></trkpt><trkpt lat="45.6725417" lon="9.0701231"><ele>253.0</ele><time>2026-04-06T13:00:08.781Z</time></trkpt><trkpt lat="45.6725665" lon="9.0702423"><ele>253.0</ele><time>2026-04-06T13:00:09.782Z</time></trkpt><trkpt lat="45.6726307" lon="9.0703275"><ele>253.0</ele><time>2026-04-06T13:00:10.782Z</time></trkpt><trkpt lat="45.6727239" lon="9.0703567"><ele>253.0</ele><time>2026-04-06T13:00:11.782Z</time></trkpt><trkpt lat="45.6728246" lon="9.0703197"><ele>253.0</ele><time>2026-04-06T13:00:12.782Z</time></trkpt><trkpt lat="45.6729261" lon="9.070237"><ele>253.0</ele><time>2026-04-06T13:00:13.781Z</time></trkpt><trkpt lat="45.6730552" lon="9.0702005"><ele>253.0</ele><time>2026-04-06T13:00:14.782Z</time></trkpt><trkpt lat="45.6732208" lon="9.0702087"><ele>253.0</ele><time>2026-04-06T13:00:15.781Z</time></trkpt><trkpt lat="45.6734159" lon="9.0702228"><ele>253.66666666666666</ele><time>2026-04-06T13:00:16.782Z</time></trkpt><trkpt lat="45.6736098" lon="9.0702322"><ele>254.33333333333331</ele><time>2026-04-06T13:00:17.782Z</time></trkpt><trkpt lat="45.6737876" lon="9.0702465"><ele>255.0</ele><time>2026-04-06T13:00:18.782Z</time></trkpt><trkpt lat="45.6739549" lon="9.070258"><ele>255.0</ele><time>2026-04-06T13:00:19.782Z</time></trkpt><trkpt lat="45.6741095" lon="9.0702695"><ele>255.0</ele><time>2026-04-06T13:00:20.782Z</time></trkpt><trkpt lat="45.6742545" lon="9.070283"><ele>255.0</ele><time>2026-04-06T13:00:21.782Z</time></trkpt><trkpt lat="45.674396" lon="9.070291"><ele>255.0</ele><time>2026-04-06T13:00:22.782Z</time></trkpt><trkpt lat="45.6745384" lon="9.0702995"><ele>255.0</ele><time>2026-04-06T13:00:23.782Z</time></trkpt><trkpt lat="45.6746808" lon="9.0703108"><ele>255.0</ele><time>2026-04-06T13:00:24.781Z</time></trkpt><trkpt lat="45.6748291" lon="9.07032"><ele>255.0</ele><time>2026-04-06T13:00:25.781Z</time></trkpt><trkpt lat="45.6749773" lon="9.070327"><ele>255.0</ele><time>2026-04-06T13:00:26.781Z</time></trkpt><trkpt lat="45.6751199" lon="9.0703321"><ele>255.0</ele><time>2026-04-06T13:00:27.782Z</time></trkpt><trkpt lat="45.6752609" lon="9.0703417"><ele>255.0</ele><time>2026-04-06T13:00:28.782Z</time></trkpt><trkpt lat="45.6754025" lon="9.0703487"><ele>255.0</ele><time>2026-04-06T13:00:29.781Z</time></trkpt><trkpt lat="45.6755484" lon="9.0703602"><ele>255.0</ele><time>2026-04-06T13:00:30.781Z</time></trkpt><trkpt lat="45.6756932" lon="9.0703734"><ele>255.0</ele><time>2026-04-06T13:00:31.781Z</time></trkpt><trkpt lat="45.6758372" lon="9.0703951"><ele>255.0</ele><time>2026-04-06T13:00:32.782Z</time></trkpt><trkpt lat="45.6759836" lon="9.0704064"><ele>255.0</ele><time>2026-04-06T13:00:33.781Z</time></trkpt><trkpt lat="45.6761249" lon="9.0704178"><ele>255.0</ele><time>2026-04-06T13:00:34.781Z</time></trkpt><trkpt lat="45.6762686" lon="9.0704236"><ele>255.25</ele><time>2026-04-06T13:00:35.781Z</time></trkpt><trkpt lat="45.6764126" lon="9.0704284"><ele>255.5</ele><time>2026-04-06T13:00:36.781Z</time></trkpt><trkpt lat="45.676551" lon="9.0704406"><ele>255.75</ele><time>2026-04-06T13:00:37.781Z</time></trkpt><trkpt lat="45.6766967" lon="9.0704514"><ele>256.0</ele><time>2026-04-06T13:00:38.781Z</time></trkpt><trkpt lat="45.6768391" lon="9.0704575"><ele>256.0</ele><time>2026-04-06T13:00:39.782Z</time></trkpt><trkpt lat="45.6769825" lon="9.0704653"><ele>256.0</ele><time>2026-04-06T13:00:40.782Z</time></trkpt><trkpt lat="45.6771269" lon="9.0704786"><ele>256.0</ele><time>2026-04-06T13:00:41.781Z</time></trkpt><trkpt lat="45.6772779" lon="9.0705018"><ele>256.0</ele><time>2026-04-06T13:00:42.781Z</time></trkpt><trkpt lat="45.6774356" lon="9.0705379"><ele>256.0</ele><time>2026-04-06T13:00:43.781Z</time></trkpt><trkpt lat="45.6775951" lon="9.0705772"><ele>256.0</ele><time>2026-04-06T13:00:44.782Z</time></trkpt><trkpt lat="45.6777591" lon="9.0706234"><ele>256.0</ele><time>2026-04-06T13:00:45.782Z</time></trkpt><trkpt lat="45.6779241" lon="9.0706812"><ele>256.3333333333333</ele><time>2026-04-06T13:00:46.781Z</time></trkpt><trkpt lat="45.6780999" lon="9.0707585"><ele>256.6666666666667</ele><time>2026-04-06T13:00:47.781Z</time></trkpt><trkpt lat="45.6782652" lon="9.0708469"><ele>257.0</ele><time>2026-04-06T13:00:48.782Z</time></trkpt><trkpt lat="45.6784233" lon="9.0709472"><ele>257.33333333333337</ele><time>2026-04-06T13:00:49.781Z</time></trkpt><trkpt lat="45.6785793" lon="9.0710639"><ele>257.6666666666667</ele><time>2026-04-06T13:00:50.781Z</time></trkpt><trkpt lat="45.6787335" lon="9.0711992"><ele>258.0</ele><time>2026-04-06T13:00:51.781Z</time></trkpt><trkpt lat="45.6788853" lon="9.0713521"><ele>257.3333333333333</ele><time>2026-04-06T13:00:52.781Z</time></trkpt><trkpt lat="45.6790345" lon="9.0715194"><ele>256.66666666666663</ele><time>2026-04-06T13:00:53.782Z</time></trkpt><trkpt lat="45.6791804" lon="9.0716984"><ele>256.0</ele><time>2026-04-06T13:00:54.782Z</time></trkpt><trkpt lat="45.6793264" lon="9.0718885"><ele>256.66666666666663</ele><time>2026-04-06T13:00:55.781Z</time></trkpt><trkpt lat="45.6794705" lon="9.0720927"><ele>257.3333333333333</ele><time>2026-04-06T13:00:56.781Z</time></trkpt><trkpt lat="45.6796062" lon="9.0723058"><ele>258.0</ele><time>2026-04-06T13:00:57.782Z</time></trkpt><trkpt lat="45.6797422" lon="9.0725234"><ele>259.0</ele><time>2026-04-06T13:00:58.782Z</time></trkpt><trkpt lat="45.679876" lon="9.0727441"><ele>260.0</ele><time>2026-04-06T13:00:59.781Z</time></trkpt><trkpt lat="45.6800115" lon="9.0729594"><ele>261.0</ele><time>2026-04-06T13:01:00.781Z</time></trkpt><trkpt lat="45.6801397" lon="9.0731566"><ele>261.0</ele><time>2026-04-06T13:01:01.782Z</time></trkpt><trkpt lat="45.6802583" lon="9.073342"><ele>261.0</ele><time>2026-04-06T13:01:02.781Z</time></trkpt><trkpt lat="45.6803652" lon="9.0735108"><ele>261.0</ele><time>2026-04-06T13:01:03.781Z</time></trkpt><trkpt lat="45.6804593" lon="9.0736582"><ele>261.0</ele><time>2026-04-06T13:01:04.782Z</time></trkpt><trkpt lat="45.6805429" lon="9.0737906"><ele>261.0</ele><time>2026-04-06T13:01:05.781Z</time></trkpt><trkpt lat="45.6806081" lon="9.0739005"><ele>261.0</ele><time>2026-04-06T13:01:06.781Z</time></trkpt><trkpt lat="45.6806572" lon="9.0740036"><ele>261.0</ele><time>2026-04-06T13:01:07.781Z</time></trkpt><trkpt lat="45.6806854" lon="9.0741101"><ele>261.0</ele><time>2026-04-06T13:01:08.781Z</time></trkpt><trkpt lat="45.6806958" lon="9.0742275"><ele>260.8333333333333</ele><time>2026-04-06T13:01:09.782Z</time></trkpt><trkpt lat="45.6807072" lon="9.0743484"><ele>260.6666666666667</ele><time>2026-04-06T13:01:10.781Z</time></trkpt><trkpt lat="45.6807532" lon="9.0744485"><ele>260.5</ele><time>2026-04-06T13:01:11.781Z</time></trkpt><trkpt lat="45.6808257" lon="9.074505"><ele>260.33333333333337</ele><time>2026-04-06T13:01:12.781Z</time></trkpt><trkpt lat="45.6809155" lon="9.0745031"><ele>260.1666666666667</ele><time>2026-04-06T13:01:13.781Z</time></trkpt><trkpt lat="45.6809982" lon="9.0744434"><ele>260.0</ele><time>2026-04-06T13:01:14.782Z</time></trkpt><trkpt lat="45.6810539" lon="9.0743251"><ele>260.0</ele><time>2026-04-06T13:01:15.782Z</time></trkpt><trkpt lat="45.6810856" lon="9.0741529"><ele>260.0</ele><time>2026-04-06T13:01:16.782Z</time></trkpt><trkpt lat="45.6811263" lon="9.0739818"><ele>260.0</ele><time>2026-04-06T13:01:17.781Z</time></trkpt><trkpt lat="45.6812067" lon="9.0738101"><ele>260.0</ele><time>2026-04-06T13:01:18.78Z</time></trkpt><trkpt lat="45.6812992" lon="9.0736409"><ele>261.0</ele><time>2026-04-06T13:01:19.781Z</time></trkpt><trkpt lat="45.681396" lon="9.073485"><ele>262.0</ele><time>2026-04-06T13:01:20.782Z</time></trkpt><trkpt lat="45.6815047" lon="9.0733063"><ele>263.0</ele><time>2026-04-06T13:01:21.782Z</time></trkpt><trkpt lat="45.6816254" lon="9.0731258"><ele>263.6666666666667</ele><time>2026-04-06T13:01:22.781Z</time></trkpt><trkpt lat="45.6817475" lon="9.0729647"><ele>264.3333333333333</ele><time>2026-04-06T13:01:23.781Z</time></trkpt><trkpt lat="45.6818783" lon="9.0728166"><ele>265.0</ele><time>2026-04-06T13:01:24.782Z</time></trkpt><trkpt lat="45.6820144" lon="9.0726663"><ele>266.3333333333333</ele><time>2026-04-06T13:01:25.781Z</time></trkpt><trkpt lat="45.6821544" lon="9.0725069"><ele>267.6666666666667</ele><time>2026-04-06T13:01:26.781Z</time></trkpt><trkpt lat="45.6822975" lon="9.0723448"><ele>269.0</ele><time>2026-04-06T13:01:27.782Z</time></trkpt><trkpt lat="45.6824331" lon="9.072191"><ele>269.33333333333337</ele><time>2026-04-06T13:01:28.781Z</time></trkpt><trkpt lat="45.6825611" lon="9.0720346"><ele>269.6666666666667</ele><time>2026-04-06T13:01:29.782Z</time></trkpt><trkpt lat="45.6826732" lon="9.0718619"><ele>270.0</ele><time>2026-04-06T13:01:30.781Z</time></trkpt><trkpt lat="45.6827657" lon="9.0716615"><ele>271.0</ele><time>2026-04-06T13:01:31.781Z</time></trkpt><trkpt lat="45.6828403" lon="9.0714319"><ele>272.0</ele><time>2026-04-06T13:01:32.782Z</time></trkpt><trkpt lat="45.6828934" lon="9.0711793"><ele>273.0</ele><time>2026-04-06T13:01:33.782Z</time></trkpt><trkpt lat="45.6829243" lon="9.0709318"><ele>273.0</ele><time>2026-04-06T13:01:34.782Z</time></trkpt><trkpt lat="45.6829444" lon="9.0707014"><ele>273.0</ele><time>2026-04-06T13:01:35.781Z</time></trkpt><trkpt lat="45.6829705" lon="9.0704718"><ele>273.0</ele><time>2026-04-06T13:01:36.782Z</time></trkpt><trkpt lat="45.68301" lon="9.0702421"><ele>273.0</ele><time>2026-04-06T13:01:37.781Z</time></trkpt><trkpt lat="45.6830689" lon="9.0700158"><ele>273.0</ele><time>2026-04-06T13:01:38.782Z</time></trkpt><trkpt lat="45.683146" lon="9.0698053"><ele>273.0</ele><time>2026-04-06T13:01:39.781Z</time></trkpt><trkpt lat="45.6832325" lon="9.0696035"><ele>273.0</ele><time>2026-04-06T13:01:40.781Z</time></trkpt><trkpt lat="45.6833231" lon="9.0693987"><ele>273.0</ele><time>2026-04-06T13:01:41.782Z</time></trkpt><trkpt lat="45.6834166" lon="9.0691936"><ele>273.0</ele><time>2026-04-06T13:01:42.782Z</time></trkpt><trkpt lat="45.6835083" lon="9.0689809"><ele>273.0</ele><time>2026-04-06T13:01:43.781Z</time></trkpt><trkpt lat="45.6836013" lon="9.0687773"><ele>273.0</ele><time>2026-04-06T13:01:44.782Z</time></trkpt><trkpt lat="45.6836925" lon="9.0685704"><ele>273.0</ele><time>2026-04-06T13:01:45.781Z</time></trkpt><trkpt lat="45.6837861" lon="9.0683549"><ele>273.6666666666667</ele><time>2026-04-06T13:01:46.781Z</time></trkpt><trkpt lat="45.6838828" lon="9.068147"><ele>274.33333333333337</ele><time>2026-04-06T13:01:47.781Z</time></trkpt><trkpt lat="45.6839784" lon="9.0679461"><ele>275.0</ele><time>2026-04-06T13:01:48.782Z</time></trkpt><trkpt lat="45.6840733" lon="9.0677458"><ele>275.0</ele><time>2026-04-06T13:01:49.782Z</time></trkpt><trkpt lat="45.6841641" lon="9.0675372"><ele>275.0</ele><time>2026-04-06T13:01:50.781Z</time></trkpt><trkpt lat="45.6842544" lon="9.0673341"><ele>275.0</ele><time>2026-04-06T13:01:51.782Z</time></trkpt><trkpt lat="45.6843476" lon="9.0671397"><ele>272.6666666666667</ele><time>2026-04-06T13:01:52.782Z</time></trkpt><trkpt lat="45.6844394" lon="9.0669464"><ele>270.3333333333333</ele><time>2026-04-06T13:01:53.781Z</time></trkpt><trkpt lat="45.6845345" lon="9.0667483"><ele>268.0</ele><time>2026-04-06T13:01:54.782Z</time></trkpt><trkpt lat="45.6846308" lon="9.0665434"><ele>268.0</ele><time>2026-04-06T13:01:55.782Z</time></trkpt><trkpt lat="45.6847278" lon="9.0663369"><ele>268.0</ele><time>2026-04-06T13:01:56.782Z</time></trkpt><trkpt lat="45.6848312" lon="9.0661224"><ele>268.0</ele><time>2026-04-06T13:01:57.781Z</time></trkpt><trkpt lat="45.6849353" lon="9.0659068"><ele>267.3333333333333</ele><time>2026-04-06T13:01:58.781Z</time></trkpt><trkpt lat="45.6850248" lon="9.0656817"><ele>266.6666666666667</ele><time>2026-04-06T13:01:59.781Z</time></trkpt><trkpt lat="45.6850971" lon="9.0654511"><ele>266.0</ele><time>2026-04-06T13:02:00.782Z</time></trkpt><trkpt lat="45.6851561" lon="9.0652054"><ele>265.6666666666667</ele><time>2026-04-06T13:02:01.782Z</time></trkpt><trkpt lat="45.6851934" lon="9.0649392"><ele>265.3333333333333</ele><time>2026-04-06T13:02:02.781Z</time></trkpt><trkpt lat="45.6852158" lon="9.0646628"><ele>265.0</ele><time>2026-04-06T13:02:03.781Z</time></trkpt><trkpt lat="45.6852179" lon="9.0643814"><ele>265.66666666666663</ele><time>2026-04-06T13:02:04.78Z</time></trkpt><trkpt lat="45.6852126" lon="9.0641131"><ele>266.3333333333333</ele><time>2026-04-06T13:02:05.78Z</time></trkpt><trkpt lat="45.685228" lon="9.063859"><ele>267.0</ele><time>2026-04-06T13:02:06.781Z</time></trkpt><trkpt lat="45.6852834" lon="9.0636328"><ele>267.0</ele><time>2026-04-06T13:02:07.781Z</time></trkpt><trkpt lat="45.6853842" lon="9.0634489"><ele>267.0</ele><time>2026-04-06T13:02:08.78Z</time></trkpt><trkpt lat="45.6855225" lon="9.0633113"><ele>267.0</ele><time>2026-04-06T13:02:09.78Z</time></trkpt><trkpt lat="45.6856917" lon="9.0632198"><ele>267.0</ele><time>2026-04-06T13:02:10.78Z</time></trkpt><trkpt lat="45.685879" lon="9.0631609"><ele>267.0</ele><time>2026-04-06T13:02:11.78Z</time></trkpt><trkpt lat="45.6860766" lon="9.0631086"><ele>267.0</ele><time>2026-04-06T13:02:12.78Z</time></trkpt><trkpt lat="45.6862583" lon="9.0630635"><ele>267.6666666666667</ele><time>2026-04-06T13:02:13.781Z</time></trkpt><trkpt lat="45.6864304" lon="9.063027"><ele>268.33333333333337</ele><time>2026-04-06T13:02:14.781Z</time></trkpt><trkpt lat="45.6865932" lon="9.0629976"><ele>269.0</ele><time>2026-04-06T13:02:15.781Z</time></trkpt><trkpt lat="45.6867467" lon="9.0629642"><ele>269.0</ele><time>2026-04-06T13:02:16.781Z</time></trkpt><trkpt lat="45.6868943" lon="9.0629338"><ele>269.0</ele><time>2026-04-06T13:02:17.781Z</time></trkpt><trkpt lat="45.6870296" lon="9.0629062"><ele>269.0</ele><time>2026-04-06T13:02:18.78Z</time></trkpt><trkpt lat="45.6871554" lon="9.0628745"><ele>269.0</ele><time>2026-04-06T13:02:19.78Z</time></trkpt><trkpt lat="45.6872815" lon="9.0628121"><ele>269.0</ele><time>2026-04-06T13:02:20.78Z</time></trkpt><trkpt lat="45.6873953" lon="9.0627018"><ele>269.0</ele><time>2026-04-06T13:02:21.78Z</time></trkpt><trkpt lat="45.6874933" lon="9.0625439"><ele>269.0</ele><time>2026-04-06T13:02:22.78Z</time></trkpt><trkpt lat="45.6875634" lon="9.0623626"><ele>269.0</ele><time>2026-04-06T13:02:23.78Z</time></trkpt><trkpt lat="45.6876124" lon="9.0621833"><ele>269.0</ele><time>2026-04-06T13:02:24.78Z</time></trkpt><trkpt lat="45.687665" lon="9.0620161"><ele>269.0</ele><time>2026-04-06T13:02:25.78Z</time></trkpt><trkpt lat="45.6877285" lon="9.0618628"><ele>269.0</ele><time>2026-04-06T13:02:26.78Z</time></trkpt><trkpt lat="45.68782" lon="9.0617341"><ele>269.0</ele><time>2026-04-06T13:02:27.781Z</time></trkpt><trkpt lat="45.6879357" lon="9.0616414"><ele>270.0</ele><time>2026-04-06T13:02:28.78Z</time></trkpt><trkpt lat="45.68807" lon="9.0615764"><ele>271.0</ele><time>2026-04-06T13:02:29.781Z</time></trkpt><trkpt lat="45.6882263" lon="9.0615441"><ele>272.0</ele><time>2026-04-06T13:02:30.78Z</time></trkpt><trkpt lat="45.688396" lon="9.0615154"><ele>272.0</ele><time>2026-04-06T13:02:31.78Z</time></trkpt><trkpt lat="45.6885686" lon="9.0614843"><ele>272.0</ele><time>2026-04-06T13:02:32.781Z</time></trkpt><trkpt lat="45.6887331" lon="9.0614539"><ele>272.0</ele><time>2026-04-06T13:02:33.78Z</time></trkpt><trkpt lat="45.6888902" lon="9.0614281"><ele>272.6666666666667</ele><time>2026-04-06T13:02:34.78Z</time></trkpt><trkpt lat="45.6890452" lon="9.0614075"><ele>273.3333333333333</ele><time>2026-04-06T13:02:35.78Z</time></trkpt><trkpt lat="45.6891999" lon="9.0613861"><ele>274.0</ele><time>2026-04-06T13:02:36.78Z</time></trkpt><trkpt lat="45.6893549" lon="9.0613617"><ele>275.3333333333333</ele><time>2026-04-06T13:02:37.78Z</time></trkpt><trkpt lat="45.6895081" lon="9.0613389"><ele>276.6666666666667</ele><time>2026-04-06T13:02:38.781Z</time></trkpt><trkpt lat="45.6896607" lon="9.0613141"><ele>278.0</ele><time>2026-04-06T13:02:39.78Z</time></trkpt><trkpt lat="45.6898038" lon="9.0612953"><ele>278.0</ele><time>2026-04-06T13:02:40.781Z</time></trkpt><trkpt lat="45.6899401" lon="9.0612728"><ele>278.0</ele><time>2026-04-06T13:02:41.781Z</time></trkpt><trkpt lat="45.690064" lon="9.0612594"><ele>278.0</ele><time>2026-04-06T13:02:42.781Z</time></trkpt><trkpt lat="45.6901845" lon="9.0612422"><ele>278.0</ele><time>2026-04-06T13:02:43.78Z</time></trkpt><trkpt lat="45.6902955" lon="9.0612298"><ele>277.8</ele><time>2026-04-06T13:02:44.781Z</time></trkpt><trkpt lat="45.6904007" lon="9.0612132"><ele>277.6</ele><time>2026-04-06T13:02:45.78Z</time></trkpt><trkpt lat="45.6905005" lon="9.0611973"><ele>277.4</ele><time>2026-04-06T13:02:46.78Z</time></trkpt><trkpt lat="45.6905918" lon="9.0611872"><ele>277.2</ele><time>2026-04-06T13:02:47.781Z</time></trkpt><trkpt lat="45.6906755" lon="9.0611779"><ele>277.0</ele><time>2026-04-06T13:02:48.78Z</time></trkpt><trkpt lat="45.6907516" lon="9.0611738"><ele>277.0</ele><time>2026-04-06T13:02:49.781Z</time></trkpt><trkpt lat="45.6908575" lon="9.0611552"><ele>277.0</ele><time>2026-04-06T13:02:51.781Z</time></trkpt><trkpt lat="45.6909334" lon="9.0611626"><ele>277.0</ele><time>2026-04-06T13:02:53.78Z</time></trkpt><trkpt lat="45.6910172" lon="9.0612645"><ele>277.0</ele><time>2026-04-06T13:02:55.781Z</time></trkpt><trkpt lat="45.6910524" lon="9.0613528"><ele>277.0</ele><time>2026-04-06T13:02:56.781Z</time></trkpt><trkpt lat="45.6910886" lon="9.0614542"><ele>277.0</ele><time>2026-04-06T13:02:57.781Z</time></trkpt><trkpt lat="45.6911267" lon="9.0615719"><ele>277.2</ele><time>2026-04-06T13:02:58.78Z</time></trkpt><trkpt lat="45.6911713" lon="9.0616943"><ele>277.4</ele><time>2026-04-06T13:02:59.78Z</time></trkpt><trkpt lat="45.6912112" lon="9.0618157"><ele>277.6</ele><time>2026-04-06T13:03:00.781Z</time></trkpt><trkpt lat="45.6912582" lon="9.0619379"><ele>277.8</ele><time>2026-04-06T13:03:01.78Z</time></trkpt><trkpt lat="45.6913098" lon="9.0620679"><ele>278.0</ele><time>2026-04-06T13:03:02.781Z</time></trkpt><trkpt lat="45.6913628" lon="9.0622082"><ele>278.0</ele><time>2026-04-06T13:03:03.781Z</time></trkpt><trkpt lat="45.6914166" lon="9.06236"><ele>278.0</ele><time>2026-04-06T13:03:04.78Z</time></trkpt><trkpt lat="45.6914758" lon="9.0625293"><ele>278.0</ele><time>2026-04-06T13:03:05.781Z</time></trkpt><trkpt lat="45.6915359" lon="9.062689"><ele>278.0</ele><time>2026-04-06T13:03:06.781Z</time></trkpt><trkpt lat="45.6915938" lon="9.0628437"><ele>277.75</ele><time>2026-04-06T13:03:07.781Z</time></trkpt><trkpt lat="45.6916515" lon="9.0630029"><ele>277.5</ele><time>2026-04-06T13:03:08.781Z</time></trkpt><trkpt lat="45.691711" lon="9.0631651"><ele>277.25</ele><time>2026-04-06T13:03:09.781Z</time></trkpt><trkpt lat="45.6917719" lon="9.0633312"><ele>277.0</ele><time>2026-04-06T13:03:10.781Z</time></trkpt><trkpt lat="45.6918273" lon="9.0634988"><ele>276.75</ele><time>2026-04-06T13:03:11.781Z</time></trkpt><trkpt lat="45.6918869" lon="9.0636678"><ele>276.5</ele><time>2026-04-06T13:03:12.78Z</time></trkpt><trkpt lat="45.691945" lon="9.0638407"><ele>276.25</ele><time>2026-04-06T13:03:13.781Z</time></trkpt><trkpt lat="45.692007" lon="9.0640097"><ele>276.0</ele><time>2026-04-06T13:03:14.781Z</time></trkpt><trkpt lat="45.6920666" lon="9.0641783"><ele>277.25</ele><time>2026-04-06T13:03:15.78Z</time></trkpt><trkpt lat="45.692124" lon="9.0643443"><ele>278.5</ele><time>2026-04-06T13:03:16.781Z</time></trkpt><trkpt lat="45.6921834" lon="9.0645071"><ele>279.75</ele><time>2026-04-06T13:03:17.78Z</time></trkpt><trkpt lat="45.6922445" lon="9.0646674"><ele>281.0</ele><time>2026-04-06T13:03:18.78Z</time></trkpt><trkpt lat="45.6923009" lon="9.0648286"><ele>280.25</ele><time>2026-04-06T13:03:19.78Z</time></trkpt><trkpt lat="45.6923551" lon="9.0649908"><ele>279.5</ele><time>2026-04-06T13:03:20.78Z</time></trkpt><trkpt lat="45.6924085" lon="9.0651484"><ele>278.75</ele><time>2026-04-06T13:03:21.781Z</time></trkpt><trkpt lat="45.6924614" lon="9.0653047"><ele>278.0</ele><time>2026-04-06T13:03:22.781Z</time></trkpt><trkpt lat="45.6925155" lon="9.0654566"><ele>278.0</ele><time>2026-04-06T13:03:23.781Z</time></trkpt><trkpt lat="45.6925661" lon="9.0656084"><ele>278.0</ele><time>2026-04-06T13:03:24.78Z</time></trkpt><trkpt lat="45.6926153" lon="9.0657508"><ele>278.0</ele><time>2026-04-06T13:03:25.78Z</time></trkpt><trkpt lat="45.6926629" lon="9.0658897"><ele>278.0</ele><time>2026-04-06T13:03:26.781Z</time></trkpt><trkpt lat="45.6926992" lon="9.0660412"><ele>278.0</ele><time>2026-04-06T13:03:27.78Z</time></trkpt><trkpt lat="45.692708" lon="9.0661992"><ele>277.75</ele><time>2026-04-06T13:03:28.781Z</time></trkpt><trkpt lat="45.6926902" lon="9.066361"><ele>277.5</ele><time>2026-04-06T13:03:29.78Z</time></trkpt><trkpt lat="45.6926842" lon="9.0665312"><ele>277.25</ele><time>2026-04-06T13:03:30.781Z</time></trkpt><trkpt lat="45.6927284" lon="9.0666977"><ele>277.0</ele><time>2026-04-06T13:03:31.78Z</time></trkpt><trkpt lat="45.6928085" lon="9.066832"><ele>276.25</ele><time>2026-04-06T13:03:32.78Z</time></trkpt><trkpt lat="45.6929264" lon="9.0669342"><ele>275.5</ele><time>2026-04-06T13:03:33.78Z</time></trkpt><trkpt lat="45.6930317" lon="9.0670569"><ele>274.75</ele><time>2026-04-06T13:03:34.78Z</time></trkpt><trkpt lat="45.6931175" lon="9.0672296"><ele>274.0</ele><time>2026-04-06T13:03:35.781Z</time></trkpt><trkpt lat="45.6932051" lon="9.0674415"><ele>274.3333333333333</ele><time>2026-04-06T13:03:36.781Z</time></trkpt><trkpt lat="45.6932869" lon="9.0676582"><ele>274.6666666666667</ele><time>2026-04-06T13:03:37.781Z</time></trkpt><trkpt lat="45.6933569" lon="9.0678596"><ele>275.0</ele><time>2026-04-06T13:03:38.78Z</time></trkpt><trkpt lat="45.6934218" lon="9.0680489"><ele>275.0</ele><time>2026-04-06T13:03:39.781Z</time></trkpt><trkpt lat="45.6934868" lon="9.0682241"><ele>275.0</ele><time>2026-04-06T13:03:40.781Z</time></trkpt><trkpt lat="45.6935451" lon="9.0683923"><ele>275.0</ele><time>2026-04-06T13:03:41.781Z</time></trkpt><trkpt lat="45.6936038" lon="9.0685595"><ele>275.0</ele><time>2026-04-06T13:03:42.779Z</time></trkpt><trkpt lat="45.6936595" lon="9.0687276"><ele>275.5</ele><time>2026-04-06T13:03:43.78Z</time></trkpt><trkpt lat="45.6937149" lon="9.068895"><ele>276.0</ele><time>2026-04-06T13:03:44.78Z</time></trkpt><trkpt lat="45.6937712" lon="9.0690661"><ele>276.5</ele><time>2026-04-06T13:03:45.78Z</time></trkpt><trkpt lat="45.693822" lon="9.0692402"><ele>277.0</ele><time>2026-04-06T13:03:46.781Z</time></trkpt><trkpt lat="45.6938692" lon="9.0694176"><ele>277.5</ele><time>2026-04-06T13:03:47.781Z</time></trkpt><trkpt lat="45.6939134" lon="9.0695915"><ele>278.0</ele><time>2026-04-06T13:03:48.781Z</time></trkpt><trkpt lat="45.693949" lon="9.0697622"><ele>278.5</ele><time>2026-04-06T13:03:49.781Z</time></trkpt><trkpt lat="45.6939812" lon="9.0699307"><ele>279.0</ele><time>2026-04-06T13:03:50.78Z</time></trkpt><trkpt lat="45.6940097" lon="9.0700902"><ele>279.0</ele><time>2026-04-06T13:03:51.781Z</time></trkpt><trkpt lat="45.6940355" lon="9.0702409"><ele>279.0</ele><time>2026-04-06T13:03:52.78Z</time></trkpt><trkpt lat="45.6940521" lon="9.070384"><ele>279.0</ele><time>2026-04-06T13:03:53.781Z</time></trkpt><trkpt lat="45.6940538" lon="9.07052"><ele>279.0</ele><time>2026-04-06T13:03:54.78Z</time></trkpt><trkpt lat="45.694051" lon="9.0706467"><ele>279.0</ele><time>2026-04-06T13:03:55.781Z</time></trkpt><trkpt lat="45.6940386" lon="9.0707782"><ele>279.4</ele><time>2026-04-06T13:03:56.781Z</time></trkpt><trkpt lat="45.6940256" lon="9.0709178"><ele>279.79999999999995</ele><time>2026-04-06T13:03:57.78Z</time></trkpt><trkpt lat="45.6940362" lon="9.071064"><ele>280.20000000000005</ele><time>2026-04-06T13:03:58.781Z</time></trkpt><trkpt lat="45.6940824" lon="9.071215"><ele>280.6</ele><time>2026-04-06T13:03:59.78Z</time></trkpt><trkpt lat="45.6941305" lon="9.0713819"><ele>281.0</ele><time>2026-04-06T13:04:00.781Z</time></trkpt><trkpt lat="45.6941652" lon="9.0715704"><ele>281.33333333333337</ele><time>2026-04-06T13:04:01.78Z</time></trkpt><trkpt lat="45.6941965" lon="9.0717872"><ele>281.6666666666667</ele><time>2026-04-06T13:04:02.78Z</time></trkpt><trkpt lat="45.6942217" lon="9.0720315"><ele>282.0</ele><time>2026-04-06T13:04:03.781Z</time></trkpt><trkpt lat="45.6942424" lon="9.0722693"><ele>281.6666666666667</ele><time>2026-04-06T13:04:04.78Z</time></trkpt><trkpt lat="45.6942602" lon="9.0725052"><ele>281.33333333333337</ele><time>2026-04-06T13:04:05.78Z</time></trkpt><trkpt lat="45.6942755" lon="9.0727487"><ele>281.0</ele><time>2026-04-06T13:04:06.78Z</time></trkpt><trkpt lat="45.6942921" lon="9.072993"><ele>281.0</ele><time>2026-04-06T13:04:07.78Z</time></trkpt><trkpt lat="45.6943135" lon="9.0732356"><ele>281.0</ele><time>2026-04-06T13:04:08.78Z</time></trkpt><trkpt lat="45.6943357" lon="9.0734802"><ele>281.0</ele><time>2026-04-06T13:04:09.781Z</time></trkpt><trkpt lat="45.6943576" lon="9.0737371"><ele>280.33333333333337</ele><time>2026-04-06T13:04:10.781Z</time></trkpt><trkpt lat="45.6943811" lon="9.0739802"><ele>279.6666666666667</ele><time>2026-04-06T13:04:11.781Z</time></trkpt><trkpt lat="45.6944078" lon="9.0742083"><ele>279.0</ele><time>2026-04-06T13:04:12.78Z</time></trkpt><trkpt lat="45.6944374" lon="9.0744306"><ele>279.0</ele><time>2026-04-06T13:04:13.78Z</time></trkpt><trkpt lat="45.6944684" lon="9.0746479"><ele>279.0</ele><time>2026-04-06T13:04:14.781Z</time></trkpt><trkpt lat="45.6945025" lon="9.0748664"><ele>279.0</ele><time>2026-04-06T13:04:15.781Z</time></trkpt><trkpt lat="45.6945394" lon="9.0750894"><ele>279.0</ele><time>2026-04-06T13:04:16.781Z</time></trkpt><trkpt lat="45.6945743" lon="9.0753128"><ele>279.0</ele><time>2026-04-06T13:04:17.78Z</time></trkpt><trkpt lat="45.6946098" lon="9.0755371"><ele>279.0</ele><time>2026-04-06T13:04:18.78Z</time></trkpt><trkpt lat="45.6946472" lon="9.0757668"><ele>279.6666666666667</ele><time>2026-04-06T13:04:19.781Z</time></trkpt><trkpt lat="45.6946843" lon="9.076001"><ele>280.33333333333337</ele><time>2026-04-06T13:04:20.781Z</time></trkpt><trkpt lat="45.694719" lon="9.0762281"><ele>281.0</ele><time>2026-04-06T13:04:21.781Z</time></trkpt><trkpt lat="45.6947547" lon="9.0764554"><ele>281.33333333333337</ele><time>2026-04-06T13:04:22.78Z</time></trkpt><trkpt lat="45.6947869" lon="9.0766859"><ele>281.6666666666667</ele><time>2026-04-06T13:04:23.779Z</time></trkpt><trkpt lat="45.6948206" lon="9.0769144"><ele>282.0</ele><time>2026-04-06T13:04:24.78Z</time></trkpt><trkpt lat="45.6948484" lon="9.0771442"><ele>282.0</ele><time>2026-04-06T13:04:25.78Z</time></trkpt><trkpt lat="45.6948722" lon="9.0773777"><ele>282.0</ele><time>2026-04-06T13:04:26.779Z</time></trkpt><trkpt lat="45.6948897" lon="9.0776005"><ele>282.0</ele><time>2026-04-06T13:04:27.779Z</time></trkpt><trkpt lat="45.6949093" lon="9.0778082"><ele>281.75</ele><time>2026-04-06T13:04:28.779Z</time></trkpt><trkpt lat="45.6949285" lon="9.078006"><ele>281.5</ele><time>2026-04-06T13:04:29.78Z</time></trkpt><trkpt lat="45.6949455" lon="9.0781992"><ele>281.25</ele><time>2026-04-06T13:04:30.78Z</time></trkpt><trkpt lat="45.6949612" lon="9.0783799"><ele>281.0</ele><time>2026-04-06T13:04:31.779Z</time></trkpt><trkpt lat="45.6949727" lon="9.0785537"><ele>281.0</ele><time>2026-04-06T13:04:32.779Z</time></trkpt><trkpt lat="45.6949815" lon="9.0787166"><ele>281.0</ele><time>2026-04-06T13:04:33.779Z</time></trkpt><trkpt lat="45.6949829" lon="9.0788628"><ele>281.0</ele><time>2026-04-06T13:04:34.78Z</time></trkpt><trkpt lat="45.6949784" lon="9.0790028"><ele>281.0</ele><time>2026-04-06T13:04:35.78Z</time></trkpt><trkpt lat="45.6949611" lon="9.0791428"><ele>281.0</ele><time>2026-04-06T13:04:36.779Z</time></trkpt><trkpt lat="45.6949272" lon="9.0792847"><ele>281.0</ele><time>2026-04-06T13:04:37.779Z</time></trkpt><trkpt lat="45.6949091" lon="9.0794303"><ele>281.0</ele><time>2026-04-06T13:04:38.78Z</time></trkpt><trkpt lat="45.6949189" lon="9.0795907"><ele>281.0</ele><time>2026-04-06T13:04:39.779Z</time></trkpt><trkpt lat="45.6949574" lon="9.0797613"><ele>281.0</ele><time>2026-04-06T13:04:40.78Z</time></trkpt><trkpt lat="45.6950135" lon="9.0799387"><ele>281.0</ele><time>2026-04-06T13:04:41.779Z</time></trkpt><trkpt lat="45.6950634" lon="9.0801134"><ele>281.0</ele><time>2026-04-06T13:04:42.779Z</time></trkpt><trkpt lat="45.6951046" lon="9.0802848"><ele>281.0</ele><time>2026-04-06T13:04:43.779Z</time></trkpt><trkpt lat="45.69514" lon="9.0804645"><ele>281.0</ele><time>2026-04-06T13:04:44.779Z</time></trkpt><trkpt lat="45.6951735" lon="9.0806473"><ele>281.0</ele><time>2026-04-06T13:04:45.78Z</time></trkpt><trkpt lat="45.6952081" lon="9.0808359"><ele>281.0</ele><time>2026-04-06T13:04:46.779Z</time></trkpt><trkpt lat="45.6952438" lon="9.0810214"><ele>281.0</ele><time>2026-04-06T13:04:47.78Z</time></trkpt><trkpt lat="45.6952791" lon="9.0812065"><ele>281.0</ele><time>2026-04-06T13:04:48.78Z</time></trkpt><trkpt lat="45.695313" lon="9.081395"><ele>281.0</ele><time>2026-04-06T13:04:49.779Z</time></trkpt><trkpt lat="45.6953433" lon="9.0815851"><ele>281.0</ele><time>2026-04-06T13:04:50.78Z</time></trkpt><trkpt lat="45.695374" lon="9.0817766"><ele>281.0</ele><time>2026-04-06T13:04:51.78Z</time></trkpt><trkpt lat="45.6954053" lon="9.0819751"><ele>281.0</ele><time>2026-04-06T13:04:52.78Z</time></trkpt><trkpt lat="45.6954383" lon="9.08218"><ele>281.0</ele><time>2026-04-06T13:04:53.779Z</time></trkpt><trkpt lat="45.6954705" lon="9.0823782"><ele>281.0</ele><time>2026-04-06T13:04:54.779Z</time></trkpt><trkpt lat="45.6955015" lon="9.0825678"><ele>281.0</ele><time>2026-04-06T13:04:55.779Z</time></trkpt><trkpt lat="45.6955313" lon="9.0827539"><ele>281.0</ele><time>2026-04-06T13:04:56.78Z</time></trkpt><trkpt lat="45.6955628" lon="9.0829381"><ele>280.75</ele><time>2026-04-06T13:04:57.78Z</time></trkpt><trkpt lat="45.695594" lon="9.0831235"><ele>280.5</ele><time>2026-04-06T13:04:58.779Z</time></trkpt><trkpt lat="45.6956231" lon="9.0833117"><ele>280.25</ele><time>2026-04-06T13:04:59.779Z</time></trkpt><trkpt lat="45.6956518" lon="9.0835027"><ele>280.0</ele><time>2026-04-06T13:05:00.779Z</time></trkpt><trkpt lat="45.6956791" lon="9.0836842"><ele>280.0</ele><time>2026-04-06T13:05:01.779Z</time></trkpt><trkpt lat="45.695701" lon="9.0838664"><ele>280.0</ele><time>2026-04-06T13:05:02.779Z</time></trkpt><trkpt lat="45.695717" lon="9.0840539"><ele>280.0</ele><time>2026-04-06T13:05:03.779Z</time></trkpt><trkpt lat="45.6957282" lon="9.0842405"><ele>280.0</ele><time>2026-04-06T13:05:04.78Z</time></trkpt><trkpt lat="45.6957416" lon="9.0844317"><ele>280.5</ele><time>2026-04-06T13:05:05.779Z</time></trkpt><trkpt lat="45.6957526" lon="9.08462"><ele>281.0</ele><time>2026-04-06T13:05:06.779Z</time></trkpt><trkpt lat="45.6957631" lon="9.0848036"><ele>281.5</ele><time>2026-04-06T13:05:07.78Z</time></trkpt><trkpt lat="45.6957736" lon="9.0849851"><ele>282.0</ele><time>2026-04-06T13:05:08.779Z</time></trkpt><trkpt lat="45.6957839" lon="9.0851626"><ele>282.25</ele><time>2026-04-06T13:05:09.779Z</time></trkpt><trkpt lat="45.6957954" lon="9.0853428"><ele>282.5</ele><time>2026-04-06T13:05:10.779Z</time></trkpt><trkpt lat="45.6958027" lon="9.0855137"><ele>282.75</ele><time>2026-04-06T13:05:11.78Z</time></trkpt><trkpt lat="45.6958075" lon="9.0856767"><ele>283.0</ele><time>2026-04-06T13:05:12.779Z</time></trkpt><trkpt lat="45.6958109" lon="9.0858345"><ele>283.0</ele><time>2026-04-06T13:05:13.779Z</time></trkpt><trkpt lat="45.6958156" lon="9.0859788"><ele>283.0</ele><time>2026-04-06T13:05:14.78Z</time></trkpt><trkpt lat="45.6958105" lon="9.086122"><ele>283.0</ele><time>2026-04-06T13:05:15.78Z</time></trkpt><trkpt lat="45.6957935" lon="9.0862657"><ele>283.0</ele><time>2026-04-06T13:05:16.78Z</time></trkpt><trkpt lat="45.6957906" lon="9.0864228"><ele>283.0</ele><time>2026-04-06T13:05:17.779Z</time></trkpt><trkpt lat="45.6958266" lon="9.0865918"><ele>283.5</ele><time>2026-04-06T13:05:18.779Z</time></trkpt><trkpt lat="45.6958792" lon="9.0867639"><ele>284.0</ele><time>2026-04-06T13:05:19.779Z</time></trkpt><trkpt lat="45.6959462" lon="9.0869483"><ele>284.5</ele><time>2026-04-06T13:05:20.779Z</time></trkpt><trkpt lat="45.6960015" lon="9.0871376"><ele>285.0</ele><time>2026-04-06T13:05:21.779Z</time></trkpt><trkpt lat="45.6960565" lon="9.0873224"><ele>285.0</ele><time>2026-04-06T13:05:22.78Z</time></trkpt><trkpt lat="45.6961124" lon="9.0875171"><ele>285.0</ele><time>2026-04-06T13:05:23.779Z</time></trkpt><trkpt lat="45.6961698" lon="9.0877222"><ele>285.0</ele><time>2026-04-06T13:05:24.779Z</time></trkpt><trkpt lat="45.696232" lon="9.0879467"><ele>285.0</ele><time>2026-04-06T13:05:25.78Z</time></trkpt><trkpt lat="45.6962948" lon="9.0881844"><ele>285.0</ele><time>2026-04-06T13:05:26.78Z</time></trkpt><trkpt lat="45.6963551" lon="9.0884081"><ele>285.0</ele><time>2026-04-06T13:05:27.78Z</time></trkpt><trkpt lat="45.6964145" lon="9.088633"><ele>285.6666666666667</ele><time>2026-04-06T13:05:28.78Z</time></trkpt><trkpt lat="45.6964761" lon="9.088858"><ele>286.33333333333337</ele><time>2026-04-06T13:05:29.779Z</time></trkpt><trkpt lat="45.696538" lon="9.089083"><ele>287.0</ele><time>2026-04-06T13:05:30.78Z</time></trkpt><trkpt lat="45.6966021" lon="9.0893101"><ele>287.0</ele><time>2026-04-06T13:05:31.779Z</time></trkpt><trkpt lat="45.6966662" lon="9.089536"><ele>287.0</ele><time>2026-04-06T13:05:32.779Z</time></trkpt><trkpt lat="45.6967266" lon="9.0897633"><ele>287.0</ele><time>2026-04-06T13:05:33.78Z</time></trkpt><trkpt lat="45.6967805" lon="9.0899833"><ele>287.33333333333337</ele><time>2026-04-06T13:05:34.779Z</time></trkpt><trkpt lat="45.6968254" lon="9.0902054"><ele>287.6666666666667</ele><time>2026-04-06T13:05:35.779Z</time></trkpt><trkpt lat="45.6968599" lon="9.0904224"><ele>288.0</ele><time>2026-04-06T13:05:36.78Z</time></trkpt><trkpt lat="45.6968798" lon="9.0906434"><ele>288.3333333333333</ele><time>2026-04-06T13:05:37.779Z</time></trkpt><trkpt lat="45.6968845" lon="9.0908567"><ele>288.66666666666663</ele><time>2026-04-06T13:05:38.78Z</time></trkpt><trkpt lat="45.6968757" lon="9.0910791"><ele>289.0</ele><time>2026-04-06T13:05:39.779Z</time></trkpt><trkpt lat="45.6968586" lon="9.0912968"><ele>289.0</ele><time>2026-04-06T13:05:40.779Z</time></trkpt><trkpt lat="45.696839" lon="9.091517"><ele>289.0</ele><time>2026-04-06T13:05:41.779Z</time></trkpt><trkpt lat="45.6968143" lon="9.0917378"><ele>289.0</ele><time>2026-04-06T13:05:42.779Z</time></trkpt><trkpt lat="45.6967882" lon="9.0919623"><ele>288.3333333333333</ele><time>2026-04-06T13:05:43.78Z</time></trkpt><trkpt lat="45.6967589" lon="9.0921855"><ele>287.6666666666667</ele><time>2026-04-06T13:05:44.779Z</time></trkpt><trkpt lat="45.6967327" lon="9.092409"><ele>287.0</ele><time>2026-04-06T13:05:45.78Z</time></trkpt><trkpt lat="45.6967061" lon="9.0926318"><ele>286.33333333333337</ele><time>2026-04-06T13:05:46.78Z</time></trkpt><trkpt lat="45.6966788" lon="9.0928622"><ele>285.6666666666667</ele><time>2026-04-06T13:05:47.78Z</time></trkpt><trkpt lat="45.6966532" lon="9.093089"><ele>285.0</ele><time>2026-04-06T13:05:48.779Z</time></trkpt><trkpt lat="45.6966341" lon="9.0933107"><ele>284.6666666666667</ele><time>2026-04-06T13:05:49.78Z</time></trkpt><trkpt lat="45.6966223" lon="9.0935349"><ele>284.33333333333337</ele><time>2026-04-06T13:05:50.78Z</time></trkpt><trkpt lat="45.6966269" lon="9.0937612"><ele>284.0</ele><time>2026-04-06T13:05:51.78Z</time></trkpt><trkpt lat="45.6966464" lon="9.0939934"><ele>283.75</ele><time>2026-04-06T13:05:52.78Z</time></trkpt><trkpt lat="45.6966782" lon="9.0942153"><ele>283.5</ele><time>2026-04-06T13:05:53.78Z</time></trkpt><trkpt lat="45.6967148" lon="9.094423"><ele>283.25</ele><time>2026-04-06T13:05:54.78Z</time></trkpt><trkpt lat="45.6967523" lon="9.0946182"><ele>283.0</ele><time>2026-04-06T13:05:55.779Z</time></trkpt><trkpt lat="45.6967919" lon="9.0948156"><ele>283.0</ele><time>2026-04-06T13:05:56.78Z</time></trkpt><trkpt lat="45.6968318" lon="9.0950131"><ele>283.0</ele><time>2026-04-06T13:05:57.779Z</time></trkpt><trkpt lat="45.6968761" lon="9.0952199"><ele>283.0</ele><time>2026-04-06T13:05:58.78Z</time></trkpt><trkpt lat="45.6969246" lon="9.0954237"><ele>283.0</ele><time>2026-04-06T13:05:59.779Z</time></trkpt><trkpt lat="45.6969708" lon="9.095615"><ele>284.5</ele><time>2026-04-06T13:06:00.78Z</time></trkpt><trkpt lat="45.6970167" lon="9.0957969"><ele>286.0</ele><time>2026-04-06T13:06:01.779Z</time></trkpt><trkpt lat="45.697062" lon="9.0959678"><ele>287.5</ele><time>2026-04-06T13:06:02.779Z</time></trkpt><trkpt lat="45.6971078" lon="9.0961307"><ele>289.0</ele><time>2026-04-06T13:06:03.78Z</time></trkpt><trkpt lat="45.6971468" lon="9.0962844"><ele>289.0</ele><time>2026-04-06T13:06:04.78Z</time></trkpt><trkpt lat="45.6971784" lon="9.0964337"><ele>289.0</ele><time>2026-04-06T13:06:05.78Z</time></trkpt><trkpt lat="45.6971944" lon="9.0965781"><ele>289.0</ele><time>2026-04-06T13:06:06.78Z</time></trkpt><trkpt lat="45.6971932" lon="9.0967157"><ele>289.0</ele><time>2026-04-06T13:06:07.78Z</time></trkpt><trkpt lat="45.6971782" lon="9.0968514"><ele>289.0</ele><time>2026-04-06T13:06:08.779Z</time></trkpt><trkpt lat="45.6971773" lon="9.0969917"><ele>288.59999999999997</ele><time>2026-04-06T13:06:09.779Z</time></trkpt><trkpt lat="45.6972077" lon="9.0971186"><ele>288.2</ele><time>2026-04-06T13:06:10.78Z</time></trkpt><trkpt lat="45.6972731" lon="9.0972115"><ele>287.79999999999995</ele><time>2026-04-06T13:06:11.78Z</time></trkpt><trkpt lat="45.6973697" lon="9.0972592"><ele>287.4</ele><time>2026-04-06T13:06:12.78Z</time></trkpt><trkpt lat="45.6974802" lon="9.0972498"><ele>287.0</ele><time>2026-04-06T13:06:13.78Z</time></trkpt><trkpt lat="45.6975964" lon="9.097183"><ele>287.0</ele><time>2026-04-06T13:06:14.779Z</time></trkpt><trkpt lat="45.6977228" lon="9.0970616"><ele>287.0</ele><time>2026-04-06T13:06:15.78Z</time></trkpt><trkpt lat="45.6978602" lon="9.0968976"><ele>287.0</ele><time>2026-04-06T13:06:16.779Z</time></trkpt><trkpt lat="45.6979815" lon="9.096734"><ele>287.0</ele><time>2026-04-06T13:06:17.779Z</time></trkpt><trkpt lat="45.698105" lon="9.0965784"><ele>287.0</ele><time>2026-04-06T13:06:18.779Z</time></trkpt><trkpt lat="45.6982399" lon="9.0964294"><ele>287.0</ele><time>2026-04-06T13:06:19.779Z</time></trkpt><trkpt lat="45.698383" lon="9.0962931"><ele>287.0</ele><time>2026-04-06T13:06:20.779Z</time></trkpt><trkpt lat="45.6985321" lon="9.096172"><ele>287.0</ele><time>2026-04-06T13:06:21.779Z</time></trkpt><trkpt lat="45.6986831" lon="9.0960561"><ele>287.0</ele><time>2026-04-06T13:06:22.779Z</time></trkpt><trkpt lat="45.6988335" lon="9.0959442"><ele>288.33333333333337</ele><time>2026-04-06T13:06:23.78Z</time></trkpt><trkpt lat="45.6989807" lon="9.0958398"><ele>289.6666666666667</ele><time>2026-04-06T13:06:24.779Z</time></trkpt><trkpt lat="45.6991218" lon="9.0957411"><ele>291.0</ele><time>2026-04-06T13:06:25.78Z</time></trkpt><trkpt lat="45.6992585" lon="9.0956434"><ele>291.0</ele><time>2026-04-06T13:06:26.779Z</time></trkpt><trkpt lat="45.6993921" lon="9.0955508"><ele>291.0</ele><time>2026-04-06T13:06:27.78Z</time></trkpt><trkpt lat="45.6995192" lon="9.0954634"><ele>291.0</ele><time>2026-04-06T13:06:28.779Z</time></trkpt><trkpt lat="45.6996374" lon="9.0953828"><ele>291.0</ele><time>2026-04-06T13:06:29.779Z</time></trkpt><trkpt lat="45.6997518" lon="9.095305"><ele>291.5</ele><time>2026-04-06T13:06:30.779Z</time></trkpt><trkpt lat="45.699867" lon="9.0952272"><ele>292.0</ele><time>2026-04-06T13:06:31.78Z</time></trkpt><trkpt lat="45.699978" lon="9.0951494"><ele>292.5</ele><time>2026-04-06T13:06:32.78Z</time></trkpt><trkpt lat="45.7000901" lon="9.0950714"><ele>293.0</ele><time>2026-04-06T13:06:33.779Z</time></trkpt><trkpt lat="45.700203" lon="9.0949927"><ele>294.0</ele><time>2026-04-06T13:06:34.779Z</time></trkpt><trkpt lat="45.7003065" lon="9.0949154"><ele>295.0</ele><time>2026-04-06T13:06:35.779Z</time></trkpt><trkpt lat="45.7004013" lon="9.0948361"><ele>296.0</ele><time>2026-04-06T13:06:36.78Z</time></trkpt><trkpt lat="45.7005048" lon="9.0947629"><ele>297.0</ele><time>2026-04-06T13:06:37.78Z</time></trkpt><trkpt lat="45.7006246" lon="9.0946922"><ele>297.0</ele><time>2026-04-06T13:06:38.779Z</time></trkpt><trkpt lat="45.700753" lon="9.0946169"><ele>297.0</ele><time>2026-04-06T13:06:39.778Z</time></trkpt><trkpt lat="45.700885" lon="9.0945318"><ele>297.0</ele><time>2026-04-06T13:06:40.778Z</time></trkpt><trkpt lat="45.7010171" lon="9.0944466"><ele>297.0</ele><time>2026-04-06T13:06:41.778Z</time></trkpt><trkpt lat="45.7011501" lon="9.0943605"><ele>297.25</ele><time>2026-04-06T13:06:42.778Z</time></trkpt><trkpt lat="45.7012807" lon="9.0942735"><ele>297.5</ele><time>2026-04-06T13:06:43.778Z</time></trkpt><trkpt lat="45.701406" lon="9.0941875"><ele>297.75</ele><time>2026-04-06T13:06:44.778Z</time></trkpt><trkpt lat="45.701528" lon="9.0941044"><ele>298.0</ele><time>2026-04-06T13:06:45.778Z</time></trkpt><trkpt lat="45.7016426" lon="9.0940131"><ele>299.0</ele><time>2026-04-06T13:06:46.779Z</time></trkpt><trkpt lat="45.7017549" lon="9.0939214"><ele>300.0</ele><time>2026-04-06T13:06:47.779Z</time></trkpt><trkpt lat="45.7018609" lon="9.0938183"><ele>301.0</ele><time>2026-04-06T13:06:48.778Z</time></trkpt><trkpt lat="45.7019703" lon="9.0937086"><ele>302.0</ele><time>2026-04-06T13:06:49.778Z</time></trkpt><trkpt lat="45.7020696" lon="9.093604"><ele>302.0</ele><time>2026-04-06T13:06:50.779Z</time></trkpt><trkpt lat="45.7021809" lon="9.0934888"><ele>302.0</ele><time>2026-04-06T13:06:51.779Z</time></trkpt><trkpt lat="45.7022898" lon="9.0933797"><ele>302.0</ele><time>2026-04-06T13:06:52.779Z</time></trkpt><trkpt lat="45.7023962" lon="9.0932623"><ele>302.0</ele><time>2026-04-06T13:06:53.779Z</time></trkpt><trkpt lat="45.7024995" lon="9.0931432"><ele>301.5</ele><time>2026-04-06T13:06:54.779Z</time></trkpt><trkpt lat="45.7026108" lon="9.0930233"><ele>301.0</ele><time>2026-04-06T13:06:55.778Z</time></trkpt><trkpt lat="45.702719" lon="9.092903"><ele>300.5</ele><time>2026-04-06T13:06:56.779Z</time></trkpt><trkpt lat="45.7028226" lon="9.092794"><ele>300.0</ele><time>2026-04-06T13:06:57.778Z</time></trkpt><trkpt lat="45.7029262" lon="9.0926777"><ele>299.75</ele><time>2026-04-06T13:06:58.779Z</time></trkpt><trkpt lat="45.7030274" lon="9.0925661"><ele>299.5</ele><time>2026-04-06T13:06:59.778Z</time></trkpt><trkpt lat="45.7031295" lon="9.0924565"><ele>299.25</ele><time>2026-04-06T13:07:00.778Z</time></trkpt><trkpt lat="45.7032312" lon="9.0923403"><ele>299.0</ele><time>2026-04-06T13:07:01.778Z</time></trkpt><trkpt lat="45.7033272" lon="9.0922289"><ele>299.0</ele><time>2026-04-06T13:07:02.779Z</time></trkpt><trkpt lat="45.7034235" lon="9.0921229"><ele>299.0</ele><time>2026-04-06T13:07:03.779Z</time></trkpt><trkpt lat="45.7035147" lon="9.0920269"><ele>299.0</ele><time>2026-04-06T13:07:04.778Z</time></trkpt><trkpt lat="45.7035972" lon="9.0919316"><ele>299.0</ele><time>2026-04-06T13:07:05.778Z</time></trkpt><trkpt lat="45.7036808" lon="9.0918374"><ele>299.0</ele><time>2026-04-06T13:07:06.778Z</time></trkpt><trkpt lat="45.7037579" lon="9.0917551"><ele>299.0</ele><time>2026-04-06T13:07:07.779Z</time></trkpt><trkpt lat="45.7038312" lon="9.0916774"><ele>299.0</ele><time>2026-04-06T13:07:08.779Z</time></trkpt><trkpt lat="45.7039029" lon="9.0915939"><ele>299.0</ele><time>2026-04-06T13:07:09.779Z</time></trkpt><trkpt lat="45.7039785" lon="9.0915188"><ele>299.0</ele><time>2026-04-06T13:07:10.779Z</time></trkpt><trkpt lat="45.7040564" lon="9.0914475"><ele>299.0</ele><time>2026-04-06T13:07:11.778Z</time></trkpt><trkpt lat="45.7041278" lon="9.0913989"><ele>299.0</ele><time>2026-04-06T13:07:12.778Z</time></trkpt><trkpt lat="45.7041905" lon="9.0913721"><ele>299.0</ele><time>2026-04-06T13:07:13.779Z</time></trkpt><trkpt lat="45.7043096" lon="9.0914432"><ele>299.0</ele><time>2026-04-06T13:07:15.779Z</time></trkpt><trkpt lat="45.704355" lon="9.09154"><ele>299.0</ele><time>2026-04-06T13:07:16.779Z</time></trkpt><trkpt lat="45.7043914" lon="9.0916735"><ele>299.0</ele><time>2026-04-06T13:07:17.778Z</time></trkpt><trkpt lat="45.704419" lon="9.0918148"><ele>299.0</ele><time>2026-04-06T13:07:18.779Z</time></trkpt><trkpt lat="45.7044504" lon="9.0919548"><ele>299.0</ele><time>2026-04-06T13:07:19.779Z</time></trkpt><trkpt lat="45.7044851" lon="9.0921009"><ele>299.0</ele><time>2026-04-06T13:07:20.778Z</time></trkpt><trkpt lat="45.7045188" lon="9.0922643"><ele>299.0</ele><time>2026-04-06T13:07:21.779Z</time></trkpt><trkpt lat="45.7045521" lon="9.092418"><ele>299.0</ele><time>2026-04-06T13:07:22.778Z</time></trkpt><trkpt lat="45.7045872" lon="9.0925667"><ele>299.0</ele><time>2026-04-06T13:07:23.778Z</time></trkpt><trkpt lat="45.7046191" lon="9.0927237"><ele>299.5</ele><time>2026-04-06T13:07:24.778Z</time></trkpt><trkpt lat="45.7046554" lon="9.0928809"><ele>300.0</ele><time>2026-04-06T13:07:25.779Z</time></trkpt><trkpt lat="45.7046927" lon="9.0930381"><ele>300.5</ele><time>2026-04-06T13:07:26.779Z</time></trkpt><trkpt lat="45.7047274" lon="9.0931971"><ele>301.0</ele><time>2026-04-06T13:07:27.779Z</time></trkpt><trkpt lat="45.7047619" lon="9.0933556"><ele>301.6</ele><time>2026-04-06T13:07:28.778Z</time></trkpt><trkpt lat="45.7047954" lon="9.0935197"><ele>302.20000000000005</ele><time>2026-04-06T13:07:29.778Z</time></trkpt><trkpt lat="45.7048308" lon="9.093673"><ele>302.79999999999995</ele><time>2026-04-06T13:07:30.778Z</time></trkpt><trkpt lat="45.7048673" lon="9.0938095"><ele>303.4</ele><time>2026-04-06T13:07:31.778Z</time></trkpt><trkpt lat="45.7049067" lon="9.0939309"><ele>304.0</ele><time>2026-04-06T13:07:32.779Z</time></trkpt><trkpt lat="45.7049453" lon="9.0940472"><ele>304.4</ele><time>2026-04-06T13:07:33.779Z</time></trkpt><trkpt lat="45.7049882" lon="9.0941514"><ele>304.79999999999995</ele><time>2026-04-06T13:07:34.779Z</time></trkpt><trkpt lat="45.7050462" lon="9.0942389"><ele>305.20000000000005</ele><time>2026-04-06T13:07:35.778Z</time></trkpt><trkpt lat="45.7051245" lon="9.0942741"><ele>305.6</ele><time>2026-04-06T13:07:36.779Z</time></trkpt><trkpt lat="45.7052267" lon="9.0942564"><ele>306.0</ele><time>2026-04-06T13:07:37.779Z</time></trkpt><trkpt lat="45.7053591" lon="9.0941964"><ele>306.0</ele><time>2026-04-06T13:07:38.778Z</time></trkpt><trkpt lat="45.7054892" lon="9.094141"><ele>306.0</ele><time>2026-04-06T13:07:39.779Z</time></trkpt><trkpt lat="45.7056103" lon="9.0940728"><ele>306.0</ele><time>2026-04-06T13:07:40.779Z</time></trkpt><trkpt lat="45.7057296" lon="9.0939997"><ele>306.0</ele><time>2026-04-06T13:07:41.778Z</time></trkpt><trkpt lat="45.7058504" lon="9.0939283"><ele>307.0</ele><time>2026-04-06T13:07:42.779Z</time></trkpt><trkpt lat="45.7059681" lon="9.0938664"><ele>308.0</ele><time>2026-04-06T13:07:43.779Z</time></trkpt><trkpt lat="45.7060891" lon="9.0938211"><ele>309.0</ele><time>2026-04-06T13:07:44.779Z</time></trkpt><trkpt lat="45.706212" lon="9.0937969"><ele>310.0</ele><time>2026-04-06T13:07:45.779Z</time></trkpt><trkpt lat="45.7063383" lon="9.0937827"><ele>310.75</ele><time>2026-04-06T13:07:46.779Z</time></trkpt><trkpt lat="45.7064677" lon="9.093788"><ele>311.5</ele><time>2026-04-06T13:07:47.778Z</time></trkpt><trkpt lat="45.7066013" lon="9.0938005"><ele>312.25</ele><time>2026-04-06T13:07:48.778Z</time></trkpt><trkpt lat="45.7067366" lon="9.0938173"><ele>313.0</ele><time>2026-04-06T13:07:49.779Z</time></trkpt><trkpt lat="45.7068758" lon="9.0938154"><ele>312.5</ele><time>2026-04-06T13:07:50.778Z</time></trkpt><trkpt lat="45.7070081" lon="9.0937978"><ele>312.0</ele><time>2026-04-06T13:07:51.778Z</time></trkpt><trkpt lat="45.7071416" lon="9.0937718"><ele>311.5</ele><time>2026-04-06T13:07:52.778Z</time></trkpt><trkpt lat="45.7072693" lon="9.0937423"><ele>311.0</ele><time>2026-04-06T13:07:53.778Z</time></trkpt><trkpt lat="45.7073948" lon="9.0937167"><ele>311.0</ele><time>2026-04-06T13:07:54.778Z</time></trkpt><trkpt lat="45.7075146" lon="9.0936902"><ele>311.0</ele><time>2026-04-06T13:07:55.778Z</time></trkpt><trkpt lat="45.7076357" lon="9.093664"><ele>311.0</ele><time>2026-04-06T13:07:56.779Z</time></trkpt><trkpt lat="45.7077599" lon="9.093641"><ele>311.0</ele><time>2026-04-06T13:07:57.779Z</time></trkpt><trkpt lat="45.7078877" lon="9.0936161"><ele>310.25</ele><time>2026-04-06T13:07:58.778Z</time></trkpt><trkpt lat="45.7080178" lon="9.0935839"><ele>309.5</ele><time>2026-04-06T13:07:59.779Z</time></trkpt><trkpt lat="45.7081525" lon="9.0935502"><ele>308.75</ele><time>2026-04-06T13:08:00.779Z</time></trkpt><trkpt lat="45.7082837" lon="9.0935126"><ele>308.0</ele><time>2026-04-06T13:08:01.778Z</time></trkpt><trkpt lat="45.7084105" lon="9.0934661"><ele>308.0</ele><time>2026-04-06T13:08:02.778Z</time></trkpt><trkpt lat="45.7085353" lon="9.0934033"><ele>308.0</ele><time>2026-04-06T13:08:03.779Z</time></trkpt><trkpt lat="45.7086618" lon="9.0933326"><ele>308.0</ele><time>2026-04-06T13:08:04.778Z</time></trkpt><trkpt lat="45.708785" lon="9.0932562"><ele>308.0</ele><time>2026-04-06T13:08:05.778Z</time></trkpt><trkpt lat="45.7089045" lon="9.0931814"><ele>309.5</ele><time>2026-04-06T13:08:06.778Z</time></trkpt><trkpt lat="45.70902" lon="9.0931083"><ele>311.0</ele><time>2026-04-06T13:08:07.779Z</time></trkpt><trkpt lat="45.7091412" lon="9.0930627"><ele>312.5</ele><time>2026-04-06T13:08:08.779Z</time></trkpt><trkpt lat="45.709267" lon="9.0930688"><ele>314.0</ele><time>2026-04-06T13:08:09.778Z</time></trkpt><trkpt lat="45.7093924" lon="9.0931251"><ele>312.5</ele><time>2026-04-06T13:08:10.779Z</time></trkpt><trkpt lat="45.7095199" lon="9.0932275"><ele>311.0</ele><time>2026-04-06T13:08:11.779Z</time></trkpt><trkpt lat="45.7096333" lon="9.0933591"><ele>309.5</ele><time>2026-04-06T13:08:12.778Z</time></trkpt><trkpt lat="45.7097357" lon="9.0934954"><ele>308.0</ele><time>2026-04-06T13:08:13.779Z</time></trkpt><trkpt lat="45.709832" lon="9.0936523"><ele>304.33333333333337</ele><time>2026-04-06T13:08:14.779Z</time></trkpt><trkpt lat="45.7098894" lon="9.0938536"><ele>300.6666666666667</ele><time>2026-04-06T13:08:15.779Z</time></trkpt><trkpt lat="45.7099207" lon="9.0940774"><ele>297.0</ele><time>2026-04-06T13:08:16.778Z</time></trkpt><trkpt lat="45.7099341" lon="9.0942804"><ele>296.75</ele><time>2026-04-06T13:08:17.778Z</time></trkpt><trkpt lat="45.7099487" lon="9.0944783"><ele>296.5</ele><time>2026-04-06T13:08:18.778Z</time></trkpt><trkpt lat="45.7099877" lon="9.0946725"><ele>296.25</ele><time>2026-04-06T13:08:19.779Z</time></trkpt><trkpt lat="45.710061" lon="9.0948411"><ele>296.0</ele><time>2026-04-06T13:08:20.778Z</time></trkpt><trkpt lat="45.7101687" lon="9.094986"><ele>295.0</ele><time>2026-04-06T13:08:21.778Z</time></trkpt><trkpt lat="45.7103" lon="9.0950935"><ele>294.0</ele><time>2026-04-06T13:08:22.779Z</time></trkpt><trkpt lat="45.7104457" lon="9.0951729"><ele>293.0</ele><time>2026-04-06T13:08:23.778Z</time></trkpt><trkpt lat="45.7106064" lon="9.0951562"><ele>293.0</ele><time>2026-04-06T13:08:24.778Z</time></trkpt><trkpt lat="45.7107558" lon="9.0951635"><ele>293.0</ele><time>2026-04-06T13:08:25.778Z</time></trkpt><trkpt lat="45.7108989" lon="9.0951657"><ele>293.0</ele><time>2026-04-06T13:08:26.778Z</time></trkpt><trkpt lat="45.7110416" lon="9.095165"><ele>293.0</ele><time>2026-04-06T13:08:27.779Z</time></trkpt><trkpt lat="45.71118" lon="9.095168"><ele>292.0</ele><time>2026-04-06T13:08:28.778Z</time></trkpt><trkpt lat="45.7113168" lon="9.0951637"><ele>291.0</ele><time>2026-04-06T13:08:29.779Z</time></trkpt><trkpt lat="45.7114532" lon="9.095161"><ele>290.0</ele><time>2026-04-06T13:08:30.779Z</time></trkpt><trkpt lat="45.7115928" lon="9.0951546"><ele>289.0</ele><time>2026-04-06T13:08:31.779Z</time></trkpt><trkpt lat="45.7117282" lon="9.0951498"><ele>289.0</ele><time>2026-04-06T13:08:32.779Z</time></trkpt><trkpt lat="45.7118667" lon="9.0951477"><ele>289.0</ele><time>2026-04-06T13:08:33.779Z</time></trkpt><trkpt lat="45.7120034" lon="9.0951441"><ele>289.0</ele><time>2026-04-06T13:08:34.778Z</time></trkpt><trkpt lat="45.7121481" lon="9.095141"><ele>289.0</ele><time>2026-04-06T13:08:35.778Z</time></trkpt><trkpt lat="45.7122955" lon="9.0951377"><ele>288.3333333333333</ele><time>2026-04-06T13:08:36.778Z</time></trkpt><trkpt lat="45.712448" lon="9.0951316"><ele>287.6666666666667</ele><time>2026-04-06T13:08:37.778Z</time></trkpt><trkpt lat="45.7126057" lon="9.0951257"><ele>287.0</ele><time>2026-04-06T13:08:38.778Z</time></trkpt><trkpt lat="45.7127648" lon="9.0951236"><ele>287.0</ele><time>2026-04-06T13:08:39.779Z</time></trkpt><trkpt lat="45.7129247" lon="9.0951243"><ele>287.0</ele><time>2026-04-06T13:08:40.779Z</time></trkpt><trkpt lat="45.713081" lon="9.0951268"><ele>287.0</ele><time>2026-04-06T13:08:41.779Z</time></trkpt><trkpt lat="45.7132331" lon="9.0951309"><ele>287.0</ele><time>2026-04-06T13:08:42.779Z</time></trkpt><trkpt lat="45.7133772" lon="9.0951311"><ele>287.0</ele><time>2026-04-06T13:08:43.779Z</time></trkpt><trkpt lat="45.7135172" lon="9.0951272"><ele>287.0</ele><time>2026-04-06T13:08:44.778Z</time></trkpt><trkpt lat="45.7136501" lon="9.0951235"><ele>287.0</ele><time>2026-04-06T13:08:45.778Z</time></trkpt><trkpt lat="45.71378" lon="9.0951172"><ele>285.5</ele><time>2026-04-06T13:08:46.779Z</time></trkpt><trkpt lat="45.7139055" lon="9.0951138"><ele>284.0</ele><time>2026-04-06T13:08:47.778Z</time></trkpt><trkpt lat="45.7140329" lon="9.0951169"><ele>282.5</ele><time>2026-04-06T13:08:48.778Z</time></trkpt><trkpt lat="45.7141594" lon="9.095148"><ele>281.0</ele><time>2026-04-06T13:08:49.778Z</time></trkpt><trkpt lat="45.7142762" lon="9.0952198"><ele>281.0</ele><time>2026-04-06T13:08:50.778Z</time></trkpt><trkpt lat="45.7143726" lon="9.0953281"><ele>281.0</ele><time>2026-04-06T13:08:51.779Z</time></trkpt><trkpt lat="45.7144397" lon="9.0954701"><ele>281.0</ele><time>2026-04-06T13:08:52.779Z</time></trkpt><trkpt lat="45.7144823" lon="9.095644"><ele>281.0</ele><time>2026-04-06T13:08:53.778Z</time></trkpt><trkpt lat="45.7144874" lon="9.0958175"><ele>277.5</ele><time>2026-04-06T13:08:54.778Z</time></trkpt><trkpt lat="45.7144585" lon="9.0959899"><ele>274.0</ele><time>2026-04-06T13:08:55.777Z</time></trkpt><trkpt lat="45.7143981" lon="9.0961388"><ele>270.5</ele><time>2026-04-06T13:08:56.778Z</time></trkpt><trkpt lat="45.7143139" lon="9.0962589"><ele>267.0</ele><time>2026-04-06T13:08:57.778Z</time></trkpt><trkpt lat="45.7142083" lon="9.0963493"><ele>267.0</ele><time>2026-04-06T13:08:58.777Z</time></trkpt><trkpt lat="45.7140872" lon="9.0964129"><ele>267.0</ele><time>2026-04-06T13:08:59.777Z</time></trkpt><trkpt lat="45.7139548" lon="9.0964714"><ele>267.0</ele><time>2026-04-06T13:09:00.777Z</time></trkpt><trkpt lat="45.7138204" lon="9.0965233"><ele>267.0</ele><time>2026-04-06T13:09:01.777Z</time></trkpt><trkpt lat="45.7136898" lon="9.0965738"><ele>266.3333333333333</ele><time>2026-04-06T13:09:02.777Z</time></trkpt><trkpt lat="45.7135525" lon="9.0966293"><ele>265.66666666666663</ele><time>2026-04-06T13:09:03.778Z</time></trkpt><trkpt lat="45.7134022" lon="9.0966837"><ele>265.0</ele><time>2026-04-06T13:09:04.777Z</time></trkpt><trkpt lat="45.7132485" lon="9.0967341"><ele>265.0</ele><time>2026-04-06T13:09:05.777Z</time></trkpt><trkpt lat="45.7130938" lon="9.0967987"><ele>265.0</ele><time>2026-04-06T13:09:06.777Z</time></trkpt><trkpt lat="45.7129494" lon="9.0968977"><ele>265.0</ele><time>2026-04-06T13:09:07.778Z</time></trkpt><trkpt lat="45.7128197" lon="9.0970313"><ele>262.0</ele><time>2026-04-06T13:09:08.778Z</time></trkpt><trkpt lat="45.7127144" lon="9.0972011"><ele>259.0</ele><time>2026-04-06T13:09:09.778Z</time></trkpt><trkpt lat="45.7126291" lon="9.0973947"><ele>256.0</ele><time>2026-04-06T13:09:10.778Z</time></trkpt><trkpt lat="45.712568" lon="9.0975991"><ele>256.0</ele><time>2026-04-06T13:09:11.778Z</time></trkpt><trkpt lat="45.7125299" lon="9.0978146"><ele>256.0</ele><time>2026-04-06T13:09:12.777Z</time></trkpt><trkpt lat="45.7125145" lon="9.0980395"><ele>256.0</ele><time>2026-04-06T13:09:13.777Z</time></trkpt><trkpt lat="45.7125339" lon="9.0982646"><ele>254.33333333333331</ele><time>2026-04-06T13:09:14.777Z</time></trkpt><trkpt lat="45.7125739" lon="9.0984789"><ele>252.66666666666669</ele><time>2026-04-06T13:09:15.777Z</time></trkpt><trkpt lat="45.7126485" lon="9.0986745"><ele>251.0</ele><time>2026-04-06T13:09:16.778Z</time></trkpt><trkpt lat="45.7127525" lon="9.0988363"><ele>251.0</ele><time>2026-04-06T13:09:17.778Z</time></trkpt><trkpt lat="45.7128869" lon="9.0989586"><ele>251.0</ele><time>2026-04-06T13:09:18.777Z</time></trkpt><trkpt lat="45.7130394" lon="9.0990338"><ele>251.0</ele><time>2026-04-06T13:09:19.777Z</time></trkpt><trkpt lat="45.7131981" lon="9.0990643"><ele>251.0</ele><time>2026-04-06T13:09:20.777Z</time></trkpt><trkpt lat="45.7133476" lon="9.0990768"><ele>251.0</ele><time>2026-04-06T13:09:21.778Z</time></trkpt><trkpt lat="45.713488" lon="9.0991019"><ele>251.0</ele><time>2026-04-06T13:09:22.778Z</time></trkpt><trkpt lat="45.713621" lon="9.0991462"><ele>251.0</ele><time>2026-04-06T13:09:23.777Z</time></trkpt><trkpt lat="45.7137476" lon="9.0992036"><ele>250.5</ele><time>2026-04-06T13:09:24.778Z</time></trkpt><trkpt lat="45.713873" lon="9.0992647"><ele>250.0</ele><time>2026-04-06T13:09:25.777Z</time></trkpt><trkpt lat="45.7140012" lon="9.099327"><ele>249.5</ele><time>2026-04-06T13:09:26.778Z</time></trkpt><trkpt lat="45.7141298" lon="9.0993876"><ele>249.0</ele><time>2026-04-06T13:09:27.777Z</time></trkpt><trkpt lat="45.7142594" lon="9.099452"><ele>249.0</ele><time>2026-04-06T13:09:28.778Z</time></trkpt><trkpt lat="45.7143889" lon="9.0995126"><ele>249.0</ele><time>2026-04-06T13:09:29.778Z</time></trkpt><trkpt lat="45.7145154" lon="9.0995727"><ele>249.0</ele><time>2026-04-06T13:09:30.777Z</time></trkpt><trkpt lat="45.7146431" lon="9.0996266"><ele>249.0</ele><time>2026-04-06T13:09:31.777Z</time></trkpt><trkpt lat="45.7147779" lon="9.0996729"><ele>248.75</ele><time>2026-04-06T13:09:32.777Z</time></trkpt><trkpt lat="45.7149165" lon="9.0997016"><ele>248.5</ele><time>2026-04-06T13:09:33.778Z</time></trkpt><trkpt lat="45.7150589" lon="9.0997212"><ele>248.25</ele><time>2026-04-06T13:09:34.778Z</time></trkpt><trkpt lat="45.7151986" lon="9.099735"><ele>248.0</ele><time>2026-04-06T13:09:35.777Z</time></trkpt><trkpt lat="45.7153292" lon="9.099747"><ele>248.5</ele><time>2026-04-06T13:09:36.777Z</time></trkpt><trkpt lat="45.715452" lon="9.0997582"><ele>249.0</ele><time>2026-04-06T13:09:37.778Z</time></trkpt><trkpt lat="45.7155696" lon="9.0997701"><ele>249.5</ele><time>2026-04-06T13:09:38.778Z</time></trkpt><trkpt lat="45.7156839" lon="9.0997844"><ele>250.0</ele><time>2026-04-06T13:09:39.777Z</time></trkpt><trkpt lat="45.7157962" lon="9.099797"><ele>250.0</ele><time>2026-04-06T13:09:40.777Z</time></trkpt><trkpt lat="45.7159066" lon="9.0998082"><ele>250.0</ele><time>2026-04-06T13:09:41.777Z</time></trkpt><trkpt lat="45.7160151" lon="9.0998091"><ele>250.0</ele><time>2026-04-06T13:09:42.778Z</time></trkpt><trkpt lat="45.7161285" lon="9.0998075"><ele>250.0</ele><time>2026-04-06T13:09:43.777Z</time></trkpt><trkpt lat="45.7162446" lon="9.0997977"><ele>250.0</ele><time>2026-04-06T13:09:44.777Z</time></trkpt><trkpt lat="45.7163627" lon="9.0997834"><ele>250.25</ele><time>2026-04-06T13:09:45.777Z</time></trkpt><trkpt lat="45.7164799" lon="9.0997711"><ele>250.5</ele><time>2026-04-06T13:09:46.777Z</time></trkpt><trkpt lat="45.7166038" lon="9.0997687"><ele>250.75</ele><time>2026-04-06T13:09:47.778Z</time></trkpt><trkpt lat="45.7167274" lon="9.0997821"><ele>251.0</ele><time>2026-04-06T13:09:48.778Z</time></trkpt><trkpt lat="45.716852" lon="9.0998046"><ele>250.25</ele><time>2026-04-06T13:09:49.777Z</time></trkpt><trkpt lat="45.7169807" lon="9.0998349"><ele>249.5</ele><time>2026-04-06T13:09:50.777Z</time></trkpt><trkpt lat="45.7171079" lon="9.0998644"><ele>248.75</ele><time>2026-04-06T13:09:51.777Z</time></trkpt><trkpt lat="45.71723" lon="9.0998917"><ele>248.0</ele><time>2026-04-06T13:09:52.777Z</time></trkpt><trkpt lat="45.7173503" lon="9.0999233"><ele>248.0</ele><time>2026-04-06T13:09:53.778Z</time></trkpt><trkpt lat="45.7174708" lon="9.0999524"><ele>248.0</ele><time>2026-04-06T13:09:54.778Z</time></trkpt><trkpt lat="45.717593" lon="9.0999897"><ele>248.0</ele><time>2026-04-06T13:09:55.778Z</time></trkpt><trkpt lat="45.7177168" lon="9.1000284"><ele>248.0</ele><time>2026-04-06T13:09:56.777Z</time></trkpt><trkpt lat="45.7178488" lon="9.1000746"><ele>248.0</ele><time>2026-04-06T13:09:57.777Z</time></trkpt><trkpt lat="45.7179873" lon="9.1001372"><ele>248.0</ele><time>2026-04-06T13:09:58.777Z</time></trkpt><trkpt lat="45.7181274" lon="9.1002077"><ele>248.0</ele><time>2026-04-06T13:09:59.777Z</time></trkpt><trkpt lat="45.7182626" lon="9.1002818"><ele>248.0</ele><time>2026-04-06T13:10:00.778Z</time></trkpt><trkpt lat="45.7184052" lon="9.1003651"><ele>248.0</ele><time>2026-04-06T13:10:01.778Z</time></trkpt><trkpt lat="45.7185584" lon="9.1004494"><ele>248.0</ele><time>2026-04-06T13:10:02.777Z</time></trkpt><trkpt lat="45.718707" lon="9.1005407"><ele>248.0</ele><time>2026-04-06T13:10:03.777Z</time></trkpt><trkpt lat="45.7188493" lon="9.1006267"><ele>248.0</ele><time>2026-04-06T13:10:04.777Z</time></trkpt><trkpt lat="45.7189812" lon="9.1007028"><ele>248.0</ele><time>2026-04-06T13:10:05.777Z</time></trkpt><trkpt lat="45.7191018" lon="9.1007752"><ele>248.0</ele><time>2026-04-06T13:10:06.777Z</time></trkpt><trkpt lat="45.719215" lon="9.1008395"><ele>248.0</ele><time>2026-04-06T13:10:07.778Z</time></trkpt><trkpt lat="45.7193229" lon="9.1009028"><ele>248.75</ele><time>2026-04-06T13:10:08.778Z</time></trkpt><trkpt lat="45.7194318" lon="9.1009678"><ele>249.5</ele><time>2026-04-06T13:10:09.778Z</time></trkpt><trkpt lat="45.7195444" lon="9.1010378"><ele>250.25</ele><time>2026-04-06T13:10:10.778Z</time></trkpt><trkpt lat="45.7196528" lon="9.1011025"><ele>251.0</ele><time>2026-04-06T13:10:11.778Z</time></trkpt><trkpt lat="45.7197568" lon="9.1011628"><ele>251.00000000000003</ele><time>2026-04-06T13:10:12.778Z</time></trkpt><trkpt lat="45.7198533" lon="9.1012104"><ele>251.0</ele><time>2026-04-06T13:10:13.778Z</time></trkpt><trkpt lat="45.7199335" lon="9.1012527"><ele>251.0</ele><time>2026-04-06T13:10:14.778Z</time></trkpt><trkpt lat="45.7200013" lon="9.101294"><ele>251.0</ele><time>2026-04-06T13:10:15.778Z</time></trkpt><trkpt lat="45.7200639" lon="9.1013461"><ele>251.00000000000003</ele><time>2026-04-06T13:10:16.777Z</time></trkpt><trkpt lat="45.7201222" lon="9.101403"><ele>251.0</ele><time>2026-04-06T13:10:17.777Z</time></trkpt><trkpt lat="45.7201867" lon="9.1014798"><ele>251.75</ele><time>2026-04-06T13:10:18.777Z</time></trkpt><trkpt lat="45.7202562" lon="9.1015737"><ele>252.5</ele><time>2026-04-06T13:10:19.778Z</time></trkpt><trkpt lat="45.7203309" lon="9.1016795"><ele>253.25</ele><time>2026-04-06T13:10:20.777Z</time></trkpt><trkpt lat="45.7204135" lon="9.101805"><ele>254.0</ele><time>2026-04-06T13:10:21.777Z</time></trkpt><trkpt lat="45.7205121" lon="9.1019492"><ele>255.0</ele><time>2026-04-06T13:10:22.777Z</time></trkpt><trkpt lat="45.7206239" lon="9.1021169"><ele>256.0</ele><time>2026-04-06T13:10:23.777Z</time></trkpt><trkpt lat="45.7207367" lon="9.1022814"><ele>257.0</ele><time>2026-04-06T13:10:24.778Z</time></trkpt><trkpt lat="45.7208473" lon="9.1024476"><ele>258.6666666666667</ele><time>2026-04-06T13:10:25.778Z</time></trkpt><trkpt lat="45.7209661" lon="9.1026163"><ele>260.3333333333333</ele><time>2026-04-06T13:10:26.777Z</time></trkpt><trkpt lat="45.7210852" lon="9.1027943"><ele>262.0</ele><time>2026-04-06T13:10:27.777Z</time></trkpt><trkpt lat="45.7212068" lon="9.1029683"><ele>261.66666666666663</ele><time>2026-04-06T13:10:28.778Z</time></trkpt><trkpt lat="45.7213401" lon="9.1031423"><ele>261.3333333333333</ele><time>2026-04-06T13:10:29.777Z</time></trkpt><trkpt lat="45.7214941" lon="9.10331"><ele>261.0</ele><time>2026-04-06T13:10:30.778Z</time></trkpt><trkpt lat="45.7216716" lon="9.1034711"><ele>261.0</ele><time>2026-04-06T13:10:31.778Z</time></trkpt><trkpt lat="45.7218613" lon="9.1036346"><ele>261.0</ele><time>2026-04-06T13:10:32.778Z</time></trkpt><trkpt lat="45.7220476" lon="9.103782"><ele>261.0</ele><time>2026-04-06T13:10:33.778Z</time></trkpt><trkpt lat="45.7222286" lon="9.1039187"><ele>262.6666666666667</ele><time>2026-04-06T13:10:34.777Z</time></trkpt><trkpt lat="45.7224127" lon="9.1040525"><ele>264.33333333333337</ele><time>2026-04-06T13:10:35.777Z</time></trkpt><trkpt lat="45.7225996" lon="9.1041869"><ele>266.0</ele><time>2026-04-06T13:10:36.777Z</time></trkpt><trkpt lat="45.7227886" lon="9.104325"><ele>266.0</ele><time>2026-04-06T13:10:37.778Z</time></trkpt><trkpt lat="45.7229698" lon="9.1044645"><ele>266.0</ele><time>2026-04-06T13:10:38.778Z</time></trkpt><trkpt lat="45.723133" lon="9.1046096"><ele>266.0</ele><time>2026-04-06T13:10:39.777Z</time></trkpt><trkpt lat="45.7232794" lon="9.1047695"><ele>268.33333333333337</ele><time>2026-04-06T13:10:40.778Z</time></trkpt><trkpt lat="45.723411" lon="9.1049479"><ele>270.6666666666667</ele><time>2026-04-06T13:10:41.778Z</time></trkpt><trkpt lat="45.7235353" lon="9.1051297"><ele>273.0</ele><time>2026-04-06T13:10:42.778Z</time></trkpt><trkpt lat="45.7236645" lon="9.1053054"><ele>273.0</ele><time>2026-04-06T13:10:43.777Z</time></trkpt><trkpt lat="45.7238058" lon="9.1054707"><ele>273.0</ele><time>2026-04-06T13:10:44.777Z</time></trkpt><trkpt lat="45.7239635" lon="9.1056138"><ele>273.0</ele><time>2026-04-06T13:10:45.778Z</time></trkpt><trkpt lat="45.7241276" lon="9.105743"><ele>274.6666666666667</ele><time>2026-04-06T13:10:46.778Z</time></trkpt><trkpt lat="45.724295" lon="9.1058727"><ele>276.33333333333337</ele><time>2026-04-06T13:10:47.777Z</time></trkpt><trkpt lat="45.724466" lon="9.1060119"><ele>278.0</ele><time>2026-04-06T13:10:48.778Z</time></trkpt><trkpt lat="45.7246389" lon="9.1061535"><ele>278.6666666666667</ele><time>2026-04-06T13:10:49.777Z</time></trkpt><trkpt lat="45.7248093" lon="9.1062955"><ele>279.3333333333333</ele><time>2026-04-06T13:10:50.777Z</time></trkpt><trkpt lat="45.7249803" lon="9.1064346"><ele>280.0</ele><time>2026-04-06T13:10:51.777Z</time></trkpt><trkpt lat="45.7251508" lon="9.1065734"><ele>282.3333333333333</ele><time>2026-04-06T13:10:52.777Z</time></trkpt><trkpt lat="45.7253224" lon="9.1067117"><ele>284.6666666666667</ele><time>2026-04-06T13:10:53.778Z</time></trkpt><trkpt lat="45.7254943" lon="9.1068531"><ele>287.0</ele><time>2026-04-06T13:10:54.778Z</time></trkpt><trkpt lat="45.725662" lon="9.1069955"><ele>287.0</ele><time>2026-04-06T13:10:55.778Z</time></trkpt><trkpt lat="45.7258208" lon="9.1071391"><ele>287.0</ele><time>2026-04-06T13:10:56.777Z</time></trkpt><trkpt lat="45.7259721" lon="9.1072712"><ele>287.0</ele><time>2026-04-06T13:10:57.778Z</time></trkpt><trkpt lat="45.726117" lon="9.1073876"><ele>289.33333333333337</ele><time>2026-04-06T13:10:58.777Z</time></trkpt><trkpt lat="45.7262729" lon="9.1074947"><ele>291.6666666666667</ele><time>2026-04-06T13:10:59.778Z</time></trkpt><trkpt lat="45.7264339" lon="9.1075774"><ele>294.0</ele><time>2026-04-06T13:11:00.777Z</time></trkpt><trkpt lat="45.7266036" lon="9.1076033"><ele>294.0</ele><time>2026-04-06T13:11:01.777Z</time></trkpt><trkpt lat="45.7267579" lon="9.1075709"><ele>294.0</ele><time>2026-04-06T13:11:02.778Z</time></trkpt><trkpt lat="45.7269019" lon="9.1074803"><ele>294.0</ele><time>2026-04-06T13:11:03.777Z</time></trkpt><trkpt lat="45.7270274" lon="9.1073579"><ele>294.0</ele><time>2026-04-06T13:11:04.777Z</time></trkpt><trkpt lat="45.7271275" lon="9.1071438"><ele>294.0</ele><time>2026-04-06T13:11:05.777Z</time></trkpt><trkpt lat="45.7272171" lon="9.1069417"><ele>294.0</ele><time>2026-04-06T13:11:06.777Z</time></trkpt><trkpt lat="45.7272936" lon="9.1067566"><ele>294.0</ele><time>2026-04-06T13:11:07.777Z</time></trkpt><trkpt lat="45.7273789" lon="9.1065796"><ele>294.0</ele><time>2026-04-06T13:11:08.778Z</time></trkpt><trkpt lat="45.7274721" lon="9.106429"><ele>294.0</ele><time>2026-04-06T13:11:09.777Z</time></trkpt><trkpt lat="45.7275756" lon="9.1063123"><ele>294.0</ele><time>2026-04-06T13:11:10.778Z</time></trkpt><trkpt lat="45.7277023" lon="9.1062345"><ele>294.25</ele><time>2026-04-06T13:11:11.777Z</time></trkpt><trkpt lat="45.7278393" lon="9.106211"><ele>294.5</ele><time>2026-04-06T13:11:12.777Z</time></trkpt><trkpt lat="45.7279853" lon="9.1062255"><ele>294.75</ele><time>2026-04-06T13:11:13.778Z</time></trkpt><trkpt lat="45.7281351" lon="9.1062619"><ele>295.0</ele><time>2026-04-06T13:11:14.776Z</time></trkpt><trkpt lat="45.7282811" lon="9.1063151"><ele>295.0</ele><time>2026-04-06T13:11:15.777Z</time></trkpt><trkpt lat="45.7284141" lon="9.1064017"><ele>295.0</ele><time>2026-04-06T13:11:16.777Z</time></trkpt><trkpt lat="45.7285234" lon="9.1065206"><ele>295.0</ele><time>2026-04-06T13:11:17.777Z</time></trkpt><trkpt lat="45.7286134" lon="9.1066661"><ele>295.0</ele><time>2026-04-06T13:11:18.776Z</time></trkpt><trkpt lat="45.7286791" lon="9.1068332"><ele>296.25</ele><time>2026-04-06T13:11:19.776Z</time></trkpt><trkpt lat="45.728726" lon="9.1070185"><ele>297.5</ele><time>2026-04-06T13:11:20.776Z</time></trkpt><trkpt lat="45.7287617" lon="9.1072242"><ele>298.75</ele><time>2026-04-06T13:11:21.776Z</time></trkpt><trkpt lat="45.7288011" lon="9.1074456"><ele>300.0</ele><time>2026-04-06T13:11:22.777Z</time></trkpt><trkpt lat="45.7288391" lon="9.107665"><ele>300.0</ele><time>2026-04-06T13:11:23.777Z</time></trkpt><trkpt lat="45.7288747" lon="9.107861"><ele>300.0</ele><time>2026-04-06T13:11:24.776Z</time></trkpt><trkpt lat="45.7289086" lon="9.1080436"><ele>300.0</ele><time>2026-04-06T13:11:25.777Z</time></trkpt><trkpt lat="45.7289439" lon="9.1082053"><ele>300.0</ele><time>2026-04-06T13:11:26.776Z</time></trkpt><trkpt lat="45.7289713" lon="9.1083611"><ele>300.3333333333333</ele><time>2026-04-06T13:11:27.776Z</time></trkpt><trkpt lat="45.7289851" lon="9.1085022"><ele>300.6666666666667</ele><time>2026-04-06T13:11:28.776Z</time></trkpt><trkpt lat="45.7289882" lon="9.1086276"><ele>301.0</ele><time>2026-04-06T13:11:29.777Z</time></trkpt><trkpt lat="45.7290034" lon="9.1087455"><ele>301.33333333333337</ele><time>2026-04-06T13:11:30.776Z</time></trkpt><trkpt lat="45.7290503" lon="9.1088339"><ele>301.6666666666667</ele><time>2026-04-06T13:11:31.776Z</time></trkpt><trkpt lat="45.729125" lon="9.1088749"><ele>302.0</ele><time>2026-04-06T13:11:32.776Z</time></trkpt><trkpt lat="45.7292203" lon="9.1088635"><ele>302.0</ele><time>2026-04-06T13:11:33.777Z</time></trkpt><trkpt lat="45.7293307" lon="9.1087988"><ele>302.0</ele><time>2026-04-06T13:11:34.777Z</time></trkpt><trkpt lat="45.729447" lon="9.1087107"><ele>302.0</ele><time>2026-04-06T13:11:35.777Z</time></trkpt><trkpt lat="45.7295798" lon="9.1086508"><ele>302.0</ele><time>2026-04-06T13:11:36.777Z</time></trkpt><trkpt lat="45.7297285" lon="9.1086024"><ele>301.25</ele><time>2026-04-06T13:11:37.777Z</time></trkpt><trkpt lat="45.7298782" lon="9.1085654"><ele>300.5</ele><time>2026-04-06T13:11:38.777Z</time></trkpt><trkpt lat="45.7300223" lon="9.1085371"><ele>299.75</ele><time>2026-04-06T13:11:39.777Z</time></trkpt><trkpt lat="45.7301662" lon="9.1085106"><ele>299.0</ele><time>2026-04-06T13:11:40.777Z</time></trkpt><trkpt lat="45.7303057" lon="9.1084818"><ele>298.75</ele><time>2026-04-06T13:11:41.777Z</time></trkpt><trkpt lat="45.7304393" lon="9.1084546"><ele>298.5</ele><time>2026-04-06T13:11:42.776Z</time></trkpt><trkpt lat="45.7305796" lon="9.1084361"><ele>298.25</ele><time>2026-04-06T13:11:43.776Z</time></trkpt><trkpt lat="45.7307229" lon="9.108425"><ele>298.0</ele><time>2026-04-06T13:11:44.777Z</time></trkpt><trkpt lat="45.7308685" lon="9.1084407"><ele>298.0</ele><time>2026-04-06T13:11:45.777Z</time></trkpt><trkpt lat="45.7310152" lon="9.1084681"><ele>298.0</ele><time>2026-04-06T13:11:46.775Z</time></trkpt><trkpt lat="45.7311621" lon="9.1085127"><ele>298.0</ele><time>2026-04-06T13:11:47.776Z</time></trkpt><trkpt lat="45.7313013" lon="9.1085688"><ele>298.0</ele><time>2026-04-06T13:11:48.777Z</time></trkpt><trkpt lat="45.7314426" lon="9.1086394"><ele>296.66666666666663</ele><time>2026-04-06T13:11:49.776Z</time></trkpt><trkpt lat="45.7315791" lon="9.1087114"><ele>295.3333333333333</ele><time>2026-04-06T13:11:50.777Z</time></trkpt><trkpt lat="45.7317206" lon="9.10879"><ele>294.0</ele><time>2026-04-06T13:11:51.777Z</time></trkpt><trkpt lat="45.7318625" lon="9.1088735"><ele>293.6666666666667</ele><time>2026-04-06T13:11:52.776Z</time></trkpt><trkpt lat="45.7320007" lon="9.1089622"><ele>293.33333333333337</ele><time>2026-04-06T13:11:53.776Z</time></trkpt><trkpt lat="45.7321359" lon="9.1090593"><ele>293.0</ele><time>2026-04-06T13:11:54.776Z</time></trkpt><trkpt lat="45.7322643" lon="9.1091689"><ele>294.33333333333337</ele><time>2026-04-06T13:11:55.776Z</time></trkpt><trkpt lat="45.7323945" lon="9.1092876"><ele>295.6666666666667</ele><time>2026-04-06T13:11:56.777Z</time></trkpt><trkpt lat="45.7325192" lon="9.1094159"><ele>297.0</ele><time>2026-04-06T13:11:57.777Z</time></trkpt><trkpt lat="45.7326399" lon="9.1095487"><ele>296.6666666666667</ele><time>2026-04-06T13:11:58.776Z</time></trkpt><trkpt lat="45.7327615" lon="9.1096902"><ele>296.33333333333337</ele><time>2026-04-06T13:11:59.777Z</time></trkpt><trkpt lat="45.7328809" lon="9.1098345"><ele>296.0</ele><time>2026-04-06T13:12:00.777Z</time></trkpt><trkpt lat="45.7329992" lon="9.1099802"><ele>297.0</ele><time>2026-04-06T13:12:01.776Z</time></trkpt><trkpt lat="45.7331166" lon="9.1101274"><ele>298.0</ele><time>2026-04-06T13:12:02.777Z</time></trkpt><trkpt lat="45.7332313" lon="9.1102754"><ele>299.0</ele><time>2026-04-06T13:12:03.776Z</time></trkpt><trkpt lat="45.7333472" lon="9.1104186"><ele>299.0</ele><time>2026-04-06T13:12:04.776Z</time></trkpt><trkpt lat="45.7334645" lon="9.1105604"><ele>299.0</ele><time>2026-04-06T13:12:05.777Z</time></trkpt><trkpt lat="45.7335799" lon="9.1107019"><ele>299.0</ele><time>2026-04-06T13:12:06.777Z</time></trkpt><trkpt lat="45.7336847" lon="9.1108383"><ele>299.0</ele><time>2026-04-06T13:12:07.776Z</time></trkpt><trkpt lat="45.7337831" lon="9.1109661"><ele>298.5</ele><time>2026-04-06T13:12:08.776Z</time></trkpt><trkpt lat="45.7338748" lon="9.1110827"><ele>298.0</ele><time>2026-04-06T13:12:09.776Z</time></trkpt><trkpt lat="45.733961" lon="9.1111925"><ele>297.5</ele><time>2026-04-06T13:12:10.777Z</time></trkpt><trkpt lat="45.734042" lon="9.1112974"><ele>297.0</ele><time>2026-04-06T13:12:11.776Z</time></trkpt><trkpt lat="45.7341164" lon="9.1114039"><ele>297.0</ele><time>2026-04-06T13:12:12.776Z</time></trkpt><trkpt lat="45.7341744" lon="9.1115258"><ele>297.0</ele><time>2026-04-06T13:12:13.776Z</time></trkpt><trkpt lat="45.7342252" lon="9.1116605"><ele>297.0</ele><time>2026-04-06T13:12:14.777Z</time></trkpt><trkpt lat="45.7342943" lon="9.1117983"><ele>297.0</ele><time>2026-04-06T13:12:15.776Z</time></trkpt><trkpt lat="45.7343955" lon="9.1119045"><ele>296.25</ele><time>2026-04-06T13:12:16.777Z</time></trkpt><trkpt lat="45.7345265" lon="9.1119916"><ele>295.5</ele><time>2026-04-06T13:12:17.776Z</time></trkpt><trkpt lat="45.7346557" lon="9.1120795"><ele>294.75</ele><time>2026-04-06T13:12:18.776Z</time></trkpt><trkpt lat="45.7347753" lon="9.1121811"><ele>294.0</ele><time>2026-04-06T13:12:19.776Z</time></trkpt><trkpt lat="45.734895" lon="9.1122938"><ele>294.5</ele><time>2026-04-06T13:12:20.776Z</time></trkpt><trkpt lat="45.7350103" lon="9.112413"><ele>295.0</ele><time>2026-04-06T13:12:21.777Z</time></trkpt><trkpt lat="45.735128" lon="9.1125376"><ele>295.5</ele><time>2026-04-06T13:12:22.776Z</time></trkpt><trkpt lat="45.7352506" lon="9.1126701"><ele>296.0</ele><time>2026-04-06T13:12:23.777Z</time></trkpt><trkpt lat="45.73537" lon="9.1127995"><ele>296.25</ele><time>2026-04-06T13:12:24.776Z</time></trkpt><trkpt lat="45.7354797" lon="9.1129171"><ele>296.5</ele><time>2026-04-06T13:12:25.776Z</time></trkpt><trkpt lat="45.7355869" lon="9.1130329"><ele>296.75</ele><time>2026-04-06T13:12:26.776Z</time></trkpt><trkpt lat="45.7356953" lon="9.1131534"><ele>297.0</ele><time>2026-04-06T13:12:27.776Z</time></trkpt><trkpt lat="45.7358022" lon="9.1132764"><ele>297.25</ele><time>2026-04-06T13:12:28.776Z</time></trkpt><trkpt lat="45.7359076" lon="9.1134027"><ele>297.5</ele><time>2026-04-06T13:12:29.776Z</time></trkpt><trkpt lat="45.7360125" lon="9.1135342"><ele>297.75</ele><time>2026-04-06T13:12:30.777Z</time></trkpt><trkpt lat="45.7361145" lon="9.1136755"><ele>298.0</ele><time>2026-04-06T13:12:31.777Z</time></trkpt><trkpt lat="45.7362113" lon="9.1138209"><ele>298.0</ele><time>2026-04-06T13:12:32.776Z</time></trkpt><trkpt lat="45.7363099" lon="9.1139685"><ele>298.0</ele><time>2026-04-06T13:12:33.777Z</time></trkpt><trkpt lat="45.7364064" lon="9.1141151"><ele>298.0</ele><time>2026-04-06T13:12:34.777Z</time></trkpt><trkpt lat="45.7365011" lon="9.1142643"><ele>298.0</ele><time>2026-04-06T13:12:35.776Z</time></trkpt><trkpt lat="45.7365989" lon="9.1144191"><ele>298.25</ele><time>2026-04-06T13:12:36.776Z</time></trkpt><trkpt lat="45.7366963" lon="9.1145724"><ele>298.5</ele><time>2026-04-06T13:12:37.776Z</time></trkpt><trkpt lat="45.7367936" lon="9.1147239"><ele>298.75</ele><time>2026-04-06T13:12:38.777Z</time></trkpt><trkpt lat="45.7368914" lon="9.114878"><ele>299.0</ele><time>2026-04-06T13:12:39.777Z</time></trkpt><trkpt lat="45.7369866" lon="9.1150291"><ele>299.75</ele><time>2026-04-06T13:12:40.777Z</time></trkpt><trkpt lat="45.7370819" lon="9.1151757"><ele>300.5</ele><time>2026-04-06T13:12:41.776Z</time></trkpt><trkpt lat="45.7371837" lon="9.1153151"><ele>301.25</ele><time>2026-04-06T13:12:42.776Z</time></trkpt><trkpt lat="45.7372878" lon="9.1154489"><ele>302.0</ele><time>2026-04-06T13:12:43.776Z</time></trkpt><trkpt lat="45.7374001" lon="9.1155831"><ele>302.0</ele><time>2026-04-06T13:12:44.777Z</time></trkpt><trkpt lat="45.737518" lon="9.1157161"><ele>302.0</ele><time>2026-04-06T13:12:45.777Z</time></trkpt><trkpt lat="45.7376368" lon="9.1158509"><ele>302.0</ele><time>2026-04-06T13:12:46.776Z</time></trkpt><trkpt lat="45.7377556" lon="9.1159827"><ele>302.25</ele><time>2026-04-06T13:12:47.776Z</time></trkpt><trkpt lat="45.7378707" lon="9.1161075"><ele>302.5</ele><time>2026-04-06T13:12:48.776Z</time></trkpt><trkpt lat="45.7379892" lon="9.116228"><ele>302.75</ele><time>2026-04-06T13:12:49.777Z</time></trkpt><trkpt lat="45.7381083" lon="9.1163462"><ele>303.0</ele><time>2026-04-06T13:12:50.776Z</time></trkpt><trkpt lat="45.7382289" lon="9.1164582"><ele>303.0</ele><time>2026-04-06T13:12:51.776Z</time></trkpt><trkpt lat="45.7383489" lon="9.1165686"><ele>303.0</ele><time>2026-04-06T13:12:52.777Z</time></trkpt><trkpt lat="45.7384708" lon="9.1166783"><ele>303.0</ele><time>2026-04-06T13:12:53.776Z</time></trkpt><trkpt lat="45.7385911" lon="9.1167929"><ele>303.0</ele><time>2026-04-06T13:12:54.777Z</time></trkpt><trkpt lat="45.7387146" lon="9.116903"><ele>303.5</ele><time>2026-04-06T13:12:55.777Z</time></trkpt><trkpt lat="45.7388376" lon="9.1170145"><ele>304.0</ele><time>2026-04-06T13:12:56.777Z</time></trkpt><trkpt lat="45.7389554" lon="9.1171225"><ele>304.5</ele><time>2026-04-06T13:12:57.776Z</time></trkpt><trkpt lat="45.7390747" lon="9.1172324"><ele>305.0</ele><time>2026-04-06T13:12:58.776Z</time></trkpt><trkpt lat="45.7391967" lon="9.1173395"><ele>305.0</ele><time>2026-04-06T13:12:59.777Z</time></trkpt><trkpt lat="45.7393164" lon="9.1174467"><ele>305.0</ele><time>2026-04-06T13:13:00.777Z</time></trkpt><trkpt lat="45.7394372" lon="9.1175542"><ele>305.0</ele><time>2026-04-06T13:13:01.777Z</time></trkpt><trkpt lat="45.7395537" lon="9.1176621"><ele>305.0</ele><time>2026-04-06T13:13:02.777Z</time></trkpt><trkpt lat="45.7396694" lon="9.1177731"><ele>305.0</ele><time>2026-04-06T13:13:03.777Z</time></trkpt><trkpt lat="45.7397851" lon="9.1178789"><ele>305.0</ele><time>2026-04-06T13:13:04.777Z</time></trkpt><trkpt lat="45.739894" lon="9.1179828"><ele>305.0</ele><time>2026-04-06T13:13:05.777Z</time></trkpt><trkpt lat="45.7399973" lon="9.118079"><ele>305.0</ele><time>2026-04-06T13:13:06.776Z</time></trkpt><trkpt lat="45.7400959" lon="9.1181705"><ele>305.2</ele><time>2026-04-06T13:13:07.777Z</time></trkpt><trkpt lat="45.7401903" lon="9.118253"><ele>305.4</ele><time>2026-04-06T13:13:08.776Z</time></trkpt><trkpt lat="45.740277" lon="9.1183325"><ele>305.6</ele><time>2026-04-06T13:13:09.776Z</time></trkpt><trkpt lat="45.7403591" lon="9.1184088"><ele>305.8</ele><time>2026-04-06T13:13:10.776Z</time></trkpt><trkpt lat="45.7404352" lon="9.1184823"><ele>306.0</ele><time>2026-04-06T13:13:11.776Z</time></trkpt><trkpt lat="45.7405057" lon="9.1185496"><ele>306.5</ele><time>2026-04-06T13:13:12.777Z</time></trkpt><trkpt lat="45.7405715" lon="9.1186104"><ele>307.0</ele><time>2026-04-06T13:13:13.776Z</time></trkpt><trkpt lat="45.740637" lon="9.1186654"><ele>307.5</ele><time>2026-04-06T13:13:14.776Z</time></trkpt><trkpt lat="45.7407008" lon="9.1187274"><ele>308.0</ele><time>2026-04-06T13:13:15.777Z</time></trkpt><trkpt lat="45.7407684" lon="9.1188051"><ele>308.5</ele><time>2026-04-06T13:13:16.777Z</time></trkpt><trkpt lat="45.7408363" lon="9.1188917"><ele>309.0</ele><time>2026-04-06T13:13:17.777Z</time></trkpt><trkpt lat="45.7409005" lon="9.1189838"><ele>309.0</ele><time>2026-04-06T13:13:18.776Z</time></trkpt><trkpt lat="45.7409724" lon="9.1190763"><ele>309.0</ele><time>2026-04-06T13:13:19.777Z</time></trkpt><trkpt lat="45.7410598" lon="9.1191468"><ele>309.0</ele><time>2026-04-06T13:13:20.776Z</time></trkpt><trkpt lat="45.7411665" lon="9.1191825"><ele>309.0</ele><time>2026-04-06T13:13:21.776Z</time></trkpt><trkpt lat="45.7412826" lon="9.1192256"><ele>309.0</ele><time>2026-04-06T13:13:22.776Z</time></trkpt><trkpt lat="45.7414022" lon="9.1192943"><ele>309.0</ele><time>2026-04-06T13:13:23.776Z</time></trkpt><trkpt lat="45.7415118" lon="9.1193642"><ele>309.0</ele><time>2026-04-06T13:13:24.776Z</time></trkpt><trkpt lat="45.7416218" lon="9.1194424"><ele>309.0</ele><time>2026-04-06T13:13:25.776Z</time></trkpt><trkpt lat="45.7417359" lon="9.1195172"><ele>309.0</ele><time>2026-04-06T13:13:26.777Z</time></trkpt><trkpt lat="45.7418509" lon="9.1195971"><ele>309.25</ele><time>2026-04-06T13:13:27.777Z</time></trkpt><trkpt lat="45.7419726" lon="9.1196827"><ele>309.5</ele><time>2026-04-06T13:13:28.777Z</time></trkpt><trkpt lat="45.7421021" lon="9.1197763"><ele>309.75</ele><time>2026-04-06T13:13:29.776Z</time></trkpt><trkpt lat="45.7422262" lon="9.1198754"><ele>310.0</ele><time>2026-04-06T13:13:30.776Z</time></trkpt><trkpt lat="45.7423474" lon="9.1199716"><ele>310.25</ele><time>2026-04-06T13:13:31.777Z</time></trkpt><trkpt lat="45.7424675" lon="9.1200688"><ele>310.5</ele><time>2026-04-06T13:13:32.777Z</time></trkpt><trkpt lat="45.7425888" lon="9.1201649"><ele>310.75</ele><time>2026-04-06T13:13:33.776Z</time></trkpt><trkpt lat="45.7427152" lon="9.1202589"><ele>311.0</ele><time>2026-04-06T13:13:34.775Z</time></trkpt><trkpt lat="45.7428384" lon="9.1203493"><ele>311.0</ele><time>2026-04-06T13:13:35.776Z</time></trkpt><trkpt lat="45.7429648" lon="9.1204435"><ele>311.0</ele><time>2026-04-06T13:13:36.775Z</time></trkpt><trkpt lat="45.743089" lon="9.1205361"><ele>311.0</ele><time>2026-04-06T13:13:37.775Z</time></trkpt><trkpt lat="45.743215" lon="9.1206348"><ele>311.0</ele><time>2026-04-06T13:13:38.776Z</time></trkpt><trkpt lat="45.7433429" lon="9.1207306"><ele>311.25</ele><time>2026-04-06T13:13:39.775Z</time></trkpt><trkpt lat="45.7434738" lon="9.1208242"><ele>311.5</ele><time>2026-04-06T13:13:40.776Z</time></trkpt><trkpt lat="45.7436024" lon="9.1209228"><ele>311.75</ele><time>2026-04-06T13:13:41.776Z</time></trkpt><trkpt lat="45.743732" lon="9.1210212"><ele>312.0</ele><time>2026-04-06T13:13:42.775Z</time></trkpt><trkpt lat="45.7438612" lon="9.1211151"><ele>312.0</ele><time>2026-04-06T13:13:43.775Z</time></trkpt><trkpt lat="45.7439842" lon="9.1212069"><ele>312.0</ele><time>2026-04-06T13:13:44.776Z</time></trkpt><trkpt lat="45.7440964" lon="9.1212955"><ele>312.0</ele><time>2026-04-06T13:13:45.776Z</time></trkpt><trkpt lat="45.7442068" lon="9.1213772"><ele>312.0</ele><time>2026-04-06T13:13:46.776Z</time></trkpt><trkpt lat="45.7443126" lon="9.121452"><ele>312.25</ele><time>2026-04-06T13:13:47.775Z</time></trkpt><trkpt lat="45.7444163" lon="9.1215275"><ele>312.5</ele><time>2026-04-06T13:13:48.775Z</time></trkpt><trkpt lat="45.7445152" lon="9.1216003"><ele>312.75</ele><time>2026-04-06T13:13:49.776Z</time></trkpt><trkpt lat="45.7446151" lon="9.1216724"><ele>313.0</ele><time>2026-04-06T13:13:50.776Z</time></trkpt><trkpt lat="45.7447155" lon="9.1217481"><ele>313.0</ele><time>2026-04-06T13:13:51.776Z</time></trkpt><trkpt lat="45.7448123" lon="9.1218186"><ele>313.0</ele><time>2026-04-06T13:13:52.776Z</time></trkpt><trkpt lat="45.7448979" lon="9.1218892"><ele>313.0</ele><time>2026-04-06T13:13:53.775Z</time></trkpt><trkpt lat="45.7449755" lon="9.1219533"><ele>313.0</ele><time>2026-04-06T13:13:54.776Z</time></trkpt><trkpt lat="45.745042" lon="9.1220027"><ele>313.0</ele><time>2026-04-06T13:13:55.776Z</time></trkpt><trkpt lat="45.7451281" lon="9.1220778"><ele>313.0</ele><time>2026-04-06T13:13:57.775Z</time></trkpt><trkpt lat="45.7451744" lon="9.1221439"><ele>313.0</ele><time>2026-04-06T13:13:59.776Z</time></trkpt><trkpt lat="45.7451762" lon="9.1222868"><ele>313.0</ele><time>2026-04-06T13:14:02.776Z</time></trkpt><trkpt lat="45.7451318" lon="9.1223536"><ele>313.0</ele><time>2026-04-06T13:14:03.775Z</time></trkpt><trkpt lat="45.7450798" lon="9.1224102"><ele>313.0</ele><time>2026-04-06T13:14:04.776Z</time></trkpt><trkpt lat="45.7449847" lon="9.122515"><ele>313.0</ele><time>2026-04-06T13:14:06.775Z</time></trkpt><trkpt lat="45.7449334" lon="9.1225786"><ele>313.0</ele><time>2026-04-06T13:14:07.776Z</time></trkpt><trkpt lat="45.7448814" lon="9.1226439"><ele>313.0</ele><time>2026-04-06T13:14:08.775Z</time></trkpt><trkpt lat="45.7448294" lon="9.122713"><ele>313.0</ele><time>2026-04-06T13:14:09.775Z</time></trkpt><trkpt lat="45.7447861" lon="9.1227833"><ele>313.0</ele><time>2026-04-06T13:14:10.775Z</time></trkpt><trkpt lat="45.7447417" lon="9.1228496"><ele>313.0</ele><time>2026-04-06T13:14:11.776Z</time></trkpt><trkpt lat="45.7446683" lon="9.1229492"><ele>313.0</ele><time>2026-04-06T13:14:13.775Z</time></trkpt><trkpt lat="45.7446213" lon="9.1230361"><ele>313.0</ele><time>2026-04-06T13:14:15.775Z</time></trkpt><trkpt lat="45.7445772" lon="9.1231107"><ele>313.0</ele><time>2026-04-06T13:14:17.775Z</time></trkpt><trkpt lat="45.7445248" lon="9.1232213"><ele>313.0</ele><time>2026-04-06T13:14:19.775Z</time></trkpt><trkpt lat="45.7444778" lon="9.1233454"><ele>313.0</ele><time>2026-04-06T13:14:21.775Z</time></trkpt><trkpt lat="45.7444822" lon="9.1234893"><ele>313.0</ele><time>2026-04-06T13:14:23.776Z</time></trkpt><trkpt lat="45.7445775" lon="9.1236105"><ele>313.0</ele><time>2026-04-06T13:14:25.776Z</time></trkpt><trkpt lat="45.7446443" lon="9.1236676"><ele>313.2</ele><time>2026-04-06T13:14:26.775Z</time></trkpt><trkpt lat="45.7446969" lon="9.1237246"><ele>313.4</ele><time>2026-04-06T13:14:27.775Z</time></trkpt><trkpt lat="45.7447769" lon="9.1238215"><ele>313.59999999999997</ele><time>2026-04-06T13:14:29.775Z</time></trkpt><trkpt lat="45.744828" lon="9.1239545"><ele>313.8</ele><time>2026-04-06T13:14:31.775Z</time></trkpt><trkpt lat="45.7448193" lon="9.1241166"><ele>314.0</ele><time>2026-04-06T13:14:33.776Z</time></trkpt><trkpt lat="45.7447881" lon="9.1242878"><ele>314.0</ele><time>2026-04-06T13:14:35.775Z</time></trkpt><trkpt lat="45.7447698" lon="9.1243821"><ele>314.0</ele><time>2026-04-06T13:14:36.776Z</time></trkpt><trkpt lat="45.7447344" lon="9.1245606"><ele>314.0</ele><time>2026-04-06T13:14:38.775Z</time></trkpt><trkpt lat="45.7447224" lon="9.1246593"><ele>314.0</ele><time>2026-04-06T13:14:39.775Z</time></trkpt><trkpt lat="45.7447052" lon="9.1247675"><ele>314.0</ele><time>2026-04-06T13:14:40.775Z</time></trkpt><trkpt lat="45.7446876" lon="9.1248816"><ele>314.0</ele><time>2026-04-06T13:14:41.776Z</time></trkpt><trkpt lat="45.7446699" lon="9.125006"><ele>315.0</ele><time>2026-04-06T13:14:42.776Z</time></trkpt><trkpt lat="45.7446565" lon="9.1251506"><ele>316.0</ele><time>2026-04-06T13:14:43.775Z</time></trkpt><trkpt lat="45.7446563" lon="9.1252929"><ele>317.0</ele><time>2026-04-06T13:14:44.775Z</time></trkpt><trkpt lat="45.7446684" lon="9.1254248"><ele>318.0</ele><time>2026-04-06T13:14:45.775Z</time></trkpt><trkpt lat="45.7446811" lon="9.125557"><ele>319.0</ele><time>2026-04-06T13:14:46.776Z</time></trkpt><trkpt lat="45.7446984" lon="9.1256982"><ele>319.6</ele><time>2026-04-06T13:14:47.775Z</time></trkpt><trkpt lat="45.7447096" lon="9.1258416"><ele>320.2</ele><time>2026-04-06T13:14:48.776Z</time></trkpt><trkpt lat="45.7447262" lon="9.1259914"><ele>320.8</ele><time>2026-04-06T13:14:49.775Z</time></trkpt><trkpt lat="45.7447405" lon="9.1261419"><ele>321.40000000000003</ele><time>2026-04-06T13:14:50.776Z</time></trkpt><trkpt lat="45.7447538" lon="9.1262951"><ele>322.0</ele><time>2026-04-06T13:14:51.776Z</time></trkpt><trkpt lat="45.744767" lon="9.1264483"><ele>323.20000000000005</ele><time>2026-04-06T13:14:52.776Z</time></trkpt><trkpt lat="45.7447836" lon="9.1266015"><ele>324.4</ele><time>2026-04-06T13:14:53.776Z</time></trkpt><trkpt lat="45.7448087" lon="9.1267525"><ele>325.6</ele><time>2026-04-06T13:14:54.776Z</time></trkpt><trkpt lat="45.7448421" lon="9.1268911"><ele>326.79999999999995</ele><time>2026-04-06T13:14:55.775Z</time></trkpt><trkpt lat="45.7448864" lon="9.1270195"><ele>328.0</ele><time>2026-04-06T13:14:56.775Z</time></trkpt><trkpt lat="45.7449414" lon="9.1271499"><ele>328.0</ele><time>2026-04-06T13:14:57.776Z</time></trkpt><trkpt lat="45.7449972" lon="9.1272799"><ele>328.0</ele><time>2026-04-06T13:14:58.775Z</time></trkpt><trkpt lat="45.7450598" lon="9.1273941"><ele>328.0</ele><time>2026-04-06T13:14:59.775Z</time></trkpt><trkpt lat="45.7451236" lon="9.1274814"><ele>328.0</ele><time>2026-04-06T13:15:00.776Z</time></trkpt><trkpt lat="45.745184" lon="9.1275484"><ele>328.0</ele><time>2026-04-06T13:15:01.775Z</time></trkpt><trkpt lat="45.7452462" lon="9.1276047"><ele>328.0</ele><time>2026-04-06T13:15:02.776Z</time></trkpt><trkpt lat="45.745295" lon="9.1276832"><ele>328.66666666666663</ele><time>2026-04-06T13:15:03.776Z</time></trkpt><trkpt lat="45.7452994" lon="9.1277856"><ele>329.3333333333333</ele><time>2026-04-06T13:15:04.775Z</time></trkpt><trkpt lat="45.7452202" lon="9.1279157"><ele>330.0</ele><time>2026-04-06T13:15:06.776Z</time></trkpt><trkpt lat="45.7451492" lon="9.127955"><ele>330.6666666666667</ele><time>2026-04-06T13:15:07.776Z</time></trkpt><trkpt lat="45.7450695" lon="9.1279979"><ele>331.33333333333337</ele><time>2026-04-06T13:15:08.775Z</time></trkpt><trkpt lat="45.7449955" lon="9.1280696"><ele>332.0</ele><time>2026-04-06T13:15:09.775Z</time></trkpt><trkpt lat="45.7449168" lon="9.1281536"><ele>334.20000000000005</ele><time>2026-04-06T13:15:10.776Z</time></trkpt><trkpt lat="45.7448883" lon="9.1283232"><ele>336.4</ele><time>2026-04-06T13:15:11.775Z</time></trkpt><trkpt lat="45.7448409" lon="9.1284622"><ele>338.6</ele><time>2026-04-06T13:15:12.776Z</time></trkpt><trkpt lat="45.744806" lon="9.1285926"><ele>340.79999999999995</ele><time>2026-04-06T13:15:13.776Z</time></trkpt><trkpt lat="45.7447744" lon="9.1287093"><ele>343.0</ele><time>2026-04-06T13:15:14.776Z</time></trkpt><trkpt lat="45.7447491" lon="9.128812"><ele>343.0</ele><time>2026-04-06T13:15:15.775Z</time></trkpt><trkpt lat="45.7447249" lon="9.128898"><ele>343.0</ele><time>2026-04-06T13:15:16.776Z</time></trkpt><trkpt lat="45.744703" lon="9.1289838"><ele>343.0</ele><time>2026-04-06T13:15:17.775Z</time></trkpt><trkpt lat="45.7446349" lon="9.1291221"><ele>343.0</ele><time>2026-04-06T13:15:19.776Z</time></trkpt><trkpt lat="45.7445778" lon="9.129168"><ele>343.0</ele><time>2026-04-06T13:15:20.776Z</time></trkpt><trkpt lat="45.7444649" lon="9.1292119"><ele>343.0</ele><time>2026-04-06T13:15:22.775Z</time></trkpt><trkpt lat="45.7443988" lon="9.1292261"><ele>344.0</ele><time>2026-04-06T13:15:23.775Z</time></trkpt><trkpt lat="45.7443328" lon="9.1292379"><ele>345.0</ele><time>2026-04-06T13:15:24.775Z</time></trkpt><trkpt lat="45.7442625" lon="9.129246"><ele>346.0</ele><time>2026-04-06T13:15:25.776Z</time></trkpt><trkpt lat="45.7441929" lon="9.12925"><ele>347.0</ele><time>2026-04-06T13:15:26.775Z</time></trkpt><trkpt lat="45.7441124" lon="9.1292517"><ele>348.0</ele><time>2026-04-06T13:15:27.776Z</time></trkpt><trkpt lat="45.7440332" lon="9.1292579"><ele>349.0</ele><time>2026-04-06T13:15:28.776Z</time></trkpt><trkpt lat="45.7439533" lon="9.129264"><ele>350.0</ele><time>2026-04-06T13:15:29.775Z</time></trkpt><trkpt lat="45.7438774" lon="9.1292636"><ele>350.0</ele><time>2026-04-06T13:15:30.775Z</time></trkpt><trkpt lat="45.7438031" lon="9.1292638"><ele>350.0</ele><time>2026-04-06T13:15:31.775Z</time></trkpt><trkpt lat="45.7437319" lon="9.1292686"><ele>350.0</ele><time>2026-04-06T13:15:32.776Z</time></trkpt><trkpt lat="45.7436649" lon="9.1292752"><ele>350.0</ele><time>2026-04-06T13:15:33.776Z</time></trkpt><trkpt lat="45.743539" lon="9.1292992"><ele>350.0</ele><time>2026-04-06T13:15:35.775Z</time></trkpt><trkpt lat="45.7434763" lon="9.1293093"><ele>350.0</ele><time>2026-04-06T13:15:36.775Z</time></trkpt><trkpt lat="45.7433681" lon="9.1293595"><ele>351.0</ele><time>2026-04-06T13:15:38.776Z</time></trkpt><trkpt lat="45.7433187" lon="9.1294716"><ele>352.0</ele><time>2026-04-06T13:15:40.776Z</time></trkpt><trkpt lat="45.7433017" lon="9.1296247"><ele>353.0</ele><time>2026-04-06T13:15:42.775Z</time></trkpt><trkpt lat="45.743253" lon="9.1297812"><ele>354.0</ele><time>2026-04-06T13:15:44.775Z</time></trkpt><trkpt lat="45.7432233" lon="9.1298684"><ele>355.0</ele><time>2026-04-06T13:15:45.775Z</time></trkpt><trkpt lat="45.7431983" lon="9.1299576"><ele>355.1428571428571</ele><time>2026-04-06T13:15:46.776Z</time></trkpt><trkpt lat="45.7431697" lon="9.1300425"><ele>355.2857142857143</ele><time>2026-04-06T13:15:47.776Z</time></trkpt><trkpt lat="45.7431486" lon="9.1301323"><ele>355.42857142857144</ele><time>2026-04-06T13:15:48.776Z</time></trkpt><trkpt lat="45.7431262" lon="9.1302269"><ele>355.57142857142856</ele><time>2026-04-06T13:15:49.775Z</time></trkpt><trkpt lat="45.7431029" lon="9.1303232"><ele>355.7142857142857</ele><time>2026-04-06T13:15:50.775Z</time></trkpt><trkpt lat="45.743084" lon="9.1304252"><ele>355.85714285714283</ele><time>2026-04-06T13:15:51.775Z</time></trkpt><trkpt lat="45.7430698" lon="9.1305357"><ele>356.0</ele><time>2026-04-06T13:15:52.775Z</time></trkpt><trkpt lat="45.7430608" lon="9.1306526"><ele>356.5</ele><time>2026-04-06T13:15:53.775Z</time></trkpt><trkpt lat="45.7430604" lon="9.130777"><ele>357.0</ele><time>2026-04-06T13:15:54.776Z</time></trkpt><trkpt lat="45.7430616" lon="9.1309132"><ele>357.5</ele><time>2026-04-06T13:15:55.775Z</time></trkpt><trkpt lat="45.7430677" lon="9.1310412"><ele>358.0</ele><time>2026-04-06T13:15:56.774Z</time></trkpt><trkpt lat="45.7430746" lon="9.1311541"><ele>358.5</ele><time>2026-04-06T13:15:57.774Z</time></trkpt><trkpt lat="45.743077" lon="9.1312526"><ele>359.0</ele><time>2026-04-06T13:15:58.774Z</time></trkpt><trkpt lat="45.7430792" lon="9.1313534"><ele>359.0</ele><time>2026-04-06T13:15:59.774Z</time></trkpt><trkpt lat="45.7430738" lon="9.1314566"><ele>359.0</ele><time>2026-04-06T13:16:00.775Z</time></trkpt><trkpt lat="45.7430635" lon="9.1315669"><ele>359.0</ele><time>2026-04-06T13:16:01.775Z</time></trkpt><trkpt lat="45.7430516" lon="9.1316801"><ele>359.0</ele><time>2026-04-06T13:16:02.774Z</time></trkpt><trkpt lat="45.7430408" lon="9.1317993"><ele>359.0</ele><time>2026-04-06T13:16:03.775Z</time></trkpt><trkpt lat="45.7430247" lon="9.1319259"><ele>359.0</ele><time>2026-04-06T13:16:04.774Z</time></trkpt><trkpt lat="45.74301" lon="9.1320512"><ele>359.6</ele><time>2026-04-06T13:16:05.774Z</time></trkpt><trkpt lat="45.7429864" lon="9.132181"><ele>360.2</ele><time>2026-04-06T13:16:06.775Z</time></trkpt><trkpt lat="45.7429673" lon="9.1323083"><ele>360.8</ele><time>2026-04-06T13:16:07.775Z</time></trkpt><trkpt lat="45.7429545" lon="9.1324428"><ele>361.40000000000003</ele><time>2026-04-06T13:16:08.775Z</time></trkpt><trkpt lat="45.7429388" lon="9.1325782"><ele>362.0</ele><time>2026-04-06T13:16:09.774Z</time></trkpt><trkpt lat="45.7429204" lon="9.1327245"><ele>362.6</ele><time>2026-04-06T13:16:10.774Z</time></trkpt><trkpt lat="45.7429006" lon="9.1328868"><ele>363.20000000000005</ele><time>2026-04-06T13:16:11.774Z</time></trkpt><trkpt lat="45.7428818" lon="9.1330464"><ele>363.8</ele><time>2026-04-06T13:16:12.774Z</time></trkpt><trkpt lat="45.7428559" lon="9.1331933"><ele>364.4</ele><time>2026-04-06T13:16:13.775Z</time></trkpt><trkpt lat="45.7428352" lon="9.1333351"><ele>365.0</ele><time>2026-04-06T13:16:14.775Z</time></trkpt><trkpt lat="45.7428167" lon="9.1334791"><ele>365.0</ele><time>2026-04-06T13:16:15.774Z</time></trkpt><trkpt lat="45.7428008" lon="9.1336206"><ele>365.0</ele><time>2026-04-06T13:16:16.774Z</time></trkpt><trkpt lat="45.7427839" lon="9.1337699"><ele>365.0</ele><time>2026-04-06T13:16:17.774Z</time></trkpt><trkpt lat="45.7427636" lon="9.1339155"><ele>365.0</ele><time>2026-04-06T13:16:18.775Z</time></trkpt><trkpt lat="45.7427425" lon="9.1340613"><ele>365.0</ele><time>2026-04-06T13:16:19.774Z</time></trkpt><trkpt lat="45.7427256" lon="9.1342085"><ele>363.8</ele><time>2026-04-06T13:16:20.774Z</time></trkpt><trkpt lat="45.7427079" lon="9.1343523"><ele>362.6</ele><time>2026-04-06T13:16:21.775Z</time></trkpt><trkpt lat="45.742677" lon="9.1344981"><ele>361.4</ele><time>2026-04-06T13:16:22.774Z</time></trkpt><trkpt lat="45.7426403" lon="9.1346347"><ele>360.2</ele><time>2026-04-06T13:16:23.774Z</time></trkpt><trkpt lat="45.7425955" lon="9.1347648"><ele>359.0</ele><time>2026-04-06T13:16:24.774Z</time></trkpt><trkpt lat="45.7425472" lon="9.134891"><ele>359.0</ele><time>2026-04-06T13:16:25.774Z</time></trkpt><trkpt lat="45.7425017" lon="9.1350108"><ele>359.0</ele><time>2026-04-06T13:16:26.775Z</time></trkpt><trkpt lat="45.7424546" lon="9.1351208"><ele>359.0</ele><time>2026-04-06T13:16:27.774Z</time></trkpt><trkpt lat="45.7424099" lon="9.1352314"><ele>359.0</ele><time>2026-04-06T13:16:28.774Z</time></trkpt><trkpt lat="45.7423697" lon="9.1353214"><ele>359.0</ele><time>2026-04-06T13:16:29.775Z</time></trkpt><trkpt lat="45.7423092" lon="9.1354523"><ele>359.0</ele><time>2026-04-06T13:16:31.774Z</time></trkpt><trkpt lat="45.7422709" lon="9.13555"><ele>359.0</ele><time>2026-04-06T13:16:33.774Z</time></trkpt><trkpt lat="45.7422257" lon="9.1356724"><ele>359.0</ele><time>2026-04-06T13:16:35.774Z</time></trkpt><trkpt lat="45.7422122" lon="9.1358296"><ele>359.0</ele><time>2026-04-06T13:16:37.775Z</time></trkpt><trkpt lat="45.7423019" lon="9.1359528"><ele>359.0</ele><time>2026-04-06T13:16:39.774Z</time></trkpt><trkpt lat="45.7423506" lon="9.1360337"><ele>358.4</ele><time>2026-04-06T13:16:40.774Z</time></trkpt><trkpt lat="45.7424032" lon="9.136139"><ele>357.79999999999995</ele><time>2026-04-06T13:16:41.775Z</time></trkpt><trkpt lat="45.7424583" lon="9.1362509"><ele>357.20000000000005</ele><time>2026-04-06T13:16:42.775Z</time></trkpt><trkpt lat="45.7425136" lon="9.1363623"><ele>356.6</ele><time>2026-04-06T13:16:43.775Z</time></trkpt><trkpt lat="45.7425703" lon="9.1364764"><ele>356.0</ele><time>2026-04-06T13:16:44.775Z</time></trkpt><trkpt lat="45.7426289" lon="9.1366013"><ele>356.0</ele><time>2026-04-06T13:16:45.775Z</time></trkpt><trkpt lat="45.7426915" lon="9.1367354"><ele>356.0</ele><time>2026-04-06T13:16:46.775Z</time></trkpt><trkpt lat="45.7427652" lon="9.1368858"><ele>356.0</ele><time>2026-04-06T13:16:47.774Z</time></trkpt><trkpt lat="45.7428365" lon="9.1370286"><ele>356.0</ele><time>2026-04-06T13:16:48.775Z</time></trkpt><trkpt lat="45.7429083" lon="9.1371751"><ele>355.5</ele><time>2026-04-06T13:16:49.775Z</time></trkpt><trkpt lat="45.7429832" lon="9.1373373"><ele>355.0</ele><time>2026-04-06T13:16:50.775Z</time></trkpt><trkpt lat="45.743064" lon="9.1375111"><ele>354.5</ele><time>2026-04-06T13:16:51.774Z</time></trkpt><trkpt lat="45.7431503" lon="9.1376895"><ele>354.0</ele><time>2026-04-06T13:16:52.775Z</time></trkpt><trkpt lat="45.7432369" lon="9.1378715"><ele>352.6666666666667</ele><time>2026-04-06T13:16:53.774Z</time></trkpt><trkpt lat="45.743325" lon="9.138057"><ele>351.33333333333337</ele><time>2026-04-06T13:16:54.775Z</time></trkpt><trkpt lat="45.7434149" lon="9.1382482"><ele>350.0</ele><time>2026-04-06T13:16:55.775Z</time></trkpt><trkpt lat="45.7435065" lon="9.1384351"><ele>349.25</ele><time>2026-04-06T13:16:56.774Z</time></trkpt><trkpt lat="45.7435941" lon="9.1386149"><ele>348.5</ele><time>2026-04-06T13:16:57.775Z</time></trkpt><trkpt lat="45.7436716" lon="9.1387844"><ele>347.75</ele><time>2026-04-06T13:16:58.775Z</time></trkpt><trkpt lat="45.743751" lon="9.1389484"><ele>347.0</ele><time>2026-04-06T13:16:59.774Z</time></trkpt><trkpt lat="45.7438282" lon="9.1391071"><ele>346.8</ele><time>2026-04-06T13:17:00.775Z</time></trkpt><trkpt lat="45.7439" lon="9.1392558"><ele>346.6</ele><time>2026-04-06T13:17:01.775Z</time></trkpt><trkpt lat="45.7439667" lon="9.1393978"><ele>346.40000000000003</ele><time>2026-04-06T13:17:02.774Z</time></trkpt><trkpt lat="45.7440256" lon="9.1395252"><ele>346.20000000000005</ele><time>2026-04-06T13:17:03.774Z</time></trkpt><trkpt lat="45.7440712" lon="9.1396455"><ele>346.0</ele><time>2026-04-06T13:17:04.775Z</time></trkpt><trkpt lat="45.7440996" lon="9.139767"><ele>345.6</ele><time>2026-04-06T13:17:05.774Z</time></trkpt><trkpt lat="45.744109" lon="9.1398941"><ele>345.20000000000005</ele><time>2026-04-06T13:17:06.774Z</time></trkpt><trkpt lat="45.7441254" lon="9.1400249"><ele>344.79999999999995</ele><time>2026-04-06T13:17:07.774Z</time></trkpt><trkpt lat="45.7441663" lon="9.1401472"><ele>344.4</ele><time>2026-04-06T13:17:08.774Z</time></trkpt><trkpt lat="45.7442366" lon="9.1402451"><ele>344.0</ele><time>2026-04-06T13:17:09.774Z</time></trkpt><trkpt lat="45.7443328" lon="9.1403244"><ele>344.0</ele><time>2026-04-06T13:17:10.774Z</time></trkpt><trkpt lat="45.7444286" lon="9.1404327"><ele>344.0</ele><time>2026-04-06T13:17:11.775Z</time></trkpt><trkpt lat="45.7445173" lon="9.1405818"><ele>344.0</ele><time>2026-04-06T13:17:12.775Z</time></trkpt><trkpt lat="45.7446022" lon="9.1407493"><ele>344.0</ele><time>2026-04-06T13:17:13.774Z</time></trkpt><trkpt lat="45.7446847" lon="9.1409033"><ele>344.0</ele><time>2026-04-06T13:17:14.775Z</time></trkpt><trkpt lat="45.7447708" lon="9.1410516"><ele>344.0</ele><time>2026-04-06T13:17:15.774Z</time></trkpt><trkpt lat="45.7448589" lon="9.1411897"><ele>344.0</ele><time>2026-04-06T13:17:16.775Z</time></trkpt><trkpt lat="45.7449491" lon="9.1413142"><ele>344.0</ele><time>2026-04-06T13:17:17.774Z</time></trkpt><trkpt lat="45.7450465" lon="9.1414308"><ele>345.0</ele><time>2026-04-06T13:17:18.774Z</time></trkpt><trkpt lat="45.7451451" lon="9.1415488"><ele>346.0</ele><time>2026-04-06T13:17:19.774Z</time></trkpt><trkpt lat="45.7452426" lon="9.1416715"><ele>347.0</ele><time>2026-04-06T13:17:20.775Z</time></trkpt><trkpt lat="45.7453425" lon="9.141792"><ele>348.0</ele><time>2026-04-06T13:17:21.774Z</time></trkpt><trkpt lat="45.7454418" lon="9.1419083"><ele>348.0</ele><time>2026-04-06T13:17:22.774Z</time></trkpt><trkpt lat="45.7455417" lon="9.1420266"><ele>348.0</ele><time>2026-04-06T13:17:23.774Z</time></trkpt><trkpt lat="45.7456408" lon="9.1421446"><ele>348.0</ele><time>2026-04-06T13:17:24.775Z</time></trkpt><trkpt lat="45.7457386" lon="9.1422644"><ele>348.0</ele><time>2026-04-06T13:17:25.775Z</time></trkpt><trkpt lat="45.7458372" lon="9.1423777"><ele>349.0</ele><time>2026-04-06T13:17:26.775Z</time></trkpt><trkpt lat="45.7459388" lon="9.142494"><ele>350.0</ele><time>2026-04-06T13:17:27.775Z</time></trkpt><trkpt lat="45.7460391" lon="9.142607"><ele>351.0</ele><time>2026-04-06T13:17:28.774Z</time></trkpt><trkpt lat="45.7461381" lon="9.142725"><ele>352.0</ele><time>2026-04-06T13:17:29.774Z</time></trkpt><trkpt lat="45.7462351" lon="9.1428444"><ele>352.0</ele><time>2026-04-06T13:17:30.775Z</time></trkpt><trkpt lat="45.7463323" lon="9.1429584"><ele>352.0</ele><time>2026-04-06T13:17:31.774Z</time></trkpt><trkpt lat="45.7464374" lon="9.1430612"><ele>352.0</ele><time>2026-04-06T13:17:32.774Z</time></trkpt><trkpt lat="45.7465526" lon="9.1431469"><ele>352.0</ele><time>2026-04-06T13:17:33.775Z</time></trkpt><trkpt lat="45.7466787" lon="9.1432137"><ele>352.75</ele><time>2026-04-06T13:17:34.774Z</time></trkpt><trkpt lat="45.7468083" lon="9.1432698"><ele>353.5</ele><time>2026-04-06T13:17:35.774Z</time></trkpt><trkpt lat="45.7469438" lon="9.1433214"><ele>354.25</ele><time>2026-04-06T13:17:36.774Z</time></trkpt><trkpt lat="45.7470852" lon="9.1433733"><ele>355.0</ele><time>2026-04-06T13:17:37.775Z</time></trkpt><trkpt lat="45.7472207" lon="9.1434248"><ele>355.0</ele><time>2026-04-06T13:17:38.774Z</time></trkpt><trkpt lat="45.7473503" lon="9.143471"><ele>355.0</ele><time>2026-04-06T13:17:39.775Z</time></trkpt><trkpt lat="45.7474771" lon="9.1435156"><ele>355.0</ele><time>2026-04-06T13:17:40.774Z</time></trkpt><trkpt lat="45.7476078" lon="9.1435587"><ele>355.0</ele><time>2026-04-06T13:17:41.775Z</time></trkpt><trkpt lat="45.747742" lon="9.1436096"><ele>355.25</ele><time>2026-04-06T13:17:42.775Z</time></trkpt><trkpt lat="45.747873" lon="9.1436598"><ele>355.5</ele><time>2026-04-06T13:17:43.775Z</time></trkpt><trkpt lat="45.7480037" lon="9.1437083"><ele>355.75</ele><time>2026-04-06T13:17:44.774Z</time></trkpt><trkpt lat="45.7481318" lon="9.143751"><ele>356.0</ele><time>2026-04-06T13:17:45.774Z</time></trkpt><trkpt lat="45.7482598" lon="9.1437983"><ele>356.0</ele><time>2026-04-06T13:17:46.775Z</time></trkpt><trkpt lat="45.748386" lon="9.1438634"><ele>356.0</ele><time>2026-04-06T13:17:47.774Z</time></trkpt><trkpt lat="45.748512" lon="9.1439426"><ele>356.0</ele><time>2026-04-06T13:17:48.775Z</time></trkpt><trkpt lat="45.7486403" lon="9.144021"><ele>356.0</ele><time>2026-04-06T13:17:49.775Z</time></trkpt><trkpt lat="45.7487662" lon="9.1441051"><ele>356.75</ele><time>2026-04-06T13:17:50.774Z</time></trkpt><trkpt lat="45.7488927" lon="9.1441884"><ele>357.5</ele><time>2026-04-06T13:17:51.775Z</time></trkpt><trkpt lat="45.7490209" lon="9.1442673"><ele>358.25</ele><time>2026-04-06T13:17:52.774Z</time></trkpt><trkpt lat="45.7491482" lon="9.144344"><ele>359.0</ele><time>2026-04-06T13:17:53.774Z</time></trkpt><trkpt lat="45.7492755" lon="9.1444267"><ele>359.75</ele><time>2026-04-06T13:17:54.774Z</time></trkpt><trkpt lat="45.7494013" lon="9.1445053"><ele>360.5</ele><time>2026-04-06T13:17:55.775Z</time></trkpt><trkpt lat="45.7495261" lon="9.1445863"><ele>361.25</ele><time>2026-04-06T13:17:56.775Z</time></trkpt><trkpt lat="45.7496464" lon="9.1446727"><ele>362.0</ele><time>2026-04-06T13:17:57.774Z</time></trkpt><trkpt lat="45.7497721" lon="9.1447481"><ele>362.0</ele><time>2026-04-06T13:17:58.775Z</time></trkpt><trkpt lat="45.7498948" lon="9.1448268"><ele>362.0</ele><time>2026-04-06T13:17:59.775Z</time></trkpt><trkpt lat="45.7500159" lon="9.1449061"><ele>362.0</ele><time>2026-04-06T13:18:00.774Z</time></trkpt><trkpt lat="45.750138" lon="9.1449893"><ele>362.0</ele><time>2026-04-06T13:18:01.774Z</time></trkpt><trkpt lat="45.7502557" lon="9.1450672"><ele>363.25</ele><time>2026-04-06T13:18:02.775Z</time></trkpt><trkpt lat="45.7503676" lon="9.1451364"><ele>364.5</ele><time>2026-04-06T13:18:03.774Z</time></trkpt><trkpt lat="45.7504731" lon="9.1451963"><ele>365.75</ele><time>2026-04-06T13:18:04.774Z</time></trkpt><trkpt lat="45.7505826" lon="9.1452448"><ele>367.0</ele><time>2026-04-06T13:18:05.775Z</time></trkpt><trkpt lat="45.7506991" lon="9.1452761"><ele>367.0</ele><time>2026-04-06T13:18:06.774Z</time></trkpt><trkpt lat="45.7508198" lon="9.1452937"><ele>367.0</ele><time>2026-04-06T13:18:07.775Z</time></trkpt><trkpt lat="45.7509489" lon="9.1453053"><ele>367.0</ele><time>2026-04-06T13:18:08.774Z</time></trkpt><trkpt lat="45.7510772" lon="9.1453051"><ele>367.0</ele><time>2026-04-06T13:18:09.775Z</time></trkpt><trkpt lat="45.7512052" lon="9.1453149"><ele>367.25</ele><time>2026-04-06T13:18:10.775Z</time></trkpt><trkpt lat="45.7513412" lon="9.1453385"><ele>367.5</ele><time>2026-04-06T13:18:11.774Z</time></trkpt><trkpt lat="45.751474" lon="9.1453806"><ele>367.75</ele><time>2026-04-06T13:18:12.775Z</time></trkpt><trkpt lat="45.7516021" lon="9.1454451"><ele>368.0</ele><time>2026-04-06T13:18:13.775Z</time></trkpt><trkpt lat="45.7517349" lon="9.145535"><ele>368.0</ele><time>2026-04-06T13:18:14.775Z</time></trkpt><trkpt lat="45.7518723" lon="9.1456393"><ele>368.0</ele><time>2026-04-06T13:18:15.775Z</time></trkpt><trkpt lat="45.7520125" lon="9.1457492"><ele>368.0</ele><time>2026-04-06T13:18:16.773Z</time></trkpt><trkpt lat="45.7521463" lon="9.145853"><ele>368.5</ele><time>2026-04-06T13:18:17.774Z</time></trkpt><trkpt lat="45.7522718" lon="9.145946"><ele>369.0</ele><time>2026-04-06T13:18:18.774Z</time></trkpt><trkpt lat="45.7523924" lon="9.1460436"><ele>369.5</ele><time>2026-04-06T13:18:19.774Z</time></trkpt><trkpt lat="45.7525014" lon="9.1461631"><ele>370.0</ele><time>2026-04-06T13:18:20.773Z</time></trkpt><trkpt lat="45.7526031" lon="9.146309"><ele>370.0</ele><time>2026-04-06T13:18:21.773Z</time></trkpt><trkpt lat="45.7527043" lon="9.1464731"><ele>370.0</ele><time>2026-04-06T13:18:22.774Z</time></trkpt><trkpt lat="45.7528115" lon="9.1466552"><ele>370.0</ele><time>2026-04-06T13:18:23.773Z</time></trkpt><trkpt lat="45.7529199" lon="9.1468375"><ele>369.0</ele><time>2026-04-06T13:18:24.773Z</time></trkpt><trkpt lat="45.7530256" lon="9.1470108"><ele>368.0</ele><time>2026-04-06T13:18:25.774Z</time></trkpt><trkpt lat="45.7531342" lon="9.1471875"><ele>367.0</ele><time>2026-04-06T13:18:26.773Z</time></trkpt><trkpt lat="45.7532508" lon="9.1473713"><ele>366.66666666666663</ele><time>2026-04-06T13:18:27.773Z</time></trkpt><trkpt lat="45.7533675" lon="9.1475706"><ele>366.3333333333333</ele><time>2026-04-06T13:18:28.773Z</time></trkpt><trkpt lat="45.7534845" lon="9.1477689"><ele>366.0</ele><time>2026-04-06T13:18:29.773Z</time></trkpt><trkpt lat="45.7536007" lon="9.1479644"><ele>365.6666666666667</ele><time>2026-04-06T13:18:30.774Z</time></trkpt><trkpt lat="45.7537198" lon="9.1481599"><ele>365.33333333333337</ele><time>2026-04-06T13:18:31.773Z</time></trkpt><trkpt lat="45.753827" lon="9.1483597"><ele>365.0</ele><time>2026-04-06T13:18:32.773Z</time></trkpt><trkpt lat="45.7539187" lon="9.1485865"><ele>365.0</ele><time>2026-04-06T13:18:33.773Z</time></trkpt><trkpt lat="45.7539884" lon="9.1488264"><ele>365.0</ele><time>2026-04-06T13:18:34.774Z</time></trkpt><trkpt lat="45.7540375" lon="9.1490772"><ele>365.0</ele><time>2026-04-06T13:18:35.773Z</time></trkpt><trkpt lat="45.7540717" lon="9.1493333"><ele>366.0</ele><time>2026-04-06T13:18:36.773Z</time></trkpt><trkpt lat="45.7541046" lon="9.1495953"><ele>367.0</ele><time>2026-04-06T13:18:37.774Z</time></trkpt><trkpt lat="45.7541423" lon="9.1498545"><ele>368.0</ele><time>2026-04-06T13:18:38.773Z</time></trkpt><trkpt lat="45.7541879" lon="9.1501015"><ele>368.33333333333337</ele><time>2026-04-06T13:18:39.773Z</time></trkpt><trkpt lat="45.7542466" lon="9.1503312"><ele>368.6666666666667</ele><time>2026-04-06T13:18:40.774Z</time></trkpt><trkpt lat="45.7543164" lon="9.1505528"><ele>369.0</ele><time>2026-04-06T13:18:41.773Z</time></trkpt><trkpt lat="45.7544056" lon="9.1507551"><ele>370.0</ele><time>2026-04-06T13:18:42.774Z</time></trkpt><trkpt lat="45.7545161" lon="9.1509533"><ele>371.0</ele><time>2026-04-06T13:18:43.773Z</time></trkpt><trkpt lat="45.7546378" lon="9.1511531"><ele>372.0</ele><time>2026-04-06T13:18:44.774Z</time></trkpt><trkpt lat="45.7547711" lon="9.1513603"><ele>372.0</ele><time>2026-04-06T13:18:45.774Z</time></trkpt><trkpt lat="45.754901" lon="9.1515606"><ele>372.0</ele><time>2026-04-06T13:18:46.773Z</time></trkpt><trkpt lat="45.7550267" lon="9.1517537"><ele>372.0</ele><time>2026-04-06T13:18:47.773Z</time></trkpt><trkpt lat="45.755146" lon="9.1519422"><ele>372.6666666666667</ele><time>2026-04-06T13:18:48.773Z</time></trkpt><trkpt lat="45.755265" lon="9.1521331"><ele>373.33333333333337</ele><time>2026-04-06T13:18:49.773Z</time></trkpt><trkpt lat="45.7553843" lon="9.1523307"><ele>374.0</ele><time>2026-04-06T13:18:50.774Z</time></trkpt><trkpt lat="45.7554943" lon="9.1525382"><ele>374.0</ele><time>2026-04-06T13:18:51.774Z</time></trkpt><trkpt lat="45.7555919" lon="9.1527546"><ele>374.0</ele><time>2026-04-06T13:18:52.774Z</time></trkpt><trkpt lat="45.7556807" lon="9.1529709"><ele>374.0</ele><time>2026-04-06T13:18:53.773Z</time></trkpt><trkpt lat="45.755769" lon="9.1531843"><ele>375.6666666666667</ele><time>2026-04-06T13:18:54.774Z</time></trkpt><trkpt lat="45.7558527" lon="9.1533925"><ele>377.3333333333333</ele><time>2026-04-06T13:18:55.773Z</time></trkpt><trkpt lat="45.7559384" lon="9.1535973"><ele>379.0</ele><time>2026-04-06T13:18:56.773Z</time></trkpt><trkpt lat="45.7560174" lon="9.153797"><ele>380.3333333333333</ele><time>2026-04-06T13:18:57.773Z</time></trkpt><trkpt lat="45.7560969" lon="9.1539961"><ele>381.6666666666667</ele><time>2026-04-06T13:18:58.773Z</time></trkpt><trkpt lat="45.7561789" lon="9.1541901"><ele>383.0</ele><time>2026-04-06T13:18:59.773Z</time></trkpt><trkpt lat="45.7562563" lon="9.1543784"><ele>383.0</ele><time>2026-04-06T13:19:00.774Z</time></trkpt><trkpt lat="45.7563307" lon="9.1545615"><ele>383.0</ele><time>2026-04-06T13:19:01.773Z</time></trkpt><trkpt lat="45.7564078" lon="9.1547489"><ele>383.0</ele><time>2026-04-06T13:19:02.773Z</time></trkpt><trkpt lat="45.7564786" lon="9.1549383"><ele>383.6666666666667</ele><time>2026-04-06T13:19:03.774Z</time></trkpt><trkpt lat="45.7565551" lon="9.1551361"><ele>384.33333333333337</ele><time>2026-04-06T13:19:04.773Z</time></trkpt><trkpt lat="45.7566371" lon="9.1553323"><ele>385.0</ele><time>2026-04-06T13:19:05.773Z</time></trkpt><trkpt lat="45.756717" lon="9.1555307"><ele>385.6666666666667</ele><time>2026-04-06T13:19:06.773Z</time></trkpt><trkpt lat="45.7568015" lon="9.1557318"><ele>386.33333333333337</ele><time>2026-04-06T13:19:07.773Z</time></trkpt><trkpt lat="45.7568867" lon="9.1559378"><ele>387.0</ele><time>2026-04-06T13:19:08.773Z</time></trkpt><trkpt lat="45.7569778" lon="9.1561471"><ele>389.0</ele><time>2026-04-06T13:19:09.773Z</time></trkpt><trkpt lat="45.7570654" lon="9.1563566"><ele>391.0</ele><time>2026-04-06T13:19:10.774Z</time></trkpt><trkpt lat="45.7571566" lon="9.1565639"><ele>393.0</ele><time>2026-04-06T13:19:11.773Z</time></trkpt><trkpt lat="45.7572492" lon="9.1567745"><ele>393.0</ele><time>2026-04-06T13:19:12.773Z</time></trkpt><trkpt lat="45.7573431" lon="9.1569792"><ele>393.0</ele><time>2026-04-06T13:19:13.773Z</time></trkpt><trkpt lat="45.7574348" lon="9.1571856"><ele>393.0</ele><time>2026-04-06T13:19:14.773Z</time></trkpt><trkpt lat="45.757527" lon="9.1573937"><ele>394.33333333333337</ele><time>2026-04-06T13:19:15.774Z</time></trkpt><trkpt lat="45.7576166" lon="9.1575982"><ele>395.6666666666667</ele><time>2026-04-06T13:19:16.773Z</time></trkpt><trkpt lat="45.7577034" lon="9.1577967"><ele>397.0</ele><time>2026-04-06T13:19:17.774Z</time></trkpt><trkpt lat="45.7577911" lon="9.1579987"><ele>397.0</ele><time>2026-04-06T13:19:18.774Z</time></trkpt><trkpt lat="45.7578811" lon="9.1582016"><ele>397.0</ele><time>2026-04-06T13:19:19.773Z</time></trkpt><trkpt lat="45.7579725" lon="9.1583996"><ele>397.0</ele><time>2026-04-06T13:19:20.773Z</time></trkpt><trkpt lat="45.7580609" lon="9.158597"><ele>397.0</ele><time>2026-04-06T13:19:21.774Z</time></trkpt><trkpt lat="45.7581458" lon="9.1587997"><ele>397.0</ele><time>2026-04-06T13:19:22.773Z</time></trkpt><trkpt lat="45.7582318" lon="9.1589963"><ele>397.0</ele><time>2026-04-06T13:19:23.773Z</time></trkpt><trkpt lat="45.7583145" lon="9.1591878"><ele>397.0</ele><time>2026-04-06T13:19:24.774Z</time></trkpt><trkpt lat="45.7583962" lon="9.1593697"><ele>397.0</ele><time>2026-04-06T13:19:25.773Z</time></trkpt><trkpt lat="45.7584745" lon="9.1595478"><ele>397.0</ele><time>2026-04-06T13:19:26.773Z</time></trkpt><trkpt lat="45.7585475" lon="9.159721"><ele>397.0</ele><time>2026-04-06T13:19:27.773Z</time></trkpt><trkpt lat="45.758617" lon="9.1598932"><ele>394.33333333333337</ele><time>2026-04-06T13:19:28.773Z</time></trkpt><trkpt lat="45.7587019" lon="9.1600636"><ele>391.66666666666663</ele><time>2026-04-06T13:19:29.773Z</time></trkpt><trkpt lat="45.7588033" lon="9.1602231"><ele>389.0</ele><time>2026-04-06T13:19:30.774Z</time></trkpt><trkpt lat="45.7589231" lon="9.160366"><ele>389.0</ele><time>2026-04-06T13:19:31.774Z</time></trkpt><trkpt lat="45.7590511" lon="9.160503"><ele>389.0</ele><time>2026-04-06T13:19:32.773Z</time></trkpt><trkpt lat="45.7591823" lon="9.1606302"><ele>389.0</ele><time>2026-04-06T13:19:33.773Z</time></trkpt><trkpt lat="45.759311" lon="9.1607561"><ele>385.0</ele><time>2026-04-06T13:19:34.774Z</time></trkpt><trkpt lat="45.7594432" lon="9.1608857"><ele>381.0</ele><time>2026-04-06T13:19:35.774Z</time></trkpt><trkpt lat="45.7595694" lon="9.1610106"><ele>377.0</ele><time>2026-04-06T13:19:36.773Z</time></trkpt><trkpt lat="45.7596954" lon="9.1611363"><ele>377.0</ele><time>2026-04-06T13:19:37.773Z</time></trkpt><trkpt lat="45.7598193" lon="9.1612552"><ele>377.0</ele><time>2026-04-06T13:19:38.774Z</time></trkpt><trkpt lat="45.75995" lon="9.1613811"><ele>377.0</ele><time>2026-04-06T13:19:39.774Z</time></trkpt><trkpt lat="45.7600776" lon="9.1615071"><ele>374.75</ele><time>2026-04-06T13:19:40.774Z</time></trkpt><trkpt lat="45.7602022" lon="9.1616293"><ele>372.5</ele><time>2026-04-06T13:19:41.773Z</time></trkpt><trkpt lat="45.7603148" lon="9.16175"><ele>370.25</ele><time>2026-04-06T13:19:42.773Z</time></trkpt><trkpt lat="45.7604287" lon="9.1618747"><ele>368.0</ele><time>2026-04-06T13:19:43.773Z</time></trkpt><trkpt lat="45.7605337" lon="9.1620106"><ele>368.0</ele><time>2026-04-06T13:19:44.773Z</time></trkpt><trkpt lat="45.7606224" lon="9.1621584"><ele>368.0</ele><time>2026-04-06T13:19:45.773Z</time></trkpt><trkpt lat="45.7606822" lon="9.1623177"><ele>368.0</ele><time>2026-04-06T13:19:46.773Z</time></trkpt><trkpt lat="45.7606945" lon="9.1624915"><ele>368.0</ele><time>2026-04-06T13:19:47.773Z</time></trkpt><trkpt lat="45.7606729" lon="9.1626715"><ele>368.6666666666667</ele><time>2026-04-06T13:19:48.773Z</time></trkpt><trkpt lat="45.7606141" lon="9.1628538"><ele>369.3333333333333</ele><time>2026-04-06T13:19:49.773Z</time></trkpt><trkpt lat="45.7605387" lon="9.1630456"><ele>370.0</ele><time>2026-04-06T13:19:50.773Z</time></trkpt><trkpt lat="45.7604495" lon="9.1632509"><ele>369.0</ele><time>2026-04-06T13:19:51.773Z</time></trkpt><trkpt lat="45.7603528" lon="9.1634766"><ele>368.0</ele><time>2026-04-06T13:19:52.774Z</time></trkpt><trkpt lat="45.7602526" lon="9.1637094"><ele>367.0</ele><time>2026-04-06T13:19:53.773Z</time></trkpt><trkpt lat="45.7601602" lon="9.1639184"><ele>369.25</ele><time>2026-04-06T13:19:54.773Z</time></trkpt><trkpt lat="45.7600801" lon="9.1640994"><ele>371.5</ele><time>2026-04-06T13:19:55.773Z</time></trkpt><trkpt lat="45.7600216" lon="9.1642646"><ele>373.75</ele><time>2026-04-06T13:19:56.774Z</time></trkpt><trkpt lat="45.7599939" lon="9.1644344"><ele>376.0</ele><time>2026-04-06T13:19:57.773Z</time></trkpt><trkpt lat="45.759993" lon="9.1646169"><ele>376.0</ele><time>2026-04-06T13:19:58.774Z</time></trkpt><trkpt lat="45.7600658" lon="9.1647769"><ele>376.0</ele><time>2026-04-06T13:19:59.774Z</time></trkpt><trkpt lat="45.7601713" lon="9.1649022"><ele>376.0</ele><time>2026-04-06T13:20:00.773Z</time></trkpt><trkpt lat="45.7603129" lon="9.1649822"><ele>376.0</ele><time>2026-04-06T13:20:01.774Z</time></trkpt><trkpt lat="45.7604867" lon="9.1650355"><ele>380.0</ele><time>2026-04-06T13:20:02.773Z</time></trkpt><trkpt lat="45.7606567" lon="9.1650668"><ele>384.0</ele><time>2026-04-06T13:20:03.774Z</time></trkpt><trkpt lat="45.7608124" lon="9.1650898"><ele>388.0</ele><time>2026-04-06T13:20:04.774Z</time></trkpt><trkpt lat="45.7609406" lon="9.1651643"><ele>389.0</ele><time>2026-04-06T13:20:05.773Z</time></trkpt><trkpt lat="45.7610551" lon="9.1652843"><ele>390.0</ele><time>2026-04-06T13:20:06.773Z</time></trkpt><trkpt lat="45.7611423" lon="9.1654514"><ele>391.0</ele><time>2026-04-06T13:20:07.773Z</time></trkpt><trkpt lat="45.7611943" lon="9.1656575"><ele>392.0</ele><time>2026-04-06T13:20:08.774Z</time></trkpt><trkpt lat="45.7612201" lon="9.1658937"><ele>392.66666666666663</ele><time>2026-04-06T13:20:09.773Z</time></trkpt><trkpt lat="45.7612405" lon="9.1661417"><ele>393.33333333333337</ele><time>2026-04-06T13:20:10.774Z</time></trkpt><trkpt lat="45.7612616" lon="9.1663664"><ele>394.0</ele><time>2026-04-06T13:20:11.774Z</time></trkpt><trkpt lat="45.761284" lon="9.1665812"><ele>392.75</ele><time>2026-04-06T13:20:12.774Z</time></trkpt><trkpt lat="45.7613064" lon="9.1667907"><ele>391.5</ele><time>2026-04-06T13:20:13.773Z</time></trkpt><trkpt lat="45.7613305" lon="9.1670002"><ele>390.25</ele><time>2026-04-06T13:20:14.773Z</time></trkpt><trkpt lat="45.7613524" lon="9.1672098"><ele>389.0</ele><time>2026-04-06T13:20:15.773Z</time></trkpt><trkpt lat="45.7613707" lon="9.1674165"><ele>388.0</ele><time>2026-04-06T13:20:16.773Z</time></trkpt><trkpt lat="45.7613877" lon="9.1676247"><ele>387.0</ele><time>2026-04-06T13:20:17.773Z</time></trkpt><trkpt lat="45.7614028" lon="9.1678278"><ele>386.0</ele><time>2026-04-06T13:20:18.774Z</time></trkpt><trkpt lat="45.7614182" lon="9.1680358"><ele>385.0</ele><time>2026-04-06T13:20:19.774Z</time></trkpt><trkpt lat="45.7614353" lon="9.1682481"><ele>385.0</ele><time>2026-04-06T13:20:20.773Z</time></trkpt><trkpt lat="45.7614516" lon="9.1684568"><ele>385.0</ele><time>2026-04-06T13:20:21.773Z</time></trkpt><trkpt lat="45.7614677" lon="9.1686587"><ele>385.0</ele><time>2026-04-06T13:20:22.774Z</time></trkpt><trkpt lat="45.7614858" lon="9.1688521"><ele>385.0</ele><time>2026-04-06T13:20:23.773Z</time></trkpt><trkpt lat="45.7615055" lon="9.1690589"><ele>385.33333333333337</ele><time>2026-04-06T13:20:24.774Z</time></trkpt><trkpt lat="45.7615249" lon="9.1692866"><ele>385.66666666666663</ele><time>2026-04-06T13:20:25.773Z</time></trkpt><trkpt lat="45.7615456" lon="9.1695311"><ele>386.0</ele><time>2026-04-06T13:20:26.773Z</time></trkpt><trkpt lat="45.7615664" lon="9.169782"><ele>386.66666666666663</ele><time>2026-04-06T13:20:27.774Z</time></trkpt><trkpt lat="45.7615873" lon="9.1700336"><ele>387.33333333333337</ele><time>2026-04-06T13:20:28.774Z</time></trkpt><trkpt lat="45.7616064" lon="9.1702738"><ele>388.0</ele><time>2026-04-06T13:20:29.773Z</time></trkpt><trkpt lat="45.7616211" lon="9.170498"><ele>389.25</ele><time>2026-04-06T13:20:30.773Z</time></trkpt><trkpt lat="45.7616394" lon="9.1707044"><ele>390.5</ele><time>2026-04-06T13:20:31.773Z</time></trkpt><trkpt lat="45.7616529" lon="9.1709001"><ele>391.75</ele><time>2026-04-06T13:20:32.774Z</time></trkpt><trkpt lat="45.7616646" lon="9.1710864"><ele>393.0</ele><time>2026-04-06T13:20:33.774Z</time></trkpt><trkpt lat="45.7616774" lon="9.1712695"><ele>393.0</ele><time>2026-04-06T13:20:34.774Z</time></trkpt><trkpt lat="45.7616907" lon="9.1714462"><ele>393.0</ele><time>2026-04-06T13:20:35.774Z</time></trkpt><trkpt lat="45.7617055" lon="9.1716166"><ele>393.0</ele><time>2026-04-06T13:20:36.774Z</time></trkpt><trkpt lat="45.7617202" lon="9.1717809"><ele>393.0</ele><time>2026-04-06T13:20:37.774Z</time></trkpt><trkpt lat="45.7617368" lon="9.1719452"><ele>392.5</ele><time>2026-04-06T13:20:38.773Z</time></trkpt><trkpt lat="45.761764" lon="9.1721146"><ele>392.0</ele><time>2026-04-06T13:20:39.772Z</time></trkpt><trkpt lat="45.7618086" lon="9.1722818"><ele>391.5</ele><time>2026-04-06T13:20:40.773Z</time></trkpt><trkpt lat="45.7618733" lon="9.1724535"><ele>391.0</ele><time>2026-04-06T13:20:41.773Z</time></trkpt><trkpt lat="45.7619583" lon="9.1726236"><ele>391.0</ele><time>2026-04-06T13:20:42.772Z</time></trkpt><trkpt lat="45.7620546" lon="9.1727725"><ele>391.0</ele><time>2026-04-06T13:20:43.773Z</time></trkpt><trkpt lat="45.7621622" lon="9.1728978"><ele>391.0</ele><time>2026-04-06T13:20:44.773Z</time></trkpt><trkpt lat="45.7622777" lon="9.1730076"><ele>391.0</ele><time>2026-04-06T13:20:45.773Z</time></trkpt><trkpt lat="45.7623975" lon="9.173098"><ele>391.0</ele><time>2026-04-06T13:20:46.772Z</time></trkpt><trkpt lat="45.7625303" lon="9.1731683"><ele>391.0</ele><time>2026-04-06T13:20:47.772Z</time></trkpt><trkpt lat="45.7626689" lon="9.1732289"><ele>391.0</ele><time>2026-04-06T13:20:48.773Z</time></trkpt><trkpt lat="45.7628086" lon="9.1732853"><ele>391.0</ele><time>2026-04-06T13:20:49.772Z</time></trkpt><trkpt lat="45.7629482" lon="9.1733472"><ele>387.0</ele><time>2026-04-06T13:20:50.773Z</time></trkpt><trkpt lat="45.7630851" lon="9.1734109"><ele>383.0</ele><time>2026-04-06T13:20:51.773Z</time></trkpt><trkpt lat="45.7632226" lon="9.1734801"><ele>379.0</ele><time>2026-04-06T13:20:52.773Z</time></trkpt><trkpt lat="45.7633571" lon="9.1735708"><ele>375.0</ele><time>2026-04-06T13:20:53.773Z</time></trkpt><trkpt lat="45.7634803" lon="9.1737003"><ele>372.6666666666667</ele><time>2026-04-06T13:20:54.772Z</time></trkpt><trkpt lat="45.7635929" lon="9.1738565"><ele>370.33333333333337</ele><time>2026-04-06T13:20:55.773Z</time></trkpt><trkpt lat="45.7637044" lon="9.1740374"><ele>368.0</ele><time>2026-04-06T13:20:56.772Z</time></trkpt><trkpt lat="45.7638107" lon="9.1742184"><ele>367.6666666666667</ele><time>2026-04-06T13:20:57.773Z</time></trkpt><trkpt lat="45.7639135" lon="9.1743918"><ele>367.3333333333333</ele><time>2026-04-06T13:20:58.772Z</time></trkpt><trkpt lat="45.7640149" lon="9.1745565"><ele>367.0</ele><time>2026-04-06T13:20:59.772Z</time></trkpt><trkpt lat="45.7641141" lon="9.1747134"><ele>366.75</ele><time>2026-04-06T13:21:00.773Z</time></trkpt><trkpt lat="45.7642108" lon="9.1748626"><ele>366.5</ele><time>2026-04-06T13:21:01.773Z</time></trkpt><trkpt lat="45.7643183" lon="9.1750014"><ele>366.25</ele><time>2026-04-06T13:21:02.772Z</time></trkpt><trkpt lat="45.7644365" lon="9.1751187"><ele>366.0</ele><time>2026-04-06T13:21:03.773Z</time></trkpt><trkpt lat="45.7645727" lon="9.1752048"><ele>365.0</ele><time>2026-04-06T13:21:04.773Z</time></trkpt><trkpt lat="45.7647203" lon="9.1752583"><ele>364.0</ele><time>2026-04-06T13:21:05.772Z</time></trkpt><trkpt lat="45.7648717" lon="9.1752776"><ele>363.0</ele><time>2026-04-06T13:21:06.773Z</time></trkpt><trkpt lat="45.7650231" lon="9.1752749"><ele>363.0</ele><time>2026-04-06T13:21:07.773Z</time></trkpt><trkpt lat="45.7651714" lon="9.1752648"><ele>363.0</ele><time>2026-04-06T13:21:08.773Z</time></trkpt><trkpt lat="45.7653219" lon="9.1752504"><ele>363.0</ele><time>2026-04-06T13:21:09.772Z</time></trkpt><trkpt lat="45.7654732" lon="9.1752362"><ele>361.6666666666667</ele><time>2026-04-06T13:21:10.773Z</time></trkpt><trkpt lat="45.7656217" lon="9.1752328"><ele>360.33333333333337</ele><time>2026-04-06T13:21:11.772Z</time></trkpt><trkpt lat="45.7657747" lon="9.1752516"><ele>359.0</ele><time>2026-04-06T13:21:12.773Z</time></trkpt><trkpt lat="45.765921" lon="9.1752974"><ele>356.75</ele><time>2026-04-06T13:21:13.772Z</time></trkpt><trkpt lat="45.7660607" lon="9.1753741"><ele>354.5</ele><time>2026-04-06T13:21:14.772Z</time></trkpt><trkpt lat="45.7661911" lon="9.175474"><ele>352.25</ele><time>2026-04-06T13:21:15.773Z</time></trkpt><trkpt lat="45.7663083" lon="9.175603"><ele>350.0</ele><time>2026-04-06T13:21:16.772Z</time></trkpt><trkpt lat="45.7664119" lon="9.1757551"><ele>348.6666666666667</ele><time>2026-04-06T13:21:17.772Z</time></trkpt><trkpt lat="45.7665008" lon="9.1759257"><ele>347.3333333333333</ele><time>2026-04-06T13:21:18.773Z</time></trkpt><trkpt lat="45.7665735" lon="9.1761237"><ele>346.0</ele><time>2026-04-06T13:21:19.772Z</time></trkpt><trkpt lat="45.7666416" lon="9.1763374"><ele>346.0</ele><time>2026-04-06T13:21:20.772Z</time></trkpt><trkpt lat="45.7667092" lon="9.1765682"><ele>346.0</ele><time>2026-04-06T13:21:21.773Z</time></trkpt><trkpt lat="45.7667755" lon="9.1767992"><ele>346.0</ele><time>2026-04-06T13:21:22.773Z</time></trkpt><trkpt lat="45.7668374" lon="9.1770157"><ele>347.0</ele><time>2026-04-06T13:21:23.773Z</time></trkpt><trkpt lat="45.7668947" lon="9.1772244"><ele>348.0</ele><time>2026-04-06T13:21:24.773Z</time></trkpt><trkpt lat="45.7669538" lon="9.1774338"><ele>349.0</ele><time>2026-04-06T13:21:25.772Z</time></trkpt><trkpt lat="45.7670114" lon="9.1776407"><ele>349.0</ele><time>2026-04-06T13:21:26.773Z</time></trkpt><trkpt lat="45.7670659" lon="9.1778489"><ele>349.0</ele><time>2026-04-06T13:21:27.773Z</time></trkpt><trkpt lat="45.7671247" lon="9.1780584"><ele>349.0</ele><time>2026-04-06T13:21:28.773Z</time></trkpt><trkpt lat="45.7671795" lon="9.1782601"><ele>349.0</ele><time>2026-04-06T13:21:29.772Z</time></trkpt><trkpt lat="45.7672359" lon="9.1784632"><ele>349.0</ele><time>2026-04-06T13:21:30.773Z</time></trkpt><trkpt lat="45.7672934" lon="9.1786654"><ele>349.0</ele><time>2026-04-06T13:21:31.773Z</time></trkpt><trkpt lat="45.7673439" lon="9.1788676"><ele>349.25</ele><time>2026-04-06T13:21:32.773Z</time></trkpt><trkpt lat="45.7673898" lon="9.1790707"><ele>349.5</ele><time>2026-04-06T13:21:33.772Z</time></trkpt><trkpt lat="45.7674249" lon="9.1792653"><ele>349.75</ele><time>2026-04-06T13:21:34.773Z</time></trkpt><trkpt lat="45.7674608" lon="9.1794533"><ele>350.0</ele><time>2026-04-06T13:21:35.773Z</time></trkpt><trkpt lat="45.7675107" lon="9.1796182"><ele>350.0</ele><time>2026-04-06T13:21:36.772Z</time></trkpt><trkpt lat="45.7675748" lon="9.1797692"><ele>350.0</ele><time>2026-04-06T13:21:37.773Z</time></trkpt><trkpt lat="45.7676607" lon="9.1799157"><ele>350.0</ele><time>2026-04-06T13:21:38.772Z</time></trkpt><trkpt lat="45.7677602" lon="9.180052"><ele>350.0</ele><time>2026-04-06T13:21:39.772Z</time></trkpt><trkpt lat="45.7678637" lon="9.180184"><ele>350.5</ele><time>2026-04-06T13:21:40.772Z</time></trkpt><trkpt lat="45.7679613" lon="9.1803131"><ele>351.0</ele><time>2026-04-06T13:21:41.773Z</time></trkpt><trkpt lat="45.7680567" lon="9.1804397"><ele>351.5</ele><time>2026-04-06T13:21:42.773Z</time></trkpt><trkpt lat="45.7681533" lon="9.1805673"><ele>352.0</ele><time>2026-04-06T13:21:43.773Z</time></trkpt><trkpt lat="45.7682492" lon="9.1806929"><ele>352.0</ele><time>2026-04-06T13:21:44.772Z</time></trkpt><trkpt lat="45.768344" lon="9.180815"><ele>352.0</ele><time>2026-04-06T13:21:45.772Z</time></trkpt><trkpt lat="45.7684364" lon="9.1809355"><ele>352.0</ele><time>2026-04-06T13:21:46.772Z</time></trkpt><trkpt lat="45.7685199" lon="9.1810504"><ele>352.0</ele><time>2026-04-06T13:21:47.773Z</time></trkpt><trkpt lat="45.7686015" lon="9.1811567"><ele>352.0</ele><time>2026-04-06T13:21:48.772Z</time></trkpt><trkpt lat="45.7686785" lon="9.1812596"><ele>352.0</ele><time>2026-04-06T13:21:49.773Z</time></trkpt><trkpt lat="45.7687535" lon="9.1813544"><ele>352.0</ele><time>2026-04-06T13:21:50.773Z</time></trkpt><trkpt lat="45.7688238" lon="9.1814465"><ele>352.0</ele><time>2026-04-06T13:21:51.772Z</time></trkpt><trkpt lat="45.7688878" lon="9.1815355"><ele>352.0</ele><time>2026-04-06T13:21:52.773Z</time></trkpt><trkpt lat="45.7689486" lon="9.181617"><ele>352.14285714285717</ele><time>2026-04-06T13:21:53.773Z</time></trkpt><trkpt lat="45.7690016" lon="9.181691"><ele>352.2857142857143</ele><time>2026-04-06T13:21:54.773Z</time></trkpt><trkpt lat="45.7690519" lon="9.1817607"><ele>352.42857142857144</ele><time>2026-04-06T13:21:55.772Z</time></trkpt><trkpt lat="45.7691048" lon="9.1818279"><ele>352.57142857142856</ele><time>2026-04-06T13:21:56.772Z</time></trkpt><trkpt lat="45.769157" lon="9.1819098"><ele>352.7142857142857</ele><time>2026-04-06T13:21:57.772Z</time></trkpt><trkpt lat="45.7692059" lon="9.1819898"><ele>352.85714285714283</ele><time>2026-04-06T13:21:58.772Z</time></trkpt><trkpt lat="45.769248" lon="9.1820607"><ele>353.0</ele><time>2026-04-06T13:21:59.772Z</time></trkpt><trkpt lat="45.7693136" lon="9.1821801"><ele>353.5</ele><time>2026-04-06T13:22:01.772Z</time></trkpt><trkpt lat="45.7693703" lon="9.182286"><ele>354.0</ele><time>2026-04-06T13:22:03.772Z</time></trkpt><trkpt lat="45.7694337" lon="9.1824014"><ele>354.5</ele><time>2026-04-06T13:22:05.773Z</time></trkpt><trkpt lat="45.7694552" lon="9.1824947"><ele>355.0</ele><time>2026-04-06T13:22:06.773Z</time></trkpt><trkpt lat="45.7694621" lon="9.1825988"><ele>355.5</ele><time>2026-04-06T13:22:07.772Z</time></trkpt><trkpt lat="45.7694894" lon="9.1827054"><ele>356.0</ele><time>2026-04-06T13:22:08.772Z</time></trkpt><trkpt lat="45.7695547" lon="9.1827804"><ele>356.0</ele><time>2026-04-06T13:22:09.772Z</time></trkpt><trkpt lat="45.7696454" lon="9.1828155"><ele>356.0</ele><time>2026-04-06T13:22:10.772Z</time></trkpt><trkpt lat="45.7697554" lon="9.1828481"><ele>356.0</ele><time>2026-04-06T13:22:11.773Z</time></trkpt><trkpt lat="45.7698652" lon="9.1829162"><ele>356.0</ele><time>2026-04-06T13:22:12.773Z</time></trkpt><trkpt lat="45.7699683" lon="9.1829858"><ele>356.0</ele><time>2026-04-06T13:22:13.772Z</time></trkpt><trkpt lat="45.7700769" lon="9.1830598"><ele>356.5</ele><time>2026-04-06T13:22:14.773Z</time></trkpt><trkpt lat="45.7701972" lon="9.1831438"><ele>357.0</ele><time>2026-04-06T13:22:15.772Z</time></trkpt><trkpt lat="45.7703205" lon="9.1832339"><ele>357.5</ele><time>2026-04-06T13:22:16.772Z</time></trkpt><trkpt lat="45.7704333" lon="9.1833165"><ele>358.0</ele><time>2026-04-06T13:22:17.772Z</time></trkpt><trkpt lat="45.7705513" lon="9.1833992"><ele>358.0</ele><time>2026-04-06T13:22:18.773Z</time></trkpt><trkpt lat="45.7706721" lon="9.1834845"><ele>358.0</ele><time>2026-04-06T13:22:19.772Z</time></trkpt><trkpt lat="45.7707923" lon="9.1835705"><ele>358.0</ele><time>2026-04-06T13:22:20.772Z</time></trkpt><trkpt lat="45.7709153" lon="9.1836618"><ele>358.0</ele><time>2026-04-06T13:22:21.773Z</time></trkpt><trkpt lat="45.7710407" lon="9.1837573"><ele>359.3333333333333</ele><time>2026-04-06T13:22:22.772Z</time></trkpt><trkpt lat="45.7711726" lon="9.1838486"><ele>360.6666666666667</ele><time>2026-04-06T13:22:23.773Z</time></trkpt><trkpt lat="45.7713112" lon="9.18395"><ele>362.0</ele><time>2026-04-06T13:22:24.773Z</time></trkpt><trkpt lat="45.7714478" lon="9.1840469"><ele>362.75</ele><time>2026-04-06T13:22:25.772Z</time></trkpt><trkpt lat="45.7715762" lon="9.1841393"><ele>363.5</ele><time>2026-04-06T13:22:26.772Z</time></trkpt><trkpt lat="45.7717003" lon="9.1842288"><ele>364.25</ele><time>2026-04-06T13:22:27.772Z</time></trkpt><trkpt lat="45.7718261" lon="9.1843175"><ele>365.0</ele><time>2026-04-06T13:22:28.772Z</time></trkpt><trkpt lat="45.7719532" lon="9.1844112"><ele>365.0</ele><time>2026-04-06T13:22:29.773Z</time></trkpt><trkpt lat="45.7720834" lon="9.184502"><ele>365.0</ele><time>2026-04-06T13:22:30.773Z</time></trkpt><trkpt lat="45.7722224" lon="9.1845774"><ele>365.0</ele><time>2026-04-06T13:22:31.772Z</time></trkpt><trkpt lat="45.7723771" lon="9.1846241"><ele>365.0</ele><time>2026-04-06T13:22:32.772Z</time></trkpt><trkpt lat="45.7725393" lon="9.1846496"><ele>365.0</ele><time>2026-04-06T13:22:33.773Z</time></trkpt><trkpt lat="45.7727069" lon="9.1846656"><ele>365.0</ele><time>2026-04-06T13:22:34.773Z</time></trkpt><trkpt lat="45.7728795" lon="9.1846757"><ele>365.6666666666667</ele><time>2026-04-06T13:22:35.772Z</time></trkpt><trkpt lat="45.7730539" lon="9.184686"><ele>366.3333333333333</ele><time>2026-04-06T13:22:36.773Z</time></trkpt><trkpt lat="45.7732285" lon="9.1846929"><ele>367.0</ele><time>2026-04-06T13:22:37.772Z</time></trkpt><trkpt lat="45.7734039" lon="9.184699"><ele>370.3333333333333</ele><time>2026-04-06T13:22:38.772Z</time></trkpt><trkpt lat="45.7735784" lon="9.1847001"><ele>373.6666666666667</ele><time>2026-04-06T13:22:39.773Z</time></trkpt><trkpt lat="45.773749" lon="9.1847186"><ele>377.0</ele><time>2026-04-06T13:22:40.773Z</time></trkpt><trkpt lat="45.7739189" lon="9.1847662"><ele>376.33333333333337</ele><time>2026-04-06T13:22:41.773Z</time></trkpt><trkpt lat="45.7740818" lon="9.1848592"><ele>375.6666666666667</ele><time>2026-04-06T13:22:42.773Z</time></trkpt><trkpt lat="45.774237" lon="9.1849899"><ele>375.0</ele><time>2026-04-06T13:22:43.773Z</time></trkpt><trkpt lat="45.7743769" lon="9.1851567"><ele>378.66666666666663</ele><time>2026-04-06T13:22:44.773Z</time></trkpt><trkpt lat="45.7744953" lon="9.1853566"><ele>382.3333333333333</ele><time>2026-04-06T13:22:45.772Z</time></trkpt><trkpt lat="45.7745965" lon="9.1855599"><ele>386.0</ele><time>2026-04-06T13:22:46.773Z</time></trkpt><trkpt lat="45.7746896" lon="9.1857483"><ele>386.0</ele><time>2026-04-06T13:22:47.773Z</time></trkpt><trkpt lat="45.7747881" lon="9.1859259"><ele>386.0</ele><time>2026-04-06T13:22:48.772Z</time></trkpt><trkpt lat="45.7749026" lon="9.186088"><ele>386.0</ele><time>2026-04-06T13:22:49.772Z</time></trkpt><trkpt lat="45.7750329" lon="9.1862241"><ele>386.0</ele><time>2026-04-06T13:22:50.772Z</time></trkpt><trkpt lat="45.7751691" lon="9.1863178"><ele>386.0</ele><time>2026-04-06T13:22:51.773Z</time></trkpt><trkpt lat="45.7753122" lon="9.186388"><ele>386.0</ele><time>2026-04-06T13:22:52.772Z</time></trkpt><trkpt lat="45.7754615" lon="9.1864312"><ele>385.3333333333333</ele><time>2026-04-06T13:22:53.773Z</time></trkpt><trkpt lat="45.7756" lon="9.1864241"><ele>384.66666666666663</ele><time>2026-04-06T13:22:54.772Z</time></trkpt><trkpt lat="45.7757842" lon="9.1863357"><ele>384.0</ele><time>2026-04-06T13:22:55.772Z</time></trkpt><trkpt lat="45.7759568" lon="9.1862386"><ele>380.0</ele><time>2026-04-06T13:22:56.773Z</time></trkpt><trkpt lat="45.7761313" lon="9.1861421"><ele>376.0</ele><time>2026-04-06T13:22:57.773Z</time></trkpt><trkpt lat="45.7762958" lon="9.1860516"><ele>372.0</ele><time>2026-04-06T13:22:58.772Z</time></trkpt><trkpt lat="45.7764506" lon="9.1859643"><ele>372.0</ele><time>2026-04-06T13:22:59.773Z</time></trkpt><trkpt lat="45.7765955" lon="9.1858815"><ele>372.0</ele><time>2026-04-06T13:23:00.773Z</time></trkpt><trkpt lat="45.7767401" lon="9.1858002"><ele>372.0</ele><time>2026-04-06T13:23:01.771Z</time></trkpt><trkpt lat="45.7768758" lon="9.1857201"><ele>372.25</ele><time>2026-04-06T13:23:02.772Z</time></trkpt><trkpt lat="45.7770098" lon="9.1856487"><ele>372.5</ele><time>2026-04-06T13:23:03.772Z</time></trkpt><trkpt lat="45.7771436" lon="9.1855921"><ele>372.75</ele><time>2026-04-06T13:23:04.771Z</time></trkpt><trkpt lat="45.7772784" lon="9.1855541"><ele>373.0</ele><time>2026-04-06T13:23:05.771Z</time></trkpt><trkpt lat="45.7774052" lon="9.1855351"><ele>373.0</ele><time>2026-04-06T13:23:06.772Z</time></trkpt><trkpt lat="45.7775301" lon="9.1855423"><ele>373.0</ele><time>2026-04-06T13:23:07.772Z</time></trkpt><trkpt lat="45.7776447" lon="9.1855582"><ele>373.0</ele><time>2026-04-06T13:23:08.771Z</time></trkpt><trkpt lat="45.7777494" lon="9.185582"><ele>373.0</ele><time>2026-04-06T13:23:09.771Z</time></trkpt><trkpt lat="45.7778487" lon="9.1856134"><ele>373.0</ele><time>2026-04-06T13:23:10.771Z</time></trkpt><trkpt lat="45.7779396" lon="9.1856543"><ele>372.2</ele><time>2026-04-06T13:23:11.772Z</time></trkpt><trkpt lat="45.7780329" lon="9.1856808"><ele>371.4</ele><time>2026-04-06T13:23:12.771Z</time></trkpt><trkpt lat="45.7781335" lon="9.1856836"><ele>370.59999999999997</ele><time>2026-04-06T13:23:13.771Z</time></trkpt><trkpt lat="45.7782424" lon="9.1856849"><ele>369.79999999999995</ele><time>2026-04-06T13:23:14.771Z</time></trkpt><trkpt lat="45.7783506" lon="9.1857092"><ele>369.0</ele><time>2026-04-06T13:23:15.772Z</time></trkpt><trkpt lat="45.7784518" lon="9.1857463"><ele>369.4</ele><time>2026-04-06T13:23:16.772Z</time></trkpt><trkpt lat="45.7785493" lon="9.1857957"><ele>369.79999999999995</ele><time>2026-04-06T13:23:17.772Z</time></trkpt><trkpt lat="45.7786401" lon="9.1858606"><ele>370.20000000000005</ele><time>2026-04-06T13:23:18.772Z</time></trkpt><trkpt lat="45.778732" lon="9.1859447"><ele>370.6</ele><time>2026-04-06T13:23:19.771Z</time></trkpt><trkpt lat="45.7788198" lon="9.18604"><ele>371.0</ele><time>2026-04-06T13:23:20.771Z</time></trkpt><trkpt lat="45.7789067" lon="9.1861335"><ele>371.0</ele><time>2026-04-06T13:23:21.772Z</time></trkpt><trkpt lat="45.7789882" lon="9.186228"><ele>371.0</ele><time>2026-04-06T13:23:22.771Z</time></trkpt><trkpt lat="45.7790688" lon="9.1863207"><ele>371.0</ele><time>2026-04-06T13:23:23.771Z</time></trkpt><trkpt lat="45.779147" lon="9.1864142"><ele>371.0</ele><time>2026-04-06T13:23:24.771Z</time></trkpt><trkpt lat="45.7792206" lon="9.1865031"><ele>371.0</ele><time>2026-04-06T13:23:25.771Z</time></trkpt><trkpt lat="45.7792871" lon="9.1865873"><ele>370.8</ele><time>2026-04-06T13:23:26.771Z</time></trkpt><trkpt lat="45.7793538" lon="9.1866703"><ele>370.6</ele><time>2026-04-06T13:23:27.771Z</time></trkpt><trkpt lat="45.7794196" lon="9.1867599"><ele>370.4</ele><time>2026-04-06T13:23:28.771Z</time></trkpt><trkpt lat="45.7794826" lon="9.1868577"><ele>370.2</ele><time>2026-04-06T13:23:29.772Z</time></trkpt><trkpt lat="45.779546" lon="9.1869639"><ele>370.0</ele><time>2026-04-06T13:23:30.771Z</time></trkpt><trkpt lat="45.7796108" lon="9.1870752"><ele>370.0</ele><time>2026-04-06T13:23:31.771Z</time></trkpt><trkpt lat="45.7796783" lon="9.1871958"><ele>370.0</ele><time>2026-04-06T13:23:32.772Z</time></trkpt><trkpt lat="45.77975" lon="9.1873154"><ele>370.0</ele><time>2026-04-06T13:23:33.772Z</time></trkpt><trkpt lat="45.7798278" lon="9.1874326"><ele>370.0</ele><time>2026-04-06T13:23:34.771Z</time></trkpt><trkpt lat="45.77991" lon="9.1875446"><ele>370.0</ele><time>2026-04-06T13:23:35.772Z</time></trkpt><trkpt lat="45.7799963" lon="9.1876501"><ele>369.6</ele><time>2026-04-06T13:23:36.771Z</time></trkpt><trkpt lat="45.7800849" lon="9.1877533"><ele>369.2</ele><time>2026-04-06T13:23:37.771Z</time></trkpt><trkpt lat="45.7801699" lon="9.1878464"><ele>368.79999999999995</ele><time>2026-04-06T13:23:38.772Z</time></trkpt><trkpt lat="45.7802537" lon="9.1879375"><ele>368.4</ele><time>2026-04-06T13:23:39.771Z</time></trkpt><trkpt lat="45.780336" lon="9.1880227"><ele>368.0</ele><time>2026-04-06T13:23:40.771Z</time></trkpt><trkpt lat="45.7804155" lon="9.1881062"><ele>367.2</ele><time>2026-04-06T13:23:41.772Z</time></trkpt><trkpt lat="45.7804944" lon="9.1881913"><ele>366.4</ele><time>2026-04-06T13:23:42.772Z</time></trkpt><trkpt lat="45.7805719" lon="9.1882727"><ele>365.59999999999997</ele><time>2026-04-06T13:23:43.772Z</time></trkpt><trkpt lat="45.7806519" lon="9.1883574"><ele>364.79999999999995</ele><time>2026-04-06T13:23:44.772Z</time></trkpt><trkpt lat="45.7807341" lon="9.1884503"><ele>364.0</ele><time>2026-04-06T13:23:45.771Z</time></trkpt><trkpt lat="45.7808172" lon="9.1885445"><ele>364.0</ele><time>2026-04-06T13:23:46.772Z</time></trkpt><trkpt lat="45.7809002" lon="9.1886473"><ele>364.0</ele><time>2026-04-06T13:23:47.771Z</time></trkpt><trkpt lat="45.7809819" lon="9.1887466"><ele>364.0</ele><time>2026-04-06T13:23:48.772Z</time></trkpt><trkpt lat="45.7810664" lon="9.1888457"><ele>364.0</ele><time>2026-04-06T13:23:49.772Z</time></trkpt><trkpt lat="45.7811481" lon="9.1889436"><ele>364.0</ele><time>2026-04-06T13:23:50.771Z</time></trkpt><trkpt lat="45.7812286" lon="9.1890376"><ele>364.0</ele><time>2026-04-06T13:23:51.772Z</time></trkpt><trkpt lat="45.7813009" lon="9.1891266"><ele>364.0</ele><time>2026-04-06T13:23:52.772Z</time></trkpt><trkpt lat="45.7813718" lon="9.1892172"><ele>364.0</ele><time>2026-04-06T13:23:53.771Z</time></trkpt><trkpt lat="45.7814513" lon="9.1893106"><ele>364.0</ele><time>2026-04-06T13:23:54.771Z</time></trkpt><trkpt lat="45.7815359" lon="9.1894029"><ele>364.0</ele><time>2026-04-06T13:23:55.771Z</time></trkpt><trkpt lat="45.7816274" lon="9.1895014"><ele>364.0</ele><time>2026-04-06T13:23:56.771Z</time></trkpt><trkpt lat="45.781725" lon="9.1896005"><ele>364.0</ele><time>2026-04-06T13:23:57.771Z</time></trkpt><trkpt lat="45.7818344" lon="9.1897001"><ele>364.0</ele><time>2026-04-06T13:23:58.771Z</time></trkpt><trkpt lat="45.7819514" lon="9.18981"><ele>364.0</ele><time>2026-04-06T13:23:59.772Z</time></trkpt><trkpt lat="45.7820651" lon="9.1899145"><ele>363.25</ele><time>2026-04-06T13:24:00.772Z</time></trkpt><trkpt lat="45.7821812" lon="9.1900172"><ele>362.5</ele><time>2026-04-06T13:24:01.772Z</time></trkpt><trkpt lat="45.782294" lon="9.1901161"><ele>361.75</ele><time>2026-04-06T13:24:02.771Z</time></trkpt><trkpt lat="45.7824056" lon="9.1902152"><ele>361.0</ele><time>2026-04-06T13:24:03.771Z</time></trkpt><trkpt lat="45.7825205" lon="9.1903182"><ele>361.0</ele><time>2026-04-06T13:24:04.771Z</time></trkpt><trkpt lat="45.7826336" lon="9.1904245"><ele>361.0</ele><time>2026-04-06T13:24:05.771Z</time></trkpt><trkpt lat="45.7827495" lon="9.1905265"><ele>361.0</ele><time>2026-04-06T13:24:06.771Z</time></trkpt><trkpt lat="45.7828651" lon="9.190626"><ele>361.0</ele><time>2026-04-06T13:24:07.771Z</time></trkpt><trkpt lat="45.7829766" lon="9.1907257"><ele>359.75</ele><time>2026-04-06T13:24:08.771Z</time></trkpt><trkpt lat="45.7830849" lon="9.1908176"><ele>358.5</ele><time>2026-04-06T13:24:09.771Z</time></trkpt><trkpt lat="45.783186" lon="9.1909023"><ele>357.25</ele><time>2026-04-06T13:24:10.771Z</time></trkpt><trkpt lat="45.7832822" lon="9.1909861"><ele>356.0</ele><time>2026-04-06T13:24:11.772Z</time></trkpt><trkpt lat="45.7833728" lon="9.1910691"><ele>356.0</ele><time>2026-04-06T13:24:12.772Z</time></trkpt><trkpt lat="45.7834474" lon="9.1911569"><ele>356.0</ele><time>2026-04-06T13:24:13.771Z</time></trkpt><trkpt lat="45.7835127" lon="9.1912587"><ele>356.0</ele><time>2026-04-06T13:24:14.772Z</time></trkpt><trkpt lat="45.783567" lon="9.1913677"><ele>356.0</ele><time>2026-04-06T13:24:15.771Z</time></trkpt><trkpt lat="45.7836013" lon="9.1914808"><ele>356.0</ele><time>2026-04-06T13:24:16.771Z</time></trkpt><trkpt lat="45.7836509" lon="9.191585"><ele>354.20000000000005</ele><time>2026-04-06T13:24:17.771Z</time></trkpt><trkpt lat="45.7837354" lon="9.1916481"><ele>352.40000000000003</ele><time>2026-04-06T13:24:18.771Z</time></trkpt><trkpt lat="45.7838351" lon="9.191678"><ele>350.6</ele><time>2026-04-06T13:24:19.771Z</time></trkpt><trkpt lat="45.7839477" lon="9.1916895"><ele>348.8</ele><time>2026-04-06T13:24:20.771Z</time></trkpt><trkpt lat="45.7840499" lon="9.1917369"><ele>347.0</ele><time>2026-04-06T13:24:21.771Z</time></trkpt><trkpt lat="45.7841478" lon="9.1918015"><ele>347.0</ele><time>2026-04-06T13:24:22.771Z</time></trkpt><trkpt lat="45.7842488" lon="9.1918873"><ele>347.0</ele><time>2026-04-06T13:24:23.772Z</time></trkpt><trkpt lat="45.7843458" lon="9.1919772"><ele>347.0</ele><time>2026-04-06T13:24:24.771Z</time></trkpt><trkpt lat="45.7844409" lon="9.1920634"><ele>347.0</ele><time>2026-04-06T13:24:25.771Z</time></trkpt><trkpt lat="45.7845387" lon="9.1921509"><ele>347.5</ele><time>2026-04-06T13:24:26.771Z</time></trkpt><trkpt lat="45.7846384" lon="9.1922397"><ele>348.0</ele><time>2026-04-06T13:24:27.771Z</time></trkpt><trkpt lat="45.7847385" lon="9.1923358"><ele>348.5</ele><time>2026-04-06T13:24:28.771Z</time></trkpt><trkpt lat="45.784837" lon="9.1924317"><ele>349.0</ele><time>2026-04-06T13:24:29.772Z</time></trkpt><trkpt lat="45.7849326" lon="9.1925226"><ele>349.0</ele><time>2026-04-06T13:24:30.771Z</time></trkpt><trkpt lat="45.7850287" lon="9.1926138"><ele>349.0</ele><time>2026-04-06T13:24:31.771Z</time></trkpt><trkpt lat="45.7851213" lon="9.1927032"><ele>349.0</ele><time>2026-04-06T13:24:32.772Z</time></trkpt><trkpt lat="45.7852155" lon="9.1927906"><ele>349.0</ele><time>2026-04-06T13:24:33.772Z</time></trkpt><trkpt lat="45.7853064" lon="9.1928738"><ele>349.0</ele><time>2026-04-06T13:24:34.771Z</time></trkpt><trkpt lat="45.785396" lon="9.1929554"><ele>349.16666666666663</ele><time>2026-04-06T13:24:35.771Z</time></trkpt><trkpt lat="45.7854828" lon="9.193027"><ele>349.3333333333333</ele><time>2026-04-06T13:24:36.771Z</time></trkpt><trkpt lat="45.7855578" lon="9.1930926"><ele>349.5</ele><time>2026-04-06T13:24:37.772Z</time></trkpt><trkpt lat="45.785628" lon="9.1931535"><ele>349.6666666666667</ele><time>2026-04-06T13:24:38.772Z</time></trkpt><trkpt lat="45.7856912" lon="9.1932137"><ele>349.83333333333337</ele><time>2026-04-06T13:24:39.771Z</time></trkpt><trkpt lat="45.7857629" lon="9.1932804"><ele>350.0</ele><time>2026-04-06T13:24:40.771Z</time></trkpt><trkpt lat="45.785839" lon="9.1933491"><ele>350.0</ele><time>2026-04-06T13:24:41.772Z</time></trkpt><trkpt lat="45.7859191" lon="9.1934248"><ele>350.0</ele><time>2026-04-06T13:24:42.771Z</time></trkpt><trkpt lat="45.786" lon="9.1935047"><ele>350.0</ele><time>2026-04-06T13:24:43.772Z</time></trkpt><trkpt lat="45.7860761" lon="9.193577"><ele>350.0</ele><time>2026-04-06T13:24:44.771Z</time></trkpt><trkpt lat="45.786158" lon="9.1936462"><ele>350.0</ele><time>2026-04-06T13:24:45.772Z</time></trkpt><trkpt lat="45.7862412" lon="9.193725"><ele>349.6</ele><time>2026-04-06T13:24:46.771Z</time></trkpt><trkpt lat="45.7863326" lon="9.1938064"><ele>349.2</ele><time>2026-04-06T13:24:47.771Z</time></trkpt><trkpt lat="45.7864251" lon="9.1938874"><ele>348.79999999999995</ele><time>2026-04-06T13:24:48.771Z</time></trkpt><trkpt lat="45.7865103" lon="9.1939634"><ele>348.4</ele><time>2026-04-06T13:24:49.772Z</time></trkpt><trkpt lat="45.7865962" lon="9.1940364"><ele>348.0</ele><time>2026-04-06T13:24:50.771Z</time></trkpt><trkpt lat="45.7866721" lon="9.1941076"><ele>348.0</ele><time>2026-04-06T13:24:51.771Z</time></trkpt><trkpt lat="45.7867484" lon="9.1941738"><ele>348.0</ele><time>2026-04-06T13:24:52.772Z</time></trkpt><trkpt lat="45.7868214" lon="9.1942419"><ele>348.0</ele><time>2026-04-06T13:24:53.772Z</time></trkpt><trkpt lat="45.7868941" lon="9.1943125"><ele>348.0</ele><time>2026-04-06T13:24:54.772Z</time></trkpt><trkpt lat="45.7869747" lon="9.1943828"><ele>348.0</ele><time>2026-04-06T13:24:55.771Z</time></trkpt><trkpt lat="45.7870585" lon="9.1944655"><ele>348.59999999999997</ele><time>2026-04-06T13:24:56.772Z</time></trkpt><trkpt lat="45.7871456" lon="9.1945525"><ele>349.2</ele><time>2026-04-06T13:24:57.771Z</time></trkpt><trkpt lat="45.7872355" lon="9.1946435"><ele>349.8</ele><time>2026-04-06T13:24:58.772Z</time></trkpt><trkpt lat="45.7873212" lon="9.1947523"><ele>350.4</ele><time>2026-04-06T13:24:59.772Z</time></trkpt><trkpt lat="45.7873919" lon="9.1948816"><ele>351.0</ele><time>2026-04-06T13:25:00.771Z</time></trkpt><trkpt lat="45.7874527" lon="9.1950199"><ele>348.5</ele><time>2026-04-06T13:25:01.771Z</time></trkpt><trkpt lat="45.7874979" lon="9.1951698"><ele>346.0</ele><time>2026-04-06T13:25:02.771Z</time></trkpt><trkpt lat="45.7875297" lon="9.1953296"><ele>343.5</ele><time>2026-04-06T13:25:03.772Z</time></trkpt><trkpt lat="45.7875416" lon="9.1954962"><ele>341.0</ele><time>2026-04-06T13:25:04.772Z</time></trkpt><trkpt lat="45.7875459" lon="9.1956616"><ele>340.0</ele><time>2026-04-06T13:25:05.771Z</time></trkpt><trkpt lat="45.7875399" lon="9.195823"><ele>339.0</ele><time>2026-04-06T13:25:06.772Z</time></trkpt><trkpt lat="45.7875348" lon="9.1959613"><ele>338.0</ele><time>2026-04-06T13:25:07.772Z</time></trkpt><trkpt lat="45.7875272" lon="9.1960882"><ele>337.0</ele><time>2026-04-06T13:25:08.772Z</time></trkpt><trkpt lat="45.7875156" lon="9.1961846"><ele>336.0</ele><time>2026-04-06T13:25:09.771Z</time></trkpt><trkpt lat="45.7874983" lon="9.1963196"><ele>336.0</ele><time>2026-04-06T13:25:11.772Z</time></trkpt><trkpt lat="45.7875318" lon="9.1964915"><ele>336.0</ele><time>2026-04-06T13:25:26.772Z</time></trkpt><trkpt lat="45.7875993" lon="9.1965671"><ele>336.0</ele><time>2026-04-06T13:25:27.77Z</time></trkpt><trkpt lat="45.7876686" lon="9.1966205"><ele>336.0</ele><time>2026-04-06T13:25:28.77Z</time></trkpt><trkpt lat="45.787746" lon="9.19668"><ele>336.0</ele><time>2026-04-06T13:25:29.77Z</time></trkpt><trkpt lat="45.7878424" lon="9.1967453"><ele>335.25</ele><time>2026-04-06T13:25:30.771Z</time></trkpt><trkpt lat="45.7879495" lon="9.1968142"><ele>334.5</ele><time>2026-04-06T13:25:31.771Z</time></trkpt><trkpt lat="45.7880514" lon="9.1968826"><ele>333.75</ele><time>2026-04-06T13:25:32.771Z</time></trkpt><trkpt lat="45.7881637" lon="9.1969526"><ele>333.0</ele><time>2026-04-06T13:25:33.77Z</time></trkpt><trkpt lat="45.7882912" lon="9.1970272"><ele>333.0</ele><time>2026-04-06T13:25:34.771Z</time></trkpt><trkpt lat="45.7884338" lon="9.1970943"><ele>333.0</ele><time>2026-04-06T13:25:35.771Z</time></trkpt><trkpt lat="45.7885634" lon="9.1971496"><ele>333.0</ele><time>2026-04-06T13:25:36.771Z</time></trkpt><trkpt lat="45.7886967" lon="9.1971958"><ele>333.0</ele><time>2026-04-06T13:25:37.771Z</time></trkpt><trkpt lat="45.7888288" lon="9.1972361"><ele>334.0</ele><time>2026-04-06T13:25:38.77Z</time></trkpt><trkpt lat="45.7889619" lon="9.1972815"><ele>335.0</ele><time>2026-04-06T13:25:39.771Z</time></trkpt><trkpt lat="45.7890982" lon="9.1973301"><ele>336.0</ele><time>2026-04-06T13:25:40.77Z</time></trkpt><trkpt lat="45.7892351" lon="9.1973757"><ele>337.0</ele><time>2026-04-06T13:25:41.771Z</time></trkpt><trkpt lat="45.7893738" lon="9.1974199"><ele>337.0</ele><time>2026-04-06T13:25:42.771Z</time></trkpt><trkpt lat="45.7895032" lon="9.1974606"><ele>337.0</ele><time>2026-04-06T13:25:43.77Z</time></trkpt><trkpt lat="45.7896251" lon="9.1975003"><ele>337.0</ele><time>2026-04-06T13:25:44.77Z</time></trkpt><trkpt lat="45.7897403" lon="9.1975325"><ele>337.0</ele><time>2026-04-06T13:25:45.771Z</time></trkpt><trkpt lat="45.7898501" lon="9.1975664"><ele>337.0</ele><time>2026-04-06T13:25:46.771Z</time></trkpt><trkpt lat="45.7899494" lon="9.1976005"><ele>337.0</ele><time>2026-04-06T13:25:47.77Z</time></trkpt><trkpt lat="45.790052" lon="9.1976336"><ele>337.0</ele><time>2026-04-06T13:25:48.77Z</time></trkpt><trkpt lat="45.790147" lon="9.1976604"><ele>337.0</ele><time>2026-04-06T13:25:49.771Z</time></trkpt><trkpt lat="45.790232" lon="9.1976866"><ele>337.0</ele><time>2026-04-06T13:25:50.771Z</time></trkpt><trkpt lat="45.7903113" lon="9.197713"><ele>336.66666666666663</ele><time>2026-04-06T13:25:51.77Z</time></trkpt><trkpt lat="45.7903791" lon="9.1977352"><ele>336.3333333333333</ele><time>2026-04-06T13:25:52.77Z</time></trkpt><trkpt lat="45.7904854" lon="9.1977661"><ele>336.0</ele><time>2026-04-06T13:25:54.77Z</time></trkpt><trkpt lat="45.790552" lon="9.1977879"><ele>335.6666666666667</ele><time>2026-04-06T13:25:56.771Z</time></trkpt><trkpt lat="45.7906228" lon="9.1978114"><ele>335.33333333333337</ele><time>2026-04-06T13:25:59.77Z</time></trkpt><trkpt lat="45.7907187" lon="9.19784"><ele>335.0</ele><time>2026-04-06T13:26:01.77Z</time></trkpt><trkpt lat="45.7907826" lon="9.1978582"><ele>335.0</ele><time>2026-04-06T13:26:02.771Z</time></trkpt><trkpt lat="45.7908536" lon="9.1978735"><ele>335.0</ele><time>2026-04-06T13:26:03.771Z</time></trkpt><trkpt lat="45.7909239" lon="9.1978901"><ele>335.0</ele><time>2026-04-06T13:26:04.77Z</time></trkpt><trkpt lat="45.7910006" lon="9.1979064"><ele>335.0</ele><time>2026-04-06T13:26:05.77Z</time></trkpt><trkpt lat="45.7910833" lon="9.1979241"><ele>335.0</ele><time>2026-04-06T13:26:06.771Z</time></trkpt><trkpt lat="45.7911779" lon="9.1979389"><ele>335.0</ele><time>2026-04-06T13:26:07.771Z</time></trkpt><trkpt lat="45.791286" lon="9.1979613"><ele>335.6</ele><time>2026-04-06T13:26:08.77Z</time></trkpt><trkpt lat="45.7913877" lon="9.1979766"><ele>336.2</ele><time>2026-04-06T13:26:09.771Z</time></trkpt><trkpt lat="45.791493" lon="9.1979938"><ele>336.79999999999995</ele><time>2026-04-06T13:26:10.771Z</time></trkpt><trkpt lat="45.7916058" lon="9.1980052"><ele>337.4</ele><time>2026-04-06T13:26:11.77Z</time></trkpt><trkpt lat="45.791732" lon="9.1980151"><ele>338.0</ele><time>2026-04-06T13:26:12.77Z</time></trkpt><trkpt lat="45.7918587" lon="9.19802"><ele>338.25</ele><time>2026-04-06T13:26:13.771Z</time></trkpt><trkpt lat="45.7919777" lon="9.1980295"><ele>338.5</ele><time>2026-04-06T13:26:14.77Z</time></trkpt><trkpt lat="45.7920953" lon="9.1980384"><ele>338.75</ele><time>2026-04-06T13:26:15.771Z</time></trkpt><trkpt lat="45.7922168" lon="9.1980497"><ele>339.0</ele><time>2026-04-06T13:26:16.77Z</time></trkpt><trkpt lat="45.7923413" lon="9.1980597"><ele>339.0</ele><time>2026-04-06T13:26:17.77Z</time></trkpt><trkpt lat="45.7924687" lon="9.1980753"><ele>339.0</ele><time>2026-04-06T13:26:18.77Z</time></trkpt><trkpt lat="45.7925969" lon="9.1980973"><ele>339.0</ele><time>2026-04-06T13:26:19.77Z</time></trkpt><trkpt lat="45.7927311" lon="9.1981316"><ele>339.0</ele><time>2026-04-06T13:26:20.771Z</time></trkpt><trkpt lat="45.7928675" lon="9.1981684"><ele>337.75</ele><time>2026-04-06T13:26:21.771Z</time></trkpt><trkpt lat="45.7930026" lon="9.1982089"><ele>336.5</ele><time>2026-04-06T13:26:22.77Z</time></trkpt><trkpt lat="45.7931319" lon="9.1982498"><ele>335.25</ele><time>2026-04-06T13:26:23.771Z</time></trkpt><trkpt lat="45.7932586" lon="9.1982882"><ele>334.0</ele><time>2026-04-06T13:26:24.77Z</time></trkpt><trkpt lat="45.7933785" lon="9.1983239"><ele>334.0</ele><time>2026-04-06T13:26:25.77Z</time></trkpt><trkpt lat="45.7934999" lon="9.1983701"><ele>334.0</ele><time>2026-04-06T13:26:26.771Z</time></trkpt><trkpt lat="45.7936189" lon="9.1984393"><ele>334.0</ele><time>2026-04-06T13:26:27.771Z</time></trkpt><trkpt lat="45.7937298" lon="9.1985244"><ele>334.0</ele><time>2026-04-06T13:26:28.77Z</time></trkpt><trkpt lat="45.7938352" lon="9.198633"><ele>334.0</ele><time>2026-04-06T13:26:29.771Z</time></trkpt><trkpt lat="45.7939312" lon="9.1987597"><ele>334.0</ele><time>2026-04-06T13:26:30.771Z</time></trkpt><trkpt lat="45.7940157" lon="9.198904"><ele>334.0</ele><time>2026-04-06T13:26:31.77Z</time></trkpt><trkpt lat="45.7941009" lon="9.1990548"><ele>334.0</ele><time>2026-04-06T13:26:32.771Z</time></trkpt><trkpt lat="45.7941855" lon="9.1992067"><ele>334.0</ele><time>2026-04-06T13:26:33.771Z</time></trkpt><trkpt lat="45.7942673" lon="9.1993558"><ele>334.0</ele><time>2026-04-06T13:26:34.77Z</time></trkpt><trkpt lat="45.794358" lon="9.1995194"><ele>334.0</ele><time>2026-04-06T13:26:35.77Z</time></trkpt><trkpt lat="45.7944453" lon="9.1996812"><ele>334.0</ele><time>2026-04-06T13:26:36.77Z</time></trkpt><trkpt lat="45.7945343" lon="9.1998489"><ele>334.0</ele><time>2026-04-06T13:26:37.771Z</time></trkpt><trkpt lat="45.7946189" lon="9.2000153"><ele>334.0</ele><time>2026-04-06T13:26:38.771Z</time></trkpt><trkpt lat="45.7946966" lon="9.2001779"><ele>334.0</ele><time>2026-04-06T13:26:39.771Z</time></trkpt><trkpt lat="45.7947724" lon="9.2003355"><ele>334.0</ele><time>2026-04-06T13:26:40.77Z</time></trkpt><trkpt lat="45.7948459" lon="9.2004923"><ele>334.0</ele><time>2026-04-06T13:26:41.77Z</time></trkpt><trkpt lat="45.7949419" lon="9.2006273"><ele>334.0</ele><time>2026-04-06T13:26:42.771Z</time></trkpt><trkpt lat="45.795055" lon="9.2007381"><ele>334.0</ele><time>2026-04-06T13:26:43.771Z</time></trkpt><trkpt lat="45.7951821" lon="9.2008177"><ele>334.0</ele><time>2026-04-06T13:26:44.771Z</time></trkpt><trkpt lat="45.7953024" lon="9.2008715"><ele>335.2</ele><time>2026-04-06T13:26:45.771Z</time></trkpt><trkpt lat="45.7954225" lon="9.2009091"><ele>336.4</ele><time>2026-04-06T13:26:46.77Z</time></trkpt><trkpt lat="45.7955338" lon="9.2009532"><ele>337.6</ele><time>2026-04-06T13:26:47.771Z</time></trkpt><trkpt lat="45.7956365" lon="9.2009917"><ele>338.8</ele><time>2026-04-06T13:26:48.77Z</time></trkpt><trkpt lat="45.7957343" lon="9.2010326"><ele>340.0</ele><time>2026-04-06T13:26:49.771Z</time></trkpt><trkpt lat="45.7958021" lon="9.2010787"><ele>340.0</ele><time>2026-04-06T13:26:50.771Z</time></trkpt><trkpt lat="45.7958966" lon="9.2011579"><ele>340.0</ele><time>2026-04-06T13:26:52.77Z</time></trkpt><trkpt lat="45.795986" lon="9.2011951"><ele>340.0</ele><time>2026-04-06T13:26:54.771Z</time></trkpt><trkpt lat="45.7960692" lon="9.2012594"><ele>340.0</ele><time>2026-04-06T13:26:56.77Z</time></trkpt><trkpt lat="45.7961468" lon="9.2013285"><ele>340.0</ele><time>2026-04-06T13:26:58.77Z</time></trkpt><trkpt lat="45.7962125" lon="9.2013769"><ele>339.8333333333333</ele><time>2026-04-06T13:27:01.771Z</time></trkpt><trkpt lat="45.796284" lon="9.2014944"><ele>339.66666666666663</ele><time>2026-04-06T13:27:12.771Z</time></trkpt><trkpt lat="45.7963337" lon="9.2015526"><ele>339.5</ele><time>2026-04-06T13:27:13.771Z</time></trkpt><trkpt lat="45.7963905" lon="9.2016057"><ele>339.3333333333333</ele><time>2026-04-06T13:27:14.77Z</time></trkpt><trkpt lat="45.7964527" lon="9.2016473"><ele>339.1666666666667</ele><time>2026-04-06T13:27:15.771Z</time></trkpt><trkpt lat="45.7965196" lon="9.2016843"><ele>339.0</ele><time>2026-04-06T13:27:16.77Z</time></trkpt><trkpt lat="45.79659" lon="9.2017368"><ele>338.6666666666667</ele><time>2026-04-06T13:27:17.77Z</time></trkpt><trkpt lat="45.796664" lon="9.2017941"><ele>338.3333333333333</ele><time>2026-04-06T13:27:18.77Z</time></trkpt><trkpt lat="45.7967488" lon="9.201864"><ele>338.0</ele><time>2026-04-06T13:27:19.771Z</time></trkpt><trkpt lat="45.796823" lon="9.2019313"><ele>337.66666666666663</ele><time>2026-04-06T13:27:20.771Z</time></trkpt><trkpt lat="45.7968979" lon="9.2019923"><ele>337.3333333333333</ele><time>2026-04-06T13:27:21.77Z</time></trkpt><trkpt lat="45.7969725" lon="9.2020568"><ele>337.0</ele><time>2026-04-06T13:27:22.77Z</time></trkpt><trkpt lat="45.7970519" lon="9.2021225"><ele>336.8</ele><time>2026-04-06T13:27:23.771Z</time></trkpt><trkpt lat="45.7971332" lon="9.202188"><ele>336.6</ele><time>2026-04-06T13:27:24.771Z</time></trkpt><trkpt lat="45.797217" lon="9.2022561"><ele>336.40000000000003</ele><time>2026-04-06T13:27:25.771Z</time></trkpt><trkpt lat="45.7973056" lon="9.2023259"><ele>336.20000000000005</ele><time>2026-04-06T13:27:26.77Z</time></trkpt><trkpt lat="45.7973957" lon="9.2024023"><ele>336.0</ele><time>2026-04-06T13:27:27.77Z</time></trkpt><trkpt lat="45.797493" lon="9.2024822"><ele>336.75</ele><time>2026-04-06T13:27:28.771Z</time></trkpt><trkpt lat="45.7975953" lon="9.2025637"><ele>337.5</ele><time>2026-04-06T13:27:29.771Z</time></trkpt><trkpt lat="45.7976997" lon="9.2026517"><ele>338.25</ele><time>2026-04-06T13:27:30.771Z</time></trkpt><trkpt lat="45.7978095" lon="9.2027417"><ele>339.0</ele><time>2026-04-06T13:27:31.77Z</time></trkpt><trkpt lat="45.7979207" lon="9.2028371"><ele>339.75</ele><time>2026-04-06T13:27:32.77Z</time></trkpt><trkpt lat="45.7980392" lon="9.2029366"><ele>340.5</ele><time>2026-04-06T13:27:33.77Z</time></trkpt><trkpt lat="45.7981475" lon="9.2030318"><ele>341.25</ele><time>2026-04-06T13:27:34.771Z</time></trkpt><trkpt lat="45.7982553" lon="9.2031203"><ele>342.0</ele><time>2026-04-06T13:27:35.77Z</time></trkpt><trkpt lat="45.7983612" lon="9.2032077"><ele>341.75</ele><time>2026-04-06T13:27:36.77Z</time></trkpt><trkpt lat="45.7984737" lon="9.2032956"><ele>341.5</ele><time>2026-04-06T13:27:37.77Z</time></trkpt><trkpt lat="45.7985822" lon="9.2033777"><ele>341.25</ele><time>2026-04-06T13:27:38.77Z</time></trkpt><trkpt lat="45.798686" lon="9.203456"><ele>341.0</ele><time>2026-04-06T13:27:39.77Z</time></trkpt><trkpt lat="45.7987867" lon="9.2035369"><ele>341.0</ele><time>2026-04-06T13:27:40.77Z</time></trkpt><trkpt lat="45.7988714" lon="9.2036092"><ele>341.0</ele><time>2026-04-06T13:27:41.771Z</time></trkpt><trkpt lat="45.7989554" lon="9.2036827"><ele>341.0</ele><time>2026-04-06T13:27:42.77Z</time></trkpt><trkpt lat="45.7990286" lon="9.2037536"><ele>341.0</ele><time>2026-04-06T13:27:43.771Z</time></trkpt><trkpt lat="45.7990954" lon="9.2038328"><ele>341.0</ele><time>2026-04-06T13:27:44.77Z</time></trkpt><trkpt lat="45.7991565" lon="9.2039283"><ele>341.0</ele><time>2026-04-06T13:27:45.77Z</time></trkpt><trkpt lat="45.7992217" lon="9.204011"><ele>341.0</ele><time>2026-04-06T13:27:46.77Z</time></trkpt><trkpt lat="45.7993041" lon="9.2040482"><ele>341.0</ele><time>2026-04-06T13:27:47.77Z</time></trkpt><trkpt lat="45.7993807" lon="9.2040734"><ele>341.0</ele><time>2026-04-06T13:27:48.769Z</time></trkpt><trkpt lat="45.7994845" lon="9.2040443"><ele>341.0</ele><time>2026-04-06T13:27:49.769Z</time></trkpt><trkpt lat="45.7995814" lon="9.2040379"><ele>341.75</ele><time>2026-04-06T13:27:50.77Z</time></trkpt><trkpt lat="45.7996861" lon="9.2040318"><ele>342.5</ele><time>2026-04-06T13:27:51.77Z</time></trkpt><trkpt lat="45.7997953" lon="9.2040345"><ele>343.25</ele><time>2026-04-06T13:27:52.77Z</time></trkpt><trkpt lat="45.7999108" lon="9.2040311"><ele>344.0</ele><time>2026-04-06T13:27:53.77Z</time></trkpt><trkpt lat="45.8000365" lon="9.2040262"><ele>344.0</ele><time>2026-04-06T13:27:54.769Z</time></trkpt><trkpt lat="45.8001567" lon="9.2040227"><ele>344.0</ele><time>2026-04-06T13:27:55.77Z</time></trkpt><trkpt lat="45.8002702" lon="9.2040217"><ele>344.0</ele><time>2026-04-06T13:27:56.77Z</time></trkpt><trkpt lat="45.8003784" lon="9.2040147"><ele>344.0</ele><time>2026-04-06T13:27:57.769Z</time></trkpt><trkpt lat="45.800482" lon="9.2040215"><ele>344.0</ele><time>2026-04-06T13:27:58.769Z</time></trkpt><trkpt lat="45.8005817" lon="9.2040683"><ele>344.0</ele><time>2026-04-06T13:27:59.769Z</time></trkpt><trkpt lat="45.8006783" lon="9.2041394"><ele>344.0</ele><time>2026-04-06T13:28:00.77Z</time></trkpt><trkpt lat="45.8007872" lon="9.20422"><ele>344.0</ele><time>2026-04-06T13:28:01.77Z</time></trkpt><trkpt lat="45.8009054" lon="9.2043087"><ele>344.0</ele><time>2026-04-06T13:28:02.769Z</time></trkpt><trkpt lat="45.8010277" lon="9.2043983"><ele>343.0</ele><time>2026-04-06T13:28:03.77Z</time></trkpt><trkpt lat="45.8011455" lon="9.2044875"><ele>342.0</ele><time>2026-04-06T13:28:04.77Z</time></trkpt><trkpt lat="45.8012612" lon="9.2045764"><ele>341.0</ele><time>2026-04-06T13:28:05.77Z</time></trkpt><trkpt lat="45.8013768" lon="9.2046677"><ele>340.0</ele><time>2026-04-06T13:28:06.769Z</time></trkpt><trkpt lat="45.8014886" lon="9.2047584"><ele>340.5</ele><time>2026-04-06T13:28:07.769Z</time></trkpt><trkpt lat="45.8016092" lon="9.2048541"><ele>341.0</ele><time>2026-04-06T13:28:08.77Z</time></trkpt><trkpt lat="45.8017287" lon="9.204946"><ele>341.5</ele><time>2026-04-06T13:28:09.77Z</time></trkpt><trkpt lat="45.8018534" lon="9.2050454"><ele>342.0</ele><time>2026-04-06T13:28:10.769Z</time></trkpt><trkpt lat="45.8019765" lon="9.2051442"><ele>342.0</ele><time>2026-04-06T13:28:11.77Z</time></trkpt><trkpt lat="45.8021034" lon="9.205243"><ele>342.0</ele><time>2026-04-06T13:28:12.77Z</time></trkpt><trkpt lat="45.8022331" lon="9.2053418"><ele>342.0</ele><time>2026-04-06T13:28:13.769Z</time></trkpt><trkpt lat="45.8023606" lon="9.2054439"><ele>342.0</ele><time>2026-04-06T13:28:14.769Z</time></trkpt><trkpt lat="45.8024946" lon="9.2055495"><ele>342.0</ele><time>2026-04-06T13:28:15.77Z</time></trkpt><trkpt lat="45.8026285" lon="9.2056557"><ele>342.0</ele><time>2026-04-06T13:28:16.77Z</time></trkpt><trkpt lat="45.8027614" lon="9.2057629"><ele>342.0</ele><time>2026-04-06T13:28:17.77Z</time></trkpt><trkpt lat="45.8028957" lon="9.2058748"><ele>342.0</ele><time>2026-04-06T13:28:18.77Z</time></trkpt><trkpt lat="45.8030295" lon="9.2059916"><ele>342.0</ele><time>2026-04-06T13:28:19.769Z</time></trkpt><trkpt lat="45.8031642" lon="9.2061067"><ele>342.0</ele><time>2026-04-06T13:28:20.77Z</time></trkpt><trkpt lat="45.8032918" lon="9.2062275"><ele>342.0</ele><time>2026-04-06T13:28:21.769Z</time></trkpt><trkpt lat="45.8034115" lon="9.2063495"><ele>342.0</ele><time>2026-04-06T13:28:22.769Z</time></trkpt><trkpt lat="45.8035273" lon="9.2064756"><ele>342.0</ele><time>2026-04-06T13:28:23.77Z</time></trkpt><trkpt lat="45.8036379" lon="9.2065937"><ele>342.0</ele><time>2026-04-06T13:28:24.77Z</time></trkpt><trkpt lat="45.8037437" lon="9.2067053"><ele>342.20000000000005</ele><time>2026-04-06T13:28:25.769Z</time></trkpt><trkpt lat="45.803843" lon="9.2068141"><ele>342.4</ele><time>2026-04-06T13:28:26.77Z</time></trkpt><trkpt lat="45.8039354" lon="9.2069169"><ele>342.6</ele><time>2026-04-06T13:28:27.77Z</time></trkpt><trkpt lat="45.8040197" lon="9.207011"><ele>342.79999999999995</ele><time>2026-04-06T13:28:28.769Z</time></trkpt><trkpt lat="45.804091" lon="9.2071097"><ele>343.0</ele><time>2026-04-06T13:28:29.77Z</time></trkpt><trkpt lat="45.804151" lon="9.2072016"><ele>343.0</ele><time>2026-04-06T13:28:30.769Z</time></trkpt><trkpt lat="45.8042061" lon="9.2073002"><ele>343.0</ele><time>2026-04-06T13:28:31.77Z</time></trkpt><trkpt lat="45.8042563" lon="9.2074133"><ele>343.0</ele><time>2026-04-06T13:28:32.77Z</time></trkpt><trkpt lat="45.8043004" lon="9.2075286"><ele>343.0</ele><time>2026-04-06T13:28:33.769Z</time></trkpt><trkpt lat="45.8043352" lon="9.2076393"><ele>343.0</ele><time>2026-04-06T13:28:34.769Z</time></trkpt><trkpt lat="45.8043782" lon="9.2077342"><ele>343.0</ele><time>2026-04-06T13:28:35.769Z</time></trkpt><trkpt lat="45.8044418" lon="9.2077918"><ele>343.0</ele><time>2026-04-06T13:28:36.77Z</time></trkpt><trkpt lat="45.8045207" lon="9.2077979"><ele>343.0</ele><time>2026-04-06T13:28:37.77Z</time></trkpt><trkpt lat="45.8046036" lon="9.207765"><ele>343.0</ele><time>2026-04-06T13:28:38.769Z</time></trkpt><trkpt lat="45.8046868" lon="9.2077669"><ele>343.0</ele><time>2026-04-06T13:28:39.769Z</time></trkpt><trkpt lat="45.8047708" lon="9.2078271"><ele>343.0</ele><time>2026-04-06T13:28:40.769Z</time></trkpt><trkpt lat="45.8048647" lon="9.2079281"><ele>343.0</ele><time>2026-04-06T13:28:41.77Z</time></trkpt><trkpt lat="45.8049488" lon="9.2080155"><ele>343.0</ele><time>2026-04-06T13:28:42.769Z</time></trkpt><trkpt lat="45.8050522" lon="9.2081324"><ele>343.0</ele><time>2026-04-06T13:28:43.769Z</time></trkpt><trkpt lat="45.8051516" lon="9.2082523"><ele>343.0</ele><time>2026-04-06T13:28:44.769Z</time></trkpt><trkpt lat="45.8052519" lon="9.2083896"><ele>343.66666666666663</ele><time>2026-04-06T13:28:45.77Z</time></trkpt><trkpt lat="45.8053674" lon="9.2085559"><ele>344.3333333333333</ele><time>2026-04-06T13:28:46.769Z</time></trkpt><trkpt lat="45.8054796" lon="9.2087169"><ele>345.0</ele><time>2026-04-06T13:28:47.768Z</time></trkpt><trkpt lat="45.8055806" lon="9.2088739"><ele>344.3333333333333</ele><time>2026-04-06T13:28:48.769Z</time></trkpt><trkpt lat="45.8056812" lon="9.2090296"><ele>343.66666666666663</ele><time>2026-04-06T13:28:49.77Z</time></trkpt><trkpt lat="45.8057873" lon="9.2091829"><ele>343.0</ele><time>2026-04-06T13:28:50.77Z</time></trkpt><trkpt lat="45.8058982" lon="9.2093349"><ele>345.0</ele><time>2026-04-06T13:28:51.769Z</time></trkpt><trkpt lat="45.8060052" lon="9.2094805"><ele>347.0</ele><time>2026-04-06T13:28:52.769Z</time></trkpt><trkpt lat="45.8061239" lon="9.2096163"><ele>349.0</ele><time>2026-04-06T13:28:53.769Z</time></trkpt><trkpt lat="45.8062536" lon="9.2097435"><ele>350.0</ele><time>2026-04-06T13:28:54.769Z</time></trkpt><trkpt lat="45.8063976" lon="9.2098526"><ele>351.0</ele><time>2026-04-06T13:28:55.77Z</time></trkpt><trkpt lat="45.8065522" lon="9.2099421"><ele>352.0</ele><time>2026-04-06T13:28:56.769Z</time></trkpt><trkpt lat="45.8067159" lon="9.2100118"><ele>352.0</ele><time>2026-04-06T13:28:57.769Z</time></trkpt><trkpt lat="45.8068889" lon="9.2100582"><ele>352.0</ele><time>2026-04-06T13:28:58.77Z</time></trkpt><trkpt lat="45.8070563" lon="9.2100762"><ele>352.0</ele><time>2026-04-06T13:28:59.769Z</time></trkpt><trkpt lat="45.8072119" lon="9.2100738"><ele>352.0</ele><time>2026-04-06T13:29:00.77Z</time></trkpt><trkpt lat="45.807371" lon="9.2100543"><ele>352.0</ele><time>2026-04-06T13:29:01.769Z</time></trkpt><trkpt lat="45.8075266" lon="9.2100124"><ele>352.0</ele><time>2026-04-06T13:29:02.77Z</time></trkpt><trkpt lat="45.8076852" lon="9.2099485"><ele>353.0</ele><time>2026-04-06T13:29:03.77Z</time></trkpt><trkpt lat="45.807839" lon="9.20988"><ele>354.0</ele><time>2026-04-06T13:29:04.769Z</time></trkpt><trkpt lat="45.8079973" lon="9.2098021"><ele>355.0</ele><time>2026-04-06T13:29:05.77Z</time></trkpt><trkpt lat="45.8081553" lon="9.2097266"><ele>356.0</ele><time>2026-04-06T13:29:06.769Z</time></trkpt><trkpt lat="45.808316" lon="9.209649"><ele>357.0</ele><time>2026-04-06T13:29:07.769Z</time></trkpt><trkpt lat="45.8084765" lon="9.209569"><ele>358.0</ele><time>2026-04-06T13:29:08.77Z</time></trkpt><trkpt lat="45.8086332" lon="9.2094893"><ele>361.0</ele><time>2026-04-06T13:29:09.77Z</time></trkpt><trkpt lat="45.8087863" lon="9.2094139"><ele>364.0</ele><time>2026-04-06T13:29:10.77Z</time></trkpt><trkpt lat="45.8089457" lon="9.209344"><ele>367.0</ele><time>2026-04-06T13:29:11.769Z</time></trkpt><trkpt lat="45.8091052" lon="9.2092985"><ele>367.0</ele><time>2026-04-06T13:29:12.77Z</time></trkpt><trkpt lat="45.8092675" lon="9.209277"><ele>367.0</ele><time>2026-04-06T13:29:13.769Z</time></trkpt><trkpt lat="45.8094296" lon="9.2092804"><ele>367.0</ele><time>2026-04-06T13:29:14.77Z</time></trkpt><trkpt lat="45.809591" lon="9.2093156"><ele>370.66666666666663</ele><time>2026-04-06T13:29:15.769Z</time></trkpt><trkpt lat="45.8097473" lon="9.2093759"><ele>374.3333333333333</ele><time>2026-04-06T13:29:16.77Z</time></trkpt><trkpt lat="45.8099041" lon="9.2094579"><ele>378.0</ele><time>2026-04-06T13:29:17.769Z</time></trkpt><trkpt lat="45.8100536" lon="9.2095637"><ele>378.6666666666667</ele><time>2026-04-06T13:29:18.769Z</time></trkpt><trkpt lat="45.8101921" lon="9.2096882"><ele>379.33333333333337</ele><time>2026-04-06T13:29:19.77Z</time></trkpt><trkpt lat="45.8103256" lon="9.2098259"><ele>380.0</ele><time>2026-04-06T13:29:20.769Z</time></trkpt><trkpt lat="45.8104529" lon="9.2099785"><ele>380.0</ele><time>2026-04-06T13:29:21.769Z</time></trkpt><trkpt lat="45.8105743" lon="9.2101347"><ele>380.0</ele><time>2026-04-06T13:29:22.77Z</time></trkpt><trkpt lat="45.8107003" lon="9.2102838"><ele>380.0</ele><time>2026-04-06T13:29:23.769Z</time></trkpt><trkpt lat="45.810821" lon="9.2104294"><ele>380.0</ele><time>2026-04-06T13:29:24.769Z</time></trkpt><trkpt lat="45.8109403" lon="9.210564"><ele>380.0</ele><time>2026-04-06T13:29:25.77Z</time></trkpt><trkpt lat="45.811061" lon="9.2106871"><ele>380.0</ele><time>2026-04-06T13:29:26.769Z</time></trkpt><trkpt lat="45.8111921" lon="9.2107911"><ele>380.33333333333337</ele><time>2026-04-06T13:29:27.77Z</time></trkpt><trkpt lat="45.8113341" lon="9.2108716"><ele>380.6666666666667</ele><time>2026-04-06T13:29:28.77Z</time></trkpt><trkpt lat="45.8114814" lon="9.2109346"><ele>381.0</ele><time>2026-04-06T13:29:29.769Z</time></trkpt><trkpt lat="45.811634" lon="9.2109837"><ele>381.0</ele><time>2026-04-06T13:29:30.769Z</time></trkpt><trkpt lat="45.8117885" lon="9.2110264"><ele>381.0</ele><time>2026-04-06T13:29:31.77Z</time></trkpt><trkpt lat="45.8119435" lon="9.2110722"><ele>381.0</ele><time>2026-04-06T13:29:32.769Z</time></trkpt><trkpt lat="45.8121028" lon="9.211119"><ele>383.33333333333337</ele><time>2026-04-06T13:29:33.77Z</time></trkpt><trkpt lat="45.8122591" lon="9.2111707"><ele>385.6666666666667</ele><time>2026-04-06T13:29:34.769Z</time></trkpt><trkpt lat="45.8124177" lon="9.2112236"><ele>388.0</ele><time>2026-04-06T13:29:35.769Z</time></trkpt><trkpt lat="45.8125793" lon="9.211275"><ele>387.6666666666667</ele><time>2026-04-06T13:29:36.769Z</time></trkpt><trkpt lat="45.8127418" lon="9.2113362"><ele>387.33333333333337</ele><time>2026-04-06T13:29:37.77Z</time></trkpt><trkpt lat="45.8129006" lon="9.2114086"><ele>387.0</ele><time>2026-04-06T13:29:38.77Z</time></trkpt><trkpt lat="45.8130535" lon="9.2114942"><ele>387.0</ele><time>2026-04-06T13:29:39.769Z</time></trkpt><trkpt lat="45.8131986" lon="9.2115967"><ele>387.0</ele><time>2026-04-06T13:29:40.77Z</time></trkpt><trkpt lat="45.8133398" lon="9.2117215"><ele>387.0</ele><time>2026-04-06T13:29:41.77Z</time></trkpt><trkpt lat="45.8134753" lon="9.211855"><ele>391.0</ele><time>2026-04-06T13:29:42.769Z</time></trkpt><trkpt lat="45.8136108" lon="9.211996"><ele>395.0</ele><time>2026-04-06T13:29:43.77Z</time></trkpt><trkpt lat="45.813745" lon="9.2121386"><ele>399.0</ele><time>2026-04-06T13:29:44.769Z</time></trkpt><trkpt lat="45.8138814" lon="9.2122784"><ele>395.33333333333337</ele><time>2026-04-06T13:29:45.77Z</time></trkpt><trkpt lat="45.814014" lon="9.2124166"><ele>391.6666666666667</ele><time>2026-04-06T13:29:46.769Z</time></trkpt><trkpt lat="45.8141452" lon="9.2125543"><ele>388.0</ele><time>2026-04-06T13:29:47.77Z</time></trkpt><trkpt lat="45.8142749" lon="9.2126942"><ele>391.6666666666667</ele><time>2026-04-06T13:29:48.769Z</time></trkpt><trkpt lat="45.8144093" lon="9.2128359"><ele>395.33333333333337</ele><time>2026-04-06T13:29:49.77Z</time></trkpt><trkpt lat="45.8145449" lon="9.2129771"><ele>399.0</ele><time>2026-04-06T13:29:50.77Z</time></trkpt><trkpt lat="45.8146728" lon="9.213118"><ele>394.0</ele><time>2026-04-06T13:29:51.77Z</time></trkpt><trkpt lat="45.8148006" lon="9.2132564"><ele>389.0</ele><time>2026-04-06T13:29:52.769Z</time></trkpt><trkpt lat="45.8149287" lon="9.2133945"><ele>384.0</ele><time>2026-04-06T13:29:53.769Z</time></trkpt><trkpt lat="45.8150544" lon="9.2135313"><ele>386.0</ele><time>2026-04-06T13:29:54.77Z</time></trkpt><trkpt lat="45.8151848" lon="9.2136675"><ele>388.0</ele><time>2026-04-06T13:29:55.77Z</time></trkpt><trkpt lat="45.8153217" lon="9.2138053"><ele>390.0</ele><time>2026-04-06T13:29:56.769Z</time></trkpt><trkpt lat="45.8154568" lon="9.2139465"><ele>386.3333333333333</ele><time>2026-04-06T13:29:57.77Z</time></trkpt><trkpt lat="45.815595" lon="9.2140891"><ele>382.66666666666663</ele><time>2026-04-06T13:29:58.77Z</time></trkpt><trkpt lat="45.8157353" lon="9.2142214"><ele>379.0</ele><time>2026-04-06T13:29:59.77Z</time></trkpt><trkpt lat="45.8158825" lon="9.2143474"><ele>379.0</ele><time>2026-04-06T13:30:00.769Z</time></trkpt><trkpt lat="45.8160321" lon="9.2144601"><ele>379.0</ele><time>2026-04-06T13:30:01.769Z</time></trkpt><trkpt lat="45.8161887" lon="9.2145679"><ele>379.0</ele><time>2026-04-06T13:30:02.769Z</time></trkpt><trkpt lat="45.8163517" lon="9.2146678"><ele>379.0</ele><time>2026-04-06T13:30:03.769Z</time></trkpt><trkpt lat="45.8165184" lon="9.2147621"><ele>379.0</ele><time>2026-04-06T13:30:04.769Z</time></trkpt><trkpt lat="45.8166873" lon="9.2148451"><ele>379.0</ele><time>2026-04-06T13:30:05.769Z</time></trkpt><trkpt lat="45.8168562" lon="9.2149189"><ele>375.0</ele><time>2026-04-06T13:30:06.769Z</time></trkpt><trkpt lat="45.8170228" lon="9.2149852"><ele>371.0</ele><time>2026-04-06T13:30:07.769Z</time></trkpt><trkpt lat="45.8171959" lon="9.2150432"><ele>367.0</ele><time>2026-04-06T13:30:08.769Z</time></trkpt><trkpt lat="45.8173639" lon="9.2151073"><ele>367.0</ele><time>2026-04-06T13:30:09.769Z</time></trkpt><trkpt lat="45.8175271" lon="9.2151689"><ele>367.0</ele><time>2026-04-06T13:30:10.769Z</time></trkpt><trkpt lat="45.8176892" lon="9.2152254"><ele>367.0</ele><time>2026-04-06T13:30:11.768Z</time></trkpt><trkpt lat="45.817847" lon="9.2152818"><ele>368.3333333333333</ele><time>2026-04-06T13:30:12.768Z</time></trkpt><trkpt lat="45.818004" lon="9.2153394"><ele>369.6666666666667</ele><time>2026-04-06T13:30:13.768Z</time></trkpt><trkpt lat="45.8181634" lon="9.2153937"><ele>371.0</ele><time>2026-04-06T13:30:14.768Z</time></trkpt><trkpt lat="45.8183244" lon="9.215454"><ele>374.0</ele><time>2026-04-06T13:30:15.769Z</time></trkpt><trkpt lat="45.8184859" lon="9.2155103"><ele>377.0</ele><time>2026-04-06T13:30:16.769Z</time></trkpt><trkpt lat="45.8186513" lon="9.2155665"><ele>380.0</ele><time>2026-04-06T13:30:17.768Z</time></trkpt><trkpt lat="45.8188182" lon="9.2156267"><ele>373.6666666666667</ele><time>2026-04-06T13:30:18.769Z</time></trkpt><trkpt lat="45.8189862" lon="9.2156809"><ele>367.3333333333333</ele><time>2026-04-06T13:30:19.768Z</time></trkpt><trkpt lat="45.8191508" lon="9.2157356"><ele>361.0</ele><time>2026-04-06T13:30:20.769Z</time></trkpt><trkpt lat="45.8193132" lon="9.2157936"><ele>363.66666666666663</ele><time>2026-04-06T13:30:21.769Z</time></trkpt><trkpt lat="45.8194744" lon="9.2158475"><ele>366.3333333333333</ele><time>2026-04-06T13:30:22.768Z</time></trkpt><trkpt lat="45.8196375" lon="9.2159051"><ele>369.0</ele><time>2026-04-06T13:30:23.769Z</time></trkpt><trkpt lat="45.8197965" lon="9.2159621"><ele>369.0</ele><time>2026-04-06T13:30:24.769Z</time></trkpt><trkpt lat="45.8199572" lon="9.216019"><ele>369.0</ele><time>2026-04-06T13:30:25.769Z</time></trkpt><trkpt lat="45.8201159" lon="9.2160727"><ele>369.0</ele><time>2026-04-06T13:30:26.768Z</time></trkpt><trkpt lat="45.820276" lon="9.2161275"><ele>371.3333333333333</ele><time>2026-04-06T13:30:27.768Z</time></trkpt><trkpt lat="45.8204341" lon="9.2161854"><ele>373.66666666666663</ele><time>2026-04-06T13:30:28.768Z</time></trkpt><trkpt lat="45.8205918" lon="9.216255"><ele>376.0</ele><time>2026-04-06T13:30:29.769Z</time></trkpt><trkpt lat="45.8207443" lon="9.2163388"><ele>376.0</ele><time>2026-04-06T13:30:30.769Z</time></trkpt><trkpt lat="45.8208908" lon="9.2164401"><ele>376.0</ele><time>2026-04-06T13:30:31.768Z</time></trkpt><trkpt lat="45.8210285" lon="9.2165569"><ele>376.0</ele><time>2026-04-06T13:30:32.769Z</time></trkpt><trkpt lat="45.821167" lon="9.2166809"><ele>374.0</ele><time>2026-04-06T13:30:33.768Z</time></trkpt><trkpt lat="45.8213005" lon="9.2168077"><ele>372.0</ele><time>2026-04-06T13:30:34.768Z</time></trkpt><trkpt lat="45.8214342" lon="9.2169273"><ele>370.0</ele><time>2026-04-06T13:30:35.769Z</time></trkpt><trkpt lat="45.8215719" lon="9.2170434"><ele>370.0</ele><time>2026-04-06T13:30:36.769Z</time></trkpt><trkpt lat="45.8217145" lon="9.2171516"><ele>370.0</ele><time>2026-04-06T13:30:37.768Z</time></trkpt><trkpt lat="45.8218596" lon="9.2172511"><ele>370.0</ele><time>2026-04-06T13:30:38.768Z</time></trkpt><trkpt lat="45.822011" lon="9.2173461"><ele>368.0</ele><time>2026-04-06T13:30:39.769Z</time></trkpt><trkpt lat="45.8221633" lon="9.2174312"><ele>366.0</ele><time>2026-04-06T13:30:40.768Z</time></trkpt><trkpt lat="45.822315" lon="9.2175143"><ele>364.0</ele><time>2026-04-06T13:30:41.769Z</time></trkpt><trkpt lat="45.8224644" lon="9.2175924"><ele>364.0</ele><time>2026-04-06T13:30:42.769Z</time></trkpt><trkpt lat="45.8226104" lon="9.2176682"><ele>364.0</ele><time>2026-04-06T13:30:43.768Z</time></trkpt><trkpt lat="45.8227557" lon="9.2177402"><ele>364.0</ele><time>2026-04-06T13:30:44.769Z</time></trkpt><trkpt lat="45.8229003" lon="9.2178124"><ele>367.66666666666663</ele><time>2026-04-06T13:30:45.768Z</time></trkpt><trkpt lat="45.8230458" lon="9.2178874"><ele>371.3333333333333</ele><time>2026-04-06T13:30:46.769Z</time></trkpt><trkpt lat="45.8231922" lon="9.217966"><ele>375.0</ele><time>2026-04-06T13:30:47.768Z</time></trkpt><trkpt lat="45.823341" lon="9.2180384"><ele>378.66666666666663</ele><time>2026-04-06T13:30:48.769Z</time></trkpt><trkpt lat="45.8234924" lon="9.2181108"><ele>382.3333333333333</ele><time>2026-04-06T13:30:49.768Z</time></trkpt><trkpt lat="45.8236433" lon="9.2181843"><ele>386.0</ele><time>2026-04-06T13:30:50.769Z</time></trkpt><trkpt lat="45.8237924" lon="9.2182573"><ele>377.0</ele><time>2026-04-06T13:30:51.769Z</time></trkpt><trkpt lat="45.8239444" lon="9.2183327"><ele>368.0</ele><time>2026-04-06T13:30:52.769Z</time></trkpt><trkpt lat="45.8240951" lon="9.218403"><ele>359.0</ele><time>2026-04-06T13:30:53.768Z</time></trkpt><trkpt lat="45.824243" lon="9.2184724"><ele>365.0</ele><time>2026-04-06T13:30:54.768Z</time></trkpt><trkpt lat="45.8243863" lon="9.2185401"><ele>371.0</ele><time>2026-04-06T13:30:55.769Z</time></trkpt><trkpt lat="45.8245282" lon="9.2186119"><ele>377.0</ele><time>2026-04-06T13:30:56.768Z</time></trkpt><trkpt lat="45.8246685" lon="9.2186797"><ele>383.0</ele><time>2026-04-06T13:30:57.769Z</time></trkpt><trkpt lat="45.8248028" lon="9.2187533"><ele>383.0</ele><time>2026-04-06T13:30:58.768Z</time></trkpt><trkpt lat="45.8249392" lon="9.2188298"><ele>383.0</ele><time>2026-04-06T13:30:59.768Z</time></trkpt><trkpt lat="45.8250797" lon="9.2189156"><ele>383.0</ele><time>2026-04-06T13:31:00.769Z</time></trkpt><trkpt lat="45.8252176" lon="9.219014"><ele>378.33333333333337</ele><time>2026-04-06T13:31:01.768Z</time></trkpt><trkpt lat="45.8253552" lon="9.2191289"><ele>373.6666666666667</ele><time>2026-04-06T13:31:02.768Z</time></trkpt><trkpt lat="45.825492" lon="9.2192462"><ele>369.0</ele><time>2026-04-06T13:31:03.769Z</time></trkpt><trkpt lat="45.8256311" lon="9.2193477"><ele>369.0</ele><time>2026-04-06T13:31:04.769Z</time></trkpt><trkpt lat="45.8257773" lon="9.2194429"><ele>369.0</ele><time>2026-04-06T13:31:05.769Z</time></trkpt><trkpt lat="45.8259252" lon="9.2195264"><ele>369.0</ele><time>2026-04-06T13:31:06.768Z</time></trkpt><trkpt lat="45.826077" lon="9.2196031"><ele>373.0</ele><time>2026-04-06T13:31:07.768Z</time></trkpt><trkpt lat="45.826228" lon="9.2196789"><ele>377.0</ele><time>2026-04-06T13:31:08.769Z</time></trkpt><trkpt lat="45.826386" lon="9.2197552"><ele>381.0</ele><time>2026-04-06T13:31:09.768Z</time></trkpt><trkpt lat="45.8265377" lon="9.2198278"><ele>375.3333333333333</ele><time>2026-04-06T13:31:10.768Z</time></trkpt><trkpt lat="45.82669" lon="9.219903"><ele>369.66666666666663</ele><time>2026-04-06T13:31:11.768Z</time></trkpt><trkpt lat="45.8268455" lon="9.2199621"><ele>364.0</ele><time>2026-04-06T13:31:12.768Z</time></trkpt><trkpt lat="45.8270058" lon="9.2200163"><ele>364.0</ele><time>2026-04-06T13:31:13.769Z</time></trkpt><trkpt lat="45.8271679" lon="9.2200537"><ele>364.0</ele><time>2026-04-06T13:31:14.769Z</time></trkpt><trkpt lat="45.8273314" lon="9.2200817"><ele>364.0</ele><time>2026-04-06T13:31:15.768Z</time></trkpt><trkpt lat="45.8274937" lon="9.2201036"><ele>366.0</ele><time>2026-04-06T13:31:16.768Z</time></trkpt><trkpt lat="45.8276515" lon="9.2201249"><ele>368.0</ele><time>2026-04-06T13:31:17.768Z</time></trkpt><trkpt lat="45.8278128" lon="9.2201407"><ele>370.0</ele><time>2026-04-06T13:31:18.769Z</time></trkpt><trkpt lat="45.8279746" lon="9.220156"><ele>370.0</ele><time>2026-04-06T13:31:19.769Z</time></trkpt><trkpt lat="45.8281298" lon="9.2201702"><ele>370.0</ele><time>2026-04-06T13:31:20.768Z</time></trkpt><trkpt lat="45.828282" lon="9.2201899"><ele>370.0</ele><time>2026-04-06T13:31:21.768Z</time></trkpt><trkpt lat="45.8284294" lon="9.2202102"><ele>375.0</ele><time>2026-04-06T13:31:22.768Z</time></trkpt><trkpt lat="45.8285738" lon="9.2202274"><ele>380.0</ele><time>2026-04-06T13:31:23.769Z</time></trkpt><trkpt lat="45.8287136" lon="9.2202408"><ele>385.0</ele><time>2026-04-06T13:31:24.768Z</time></trkpt><trkpt lat="45.8288536" lon="9.2202551"><ele>390.0</ele><time>2026-04-06T13:31:25.769Z</time></trkpt><trkpt lat="45.8289917" lon="9.2202755"><ele>390.0</ele><time>2026-04-06T13:31:26.768Z</time></trkpt><trkpt lat="45.8291323" lon="9.2203119"><ele>390.0</ele><time>2026-04-06T13:31:27.769Z</time></trkpt><trkpt lat="45.8292728" lon="9.2203693"><ele>390.0</ele><time>2026-04-06T13:31:28.769Z</time></trkpt><trkpt lat="45.8294088" lon="9.2204498"><ele>390.0</ele><time>2026-04-06T13:31:29.768Z</time></trkpt><trkpt lat="45.8295389" lon="9.2205475"><ele>389.33333333333337</ele><time>2026-04-06T13:31:30.769Z</time></trkpt><trkpt lat="45.8296641" lon="9.2206641"><ele>388.6666666666667</ele><time>2026-04-06T13:31:31.768Z</time></trkpt><trkpt lat="45.829784" lon="9.2207996"><ele>388.0</ele><time>2026-04-06T13:31:32.768Z</time></trkpt><trkpt lat="45.8298979" lon="9.2209447"><ele>388.0</ele><time>2026-04-06T13:31:33.769Z</time></trkpt><trkpt lat="45.8300102" lon="9.2210913"><ele>388.0</ele><time>2026-04-06T13:31:34.769Z</time></trkpt><trkpt lat="45.8301247" lon="9.2212332"><ele>388.0</ele><time>2026-04-06T13:31:35.768Z</time></trkpt><trkpt lat="45.8302355" lon="9.221376"><ele>388.0</ele><time>2026-04-06T13:31:36.768Z</time></trkpt><trkpt lat="45.8303485" lon="9.2215241"><ele>388.0</ele><time>2026-04-06T13:31:37.769Z</time></trkpt><trkpt lat="45.8304673" lon="9.2216653"><ele>388.0</ele><time>2026-04-06T13:31:38.769Z</time></trkpt><trkpt lat="45.8305948" lon="9.2218006"><ele>388.0</ele><time>2026-04-06T13:31:39.768Z</time></trkpt><trkpt lat="45.8307311" lon="9.2219288"><ele>388.0</ele><time>2026-04-06T13:31:40.769Z</time></trkpt><trkpt lat="45.8308754" lon="9.2220459"><ele>388.0</ele><time>2026-04-06T13:31:41.768Z</time></trkpt><trkpt lat="45.8310182" lon="9.2221553"><ele>381.6666666666667</ele><time>2026-04-06T13:31:42.768Z</time></trkpt><trkpt lat="45.8311599" lon="9.2222569"><ele>375.33333333333337</ele><time>2026-04-06T13:31:43.768Z</time></trkpt><trkpt lat="45.8313047" lon="9.2223425"><ele>369.0</ele><time>2026-04-06T13:31:44.768Z</time></trkpt><trkpt lat="45.831449" lon="9.2224262"><ele>369.0</ele><time>2026-04-06T13:31:45.769Z</time></trkpt><trkpt lat="45.8315955" lon="9.2225031"><ele>369.0</ele><time>2026-04-06T13:31:46.768Z</time></trkpt><trkpt lat="45.8317425" lon="9.2225796"><ele>369.0</ele><time>2026-04-06T13:31:47.768Z</time></trkpt><trkpt lat="45.8318817" lon="9.2226469"><ele>378.0</ele><time>2026-04-06T13:31:48.768Z</time></trkpt><trkpt lat="45.8320178" lon="9.2227134"><ele>387.0</ele><time>2026-04-06T13:31:49.769Z</time></trkpt><trkpt lat="45.8321557" lon="9.2227764"><ele>396.0</ele><time>2026-04-06T13:31:50.768Z</time></trkpt><trkpt lat="45.8327129" lon="9.223055"><ele>382.3333333333333</ele><time>2026-04-06T13:31:54.769Z</time></trkpt><trkpt lat="45.8328791" lon="9.2231947"><ele>368.66666666666663</ele><time>2026-04-06T13:31:55.769Z</time></trkpt><trkpt lat="45.8329871" lon="9.2233675"><ele>355.0</ele><time>2026-04-06T13:31:56.768Z</time></trkpt><trkpt lat="45.8330979" lon="9.2235544"><ele>355.0</ele><time>2026-04-06T13:31:57.768Z</time></trkpt><trkpt lat="45.8331769" lon="9.2237437"><ele>355.0</ele><time>2026-04-06T13:31:58.768Z</time></trkpt><trkpt lat="45.8332474" lon="9.223934"><ele>355.0</ele><time>2026-04-06T13:31:59.768Z</time></trkpt><trkpt lat="45.8333087" lon="9.2241392"><ele>346.66666666666663</ele><time>2026-04-06T13:32:00.768Z</time></trkpt><trkpt lat="45.8333566" lon="9.2243472"><ele>338.3333333333333</ele><time>2026-04-06T13:32:01.768Z</time></trkpt><trkpt lat="45.8334092" lon="9.2245616"><ele>330.0</ele><time>2026-04-06T13:32:02.768Z</time></trkpt><trkpt lat="45.8334656" lon="9.2247723"><ele>328.6666666666667</ele><time>2026-04-06T13:32:03.769Z</time></trkpt><trkpt lat="45.8335206" lon="9.2249831"><ele>327.33333333333337</ele><time>2026-04-06T13:32:04.768Z</time></trkpt><trkpt lat="45.8335707" lon="9.2251911"><ele>326.0</ele><time>2026-04-06T13:32:05.768Z</time></trkpt><trkpt lat="45.8336181" lon="9.2253986"><ele>326.0</ele><time>2026-04-06T13:32:06.768Z</time></trkpt><trkpt lat="45.8336663" lon="9.2256056"><ele>326.0</ele><time>2026-04-06T13:32:07.768Z</time></trkpt><trkpt lat="45.8337263" lon="9.2258102"><ele>326.0</ele><time>2026-04-06T13:32:08.768Z</time></trkpt><trkpt lat="45.833787" lon="9.2260113"><ele>328.0</ele><time>2026-04-06T13:32:09.769Z</time></trkpt><trkpt lat="45.8338539" lon="9.2262143"><ele>330.0</ele><time>2026-04-06T13:32:10.769Z</time></trkpt><trkpt lat="45.8339201" lon="9.2264082"><ele>332.0</ele><time>2026-04-06T13:32:11.769Z</time></trkpt><trkpt lat="45.8339928" lon="9.2266021"><ele>333.33333333333337</ele><time>2026-04-06T13:32:12.769Z</time></trkpt><trkpt lat="45.834065" lon="9.2267985"><ele>334.6666666666667</ele><time>2026-04-06T13:32:13.768Z</time></trkpt><trkpt lat="45.83414" lon="9.226994"><ele>336.0</ele><time>2026-04-06T13:32:14.768Z</time></trkpt><trkpt lat="45.8342096" lon="9.227188"><ele>337.3333333333333</ele><time>2026-04-06T13:32:15.769Z</time></trkpt><trkpt lat="45.8342865" lon="9.2273851"><ele>338.66666666666663</ele><time>2026-04-06T13:32:16.768Z</time></trkpt><trkpt lat="45.8343543" lon="9.2275823"><ele>340.0</ele><time>2026-04-06T13:32:17.768Z</time></trkpt><trkpt lat="45.8344149" lon="9.2277913"><ele>336.0</ele><time>2026-04-06T13:32:18.768Z</time></trkpt><trkpt lat="45.8344663" lon="9.2280037"><ele>332.0</ele><time>2026-04-06T13:32:19.769Z</time></trkpt><trkpt lat="45.8345116" lon="9.228225"><ele>328.0</ele><time>2026-04-06T13:32:20.769Z</time></trkpt><trkpt lat="45.834553" lon="9.2284429"><ele>328.0</ele><time>2026-04-06T13:32:21.768Z</time></trkpt><trkpt lat="45.8345899" lon="9.2286612"><ele>328.0</ele><time>2026-04-06T13:32:22.768Z</time></trkpt><trkpt lat="45.8346269" lon="9.2288738"><ele>328.0</ele><time>2026-04-06T13:32:23.769Z</time></trkpt><trkpt lat="45.8346655" lon="9.2290802"><ele>328.3333333333333</ele><time>2026-04-06T13:32:24.768Z</time></trkpt><trkpt lat="45.8347023" lon="9.2292903"><ele>328.6666666666667</ele><time>2026-04-06T13:32:25.767Z</time></trkpt><trkpt lat="45.8347385" lon="9.2295015"><ele>329.0</ele><time>2026-04-06T13:32:26.769Z</time></trkpt><trkpt lat="45.8347782" lon="9.2297156"><ele>331.6666666666667</ele><time>2026-04-06T13:32:27.769Z</time></trkpt><trkpt lat="45.8348185" lon="9.2299297"><ele>334.3333333333333</ele><time>2026-04-06T13:32:28.768Z</time></trkpt><trkpt lat="45.8348571" lon="9.230141"><ele>337.0</ele><time>2026-04-06T13:32:29.768Z</time></trkpt><trkpt lat="45.834895" lon="9.2303511"><ele>337.0</ele><time>2026-04-06T13:32:30.769Z</time></trkpt><trkpt lat="45.8349298" lon="9.2305603"><ele>337.0</ele><time>2026-04-06T13:32:31.768Z</time></trkpt><trkpt lat="45.8349632" lon="9.2307663"><ele>337.0</ele><time>2026-04-06T13:32:32.769Z</time></trkpt><trkpt lat="45.8349981" lon="9.2309692"><ele>337.0</ele><time>2026-04-06T13:32:33.769Z</time></trkpt><trkpt lat="45.8350341" lon="9.2311701"><ele>338.75</ele><time>2026-04-06T13:32:34.768Z</time></trkpt><trkpt lat="45.8350728" lon="9.2313674"><ele>340.5</ele><time>2026-04-06T13:32:35.768Z</time></trkpt><trkpt lat="45.835111" lon="9.2315607"><ele>342.25</ele><time>2026-04-06T13:32:36.768Z</time></trkpt><trkpt lat="45.8351493" lon="9.2317525"><ele>344.0</ele><time>2026-04-06T13:32:37.769Z</time></trkpt><trkpt lat="45.8351871" lon="9.2319498"><ele>341.25</ele><time>2026-04-06T13:32:38.768Z</time></trkpt><trkpt lat="45.8352211" lon="9.2321542"><ele>338.5</ele><time>2026-04-06T13:32:39.767Z</time></trkpt><trkpt lat="45.8352464" lon="9.232363"><ele>335.75</ele><time>2026-04-06T13:32:40.767Z</time></trkpt><trkpt lat="45.8352653" lon="9.2325739"><ele>333.0</ele><time>2026-04-06T13:32:41.767Z</time></trkpt><trkpt lat="45.8352842" lon="9.2327864"><ele>333.0</ele><time>2026-04-06T13:32:42.768Z</time></trkpt><trkpt lat="45.8353042" lon="9.2330004"><ele>333.0</ele><time>2026-04-06T13:32:43.768Z</time></trkpt><trkpt lat="45.8353278" lon="9.233212"><ele>333.0</ele><time>2026-04-06T13:32:44.768Z</time></trkpt><trkpt lat="45.8353543" lon="9.2334215"><ele>333.0</ele><time>2026-04-06T13:32:45.768Z</time></trkpt><trkpt lat="45.8353799" lon="9.2336309"><ele>334.25</ele><time>2026-04-06T13:32:46.767Z</time></trkpt><trkpt lat="45.8354065" lon="9.2338377"><ele>335.5</ele><time>2026-04-06T13:32:47.767Z</time></trkpt><trkpt lat="45.8354356" lon="9.2340478"><ele>336.75</ele><time>2026-04-06T13:32:48.767Z</time></trkpt><trkpt lat="45.8354684" lon="9.2342539"><ele>338.0</ele><time>2026-04-06T13:32:49.767Z</time></trkpt><trkpt lat="45.8355023" lon="9.2344564"><ele>340.0</ele><time>2026-04-06T13:32:50.768Z</time></trkpt><trkpt lat="45.8355348" lon="9.2346589"><ele>342.0</ele><time>2026-04-06T13:32:51.767Z</time></trkpt><trkpt lat="45.8355667" lon="9.2348635"><ele>344.0</ele><time>2026-04-06T13:32:52.767Z</time></trkpt><trkpt lat="45.8355952" lon="9.2350697"><ele>346.0</ele><time>2026-04-06T13:32:53.767Z</time></trkpt><trkpt lat="45.8356227" lon="9.2352827"><ele>346.0</ele><time>2026-04-06T13:32:54.768Z</time></trkpt><trkpt lat="45.835649" lon="9.2354939"><ele>346.0</ele><time>2026-04-06T13:32:55.768Z</time></trkpt><trkpt lat="45.8356746" lon="9.2357057"><ele>346.0</ele><time>2026-04-06T13:32:56.767Z</time></trkpt><trkpt lat="45.8356955" lon="9.2359256"><ele>346.3333333333333</ele><time>2026-04-06T13:32:57.767Z</time></trkpt><trkpt lat="45.8357226" lon="9.2361441"><ele>346.6666666666667</ele><time>2026-04-06T13:32:58.768Z</time></trkpt><trkpt lat="45.8357558" lon="9.2363582"><ele>347.0</ele><time>2026-04-06T13:32:59.767Z</time></trkpt><trkpt lat="45.8357985" lon="9.2365749"><ele>348.33333333333337</ele><time>2026-04-06T13:33:00.767Z</time></trkpt><trkpt lat="45.8358597" lon="9.236781"><ele>349.6666666666667</ele><time>2026-04-06T13:33:01.767Z</time></trkpt><trkpt lat="45.8359305" lon="9.2369806"><ele>351.0</ele><time>2026-04-06T13:33:02.767Z</time></trkpt><trkpt lat="45.8360099" lon="9.2371779"><ele>352.0</ele><time>2026-04-06T13:33:03.767Z</time></trkpt><trkpt lat="45.8360861" lon="9.2373806"><ele>353.0</ele><time>2026-04-06T13:33:04.767Z</time></trkpt><trkpt lat="45.8361582" lon="9.2375817"><ele>354.0</ele><time>2026-04-06T13:33:05.767Z</time></trkpt><trkpt lat="45.8362299" lon="9.2377764"><ele>354.0</ele><time>2026-04-06T13:33:06.768Z</time></trkpt><trkpt lat="45.8363003" lon="9.2379692"><ele>354.0</ele><time>2026-04-06T13:33:07.768Z</time></trkpt><trkpt lat="45.8363673" lon="9.2381636"><ele>354.0</ele><time>2026-04-06T13:33:08.768Z</time></trkpt><trkpt lat="45.8364373" lon="9.2383549"><ele>353.25</ele><time>2026-04-06T13:33:09.767Z</time></trkpt><trkpt lat="45.8365043" lon="9.2385409"><ele>352.5</ele><time>2026-04-06T13:33:10.768Z</time></trkpt><trkpt lat="45.836568" lon="9.2387248"><ele>351.75</ele><time>2026-04-06T13:33:11.768Z</time></trkpt><trkpt lat="45.8366321" lon="9.2389089"><ele>351.0</ele><time>2026-04-06T13:33:12.768Z</time></trkpt><trkpt lat="45.8366951" lon="9.2390981"><ele>349.6666666666667</ele><time>2026-04-06T13:33:13.767Z</time></trkpt><trkpt lat="45.8367578" lon="9.2392962"><ele>348.33333333333337</ele><time>2026-04-06T13:33:14.767Z</time></trkpt><trkpt lat="45.8368177" lon="9.2395008"><ele>347.0</ele><time>2026-04-06T13:33:15.768Z</time></trkpt><trkpt lat="45.8368726" lon="9.2397127"><ele>347.0</ele><time>2026-04-06T13:33:16.768Z</time></trkpt><trkpt lat="45.8369256" lon="9.2399259"><ele>347.0</ele><time>2026-04-06T13:33:17.767Z</time></trkpt><trkpt lat="45.8369743" lon="9.2401427"><ele>347.0</ele><time>2026-04-06T13:33:18.767Z</time></trkpt><trkpt lat="45.8370225" lon="9.2403553"><ele>347.0</ele><time>2026-04-06T13:33:19.768Z</time></trkpt><trkpt lat="45.8370718" lon="9.240567"><ele>347.0</ele><time>2026-04-06T13:33:20.767Z</time></trkpt><trkpt lat="45.8371249" lon="9.2407778"><ele>347.0</ele><time>2026-04-06T13:33:21.767Z</time></trkpt><trkpt lat="45.837183" lon="9.2409816"><ele>345.0</ele><time>2026-04-06T13:33:22.767Z</time></trkpt><trkpt lat="45.8372417" lon="9.2411787"><ele>343.0</ele><time>2026-04-06T13:33:23.768Z</time></trkpt><trkpt lat="45.8373081" lon="9.241371"><ele>341.0</ele><time>2026-04-06T13:33:24.768Z</time></trkpt><trkpt lat="45.8373867" lon="9.2415605"><ele>341.0</ele><time>2026-04-06T13:33:25.767Z</time></trkpt><trkpt lat="45.8374697" lon="9.24175"><ele>341.0</ele><time>2026-04-06T13:33:26.767Z</time></trkpt><trkpt lat="45.8375584" lon="9.2419342"><ele>341.0</ele><time>2026-04-06T13:33:27.767Z</time></trkpt><trkpt lat="45.837654" lon="9.2421147"><ele>341.33333333333337</ele><time>2026-04-06T13:33:28.768Z</time></trkpt><trkpt lat="45.8377516" lon="9.2422975"><ele>341.6666666666667</ele><time>2026-04-06T13:33:29.768Z</time></trkpt><trkpt lat="45.8378551" lon="9.2424659"><ele>342.0</ele><time>2026-04-06T13:33:30.768Z</time></trkpt><trkpt lat="45.8379674" lon="9.2426179"><ele>342.0</ele><time>2026-04-06T13:33:31.767Z</time></trkpt><trkpt lat="45.8380803" lon="9.24276"><ele>342.0</ele><time>2026-04-06T13:33:32.767Z</time></trkpt><trkpt lat="45.8381916" lon="9.2428879"><ele>342.0</ele><time>2026-04-06T13:33:33.767Z</time></trkpt><trkpt lat="45.838289" lon="9.2430233"><ele>342.0</ele><time>2026-04-06T13:33:34.767Z</time></trkpt><trkpt lat="45.8383729" lon="9.2431792"><ele>343.0</ele><time>2026-04-06T13:33:35.767Z</time></trkpt><trkpt lat="45.8384452" lon="9.2433537"><ele>344.0</ele><time>2026-04-06T13:33:36.768Z</time></trkpt><trkpt lat="45.8385004" lon="9.2435474"><ele>345.0</ele><time>2026-04-06T13:33:37.767Z</time></trkpt><trkpt lat="45.8385422" lon="9.2437497"><ele>346.0</ele><time>2026-04-06T13:33:38.768Z</time></trkpt><trkpt lat="45.8385708" lon="9.2439587"><ele>345.0</ele><time>2026-04-06T13:33:39.768Z</time></trkpt><trkpt lat="45.8386027" lon="9.2441688"><ele>344.0</ele><time>2026-04-06T13:33:40.767Z</time></trkpt><trkpt lat="45.838637" lon="9.2443804"><ele>343.0</ele><time>2026-04-06T13:33:41.767Z</time></trkpt><trkpt lat="45.8386748" lon="9.2445984"><ele>343.66666666666663</ele><time>2026-04-06T13:33:42.768Z</time></trkpt><trkpt lat="45.8387177" lon="9.2448161"><ele>344.3333333333333</ele><time>2026-04-06T13:33:43.768Z</time></trkpt><trkpt lat="45.838761" lon="9.2450301"><ele>345.0</ele><time>2026-04-06T13:33:44.767Z</time></trkpt><trkpt lat="45.8388048" lon="9.2452404"><ele>345.0</ele><time>2026-04-06T13:33:45.767Z</time></trkpt><trkpt lat="45.8388485" lon="9.2454496"><ele>345.0</ele><time>2026-04-06T13:33:46.768Z</time></trkpt><trkpt lat="45.8388957" lon="9.245657"><ele>345.0</ele><time>2026-04-06T13:33:47.768Z</time></trkpt><trkpt lat="45.8389492" lon="9.2458639"><ele>345.75</ele><time>2026-04-06T13:33:48.768Z</time></trkpt><trkpt lat="45.83901" lon="9.2460656"><ele>346.5</ele><time>2026-04-06T13:33:49.767Z</time></trkpt><trkpt lat="45.8390753" lon="9.2462547"><ele>347.25</ele><time>2026-04-06T13:33:50.767Z</time></trkpt><trkpt lat="45.8391429" lon="9.2464361"><ele>348.0</ele><time>2026-04-06T13:33:51.768Z</time></trkpt><trkpt lat="45.8392109" lon="9.2466169"><ele>348.25</ele><time>2026-04-06T13:33:52.767Z</time></trkpt><trkpt lat="45.8392797" lon="9.2467951"><ele>348.5</ele><time>2026-04-06T13:33:53.767Z</time></trkpt><trkpt lat="45.8393473" lon="9.2469618"><ele>348.75</ele><time>2026-04-06T13:33:54.768Z</time></trkpt><trkpt lat="45.8394141" lon="9.2471232"><ele>349.0</ele><time>2026-04-06T13:33:55.768Z</time></trkpt><trkpt lat="45.8394778" lon="9.2472785"><ele>350.0</ele><time>2026-04-06T13:33:56.767Z</time></trkpt><trkpt lat="45.8395382" lon="9.2474257"><ele>351.0</ele><time>2026-04-06T13:33:57.767Z</time></trkpt><trkpt lat="45.8395929" lon="9.2475653"><ele>352.0</ele><time>2026-04-06T13:33:58.767Z</time></trkpt><trkpt lat="45.8396456" lon="9.247709"><ele>353.0</ele><time>2026-04-06T13:33:59.768Z</time></trkpt><trkpt lat="45.8396946" lon="9.2478638"><ele>353.0</ele><time>2026-04-06T13:34:00.767Z</time></trkpt><trkpt lat="45.8397462" lon="9.2480237"><ele>353.0</ele><time>2026-04-06T13:34:01.767Z</time></trkpt><trkpt lat="45.8398021" lon="9.2481861"><ele>353.0</ele><time>2026-04-06T13:34:02.767Z</time></trkpt><trkpt lat="45.8398643" lon="9.2483528"><ele>353.0</ele><time>2026-04-06T13:34:03.768Z</time></trkpt><trkpt lat="45.8399365" lon="9.2485154"><ele>353.0</ele><time>2026-04-06T13:34:04.768Z</time></trkpt><trkpt lat="45.840013" lon="9.2486784"><ele>353.0</ele><time>2026-04-06T13:34:05.767Z</time></trkpt><trkpt lat="45.8400919" lon="9.2488469"><ele>353.0</ele><time>2026-04-06T13:34:06.767Z</time></trkpt><trkpt lat="45.8401725" lon="9.2490222"><ele>353.0</ele><time>2026-04-06T13:34:07.767Z</time></trkpt><trkpt lat="45.840253" lon="9.2492039"><ele>352.75</ele><time>2026-04-06T13:34:08.767Z</time></trkpt><trkpt lat="45.8403248" lon="9.2493801"><ele>352.5</ele><time>2026-04-06T13:34:09.767Z</time></trkpt><trkpt lat="45.8403918" lon="9.2495471"><ele>352.25</ele><time>2026-04-06T13:34:10.767Z</time></trkpt><trkpt lat="45.8404563" lon="9.2497119"><ele>352.0</ele><time>2026-04-06T13:34:11.767Z</time></trkpt><trkpt lat="45.8405248" lon="9.2498719"><ele>352.0</ele><time>2026-04-06T13:34:12.767Z</time></trkpt><trkpt lat="45.8405917" lon="9.250036"><ele>352.0</ele><time>2026-04-06T13:34:13.768Z</time></trkpt><trkpt lat="45.8406634" lon="9.2501977"><ele>352.0</ele><time>2026-04-06T13:34:14.767Z</time></trkpt><trkpt lat="45.8407332" lon="9.2503622"><ele>352.0</ele><time>2026-04-06T13:34:15.767Z</time></trkpt><trkpt lat="45.8408078" lon="9.2505242"><ele>351.75</ele><time>2026-04-06T13:34:16.768Z</time></trkpt><trkpt lat="45.8408855" lon="9.2506823"><ele>351.5</ele><time>2026-04-06T13:34:17.767Z</time></trkpt><trkpt lat="45.8409622" lon="9.2508438"><ele>351.25</ele><time>2026-04-06T13:34:18.767Z</time></trkpt><trkpt lat="45.8410453" lon="9.2509965"><ele>351.0</ele><time>2026-04-06T13:34:19.768Z</time></trkpt><trkpt lat="45.8411341" lon="9.2511409"><ele>351.0</ele><time>2026-04-06T13:34:20.767Z</time></trkpt><trkpt lat="45.8412277" lon="9.2512807"><ele>351.0</ele><time>2026-04-06T13:34:21.767Z</time></trkpt><trkpt lat="45.8413254" lon="9.251418"><ele>351.0</ele><time>2026-04-06T13:34:22.768Z</time></trkpt><trkpt lat="45.8414254" lon="9.2515481"><ele>351.0</ele><time>2026-04-06T13:34:23.768Z</time></trkpt><trkpt lat="45.8415254" lon="9.2516766"><ele>351.75</ele><time>2026-04-06T13:34:24.767Z</time></trkpt><trkpt lat="45.8416232" lon="9.2517962"><ele>352.5</ele><time>2026-04-06T13:34:25.767Z</time></trkpt><trkpt lat="45.8417187" lon="9.2519154"><ele>353.25</ele><time>2026-04-06T13:34:26.768Z</time></trkpt><trkpt lat="45.841813" lon="9.2520345"><ele>354.0</ele><time>2026-04-06T13:34:27.767Z</time></trkpt><trkpt lat="45.8419008" lon="9.2521519"><ele>354.0</ele><time>2026-04-06T13:34:28.768Z</time></trkpt><trkpt lat="45.8419898" lon="9.2522581"><ele>354.0</ele><time>2026-04-06T13:34:29.768Z</time></trkpt><trkpt lat="45.8420708" lon="9.2523603"><ele>354.0</ele><time>2026-04-06T13:34:30.768Z</time></trkpt><trkpt lat="45.8421516" lon="9.2524589"><ele>354.0</ele><time>2026-04-06T13:34:31.768Z</time></trkpt><trkpt lat="45.8422335" lon="9.2525632"><ele>354.0</ele><time>2026-04-06T13:34:32.768Z</time></trkpt><trkpt lat="45.8423173" lon="9.252673"><ele>353.75</ele><time>2026-04-06T13:34:33.768Z</time></trkpt><trkpt lat="45.8423977" lon="9.2527946"><ele>353.5</ele><time>2026-04-06T13:34:34.767Z</time></trkpt><trkpt lat="45.842485" lon="9.2529258"><ele>353.25</ele><time>2026-04-06T13:34:35.767Z</time></trkpt><trkpt lat="45.8425641" lon="9.2530715"><ele>353.0</ele><time>2026-04-06T13:34:36.767Z</time></trkpt><trkpt lat="45.8426397" lon="9.2532227"><ele>354.0</ele><time>2026-04-06T13:34:37.767Z</time></trkpt><trkpt lat="45.8427173" lon="9.2533712"><ele>355.0</ele><time>2026-04-06T13:34:38.767Z</time></trkpt><trkpt lat="45.8428093" lon="9.2535072"><ele>356.0</ele><time>2026-04-06T13:34:39.767Z</time></trkpt><trkpt lat="45.8429136" lon="9.2536286"><ele>357.0</ele><time>2026-04-06T13:34:40.768Z</time></trkpt><trkpt lat="45.8430268" lon="9.2537349"><ele>357.0</ele><time>2026-04-06T13:34:41.768Z</time></trkpt><trkpt lat="45.8431498" lon="9.2538371"><ele>357.0</ele><time>2026-04-06T13:34:42.768Z</time></trkpt><trkpt lat="45.8432813" lon="9.2539452"><ele>357.0</ele><time>2026-04-06T13:34:43.767Z</time></trkpt><trkpt lat="45.8434048" lon="9.2540538"><ele>357.0</ele><time>2026-04-06T13:34:44.767Z</time></trkpt><trkpt lat="45.8435238" lon="9.2541611"><ele>356.75</ele><time>2026-04-06T13:34:45.767Z</time></trkpt><trkpt lat="45.8436367" lon="9.2542741"><ele>356.5</ele><time>2026-04-06T13:34:46.767Z</time></trkpt><trkpt lat="45.8437505" lon="9.2543894"><ele>356.25</ele><time>2026-04-06T13:34:47.767Z</time></trkpt><trkpt lat="45.8438669" lon="9.2545104"><ele>356.0</ele><time>2026-04-06T13:34:48.767Z</time></trkpt><trkpt lat="45.8439841" lon="9.2546359"><ele>356.0</ele><time>2026-04-06T13:34:49.768Z</time></trkpt><trkpt lat="45.8441013" lon="9.2547634"><ele>356.0</ele><time>2026-04-06T13:34:50.767Z</time></trkpt><trkpt lat="45.8442202" lon="9.2548918"><ele>356.0</ele><time>2026-04-06T13:34:51.768Z</time></trkpt><trkpt lat="45.8443417" lon="9.2550197"><ele>356.0</ele><time>2026-04-06T13:34:52.768Z</time></trkpt><trkpt lat="45.8444564" lon="9.2551472"><ele>356.5</ele><time>2026-04-06T13:34:53.768Z</time></trkpt><trkpt lat="45.8445725" lon="9.2552737"><ele>357.0</ele><time>2026-04-06T13:34:54.767Z</time></trkpt><trkpt lat="45.8446865" lon="9.2553951"><ele>357.5</ele><time>2026-04-06T13:34:55.767Z</time></trkpt><trkpt lat="45.8447971" lon="9.255518"><ele>358.0</ele><time>2026-04-06T13:34:56.768Z</time></trkpt><trkpt lat="45.8449063" lon="9.2556367"><ele>358.0</ele><time>2026-04-06T13:34:57.767Z</time></trkpt><trkpt lat="45.8450146" lon="9.2557549"><ele>358.0</ele><time>2026-04-06T13:34:58.768Z</time></trkpt><trkpt lat="45.8451196" lon="9.2558661"><ele>358.0</ele><time>2026-04-06T13:34:59.768Z</time></trkpt><trkpt lat="45.8452177" lon="9.2559715"><ele>358.0</ele><time>2026-04-06T13:35:00.767Z</time></trkpt><trkpt lat="45.8453084" lon="9.2560696"><ele>358.4</ele><time>2026-04-06T13:35:01.768Z</time></trkpt><trkpt lat="45.8453942" lon="9.2561644"><ele>358.79999999999995</ele><time>2026-04-06T13:35:02.768Z</time></trkpt><trkpt lat="45.8454725" lon="9.2562525"><ele>359.2</ele><time>2026-04-06T13:35:03.768Z</time></trkpt><trkpt lat="45.8455429" lon="9.2563399"><ele>359.6</ele><time>2026-04-06T13:35:04.767Z</time></trkpt><trkpt lat="45.8456016" lon="9.2564378"><ele>360.0</ele><time>2026-04-06T13:35:05.768Z</time></trkpt><trkpt lat="45.845667" lon="9.2565261"><ele>360.25</ele><time>2026-04-06T13:35:06.768Z</time></trkpt><trkpt lat="45.8457529" lon="9.2565948"><ele>360.5</ele><time>2026-04-06T13:35:07.768Z</time></trkpt><trkpt lat="45.8458465" lon="9.2566728"><ele>360.75</ele><time>2026-04-06T13:35:08.768Z</time></trkpt><trkpt lat="45.8459449" lon="9.2567717"><ele>361.0</ele><time>2026-04-06T13:35:09.768Z</time></trkpt><trkpt lat="45.846048" lon="9.2568803"><ele>361.5</ele><time>2026-04-06T13:35:10.767Z</time></trkpt><trkpt lat="45.8461498" lon="9.2569929"><ele>362.0</ele><time>2026-04-06T13:35:11.765Z</time></trkpt><trkpt lat="45.846247" lon="9.2570947"><ele>362.5</ele><time>2026-04-06T13:35:12.766Z</time></trkpt><trkpt lat="45.8463409" lon="9.2571961"><ele>363.0</ele><time>2026-04-06T13:35:13.766Z</time></trkpt><trkpt lat="45.8464383" lon="9.2573021"><ele>363.5</ele><time>2026-04-06T13:35:14.766Z</time></trkpt><trkpt lat="45.8465385" lon="9.2574136"><ele>364.0</ele><time>2026-04-06T13:35:15.766Z</time></trkpt><trkpt lat="45.8466388" lon="9.2575302"><ele>364.5</ele><time>2026-04-06T13:35:16.767Z</time></trkpt><trkpt lat="45.8467383" lon="9.2576558"><ele>365.0</ele><time>2026-04-06T13:35:17.766Z</time></trkpt><trkpt lat="45.8468348" lon="9.2577933"><ele>365.0</ele><time>2026-04-06T13:35:18.766Z</time></trkpt><trkpt lat="45.8469324" lon="9.2579354"><ele>365.0</ele><time>2026-04-06T13:35:19.766Z</time></trkpt><trkpt lat="45.8470271" lon="9.2580896"><ele>365.0</ele><time>2026-04-06T13:35:20.766Z</time></trkpt><trkpt lat="45.8471193" lon="9.2582559"><ele>365.0</ele><time>2026-04-06T13:35:21.766Z</time></trkpt><trkpt lat="45.8472086" lon="9.2584346"><ele>366.0</ele><time>2026-04-06T13:35:22.767Z</time></trkpt><trkpt lat="45.8472931" lon="9.2586069"><ele>367.0</ele><time>2026-04-06T13:35:23.766Z</time></trkpt><trkpt lat="45.847372" lon="9.2587772"><ele>368.0</ele><time>2026-04-06T13:35:24.766Z</time></trkpt><trkpt lat="45.8474519" lon="9.2589509"><ele>369.0</ele><time>2026-04-06T13:35:25.766Z</time></trkpt><trkpt lat="45.8475306" lon="9.2591234"><ele>368.3333333333333</ele><time>2026-04-06T13:35:26.766Z</time></trkpt><trkpt lat="45.8476135" lon="9.2592982"><ele>367.66666666666663</ele><time>2026-04-06T13:35:27.766Z</time></trkpt><trkpt lat="45.8477012" lon="9.2594729"><ele>367.0</ele><time>2026-04-06T13:35:28.767Z</time></trkpt><trkpt lat="45.8477893" lon="9.2596564"><ele>366.3333333333333</ele><time>2026-04-06T13:35:29.767Z</time></trkpt><trkpt lat="45.8478777" lon="9.2598412"><ele>365.6666666666667</ele><time>2026-04-06T13:35:30.767Z</time></trkpt><trkpt lat="45.8479675" lon="9.2600292"><ele>365.0</ele><time>2026-04-06T13:35:31.766Z</time></trkpt><trkpt lat="45.8480575" lon="9.2602181"><ele>365.0</ele><time>2026-04-06T13:35:32.767Z</time></trkpt><trkpt lat="45.8481484" lon="9.2604068"><ele>365.0</ele><time>2026-04-06T13:35:33.766Z</time></trkpt><trkpt lat="45.8482385" lon="9.2605956"><ele>365.0</ele><time>2026-04-06T13:35:34.766Z</time></trkpt><trkpt lat="45.8483278" lon="9.2607833"><ele>367.0</ele><time>2026-04-06T13:35:35.766Z</time></trkpt><trkpt lat="45.848418" lon="9.2609716"><ele>369.0</ele><time>2026-04-06T13:35:36.766Z</time></trkpt><trkpt lat="45.8485073" lon="9.2611627"><ele>371.0</ele><time>2026-04-06T13:35:37.767Z</time></trkpt><trkpt lat="45.8485955" lon="9.2613502"><ele>371.0</ele><time>2026-04-06T13:35:38.767Z</time></trkpt><trkpt lat="45.8486831" lon="9.2615383"><ele>371.0</ele><time>2026-04-06T13:35:39.766Z</time></trkpt><trkpt lat="45.8487732" lon="9.2617269"><ele>371.0</ele><time>2026-04-06T13:35:40.767Z</time></trkpt><trkpt lat="45.8488687" lon="9.2619141"><ele>371.0</ele><time>2026-04-06T13:35:41.766Z</time></trkpt><trkpt lat="45.8489704" lon="9.2620961"><ele>371.0</ele><time>2026-04-06T13:35:42.766Z</time></trkpt><trkpt lat="45.849081" lon="9.2622709"><ele>371.0</ele><time>2026-04-06T13:35:43.767Z</time></trkpt><trkpt lat="45.8491983" lon="9.2624413"><ele>371.33333333333337</ele><time>2026-04-06T13:35:44.767Z</time></trkpt><trkpt lat="45.8493173" lon="9.262604"><ele>371.6666666666667</ele><time>2026-04-06T13:35:45.766Z</time></trkpt><trkpt lat="45.8494388" lon="9.2627623"><ele>372.0</ele><time>2026-04-06T13:35:46.766Z</time></trkpt><trkpt lat="45.8495585" lon="9.2629204"><ele>372.0</ele><time>2026-04-06T13:35:47.766Z</time></trkpt><trkpt lat="45.8496775" lon="9.2630786"><ele>372.0</ele><time>2026-04-06T13:35:48.766Z</time></trkpt><trkpt lat="45.8497939" lon="9.2632398"><ele>372.0</ele><time>2026-04-06T13:35:49.766Z</time></trkpt><trkpt lat="45.8499082" lon="9.2634014"><ele>372.3333333333333</ele><time>2026-04-06T13:35:50.767Z</time></trkpt><trkpt lat="45.8500227" lon="9.2635641"><ele>372.66666666666663</ele><time>2026-04-06T13:35:51.766Z</time></trkpt><trkpt lat="45.8501348" lon="9.2637338"><ele>373.0</ele><time>2026-04-06T13:35:52.766Z</time></trkpt><trkpt lat="45.8502439" lon="9.2639039"><ele>374.3333333333333</ele><time>2026-04-06T13:35:53.767Z</time></trkpt><trkpt lat="45.8503522" lon="9.2640765"><ele>375.6666666666667</ele><time>2026-04-06T13:35:54.766Z</time></trkpt><trkpt lat="45.8504571" lon="9.2642571"><ele>377.0</ele><time>2026-04-06T13:35:55.766Z</time></trkpt><trkpt lat="45.8505611" lon="9.2644346"><ele>377.0</ele><time>2026-04-06T13:35:56.766Z</time></trkpt><trkpt lat="45.8506693" lon="9.2646061"><ele>377.0</ele><time>2026-04-06T13:35:57.767Z</time></trkpt><trkpt lat="45.8507725" lon="9.2647788"><ele>377.0</ele><time>2026-04-06T13:35:58.767Z</time></trkpt><trkpt lat="45.8508751" lon="9.2649542"><ele>377.0</ele><time>2026-04-06T13:35:59.767Z</time></trkpt><trkpt lat="45.8509759" lon="9.2651322"><ele>377.0</ele><time>2026-04-06T13:36:00.767Z</time></trkpt><trkpt lat="45.851082" lon="9.2653036"><ele>377.0</ele><time>2026-04-06T13:36:01.766Z</time></trkpt><trkpt lat="45.8511866" lon="9.2654765"><ele>378.0</ele><time>2026-04-06T13:36:02.767Z</time></trkpt><trkpt lat="45.851289" lon="9.2656478"><ele>379.0</ele><time>2026-04-06T13:36:03.766Z</time></trkpt><trkpt lat="45.8513928" lon="9.2658176"><ele>380.0</ele><time>2026-04-06T13:36:04.766Z</time></trkpt><trkpt lat="45.851499" lon="9.2659872"><ele>380.0</ele><time>2026-04-06T13:36:05.766Z</time></trkpt><trkpt lat="45.8516028" lon="9.2661597"><ele>380.0</ele><time>2026-04-06T13:36:06.766Z</time></trkpt><trkpt lat="45.8517073" lon="9.2663318"><ele>380.0</ele><time>2026-04-06T13:36:07.767Z</time></trkpt><trkpt lat="45.851809" lon="9.2665027"><ele>380.0</ele><time>2026-04-06T13:36:08.767Z</time></trkpt><trkpt lat="45.8519098" lon="9.2666682"><ele>380.0</ele><time>2026-04-06T13:36:09.766Z</time></trkpt><trkpt lat="45.8520087" lon="9.2668366"><ele>380.0</ele><time>2026-04-06T13:36:10.766Z</time></trkpt><trkpt lat="45.852102" lon="9.2670078"><ele>380.0</ele><time>2026-04-06T13:36:11.766Z</time></trkpt><trkpt lat="45.8521965" lon="9.2671899"><ele>380.0</ele><time>2026-04-06T13:36:12.767Z</time></trkpt><trkpt lat="45.8522869" lon="9.2673669"><ele>380.0</ele><time>2026-04-06T13:36:13.767Z</time></trkpt><trkpt lat="45.8523774" lon="9.2675441"><ele>381.33333333333337</ele><time>2026-04-06T13:36:14.767Z</time></trkpt><trkpt lat="45.8524654" lon="9.2677196"><ele>382.6666666666667</ele><time>2026-04-06T13:36:15.766Z</time></trkpt><trkpt lat="45.8525567" lon="9.2678953"><ele>384.0</ele><time>2026-04-06T13:36:16.766Z</time></trkpt><trkpt lat="45.852648" lon="9.2680695"><ele>384.0</ele><time>2026-04-06T13:36:17.767Z</time></trkpt><trkpt lat="45.8527358" lon="9.2682444"><ele>384.0</ele><time>2026-04-06T13:36:18.766Z</time></trkpt><trkpt lat="45.8528189" lon="9.2684122"><ele>384.0</ele><time>2026-04-06T13:36:19.766Z</time></trkpt><trkpt lat="45.8528954" lon="9.2685656"><ele>384.0</ele><time>2026-04-06T13:36:20.767Z</time></trkpt><trkpt lat="45.8529636" lon="9.2687159"><ele>384.0</ele><time>2026-04-06T13:36:21.767Z</time></trkpt><trkpt lat="45.8530278" lon="9.268864"><ele>384.0</ele><time>2026-04-06T13:36:22.766Z</time></trkpt><trkpt lat="45.8530826" lon="9.2690183"><ele>384.0</ele><time>2026-04-06T13:36:23.766Z</time></trkpt><trkpt lat="45.8531312" lon="9.2691851"><ele>384.0</ele><time>2026-04-06T13:36:24.766Z</time></trkpt><trkpt lat="45.8531661" lon="9.2693505"><ele>384.5</ele><time>2026-04-06T13:36:25.767Z</time></trkpt><trkpt lat="45.8531963" lon="9.2695086"><ele>385.0</ele><time>2026-04-06T13:36:26.767Z</time></trkpt><trkpt lat="45.8532112" lon="9.269687"><ele>385.5</ele><time>2026-04-06T13:36:27.766Z</time></trkpt><trkpt lat="45.8532159" lon="9.2698688"><ele>386.0</ele><time>2026-04-06T13:36:28.767Z</time></trkpt><trkpt lat="45.8532099" lon="9.2700525"><ele>387.25</ele><time>2026-04-06T13:36:29.767Z</time></trkpt><trkpt lat="45.8531933" lon="9.2702387"><ele>388.5</ele><time>2026-04-06T13:36:30.766Z</time></trkpt><trkpt lat="45.8531663" lon="9.2704157"><ele>389.75</ele><time>2026-04-06T13:36:31.766Z</time></trkpt><trkpt lat="45.8531366" lon="9.2705859"><ele>391.0</ele><time>2026-04-06T13:36:32.766Z</time></trkpt><trkpt lat="45.8531064" lon="9.2707494"><ele>391.20000000000005</ele><time>2026-04-06T13:36:33.766Z</time></trkpt><trkpt lat="45.8530801" lon="9.2708988"><ele>391.40000000000003</ele><time>2026-04-06T13:36:34.766Z</time></trkpt><trkpt lat="45.8530587" lon="9.2710409"><ele>391.6</ele><time>2026-04-06T13:36:35.766Z</time></trkpt><trkpt lat="45.8530422" lon="9.2711689"><ele>391.8</ele><time>2026-04-06T13:36:36.766Z</time></trkpt><trkpt lat="45.8530327" lon="9.2712889"><ele>392.0</ele><time>2026-04-06T13:36:37.766Z</time></trkpt><trkpt lat="45.853028" lon="9.2714002"><ele>391.66666666666663</ele><time>2026-04-06T13:36:38.767Z</time></trkpt><trkpt lat="45.853027" lon="9.2715065"><ele>391.3333333333333</ele><time>2026-04-06T13:36:39.767Z</time></trkpt><trkpt lat="45.8530302" lon="9.2716088"><ele>391.0</ele><time>2026-04-06T13:36:40.767Z</time></trkpt><trkpt lat="45.8530413" lon="9.2717535"><ele>390.66666666666663</ele><time>2026-04-06T13:36:42.766Z</time></trkpt><trkpt lat="45.8530571" lon="9.2718519"><ele>390.3333333333333</ele><time>2026-04-06T13:36:44.766Z</time></trkpt><trkpt lat="45.853077" lon="9.2719681"><ele>390.0</ele><time>2026-04-06T13:36:47.766Z</time></trkpt><trkpt lat="45.8530905" lon="9.2720732"><ele>390.0</ele><time>2026-04-06T13:36:49.767Z</time></trkpt><trkpt lat="45.8531223" lon="9.2722078"><ele>390.0</ele><time>2026-04-06T13:36:51.766Z</time></trkpt><trkpt lat="45.8532207" lon="9.2722745"><ele>390.0</ele><time>2026-04-06T13:36:53.766Z</time></trkpt><trkpt lat="45.8533334" lon="9.2722051"><ele>390.0</ele><time>2026-04-06T13:36:55.766Z</time></trkpt><trkpt lat="45.8533924" lon="9.2721533"><ele>390.0</ele><time>2026-04-06T13:36:56.765Z</time></trkpt><trkpt lat="45.8534631" lon="9.2720949"><ele>389.4</ele><time>2026-04-06T13:36:57.767Z</time></trkpt><trkpt lat="45.8535375" lon="9.2720411"><ele>388.8</ele><time>2026-04-06T13:36:58.767Z</time></trkpt><trkpt lat="45.8536225" lon="9.2719827"><ele>388.20000000000005</ele><time>2026-04-06T13:36:59.766Z</time></trkpt><trkpt lat="45.8537054" lon="9.2719344"><ele>387.6</ele><time>2026-04-06T13:37:00.767Z</time></trkpt><trkpt lat="45.8538024" lon="9.2718658"><ele>387.0</ele><time>2026-04-06T13:37:01.766Z</time></trkpt><trkpt lat="45.8539062" lon="9.2717947"><ele>387.0</ele><time>2026-04-06T13:37:02.767Z</time></trkpt><trkpt lat="45.8540016" lon="9.2717171"><ele>387.0</ele><time>2026-04-06T13:37:03.767Z</time></trkpt><trkpt lat="45.8540961" lon="9.271639"><ele>387.0</ele><time>2026-04-06T13:37:04.766Z</time></trkpt><trkpt lat="45.8541831" lon="9.2715621"><ele>387.0</ele><time>2026-04-06T13:37:05.766Z</time></trkpt><trkpt lat="45.8542597" lon="9.2714738"><ele>387.0</ele><time>2026-04-06T13:37:06.766Z</time></trkpt><trkpt lat="45.8543332" lon="9.2713747"><ele>388.0</ele><time>2026-04-06T13:37:07.767Z</time></trkpt><trkpt lat="45.8544091" lon="9.2712673"><ele>389.0</ele><time>2026-04-06T13:37:08.766Z</time></trkpt><trkpt lat="45.854479" lon="9.2711506"><ele>390.0</ele><time>2026-04-06T13:37:09.767Z</time></trkpt><trkpt lat="45.8545483" lon="9.2710151"><ele>391.0</ele><time>2026-04-06T13:37:10.767Z</time></trkpt><trkpt lat="45.8546099" lon="9.2708725"><ele>392.0</ele><time>2026-04-06T13:37:11.766Z</time></trkpt><trkpt lat="45.8546647" lon="9.2707336"><ele>391.20000000000005</ele><time>2026-04-06T13:37:12.767Z</time></trkpt><trkpt lat="45.8547158" lon="9.2705931"><ele>390.4</ele><time>2026-04-06T13:37:13.767Z</time></trkpt><trkpt lat="45.8547696" lon="9.2704558"><ele>389.6</ele><time>2026-04-06T13:37:14.766Z</time></trkpt><trkpt lat="45.8548238" lon="9.2703207"><ele>388.79999999999995</ele><time>2026-04-06T13:37:15.766Z</time></trkpt><trkpt lat="45.8548739" lon="9.2701815"><ele>388.0</ele><time>2026-04-06T13:37:16.766Z</time></trkpt><trkpt lat="45.8549269" lon="9.2700433"><ele>388.0</ele><time>2026-04-06T13:37:17.767Z</time></trkpt><trkpt lat="45.8549736" lon="9.2699134"><ele>388.0</ele><time>2026-04-06T13:37:18.766Z</time></trkpt><trkpt lat="45.8550243" lon="9.269784"><ele>388.0</ele><time>2026-04-06T13:37:19.766Z</time></trkpt><trkpt lat="45.855079" lon="9.2696616"><ele>388.0</ele><time>2026-04-06T13:37:20.767Z</time></trkpt><trkpt lat="45.8551468" lon="9.2695533"><ele>388.0</ele><time>2026-04-06T13:37:21.766Z</time></trkpt><trkpt lat="45.8552316" lon="9.2694698"><ele>387.79999999999995</ele><time>2026-04-06T13:37:22.767Z</time></trkpt><trkpt lat="45.8553331" lon="9.269416"><ele>387.6</ele><time>2026-04-06T13:37:23.766Z</time></trkpt><trkpt lat="45.8554405" lon="9.2693962"><ele>387.4</ele><time>2026-04-06T13:37:24.766Z</time></trkpt><trkpt lat="45.8555534" lon="9.2694001"><ele>387.20000000000005</ele><time>2026-04-06T13:37:25.766Z</time></trkpt><trkpt lat="45.8556588" lon="9.2694202"><ele>387.0</ele><time>2026-04-06T13:37:26.766Z</time></trkpt><trkpt lat="45.8557541" lon="9.2694384"><ele>387.0</ele><time>2026-04-06T13:37:27.767Z</time></trkpt><trkpt lat="45.8558471" lon="9.2694502"><ele>387.0</ele><time>2026-04-06T13:37:28.767Z</time></trkpt><trkpt lat="45.8559357" lon="9.2694626"><ele>387.0</ele><time>2026-04-06T13:37:29.767Z</time></trkpt><trkpt lat="45.8560225" lon="9.2694797"><ele>387.0</ele><time>2026-04-06T13:37:30.767Z</time></trkpt><trkpt lat="45.856106" lon="9.2695046"><ele>387.0</ele><time>2026-04-06T13:37:31.767Z</time></trkpt><trkpt lat="45.8561865" lon="9.2695364"><ele>387.0</ele><time>2026-04-06T13:37:32.767Z</time></trkpt><trkpt lat="45.8562653" lon="9.2695712"><ele>387.42857142857144</ele><time>2026-04-06T13:37:33.767Z</time></trkpt><trkpt lat="45.8563373" lon="9.2696053"><ele>387.8571428571429</ele><time>2026-04-06T13:37:34.767Z</time></trkpt><trkpt lat="45.8564094" lon="9.2696343"><ele>388.2857142857143</ele><time>2026-04-06T13:37:35.767Z</time></trkpt><trkpt lat="45.8564808" lon="9.2696655"><ele>388.7142857142857</ele><time>2026-04-06T13:37:36.767Z</time></trkpt><trkpt lat="45.8565424" lon="9.2696894"><ele>389.1428571428571</ele><time>2026-04-06T13:37:37.767Z</time></trkpt><trkpt lat="45.8566268" lon="9.2697199"><ele>389.57142857142856</ele><time>2026-04-06T13:37:39.767Z</time></trkpt><trkpt lat="45.8566956" lon="9.2697419"><ele>390.0</ele><time>2026-04-06T13:37:41.766Z</time></trkpt><trkpt lat="45.8567793" lon="9.2697767"><ele>392.2</ele><time>2026-04-06T13:37:46.765Z</time></trkpt><trkpt lat="45.8568715" lon="9.2698077"><ele>394.4</ele><time>2026-04-06T13:37:48.766Z</time></trkpt><trkpt lat="45.856966" lon="9.2698252"><ele>396.6</ele><time>2026-04-06T13:37:50.766Z</time></trkpt><trkpt lat="45.8570798" lon="9.2698143"><ele>398.8</ele><time>2026-04-06T13:37:52.766Z</time></trkpt><trkpt lat="45.8571557" lon="9.2698026"><ele>401.0</ele><time>2026-04-06T13:37:53.765Z</time></trkpt><trkpt lat="45.8572405" lon="9.2697888"><ele>400.99999999999994</ele><time>2026-04-06T13:37:54.765Z</time></trkpt><trkpt lat="45.8573186" lon="9.2697759"><ele>401.0</ele><time>2026-04-06T13:37:55.765Z</time></trkpt><trkpt lat="45.8573983" lon="9.2697637"><ele>401.0</ele><time>2026-04-06T13:37:56.765Z</time></trkpt><trkpt lat="45.8574839" lon="9.2697523"><ele>401.0</ele><time>2026-04-06T13:37:57.766Z</time></trkpt><trkpt lat="45.8575727" lon="9.2697372"><ele>400.99999999999994</ele><time>2026-04-06T13:37:58.766Z</time></trkpt><trkpt lat="45.85767" lon="9.2697187"><ele>401.0</ele><time>2026-04-06T13:37:59.764Z</time></trkpt><trkpt lat="45.857774" lon="9.2697048"><ele>399.5</ele><time>2026-04-06T13:38:00.766Z</time></trkpt><trkpt lat="45.8578888" lon="9.2696903"><ele>398.0</ele><time>2026-04-06T13:38:01.766Z</time></trkpt><trkpt lat="45.8580094" lon="9.2696839"><ele>396.5</ele><time>2026-04-06T13:38:02.766Z</time></trkpt><trkpt lat="45.8581199" lon="9.2696829"><ele>395.0</ele><time>2026-04-06T13:38:03.766Z</time></trkpt><trkpt lat="45.8582275" lon="9.2696907"><ele>395.0</ele><time>2026-04-06T13:38:04.765Z</time></trkpt><trkpt lat="45.8583346" lon="9.2697047"><ele>395.0</ele><time>2026-04-06T13:38:05.765Z</time></trkpt><trkpt lat="45.8584363" lon="9.2697227"><ele>395.0</ele><time>2026-04-06T13:38:06.765Z</time></trkpt><trkpt lat="45.8585366" lon="9.2697474"><ele>395.0</ele><time>2026-04-06T13:38:07.766Z</time></trkpt><trkpt lat="45.8586438" lon="9.2697673"><ele>395.0</ele><time>2026-04-06T13:38:08.766Z</time></trkpt><trkpt lat="45.8587523" lon="9.2697661"><ele>396.2</ele><time>2026-04-06T13:38:09.765Z</time></trkpt><trkpt lat="45.8588624" lon="9.2697506"><ele>397.4</ele><time>2026-04-06T13:38:10.766Z</time></trkpt><trkpt lat="45.8589716" lon="9.269724"><ele>398.6</ele><time>2026-04-06T13:38:11.766Z</time></trkpt><trkpt lat="45.8590776" lon="9.2696808"><ele>399.8</ele><time>2026-04-06T13:38:12.766Z</time></trkpt><trkpt lat="45.8591839" lon="9.2696205"><ele>401.0</ele><time>2026-04-06T13:38:13.766Z</time></trkpt><trkpt lat="45.8592849" lon="9.2695448"><ele>403.25</ele><time>2026-04-06T13:38:14.766Z</time></trkpt><trkpt lat="45.8593894" lon="9.2694657"><ele>405.5</ele><time>2026-04-06T13:38:15.765Z</time></trkpt><trkpt lat="45.8594937" lon="9.2693851"><ele>407.75</ele><time>2026-04-06T13:38:16.765Z</time></trkpt><trkpt lat="45.8595911" lon="9.2693045"><ele>410.0</ele><time>2026-04-06T13:38:17.766Z</time></trkpt><trkpt lat="45.8596782" lon="9.2692225"><ele>409.99999999999994</ele><time>2026-04-06T13:38:18.765Z</time></trkpt><trkpt lat="45.8597544" lon="9.2691307"><ele>410.0</ele><time>2026-04-06T13:38:19.766Z</time></trkpt><trkpt lat="45.8598225" lon="9.2690372"><ele>410.0</ele><time>2026-04-06T13:38:20.765Z</time></trkpt><trkpt lat="45.8598657" lon="9.2689614"><ele>410.0</ele><time>2026-04-06T13:38:21.765Z</time></trkpt><trkpt lat="45.8599153" lon="9.2688801"><ele>409.99999999999994</ele><time>2026-04-06T13:38:22.765Z</time></trkpt><trkpt lat="45.8599752" lon="9.2688116"><ele>410.0</ele><time>2026-04-06T13:38:23.766Z</time></trkpt><trkpt lat="45.8600403" lon="9.2687706"><ele>409.8333333333333</ele><time>2026-04-06T13:38:24.766Z</time></trkpt><trkpt lat="45.8601096" lon="9.2687781"><ele>409.66666666666663</ele><time>2026-04-06T13:38:25.765Z</time></trkpt><trkpt lat="45.8601763" lon="9.2688217"><ele>409.5</ele><time>2026-04-06T13:38:26.766Z</time></trkpt><trkpt lat="45.8602269" lon="9.2688954"><ele>409.33333333333337</ele><time>2026-04-06T13:38:27.766Z</time></trkpt><trkpt lat="45.8602565" lon="9.2689818"><ele>409.1666666666667</ele><time>2026-04-06T13:38:28.766Z</time></trkpt><trkpt lat="45.8602783" lon="9.2690673"><ele>409.0</ele><time>2026-04-06T13:38:29.766Z</time></trkpt><trkpt lat="45.8603162" lon="9.2692276"><ele>409.33333333333337</ele><time>2026-04-06T13:38:31.765Z</time></trkpt><trkpt lat="45.8603988" lon="9.2693487"><ele>409.6666666666667</ele><time>2026-04-06T13:38:33.765Z</time></trkpt><trkpt lat="45.8604619" lon="9.2693733"><ele>410.0</ele><time>2026-04-06T13:38:34.765Z</time></trkpt><trkpt lat="45.8605323" lon="9.2693771"><ele>410.33333333333337</ele><time>2026-04-06T13:38:35.765Z</time></trkpt><trkpt lat="45.860607" lon="9.269377"><ele>410.6666666666667</ele><time>2026-04-06T13:38:36.765Z</time></trkpt><trkpt lat="45.8606861" lon="9.2693837"><ele>411.0</ele><time>2026-04-06T13:38:37.765Z</time></trkpt><trkpt lat="45.8607672" lon="9.2693989"><ele>411.0</ele><time>2026-04-06T13:38:38.766Z</time></trkpt><trkpt lat="45.8608563" lon="9.2694264"><ele>411.0</ele><time>2026-04-06T13:38:39.765Z</time></trkpt><trkpt lat="45.8609452" lon="9.2694637"><ele>411.0</ele><time>2026-04-06T13:38:40.765Z</time></trkpt><trkpt lat="45.8610306" lon="9.2695011"><ele>411.0</ele><time>2026-04-06T13:38:41.765Z</time></trkpt><trkpt lat="45.8611044" lon="9.2695324"><ele>411.0</ele><time>2026-04-06T13:38:42.765Z</time></trkpt><trkpt lat="45.8611763" lon="9.2695526"><ele>411.0</ele><time>2026-04-06T13:38:43.766Z</time></trkpt><trkpt lat="45.8612423" lon="9.2695669"><ele>411.5</ele><time>2026-04-06T13:38:44.765Z</time></trkpt><trkpt lat="45.8613476" lon="9.2696007"><ele>412.0</ele><time>2026-04-06T13:38:46.766Z</time></trkpt><trkpt lat="45.8614312" lon="9.269643"><ele>412.5</ele><time>2026-04-06T13:38:48.765Z</time></trkpt><trkpt lat="45.8615061" lon="9.2697447"><ele>413.0</ele><time>2026-04-06T13:38:50.765Z</time></trkpt><trkpt lat="45.8615381" lon="9.2698294"><ele>413.5</ele><time>2026-04-06T13:38:51.765Z</time></trkpt><trkpt lat="45.8615712" lon="9.2699283"><ele>414.0</ele><time>2026-04-06T13:38:52.765Z</time></trkpt><trkpt lat="45.8615983" lon="9.2700413"><ele>415.2</ele><time>2026-04-06T13:38:53.765Z</time></trkpt><trkpt lat="45.8616155" lon="9.2701714"><ele>416.4</ele><time>2026-04-06T13:38:54.766Z</time></trkpt><trkpt lat="45.8616334" lon="9.270319"><ele>417.6</ele><time>2026-04-06T13:38:55.765Z</time></trkpt><trkpt lat="45.8616478" lon="9.2704566"><ele>418.8</ele><time>2026-04-06T13:38:56.765Z</time></trkpt><trkpt lat="45.8616641" lon="9.2705877"><ele>420.0</ele><time>2026-04-06T13:38:57.765Z</time></trkpt><trkpt lat="45.8616829" lon="9.2707291"><ele>420.5</ele><time>2026-04-06T13:38:58.765Z</time></trkpt><trkpt lat="45.8617024" lon="9.2708758"><ele>421.0</ele><time>2026-04-06T13:38:59.765Z</time></trkpt><trkpt lat="45.861725" lon="9.2710534"><ele>421.5</ele><time>2026-04-06T13:39:00.765Z</time></trkpt><trkpt lat="45.8617533" lon="9.2712231"><ele>422.0</ele><time>2026-04-06T13:39:01.765Z</time></trkpt><trkpt lat="45.8617782" lon="9.2713848"><ele>423.0</ele><time>2026-04-06T13:39:02.765Z</time></trkpt><trkpt lat="45.8617956" lon="9.2715435"><ele>424.0</ele><time>2026-04-06T13:39:03.765Z</time></trkpt><trkpt lat="45.8618145" lon="9.2717004"><ele>425.0</ele><time>2026-04-06T13:39:04.766Z</time></trkpt><trkpt lat="45.8618329" lon="9.2718658"><ele>426.0</ele><time>2026-04-06T13:39:05.766Z</time></trkpt><trkpt lat="45.8618468" lon="9.272027"><ele>426.0</ele><time>2026-04-06T13:39:06.766Z</time></trkpt><trkpt lat="45.8618563" lon="9.2721916"><ele>426.0</ele><time>2026-04-06T13:39:07.765Z</time></trkpt><trkpt lat="45.8618609" lon="9.2723553"><ele>426.0</ele><time>2026-04-06T13:39:08.765Z</time></trkpt><trkpt lat="45.861866" lon="9.2725234"><ele>426.0</ele><time>2026-04-06T13:39:09.764Z</time></trkpt><trkpt lat="45.8618683" lon="9.2726948"><ele>425.5</ele><time>2026-04-06T13:39:10.766Z</time></trkpt><trkpt lat="45.8618713" lon="9.2728672"><ele>425.0</ele><time>2026-04-06T13:39:11.766Z</time></trkpt><trkpt lat="45.861874" lon="9.2730405"><ele>424.5</ele><time>2026-04-06T13:39:12.765Z</time></trkpt><trkpt lat="45.8618773" lon="9.2732165"><ele>424.0</ele><time>2026-04-06T13:39:13.766Z</time></trkpt><trkpt lat="45.8618791" lon="9.2733934"><ele>424.0</ele><time>2026-04-06T13:39:14.766Z</time></trkpt><trkpt lat="45.8618841" lon="9.2735696"><ele>424.0</ele><time>2026-04-06T13:39:15.765Z</time></trkpt><trkpt lat="45.8618846" lon="9.2737433"><ele>424.0</ele><time>2026-04-06T13:39:16.766Z</time></trkpt><trkpt lat="45.861887" lon="9.2739173"><ele>424.0</ele><time>2026-04-06T13:39:17.766Z</time></trkpt><trkpt lat="45.8618859" lon="9.2740908"><ele>425.25</ele><time>2026-04-06T13:39:18.766Z</time></trkpt><trkpt lat="45.8618889" lon="9.2742626"><ele>426.5</ele><time>2026-04-06T13:39:19.766Z</time></trkpt><trkpt lat="45.861895" lon="9.2744299"><ele>427.75</ele><time>2026-04-06T13:39:20.766Z</time></trkpt><trkpt lat="45.8619038" lon="9.274597"><ele>429.0</ele><time>2026-04-06T13:39:21.766Z</time></trkpt><trkpt lat="45.8619242" lon="9.2747623"><ele>429.75</ele><time>2026-04-06T13:39:22.766Z</time></trkpt><trkpt lat="45.8619561" lon="9.2749248"><ele>430.5</ele><time>2026-04-06T13:39:23.765Z</time></trkpt><trkpt lat="45.8620008" lon="9.2750847"><ele>431.25</ele><time>2026-04-06T13:39:24.765Z</time></trkpt><trkpt lat="45.8620578" lon="9.2752421"><ele>432.0</ele><time>2026-04-06T13:39:25.766Z</time></trkpt><trkpt lat="45.8621269" lon="9.2753887"><ele>432.0</ele><time>2026-04-06T13:39:26.766Z</time></trkpt><trkpt lat="45.8622125" lon="9.2755266"><ele>432.0</ele><time>2026-04-06T13:39:27.766Z</time></trkpt><trkpt lat="45.8623093" lon="9.2756476"><ele>432.0</ele><time>2026-04-06T13:39:28.765Z</time></trkpt><trkpt lat="45.8624146" lon="9.2757477"><ele>432.0</ele><time>2026-04-06T13:39:29.765Z</time></trkpt><trkpt lat="45.8625241" lon="9.275825"><ele>436.0</ele><time>2026-04-06T13:39:30.765Z</time></trkpt><trkpt lat="45.8626403" lon="9.2758893"><ele>440.0</ele><time>2026-04-06T13:39:31.765Z</time></trkpt><trkpt lat="45.8627601" lon="9.2759389"><ele>444.0</ele><time>2026-04-06T13:39:32.765Z</time></trkpt><trkpt lat="45.8628816" lon="9.2759709"><ele>448.0</ele><time>2026-04-06T13:39:33.765Z</time></trkpt><trkpt lat="45.8630128" lon="9.2759804"><ele>448.0</ele><time>2026-04-06T13:39:34.765Z</time></trkpt><trkpt lat="45.8631433" lon="9.2759683"><ele>448.0</ele><time>2026-04-06T13:39:35.766Z</time></trkpt><trkpt lat="45.86327" lon="9.2759387"><ele>448.0</ele><time>2026-04-06T13:39:36.766Z</time></trkpt><trkpt lat="45.8633957" lon="9.2758818"><ele>448.0</ele><time>2026-04-06T13:39:37.765Z</time></trkpt><trkpt lat="45.8635166" lon="9.275805"><ele>454.5</ele><time>2026-04-06T13:39:38.765Z</time></trkpt><trkpt lat="45.8636263" lon="9.275705"><ele>461.0</ele><time>2026-04-06T13:39:39.765Z</time></trkpt><trkpt lat="45.8637304" lon="9.2755921"><ele>467.5</ele><time>2026-04-06T13:39:40.765Z</time></trkpt><trkpt lat="45.8638262" lon="9.2754612"><ele>474.0</ele><time>2026-04-06T13:39:41.765Z</time></trkpt><trkpt lat="45.8639052" lon="9.2753235"><ele>474.0</ele><time>2026-04-06T13:39:42.766Z</time></trkpt><trkpt lat="45.863969" lon="9.275177"><ele>474.0</ele><time>2026-04-06T13:39:43.766Z</time></trkpt><trkpt lat="45.8640233" lon="9.2750187"><ele>474.0</ele><time>2026-04-06T13:39:44.765Z</time></trkpt><trkpt lat="45.8640666" lon="9.2748522"><ele>474.0</ele><time>2026-04-06T13:39:45.765Z</time></trkpt><trkpt lat="45.8641032" lon="9.274677"><ele>472.0</ele><time>2026-04-06T13:39:46.765Z</time></trkpt><trkpt lat="45.8641333" lon="9.2745"><ele>470.0</ele><time>2026-04-06T13:39:47.765Z</time></trkpt><trkpt lat="45.8641618" lon="9.2743273"><ele>468.0</ele><time>2026-04-06T13:39:48.765Z</time></trkpt><trkpt lat="45.8641878" lon="9.2741576"><ele>466.0</ele><time>2026-04-06T13:39:49.766Z</time></trkpt><trkpt lat="45.8642082" lon="9.2739991"><ele>465.8</ele><time>2026-04-06T13:39:50.766Z</time></trkpt><trkpt lat="45.8642304" lon="9.2738498"><ele>465.6</ele><time>2026-04-06T13:39:51.765Z</time></trkpt><trkpt lat="45.8642501" lon="9.2737037"><ele>465.4</ele><time>2026-04-06T13:39:52.766Z</time></trkpt><trkpt lat="45.8642738" lon="9.2735543"><ele>465.2</ele><time>2026-04-06T13:39:53.766Z</time></trkpt><trkpt lat="45.8642995" lon="9.2734019"><ele>465.0</ele><time>2026-04-06T13:39:54.765Z</time></trkpt><trkpt lat="45.8643298" lon="9.2732461"><ele>476.0</ele><time>2026-04-06T13:39:55.765Z</time></trkpt><trkpt lat="45.8643705" lon="9.273087"><ele>487.0</ele><time>2026-04-06T13:39:56.766Z</time></trkpt><trkpt lat="45.8644202" lon="9.2729225"><ele>498.0</ele><time>2026-04-06T13:39:57.766Z</time></trkpt><trkpt lat="45.86447" lon="9.2727507"><ele>509.0</ele><time>2026-04-06T13:39:58.766Z</time></trkpt><trkpt lat="45.8645228" lon="9.2725784"><ele>509.0</ele><time>2026-04-06T13:39:59.765Z</time></trkpt><trkpt lat="45.8645773" lon="9.2723984"><ele>509.0</ele><time>2026-04-06T13:40:00.765Z</time></trkpt><trkpt lat="45.8646312" lon="9.2722128"><ele>509.0</ele><time>2026-04-06T13:40:01.766Z</time></trkpt><trkpt lat="45.8646894" lon="9.2720208"><ele>509.0</ele><time>2026-04-06T13:40:02.766Z</time></trkpt><trkpt lat="45.8647515" lon="9.2718187"><ele>504.66666666666663</ele><time>2026-04-06T13:40:03.766Z</time></trkpt><trkpt lat="45.8648106" lon="9.271615"><ele>500.33333333333337</ele><time>2026-04-06T13:40:04.766Z</time></trkpt><trkpt lat="45.8648713" lon="9.2714191"><ele>496.0</ele><time>2026-04-06T13:40:05.766Z</time></trkpt><trkpt lat="45.8649323" lon="9.2712269"><ele>493.25</ele><time>2026-04-06T13:40:06.766Z</time></trkpt><trkpt lat="45.8649934" lon="9.2710369"><ele>490.5</ele><time>2026-04-06T13:40:07.765Z</time></trkpt><trkpt lat="45.8650509" lon="9.2708548"><ele>487.75</ele><time>2026-04-06T13:40:08.765Z</time></trkpt><trkpt lat="45.8651096" lon="9.2706651"><ele>485.0</ele><time>2026-04-06T13:40:09.764Z</time></trkpt><trkpt lat="45.8651673" lon="9.2704735"><ele>491.5</ele><time>2026-04-06T13:40:10.764Z</time></trkpt><trkpt lat="45.8652136" lon="9.2703205"><ele>498.0</ele><time>2026-04-06T13:40:11.765Z</time></trkpt><trkpt lat="45.8652625" lon="9.2701581"><ele>504.5</ele><time>2026-04-06T13:40:12.765Z</time></trkpt><trkpt lat="45.8653158" lon="9.2700149"><ele>511.0</ele><time>2026-04-06T13:40:13.765Z</time></trkpt><trkpt lat="45.865364" lon="9.2698562"><ele>506.5</ele><time>2026-04-06T13:40:14.765Z</time></trkpt><trkpt lat="45.8654114" lon="9.2696997"><ele>502.0</ele><time>2026-04-06T13:40:15.764Z</time></trkpt><trkpt lat="45.8654663" lon="9.2695325"><ele>497.5</ele><time>2026-04-06T13:40:16.765Z</time></trkpt><trkpt lat="45.8655172" lon="9.269359"><ele>493.0</ele><time>2026-04-06T13:40:17.764Z</time></trkpt><trkpt lat="45.8655692" lon="9.2691884"><ele>493.0</ele><time>2026-04-06T13:40:18.765Z</time></trkpt><trkpt lat="45.8656205" lon="9.2690205"><ele>493.0</ele><time>2026-04-06T13:40:19.765Z</time></trkpt><trkpt lat="45.8656662" lon="9.2688639"><ele>493.0</ele><time>2026-04-06T13:40:20.765Z</time></trkpt><trkpt lat="45.8657116" lon="9.2687158"><ele>493.0</ele><time>2026-04-06T13:40:21.764Z</time></trkpt><trkpt lat="45.8657497" lon="9.268579"><ele>493.0</ele><time>2026-04-06T13:40:22.764Z</time></trkpt><trkpt lat="45.8657902" lon="9.268452"><ele>492.99999999999994</ele><time>2026-04-06T13:40:23.764Z</time></trkpt><trkpt lat="45.8658338" lon="9.268322"><ele>492.99999999999994</ele><time>2026-04-06T13:40:24.765Z</time></trkpt><trkpt lat="45.8658826" lon="9.2681875"><ele>493.0</ele><time>2026-04-06T13:40:25.765Z</time></trkpt><trkpt lat="45.8659395" lon="9.2680486"><ele>493.0</ele><time>2026-04-06T13:40:26.765Z</time></trkpt><trkpt lat="45.8660023" lon="9.2679125"><ele>493.0</ele><time>2026-04-06T13:40:27.764Z</time></trkpt><trkpt lat="45.8660701" lon="9.2677783"><ele>493.0</ele><time>2026-04-06T13:40:28.764Z</time></trkpt><trkpt lat="45.8661463" lon="9.2676327"><ele>493.0</ele><time>2026-04-06T13:40:29.764Z</time></trkpt><trkpt lat="45.8662228" lon="9.2674831"><ele>493.0</ele><time>2026-04-06T13:40:30.764Z</time></trkpt><trkpt lat="45.8663035" lon="9.2673354"><ele>491.25</ele><time>2026-04-06T13:40:31.764Z</time></trkpt><trkpt lat="45.8663803" lon="9.2671894"><ele>489.5</ele><time>2026-04-06T13:40:32.765Z</time></trkpt><trkpt lat="45.8664617" lon="9.2670428"><ele>487.75</ele><time>2026-04-06T13:40:33.764Z</time></trkpt><trkpt lat="45.866546" lon="9.2668927"><ele>486.0</ele><time>2026-04-06T13:40:34.764Z</time></trkpt><trkpt lat="45.8666249" lon="9.2667423"><ele>486.0</ele><time>2026-04-06T13:40:35.764Z</time></trkpt><trkpt lat="45.8667062" lon="9.2665817"><ele>486.0</ele><time>2026-04-06T13:40:36.765Z</time></trkpt><trkpt lat="45.866787" lon="9.2664319"><ele>486.0</ele><time>2026-04-06T13:40:37.765Z</time></trkpt><trkpt lat="45.8668641" lon="9.266293"><ele>486.0</ele><time>2026-04-06T13:40:38.765Z</time></trkpt><trkpt lat="45.8669436" lon="9.2661588"><ele>486.5</ele><time>2026-04-06T13:40:39.765Z</time></trkpt><trkpt lat="45.867031" lon="9.2660339"><ele>487.0</ele><time>2026-04-06T13:40:40.765Z</time></trkpt><trkpt lat="45.8671284" lon="9.2659142"><ele>487.5</ele><time>2026-04-06T13:40:41.764Z</time></trkpt><trkpt lat="45.8672295" lon="9.26581"><ele>488.0</ele><time>2026-04-06T13:40:42.765Z</time></trkpt><trkpt lat="45.8673377" lon="9.2657275"><ele>488.0</ele><time>2026-04-06T13:40:43.764Z</time></trkpt><trkpt lat="45.8674535" lon="9.2656578"><ele>488.0</ele><time>2026-04-06T13:40:44.764Z</time></trkpt><trkpt lat="45.8675739" lon="9.265599"><ele>488.0</ele><time>2026-04-06T13:40:45.765Z</time></trkpt><trkpt lat="45.8676955" lon="9.2655535"><ele>488.0</ele><time>2026-04-06T13:40:46.765Z</time></trkpt><trkpt lat="45.8678197" lon="9.2655094"><ele>486.5</ele><time>2026-04-06T13:40:47.765Z</time></trkpt><trkpt lat="45.8679472" lon="9.2654604"><ele>485.0</ele><time>2026-04-06T13:40:48.764Z</time></trkpt><trkpt lat="45.8680735" lon="9.2654189"><ele>483.5</ele><time>2026-04-06T13:40:49.764Z</time></trkpt><trkpt lat="45.8681974" lon="9.2653779"><ele>482.0</ele><time>2026-04-06T13:40:50.765Z</time></trkpt><trkpt lat="45.8683133" lon="9.2653394"><ele>482.0</ele><time>2026-04-06T13:40:51.765Z</time></trkpt><trkpt lat="45.8684236" lon="9.2652982"><ele>482.0</ele><time>2026-04-06T13:40:52.765Z</time></trkpt><trkpt lat="45.8685311" lon="9.2652528"><ele>482.0</ele><time>2026-04-06T13:40:53.764Z</time></trkpt><trkpt lat="45.8686391" lon="9.2652035"><ele>482.0</ele><time>2026-04-06T13:40:54.765Z</time></trkpt><trkpt lat="45.8687421" lon="9.2651381"><ele>483.5</ele><time>2026-04-06T13:40:55.765Z</time></trkpt><trkpt lat="45.8688322" lon="9.2650362"><ele>485.0</ele><time>2026-04-06T13:40:56.765Z</time></trkpt><trkpt lat="45.8689139" lon="9.2648883"><ele>486.5</ele><time>2026-04-06T13:40:57.763Z</time></trkpt><trkpt lat="45.8689924" lon="9.2647262"><ele>488.0</ele><time>2026-04-06T13:40:58.764Z</time></trkpt><trkpt lat="45.8690724" lon="9.2645856"><ele>488.0</ele><time>2026-04-06T13:40:59.764Z</time></trkpt><trkpt lat="45.8691526" lon="9.2644495"><ele>488.0</ele><time>2026-04-06T13:41:00.765Z</time></trkpt><trkpt lat="45.869233" lon="9.2643159"><ele>488.0</ele><time>2026-04-06T13:41:01.765Z</time></trkpt><trkpt lat="45.8693134" lon="9.2641915"><ele>488.0</ele><time>2026-04-06T13:41:02.765Z</time></trkpt><trkpt lat="45.8693883" lon="9.2640653"><ele>491.75</ele><time>2026-04-06T13:41:03.764Z</time></trkpt><trkpt lat="45.8694512" lon="9.2639286"><ele>495.5</ele><time>2026-04-06T13:41:04.764Z</time></trkpt><trkpt lat="45.8694919" lon="9.263766"><ele>499.25</ele><time>2026-04-06T13:41:05.764Z</time></trkpt><trkpt lat="45.8695146" lon="9.263601"><ele>503.0</ele><time>2026-04-06T13:41:06.765Z</time></trkpt><trkpt lat="45.8695284" lon="9.2634354"><ele>503.0</ele><time>2026-04-06T13:41:07.764Z</time></trkpt><trkpt lat="45.869544" lon="9.2632765"><ele>502.99999999999994</ele><time>2026-04-06T13:41:08.764Z</time></trkpt><trkpt lat="45.8695731" lon="9.263136"><ele>502.99999999999994</ele><time>2026-04-06T13:41:09.764Z</time></trkpt><trkpt lat="45.8696177" lon="9.2630076"><ele>503.0</ele><time>2026-04-06T13:41:10.764Z</time></trkpt><trkpt lat="45.8696853" lon="9.262899"><ele>503.0</ele><time>2026-04-06T13:41:11.765Z</time></trkpt><trkpt lat="45.86977" lon="9.2628053"><ele>499.75</ele><time>2026-04-06T13:41:12.764Z</time></trkpt><trkpt lat="45.8698777" lon="9.2627436"><ele>496.5</ele><time>2026-04-06T13:41:13.764Z</time></trkpt><trkpt lat="45.8699916" lon="9.2627204"><ele>493.25</ele><time>2026-04-06T13:41:14.764Z</time></trkpt><trkpt lat="45.8701086" lon="9.2627251"><ele>490.0</ele><time>2026-04-06T13:41:15.765Z</time></trkpt><trkpt lat="45.8702337" lon="9.2627475"><ele>490.0</ele><time>2026-04-06T13:41:16.765Z</time></trkpt><trkpt lat="45.8703624" lon="9.2627732"><ele>490.0</ele><time>2026-04-06T13:41:17.764Z</time></trkpt><trkpt lat="45.8704892" lon="9.2627983"><ele>490.0</ele><time>2026-04-06T13:41:18.764Z</time></trkpt><trkpt lat="45.8706154" lon="9.2628176"><ele>490.0</ele><time>2026-04-06T13:41:19.764Z</time></trkpt><trkpt lat="45.8707378" lon="9.2628219"><ele>490.0</ele><time>2026-04-06T13:41:20.765Z</time></trkpt><trkpt lat="45.8708481" lon="9.262803"><ele>490.0</ele><time>2026-04-06T13:41:21.764Z</time></trkpt><trkpt lat="45.8709531" lon="9.2627606"><ele>490.0</ele><time>2026-04-06T13:41:22.764Z</time></trkpt><trkpt lat="45.8710622" lon="9.2626907"><ele>490.0</ele><time>2026-04-06T13:41:23.764Z</time></trkpt><trkpt lat="45.8711669" lon="9.2626063"><ele>490.0</ele><time>2026-04-06T13:41:24.764Z</time></trkpt><trkpt lat="45.8712752" lon="9.2625153"><ele>490.0</ele><time>2026-04-06T13:41:25.764Z</time></trkpt><trkpt lat="45.8713862" lon="9.2624164"><ele>490.0</ele><time>2026-04-06T13:41:26.765Z</time></trkpt><trkpt lat="45.8714944" lon="9.2623156"><ele>490.0</ele><time>2026-04-06T13:41:27.765Z</time></trkpt><trkpt lat="45.8715959" lon="9.262218"><ele>490.0</ele><time>2026-04-06T13:41:28.765Z</time></trkpt><trkpt lat="45.8716958" lon="9.2621156"><ele>490.0</ele><time>2026-04-06T13:41:29.764Z</time></trkpt><trkpt lat="45.8717957" lon="9.2620196"><ele>490.0</ele><time>2026-04-06T13:41:30.764Z</time></trkpt><trkpt lat="45.8718969" lon="9.2619195"><ele>490.0</ele><time>2026-04-06T13:41:31.764Z</time></trkpt><trkpt lat="45.8719939" lon="9.2618223"><ele>490.4</ele><time>2026-04-06T13:41:32.764Z</time></trkpt><trkpt lat="45.8720869" lon="9.2617261"><ele>490.8</ele><time>2026-04-06T13:41:33.764Z</time></trkpt><trkpt lat="45.8721746" lon="9.2616367"><ele>491.20000000000005</ele><time>2026-04-06T13:41:34.763Z</time></trkpt><trkpt lat="45.8722606" lon="9.2615453"><ele>491.6</ele><time>2026-04-06T13:41:35.764Z</time></trkpt><trkpt lat="45.8723501" lon="9.2614594"><ele>492.0</ele><time>2026-04-06T13:41:36.764Z</time></trkpt><trkpt lat="45.872444" lon="9.2613781"><ele>492.0</ele><time>2026-04-06T13:41:37.765Z</time></trkpt><trkpt lat="45.8725398" lon="9.2612955"><ele>492.00000000000006</ele><time>2026-04-06T13:41:38.764Z</time></trkpt><trkpt lat="45.8726356" lon="9.2612145"><ele>492.00000000000006</ele><time>2026-04-06T13:41:39.765Z</time></trkpt><trkpt lat="45.8727355" lon="9.2611336"><ele>492.0</ele><time>2026-04-06T13:41:40.764Z</time></trkpt><trkpt lat="45.8728114" lon="9.2610638"><ele>492.0</ele><time>2026-04-06T13:41:41.765Z</time></trkpt><trkpt lat="45.8728839" lon="9.2609846"><ele>494.0</ele><time>2026-04-06T13:41:42.765Z</time></trkpt><trkpt lat="45.8729134" lon="9.2608858"><ele>496.00000000000006</ele><time>2026-04-06T13:41:43.764Z</time></trkpt><trkpt lat="45.8729364" lon="9.2607648"><ele>498.00000000000006</ele><time>2026-04-06T13:41:44.764Z</time></trkpt><trkpt lat="45.8729626" lon="9.260629"><ele>500.0</ele><time>2026-04-06T13:41:45.764Z</time></trkpt><trkpt lat="45.8730115" lon="9.2604954"><ele>502.0</ele><time>2026-04-06T13:41:46.765Z</time></trkpt><trkpt lat="45.873039" lon="9.2603578"><ele>504.8</ele><time>2026-04-06T13:41:47.764Z</time></trkpt><trkpt lat="45.8730388" lon="9.2602251"><ele>507.6</ele><time>2026-04-06T13:41:48.764Z</time></trkpt><trkpt lat="45.8730353" lon="9.2600934"><ele>510.40000000000003</ele><time>2026-04-06T13:41:49.765Z</time></trkpt><trkpt lat="45.8729526" lon="9.2599994"><ele>513.2</ele><time>2026-04-06T13:41:50.765Z</time></trkpt><trkpt lat="45.8728817" lon="9.2599198"><ele>516.0</ele><time>2026-04-06T13:41:51.765Z</time></trkpt><trkpt lat="45.8727996" lon="9.2598719"><ele>516.0</ele><time>2026-04-06T13:41:52.765Z</time></trkpt><trkpt lat="45.872704" lon="9.2598339"><ele>516.0</ele><time>2026-04-06T13:41:53.765Z</time></trkpt><trkpt lat="45.8726042" lon="9.2597977"><ele>516.0</ele><time>2026-04-06T13:41:54.765Z</time></trkpt><trkpt lat="45.8724928" lon="9.2597727"><ele>516.0</ele><time>2026-04-06T13:41:55.765Z</time></trkpt><trkpt lat="45.8723792" lon="9.2597533"><ele>516.0</ele><time>2026-04-06T13:41:56.765Z</time></trkpt><trkpt lat="45.8722548" lon="9.2597781"><ele>511.66666666666663</ele><time>2026-04-06T13:41:57.764Z</time></trkpt><trkpt lat="45.8721201" lon="9.2598614"><ele>507.3333333333333</ele><time>2026-04-06T13:41:58.764Z</time></trkpt><trkpt lat="45.871973" lon="9.2599805"><ele>503.0</ele><time>2026-04-06T13:41:59.765Z</time></trkpt><trkpt lat="45.8717917" lon="9.2601076"><ele>511.3333333333333</ele><time>2026-04-06T13:42:00.765Z</time></trkpt><trkpt lat="45.8715924" lon="9.2602432"><ele>519.6666666666666</ele><time>2026-04-06T13:42:01.765Z</time></trkpt><trkpt lat="45.8713957" lon="9.2603947"><ele>528.0</ele><time>2026-04-06T13:42:02.765Z</time></trkpt><trkpt lat="45.871256" lon="9.260552"><ele>527.75</ele><time>2026-04-06T13:42:03.765Z</time></trkpt><trkpt lat="45.8711077" lon="9.2606972"><ele>527.5</ele><time>2026-04-06T13:42:04.765Z</time></trkpt><trkpt lat="45.8710043" lon="9.2608349"><ele>527.25</ele><time>2026-04-06T13:42:05.764Z</time></trkpt><trkpt lat="45.8708961" lon="9.2609329"><ele>527.0</ele><time>2026-04-06T13:42:06.764Z</time></trkpt><trkpt lat="45.8707826" lon="9.2609973"><ele>527.0</ele><time>2026-04-06T13:42:07.764Z</time></trkpt><trkpt lat="45.8706668" lon="9.2610172"><ele>527.0</ele><time>2026-04-06T13:42:08.764Z</time></trkpt><trkpt lat="45.8705379" lon="9.2609991"><ele>527.0</ele><time>2026-04-06T13:42:09.765Z</time></trkpt><trkpt lat="45.870397" lon="9.2609697"><ele>527.0</ele><time>2026-04-06T13:42:10.765Z</time></trkpt><trkpt lat="45.8702428" lon="9.2609242"><ele>526.75</ele><time>2026-04-06T13:42:11.765Z</time></trkpt><trkpt lat="45.8701043" lon="9.2608969"><ele>526.5</ele><time>2026-04-06T13:42:12.765Z</time></trkpt><trkpt lat="45.8699785" lon="9.2608478"><ele>526.25</ele><time>2026-04-06T13:42:13.765Z</time></trkpt><trkpt lat="45.869857" lon="9.2607809"><ele>526.0</ele><time>2026-04-06T13:42:14.764Z</time></trkpt><trkpt lat="45.8697404" lon="9.2606786"><ele>533.3333333333334</ele><time>2026-04-06T13:42:15.764Z</time></trkpt><trkpt lat="45.8696194" lon="9.260535"><ele>540.6666666666666</ele><time>2026-04-06T13:42:16.764Z</time></trkpt><trkpt lat="45.8694927" lon="9.2603821"><ele>548.0</ele><time>2026-04-06T13:42:17.765Z</time></trkpt><trkpt lat="45.8693728" lon="9.2602438"><ele>542.3333333333333</ele><time>2026-04-06T13:42:18.764Z</time></trkpt><trkpt lat="45.8692424" lon="9.2600692"><ele>536.6666666666666</ele><time>2026-04-06T13:42:19.765Z</time></trkpt><trkpt lat="45.8691283" lon="9.2599302"><ele>531.0</ele><time>2026-04-06T13:42:20.765Z</time></trkpt><trkpt lat="45.8690304" lon="9.2598081"><ele>534.25</ele><time>2026-04-06T13:42:21.764Z</time></trkpt><trkpt lat="45.868943" lon="9.259679"><ele>537.5</ele><time>2026-04-06T13:42:22.765Z</time></trkpt><trkpt lat="45.8688761" lon="9.2595278"><ele>540.75</ele><time>2026-04-06T13:42:23.765Z</time></trkpt><trkpt lat="45.8688315" lon="9.2593526"><ele>544.0</ele><time>2026-04-06T13:42:24.764Z</time></trkpt><trkpt lat="45.868821" lon="9.2591661"><ele>544.0</ele><time>2026-04-06T13:42:25.764Z</time></trkpt><trkpt lat="45.8688399" lon="9.2589864"><ele>544.0</ele><time>2026-04-06T13:42:26.765Z</time></trkpt><trkpt lat="45.8688921" lon="9.2588168"><ele>544.0</ele><time>2026-04-06T13:42:27.764Z</time></trkpt><trkpt lat="45.8689712" lon="9.2586482"><ele>544.0</ele><time>2026-04-06T13:42:28.764Z</time></trkpt><trkpt lat="45.8690669" lon="9.2584601"><ele>543.0</ele><time>2026-04-06T13:42:29.765Z</time></trkpt><trkpt lat="45.8691686" lon="9.2582679"><ele>542.0</ele><time>2026-04-06T13:42:30.765Z</time></trkpt><trkpt lat="45.869261" lon="9.2580955"><ele>541.0</ele><time>2026-04-06T13:42:31.764Z</time></trkpt><trkpt lat="45.8693432" lon="9.257923"><ele>547.0</ele><time>2026-04-06T13:42:32.764Z</time></trkpt><trkpt lat="45.8694065" lon="9.2577401"><ele>553.0</ele><time>2026-04-06T13:42:33.764Z</time></trkpt><trkpt lat="45.8694541" lon="9.2575339"><ele>559.0</ele><time>2026-04-06T13:42:34.765Z</time></trkpt><trkpt lat="45.8695058" lon="9.2573369"><ele>565.0</ele><time>2026-04-06T13:42:35.764Z</time></trkpt><trkpt lat="45.8695833" lon="9.257152"><ele>565.6666666666667</ele><time>2026-04-06T13:42:36.764Z</time></trkpt><trkpt lat="45.8696552" lon="9.256964"><ele>566.3333333333334</ele><time>2026-04-06T13:42:37.764Z</time></trkpt><trkpt lat="45.8697082" lon="9.2567559"><ele>567.0</ele><time>2026-04-06T13:42:38.763Z</time></trkpt><trkpt lat="45.869747" lon="9.2565454"><ele>567.75</ele><time>2026-04-06T13:42:39.764Z</time></trkpt><trkpt lat="45.8697666" lon="9.2563257"><ele>568.5</ele><time>2026-04-06T13:42:40.763Z</time></trkpt><trkpt lat="45.8697762" lon="9.2561285"><ele>569.25</ele><time>2026-04-06T13:42:41.763Z</time></trkpt><trkpt lat="45.8697879" lon="9.255956"><ele>570.0</ele><time>2026-04-06T13:42:42.763Z</time></trkpt><trkpt lat="45.8697973" lon="9.255804"><ele>570.0</ele><time>2026-04-06T13:42:43.763Z</time></trkpt><trkpt lat="45.8698065" lon="9.2556754"><ele>570.0</ele><time>2026-04-06T13:42:44.763Z</time></trkpt><trkpt lat="45.8698094" lon="9.2555684"><ele>570.0</ele><time>2026-04-06T13:42:45.763Z</time></trkpt><trkpt lat="45.8698852" lon="9.2554593"><ele>570.0</ele><time>2026-04-06T13:42:47.764Z</time></trkpt><trkpt lat="45.8699516" lon="9.2555557"><ele>570.0</ele><time>2026-04-06T13:42:49.763Z</time></trkpt><trkpt lat="45.8699391" lon="9.2556503"><ele>570.0</ele><time>2026-04-06T13:42:50.764Z</time></trkpt><trkpt lat="45.8699079" lon="9.2557797"><ele>570.0</ele><time>2026-04-06T13:42:51.764Z</time></trkpt><trkpt lat="45.8698855" lon="9.2559473"><ele>570.0</ele><time>2026-04-06T13:42:52.764Z</time></trkpt><trkpt lat="45.8698764" lon="9.2561138"><ele>570.0</ele><time>2026-04-06T13:42:53.763Z</time></trkpt><trkpt lat="45.8698809" lon="9.2562964"><ele>570.0</ele><time>2026-04-06T13:42:54.763Z</time></trkpt><trkpt lat="45.8699056" lon="9.2564808"><ele>569.25</ele><time>2026-04-06T13:42:55.763Z</time></trkpt><trkpt lat="45.8699654" lon="9.2566734"><ele>568.5</ele><time>2026-04-06T13:42:56.763Z</time></trkpt><trkpt lat="45.870042" lon="9.2568649"><ele>567.75</ele><time>2026-04-06T13:42:57.763Z</time></trkpt><trkpt lat="45.8701145" lon="9.2570324"><ele>567.0</ele><time>2026-04-06T13:42:58.763Z</time></trkpt><trkpt lat="45.8701741" lon="9.2571925"><ele>569.3333333333334</ele><time>2026-04-06T13:42:59.763Z</time></trkpt><trkpt lat="45.8702139" lon="9.257341"><ele>571.6666666666666</ele><time>2026-04-06T13:43:00.763Z</time></trkpt><trkpt lat="45.8702397" lon="9.2574832"><ele>574.0</ele><time>2026-04-06T13:43:01.764Z</time></trkpt><trkpt lat="45.870258" lon="9.2576063"><ele>576.3333333333333</ele><time>2026-04-06T13:43:02.764Z</time></trkpt><trkpt lat="45.8702833" lon="9.2577095"><ele>578.6666666666666</ele><time>2026-04-06T13:43:03.763Z</time></trkpt><trkpt lat="45.8703338" lon="9.2577642"><ele>581.0</ele><time>2026-04-06T13:43:04.763Z</time></trkpt><trkpt lat="45.8704428" lon="9.2576788"><ele>581.0</ele><time>2026-04-06T13:43:06.763Z</time></trkpt><trkpt lat="45.8704451" lon="9.2575678"><ele>581.0</ele><time>2026-04-06T13:43:07.764Z</time></trkpt><trkpt lat="45.8704163" lon="9.2574327"><ele>581.0</ele><time>2026-04-06T13:43:08.764Z</time></trkpt><trkpt lat="45.8703698" lon="9.2572522"><ele>581.0</ele><time>2026-04-06T13:43:09.764Z</time></trkpt><trkpt lat="45.870326" lon="9.257047"><ele>582.6</ele><time>2026-04-06T13:43:10.764Z</time></trkpt><trkpt lat="45.8702898" lon="9.2568732"><ele>584.2</ele><time>2026-04-06T13:43:11.763Z</time></trkpt><trkpt lat="45.8702543" lon="9.256722"><ele>585.8</ele><time>2026-04-06T13:43:12.764Z</time></trkpt><trkpt lat="45.8702193" lon="9.2565979"><ele>587.4</ele><time>2026-04-06T13:43:13.764Z</time></trkpt><trkpt lat="45.87019" lon="9.256506"><ele>589.0</ele><time>2026-04-06T13:43:14.763Z</time></trkpt><trkpt lat="45.8701659" lon="9.2563623"><ele>589.0</ele><time>2026-04-06T13:43:16.763Z</time></trkpt><trkpt lat="45.8702449" lon="9.2562962"><ele>589.0</ele><time>2026-04-06T13:43:18.763Z</time></trkpt><trkpt lat="45.8703141" lon="9.2564382"><ele>589.0</ele><time>2026-04-06T13:43:20.763Z</time></trkpt><trkpt lat="45.8703548" lon="9.256569"><ele>589.0</ele><time>2026-04-06T13:43:21.763Z</time></trkpt><trkpt lat="45.8704119" lon="9.2567153"><ele>589.0</ele><time>2026-04-06T13:43:22.764Z</time></trkpt><trkpt lat="45.8704909" lon="9.2568519"><ele>589.0</ele><time>2026-04-06T13:43:23.763Z</time></trkpt><trkpt lat="45.8706096" lon="9.256978"><ele>589.0</ele><time>2026-04-06T13:43:24.763Z</time></trkpt><trkpt lat="45.870755" lon="9.2570961"><ele>589.0</ele><time>2026-04-06T13:43:25.763Z</time></trkpt><trkpt lat="45.8709084" lon="9.2572307"><ele>591.0</ele><time>2026-04-06T13:43:26.763Z</time></trkpt><trkpt lat="45.871047" lon="9.2573563"><ele>593.0</ele><time>2026-04-06T13:43:27.763Z</time></trkpt><trkpt lat="45.8711897" lon="9.2574831"><ele>595.0</ele><time>2026-04-06T13:43:28.763Z</time></trkpt><trkpt lat="45.8713161" lon="9.2575946"><ele>595.0</ele><time>2026-04-06T13:43:29.764Z</time></trkpt><trkpt lat="45.8714292" lon="9.2576916"><ele>595.0</ele><time>2026-04-06T13:43:30.763Z</time></trkpt><trkpt lat="45.8715475" lon="9.2577572"><ele>595.0</ele><time>2026-04-06T13:43:31.763Z</time></trkpt><trkpt lat="45.8716851" lon="9.2577698"><ele>595.0</ele><time>2026-04-06T13:43:32.763Z</time></trkpt><trkpt lat="45.8718454" lon="9.2577309"><ele>595.75</ele><time>2026-04-06T13:43:33.763Z</time></trkpt><trkpt lat="45.8720128" lon="9.2576716"><ele>596.5</ele><time>2026-04-06T13:43:34.764Z</time></trkpt><trkpt lat="45.8721529" lon="9.2576212"><ele>597.25</ele><time>2026-04-06T13:43:35.763Z</time></trkpt><trkpt lat="45.8722604" lon="9.2575846"><ele>598.0</ele><time>2026-04-06T13:43:36.764Z</time></trkpt><trkpt lat="45.8723326" lon="9.2575504"><ele>598.0</ele><time>2026-04-06T13:43:37.763Z</time></trkpt><trkpt lat="45.8723808" lon="9.2574864"><ele>598.0</ele><time>2026-04-06T13:43:38.764Z</time></trkpt><trkpt lat="45.872403" lon="9.2573934"><ele>598.0</ele><time>2026-04-06T13:43:39.764Z</time></trkpt><trkpt lat="45.8723503" lon="9.2573116"><ele>598.0</ele><time>2026-04-06T13:43:40.764Z</time></trkpt><trkpt lat="45.8722868" lon="9.2572627"><ele>598.0</ele><time>2026-04-06T13:43:41.764Z</time></trkpt><trkpt lat="45.8721729" lon="9.2572851"><ele>598.0</ele><time>2026-04-06T13:43:42.763Z</time></trkpt><trkpt lat="45.8720604" lon="9.2572859"><ele>599.8</ele><time>2026-04-06T13:43:43.763Z</time></trkpt><trkpt lat="45.8719704" lon="9.2572551"><ele>601.5999999999999</ele><time>2026-04-06T13:43:44.763Z</time></trkpt><trkpt lat="45.8718883" lon="9.2571939"><ele>603.4000000000001</ele><time>2026-04-06T13:43:45.763Z</time></trkpt><trkpt lat="45.871816" lon="9.2570939"><ele>605.2</ele><time>2026-04-06T13:43:46.763Z</time></trkpt><trkpt lat="45.8717582" lon="9.2569591"><ele>607.0</ele><time>2026-04-06T13:43:47.763Z</time></trkpt><trkpt lat="45.8717012" lon="9.256781"><ele>607.0</ele><time>2026-04-06T13:43:48.764Z</time></trkpt><trkpt lat="45.8716503" lon="9.2566095"><ele>607.0</ele><time>2026-04-06T13:43:49.764Z</time></trkpt><trkpt lat="45.8716009" lon="9.2564411"><ele>607.0</ele><time>2026-04-06T13:43:50.764Z</time></trkpt><trkpt lat="45.8715489" lon="9.2562596"><ele>607.0</ele><time>2026-04-06T13:43:51.764Z</time></trkpt><trkpt lat="45.8714972" lon="9.2560804"><ele>609.2</ele><time>2026-04-06T13:43:52.764Z</time></trkpt><trkpt lat="45.8714509" lon="9.2559216"><ele>611.4000000000001</ele><time>2026-04-06T13:43:53.764Z</time></trkpt><trkpt lat="45.8714127" lon="9.2557786"><ele>613.5999999999999</ele><time>2026-04-06T13:43:54.763Z</time></trkpt><trkpt lat="45.8713897" lon="9.2556371"><ele>615.8</ele><time>2026-04-06T13:43:55.763Z</time></trkpt><trkpt lat="45.8713865" lon="9.2554902"><ele>618.0</ele><time>2026-04-06T13:43:56.764Z</time></trkpt><trkpt lat="45.8714023" lon="9.2553399"><ele>618.8</ele><time>2026-04-06T13:43:57.764Z</time></trkpt><trkpt lat="45.8714203" lon="9.2551854"><ele>619.5999999999999</ele><time>2026-04-06T13:43:58.763Z</time></trkpt><trkpt lat="45.8714384" lon="9.2550318"><ele>620.4000000000001</ele><time>2026-04-06T13:43:59.763Z</time></trkpt><trkpt lat="45.8714452" lon="9.2548744"><ele>621.2</ele><time>2026-04-06T13:44:00.764Z</time></trkpt><trkpt lat="45.8714375" lon="9.2547166"><ele>622.0</ele><time>2026-04-06T13:44:01.764Z</time></trkpt><trkpt lat="45.8714018" lon="9.2545582"><ele>623.4</ele><time>2026-04-06T13:44:02.764Z</time></trkpt><trkpt lat="45.871357" lon="9.2544029"><ele>624.8000000000001</ele><time>2026-04-06T13:44:03.764Z</time></trkpt><trkpt lat="45.8713096" lon="9.2542522"><ele>626.2</ele><time>2026-04-06T13:44:04.764Z</time></trkpt><trkpt lat="45.8712677" lon="9.2541243"><ele>627.6</ele><time>2026-04-06T13:44:05.764Z</time></trkpt><trkpt lat="45.8712358" lon="9.2540201"><ele>629.0</ele><time>2026-04-06T13:44:06.763Z</time></trkpt><trkpt lat="45.8712279" lon="9.2539233"><ele>629.0</ele><time>2026-04-06T13:44:07.763Z</time></trkpt><trkpt lat="45.8713068" lon="9.2538311"><ele>629.0</ele><time>2026-04-06T13:44:09.763Z</time></trkpt><trkpt lat="45.8713658" lon="9.2538721"><ele>629.0</ele><time>2026-04-06T13:44:10.763Z</time></trkpt><trkpt lat="45.8714362" lon="9.2539508"><ele>629.0</ele><time>2026-04-06T13:44:11.763Z</time></trkpt><trkpt lat="45.8715179" lon="9.2540564"><ele>629.0</ele><time>2026-04-06T13:44:12.763Z</time></trkpt><trkpt lat="45.8715993" lon="9.2541581"><ele>629.0</ele><time>2026-04-06T13:44:13.764Z</time></trkpt><trkpt lat="45.8716839" lon="9.2542591"><ele>629.0</ele><time>2026-04-06T13:44:14.764Z</time></trkpt><trkpt lat="45.871777" lon="9.2543662"><ele>629.0</ele><time>2026-04-06T13:44:15.763Z</time></trkpt><trkpt lat="45.8718799" lon="9.2544713"><ele>629.0</ele><time>2026-04-06T13:44:16.764Z</time></trkpt><trkpt lat="45.8719803" lon="9.254586"><ele>633.25</ele><time>2026-04-06T13:44:17.764Z</time></trkpt><trkpt lat="45.8720756" lon="9.2547198"><ele>637.5</ele><time>2026-04-06T13:44:18.764Z</time></trkpt><trkpt lat="45.8721588" lon="9.2548928"><ele>641.75</ele><time>2026-04-06T13:44:19.763Z</time></trkpt><trkpt lat="45.8722282" lon="9.2550761"><ele>646.0</ele><time>2026-04-06T13:44:20.764Z</time></trkpt><trkpt lat="45.8722873" lon="9.255249"><ele>646.0</ele><time>2026-04-06T13:44:21.763Z</time></trkpt><trkpt lat="45.8723498" lon="9.2554315"><ele>646.0</ele><time>2026-04-06T13:44:22.763Z</time></trkpt><trkpt lat="45.8724099" lon="9.2556071"><ele>646.0</ele><time>2026-04-06T13:44:23.763Z</time></trkpt><trkpt lat="45.8724649" lon="9.2557603"><ele>646.0</ele><time>2026-04-06T13:44:24.763Z</time></trkpt><trkpt lat="45.8725284" lon="9.2558881"><ele>646.0</ele><time>2026-04-06T13:44:25.763Z</time></trkpt><trkpt lat="45.8726191" lon="9.2559916"><ele>646.0</ele><time>2026-04-06T13:44:26.764Z</time></trkpt><trkpt lat="45.87273" lon="9.256054"><ele>646.0</ele><time>2026-04-06T13:44:27.764Z</time></trkpt><trkpt lat="45.8728626" lon="9.2560592"><ele>646.0</ele><time>2026-04-06T13:44:28.764Z</time></trkpt><trkpt lat="45.8730081" lon="9.2560233"><ele>646.0</ele><time>2026-04-06T13:44:29.764Z</time></trkpt><trkpt lat="45.8731704" lon="9.2559569"><ele>646.0</ele><time>2026-04-06T13:44:30.763Z</time></trkpt><trkpt lat="45.8733584" lon="9.2558903"><ele>646.0</ele><time>2026-04-06T13:44:31.764Z</time></trkpt><trkpt lat="45.8735657" lon="9.2558036"><ele>648.0</ele><time>2026-04-06T13:44:32.763Z</time></trkpt><trkpt lat="45.8737681" lon="9.2557132"><ele>650.0</ele><time>2026-04-06T13:44:33.763Z</time></trkpt><trkpt lat="45.873942" lon="9.2556541"><ele>652.0</ele><time>2026-04-06T13:44:34.764Z</time></trkpt><trkpt lat="45.8740978" lon="9.2555987"><ele>655.0</ele><time>2026-04-06T13:44:35.764Z</time></trkpt><trkpt lat="45.8742341" lon="9.2555437"><ele>658.0</ele><time>2026-04-06T13:44:36.763Z</time></trkpt><trkpt lat="45.8743479" lon="9.2554973"><ele>661.0</ele><time>2026-04-06T13:44:37.763Z</time></trkpt><trkpt lat="45.8744503" lon="9.2554616"><ele>664.0</ele><time>2026-04-06T13:44:38.763Z</time></trkpt><trkpt lat="45.8745362" lon="9.2554317"><ele>664.0</ele><time>2026-04-06T13:44:39.763Z</time></trkpt><trkpt lat="45.8745995" lon="9.2553728"><ele>664.0</ele><time>2026-04-06T13:44:40.763Z</time></trkpt><trkpt lat="45.8746243" lon="9.2552776"><ele>664.0</ele><time>2026-04-06T13:44:41.763Z</time></trkpt><trkpt lat="45.8746156" lon="9.2551351"><ele>664.0</ele><time>2026-04-06T13:44:43.764Z</time></trkpt><trkpt lat="45.8744909" lon="9.2551185"><ele>664.0</ele><time>2026-04-06T13:44:44.764Z</time></trkpt><trkpt lat="45.8743733" lon="9.2551375"><ele>665.0</ele><time>2026-04-06T13:44:45.764Z</time></trkpt><trkpt lat="45.8742661" lon="9.2552247"><ele>666.0</ele><time>2026-04-06T13:44:46.764Z</time></trkpt><trkpt lat="45.8741548" lon="9.2552313"><ele>667.0</ele><time>2026-04-06T13:44:47.764Z</time></trkpt><trkpt lat="45.8740358" lon="9.2551964"><ele>668.0</ele><time>2026-04-06T13:44:48.763Z</time></trkpt><trkpt lat="45.8738936" lon="9.25514"><ele>668.0</ele><time>2026-04-06T13:44:49.764Z</time></trkpt><trkpt lat="45.8737395" lon="9.2550664"><ele>668.0</ele><time>2026-04-06T13:44:50.764Z</time></trkpt><trkpt lat="45.8735891" lon="9.2549967"><ele>668.0</ele><time>2026-04-06T13:44:51.763Z</time></trkpt><trkpt lat="45.8734553" lon="9.2549402"><ele>667.2</ele><time>2026-04-06T13:44:52.763Z</time></trkpt><trkpt lat="45.8733428" lon="9.2549073"><ele>666.4</ele><time>2026-04-06T13:44:53.763Z</time></trkpt><trkpt lat="45.8732319" lon="9.2549024"><ele>665.6</ele><time>2026-04-06T13:44:54.764Z</time></trkpt><trkpt lat="45.8731405" lon="9.2549118"><ele>664.8000000000001</ele><time>2026-04-06T13:44:55.764Z</time></trkpt><trkpt lat="45.8730613" lon="9.2549076"><ele>664.0</ele><time>2026-04-06T13:44:56.763Z</time></trkpt><trkpt lat="45.8729973" lon="9.2548753"><ele>669.0</ele><time>2026-04-06T13:44:57.763Z</time></trkpt><trkpt lat="45.8729801" lon="9.2547315"><ele>674.0</ele><time>2026-04-06T13:44:59.763Z</time></trkpt><trkpt lat="45.8731064" lon="9.2546896"><ele>679.0</ele><time>2026-04-06T13:45:01.764Z</time></trkpt><trkpt lat="45.8732151" lon="9.2547045"><ele>684.0</ele><time>2026-04-06T13:45:02.763Z</time></trkpt><trkpt lat="45.8733476" lon="9.2547038"><ele>684.75</ele><time>2026-04-06T13:45:03.764Z</time></trkpt><trkpt lat="45.8734755" lon="9.2546876"><ele>685.5</ele><time>2026-04-06T13:45:04.764Z</time></trkpt><trkpt lat="45.8736147" lon="9.2546495"><ele>686.25</ele><time>2026-04-06T13:45:05.764Z</time></trkpt><trkpt lat="45.8737668" lon="9.254594"><ele>687.0</ele><time>2026-04-06T13:45:06.762Z</time></trkpt><trkpt lat="45.8739256" lon="9.2545395"><ele>687.0</ele><time>2026-04-06T13:45:07.762Z</time></trkpt><trkpt lat="45.874079" lon="9.2544868"><ele>687.0</ele><time>2026-04-06T13:45:08.763Z</time></trkpt><trkpt lat="45.8741739" lon="9.2544446"><ele>687.0</ele><time>2026-04-06T13:45:09.762Z</time></trkpt><trkpt lat="45.8743009" lon="9.2544155"><ele>687.0</ele><time>2026-04-06T13:45:10.762Z</time></trkpt><trkpt lat="45.8743918" lon="9.2544299"><ele>687.1666666666666</ele><time>2026-04-06T13:45:11.762Z</time></trkpt><trkpt lat="45.8744808" lon="9.2544261"><ele>687.3333333333334</ele><time>2026-04-06T13:45:12.762Z</time></trkpt><trkpt lat="45.874558" lon="9.2543965"><ele>687.5</ele><time>2026-04-06T13:45:13.762Z</time></trkpt><trkpt lat="45.8745953" lon="9.2543178"><ele>687.6666666666667</ele><time>2026-04-06T13:45:14.762Z</time></trkpt><trkpt lat="45.8746278" lon="9.2541857"><ele>687.8333333333334</ele><time>2026-04-06T13:45:16.763Z</time></trkpt><trkpt lat="45.8745622" lon="9.254121"><ele>688.0</ele><time>2026-04-06T13:45:17.762Z</time></trkpt><trkpt lat="45.8743719" lon="9.2541848"><ele>687.75</ele><time>2026-04-06T13:45:18.762Z</time></trkpt><trkpt lat="45.8742225" lon="9.2541991"><ele>687.5</ele><time>2026-04-06T13:45:19.763Z</time></trkpt><trkpt lat="45.8740887" lon="9.2541939"><ele>687.25</ele><time>2026-04-06T13:45:20.763Z</time></trkpt><trkpt lat="45.8739604" lon="9.2541785"><ele>687.0</ele><time>2026-04-06T13:45:21.763Z</time></trkpt><trkpt lat="45.8738447" lon="9.2541655"><ele>687.0</ele><time>2026-04-06T13:45:22.762Z</time></trkpt><trkpt lat="45.8737481" lon="9.2541471"><ele>687.0</ele><time>2026-04-06T13:45:23.763Z</time></trkpt><trkpt lat="45.8736708" lon="9.2541331"><ele>687.0</ele><time>2026-04-06T13:45:24.763Z</time></trkpt><trkpt lat="45.873609" lon="9.254011"><ele>687.0</ele><time>2026-04-06T13:45:26.763Z</time></trkpt><trkpt lat="45.8736957" lon="9.2539289"><ele>687.0</ele><time>2026-04-06T13:45:28.762Z</time></trkpt><trkpt lat="45.8737822" lon="9.2539335"><ele>691.0</ele><time>2026-04-06T13:45:29.763Z</time></trkpt><trkpt lat="45.8738998" lon="9.2539249"><ele>695.0</ele><time>2026-04-06T13:45:30.763Z</time></trkpt><trkpt lat="45.8740141" lon="9.2538998"><ele>699.0</ele><time>2026-04-06T13:45:31.762Z</time></trkpt><trkpt lat="45.8741302" lon="9.2538669"><ele>703.0</ele><time>2026-04-06T13:45:32.762Z</time></trkpt><trkpt lat="45.8742601" lon="9.2538279"><ele>703.25</ele><time>2026-04-06T13:45:33.762Z</time></trkpt><trkpt lat="45.8744034" lon="9.2537914"><ele>703.5</ele><time>2026-04-06T13:45:34.762Z</time></trkpt><trkpt lat="45.8745383" lon="9.2537541"><ele>703.75</ele><time>2026-04-06T13:45:35.762Z</time></trkpt><trkpt lat="45.8746657" lon="9.2537177"><ele>704.0</ele><time>2026-04-06T13:45:36.763Z</time></trkpt><trkpt lat="45.8748026" lon="9.2536596"><ele>704.0</ele><time>2026-04-06T13:45:37.763Z</time></trkpt><trkpt lat="45.8749345" lon="9.2535716"><ele>704.0</ele><time>2026-04-06T13:45:38.762Z</time></trkpt><trkpt lat="45.8750618" lon="9.2534504"><ele>704.0</ele><time>2026-04-06T13:45:39.763Z</time></trkpt><trkpt lat="45.8751745" lon="9.2533269"><ele>704.0</ele><time>2026-04-06T13:45:40.763Z</time></trkpt><trkpt lat="45.8752765" lon="9.2532119"><ele>706.0</ele><time>2026-04-06T13:45:41.762Z</time></trkpt><trkpt lat="45.8753685" lon="9.2531168"><ele>708.0</ele><time>2026-04-06T13:45:42.762Z</time></trkpt><trkpt lat="45.8754433" lon="9.2530412"><ele>710.0</ele><time>2026-04-06T13:45:43.762Z</time></trkpt><trkpt lat="45.8754868" lon="9.2529623"><ele>712.0</ele><time>2026-04-06T13:45:44.762Z</time></trkpt><trkpt lat="45.8755042" lon="9.2528717"><ele>714.0</ele><time>2026-04-06T13:45:45.763Z</time></trkpt><trkpt lat="45.8754635" lon="9.2527503"><ele>716.0</ele><time>2026-04-06T13:45:47.762Z</time></trkpt><trkpt lat="45.8753362" lon="9.2528295"><ele>716.0</ele><time>2026-04-06T13:45:48.763Z</time></trkpt><trkpt lat="45.8752376" lon="9.2529085"><ele>716.0</ele><time>2026-04-06T13:45:49.762Z</time></trkpt><trkpt lat="45.8751323" lon="9.2529818"><ele>716.0</ele><time>2026-04-06T13:45:50.762Z</time></trkpt><trkpt lat="45.8750443" lon="9.2530264"><ele>716.0</ele><time>2026-04-06T13:45:51.762Z</time></trkpt><trkpt lat="45.8749521" lon="9.2530466"><ele>716.0</ele><time>2026-04-06T13:45:52.763Z</time></trkpt><trkpt lat="45.8748567" lon="9.2530637"><ele>717.5999999999999</ele><time>2026-04-06T13:45:53.762Z</time></trkpt><trkpt lat="45.8747594" lon="9.2530593"><ele>719.2</ele><time>2026-04-06T13:45:54.762Z</time></trkpt><trkpt lat="45.8746581" lon="9.2530357"><ele>720.8</ele><time>2026-04-06T13:45:55.762Z</time></trkpt><trkpt lat="45.8745491" lon="9.2529902"><ele>722.4000000000001</ele><time>2026-04-06T13:45:56.762Z</time></trkpt><trkpt lat="45.8744336" lon="9.2529334"><ele>724.0</ele><time>2026-04-06T13:45:57.762Z</time></trkpt><trkpt lat="45.874323" lon="9.2528786"><ele>723.5</ele><time>2026-04-06T13:45:58.762Z</time></trkpt><trkpt lat="45.8742198" lon="9.2528305"><ele>723.0</ele><time>2026-04-06T13:45:59.762Z</time></trkpt><trkpt lat="45.8741319" lon="9.2527926"><ele>722.5</ele><time>2026-04-06T13:46:00.762Z</time></trkpt><trkpt lat="45.874063" lon="9.2527591"><ele>722.0</ele><time>2026-04-06T13:46:01.763Z</time></trkpt><trkpt lat="45.8740151" lon="9.2526983"><ele>721.5</ele><time>2026-04-06T13:46:02.763Z</time></trkpt><trkpt lat="45.8740438" lon="9.2525624"><ele>721.0</ele><time>2026-04-06T13:46:04.762Z</time></trkpt><trkpt lat="45.8741085" lon="9.2525442"><ele>721.0</ele><time>2026-04-06T13:46:05.763Z</time></trkpt><trkpt lat="45.8741961" lon="9.2525656"><ele>721.0</ele><time>2026-04-06T13:46:06.762Z</time></trkpt><trkpt lat="45.8743135" lon="9.2526102"><ele>721.0</ele><time>2026-04-06T13:46:07.763Z</time></trkpt><trkpt lat="45.8744394" lon="9.2526392"><ele>721.0</ele><time>2026-04-06T13:46:08.762Z</time></trkpt><trkpt lat="45.8745721" lon="9.2526402"><ele>721.75</ele><time>2026-04-06T13:46:09.762Z</time></trkpt><trkpt lat="45.8747107" lon="9.2525869"><ele>722.5</ele><time>2026-04-06T13:46:10.762Z</time></trkpt><trkpt lat="45.8748393" lon="9.2525026"><ele>723.25</ele><time>2026-04-06T13:46:11.762Z</time></trkpt><trkpt lat="45.8749426" lon="9.252406"><ele>724.0</ele><time>2026-04-06T13:46:12.762Z</time></trkpt><trkpt lat="45.8750401" lon="9.2523188"><ele>725.6</ele><time>2026-04-06T13:46:13.762Z</time></trkpt><trkpt lat="45.875129" lon="9.2522416"><ele>727.2</ele><time>2026-04-06T13:46:14.762Z</time></trkpt><trkpt lat="45.8752093" lon="9.2521718"><ele>728.8000000000001</ele><time>2026-04-06T13:46:15.762Z</time></trkpt><trkpt lat="45.8752787" lon="9.2521091"><ele>730.4000000000001</ele><time>2026-04-06T13:46:16.763Z</time></trkpt><trkpt lat="45.8753364" lon="9.2520587"><ele>732.0</ele><time>2026-04-06T13:46:17.762Z</time></trkpt><trkpt lat="45.8754498" lon="9.2519514"><ele>732.0</ele><time>2026-04-06T13:46:19.762Z</time></trkpt><trkpt lat="45.8755222" lon="9.2518896"><ele>732.0</ele><time>2026-04-06T13:46:20.762Z</time></trkpt><trkpt lat="45.8755987" lon="9.2518251"><ele>732.0</ele><time>2026-04-06T13:46:21.762Z</time></trkpt><trkpt lat="45.8756719" lon="9.2517526"><ele>732.0</ele><time>2026-04-06T13:46:22.763Z</time></trkpt><trkpt lat="45.8757598" lon="9.2516721"><ele>732.0</ele><time>2026-04-06T13:46:23.763Z</time></trkpt><trkpt lat="45.8758512" lon="9.2515874"><ele>732.25</ele><time>2026-04-06T13:46:24.762Z</time></trkpt><trkpt lat="45.875949" lon="9.2515151"><ele>732.5</ele><time>2026-04-06T13:46:25.762Z</time></trkpt><trkpt lat="45.8760586" lon="9.2514577"><ele>732.75</ele><time>2026-04-06T13:46:26.762Z</time></trkpt><trkpt lat="45.876166" lon="9.2514286"><ele>733.0</ele><time>2026-04-06T13:46:27.762Z</time></trkpt><trkpt lat="45.8762841" lon="9.251414"><ele>734.4</ele><time>2026-04-06T13:46:28.762Z</time></trkpt><trkpt lat="45.8763987" lon="9.2514071"><ele>735.8</ele><time>2026-04-06T13:46:29.762Z</time></trkpt><trkpt lat="45.8765105" lon="9.2514031"><ele>737.2</ele><time>2026-04-06T13:46:30.762Z</time></trkpt><trkpt lat="45.8766171" lon="9.2513907"><ele>738.6</ele><time>2026-04-06T13:46:31.762Z</time></trkpt><trkpt lat="45.8767188" lon="9.2513563"><ele>740.0</ele><time>2026-04-06T13:46:32.762Z</time></trkpt><trkpt lat="45.8768035" lon="9.2512983"><ele>740.0</ele><time>2026-04-06T13:46:33.762Z</time></trkpt><trkpt lat="45.8768807" lon="9.2512092"><ele>740.0</ele><time>2026-04-06T13:46:34.762Z</time></trkpt><trkpt lat="45.8769412" lon="9.2510908"><ele>740.0</ele><time>2026-04-06T13:46:35.762Z</time></trkpt><trkpt lat="45.8769727" lon="9.250951"><ele>740.0</ele><time>2026-04-06T13:46:36.762Z</time></trkpt><trkpt lat="45.8769853" lon="9.2507965"><ele>740.0</ele><time>2026-04-06T13:46:37.762Z</time></trkpt><trkpt lat="45.8769889" lon="9.2506504"><ele>740.8</ele><time>2026-04-06T13:46:38.763Z</time></trkpt><trkpt lat="45.8770013" lon="9.2505197"><ele>741.6</ele><time>2026-04-06T13:46:39.763Z</time></trkpt><trkpt lat="45.8770197" lon="9.2504012"><ele>742.4000000000001</ele><time>2026-04-06T13:46:40.762Z</time></trkpt><trkpt lat="45.8770523" lon="9.2502862"><ele>743.2</ele><time>2026-04-06T13:46:41.762Z</time></trkpt><trkpt lat="45.8770956" lon="9.2501642"><ele>744.0</ele><time>2026-04-06T13:46:42.763Z</time></trkpt><trkpt lat="45.8771424" lon="9.2500337"><ele>744.0</ele><time>2026-04-06T13:46:43.763Z</time></trkpt><trkpt lat="45.8771881" lon="9.2498923"><ele>744.0</ele><time>2026-04-06T13:46:44.762Z</time></trkpt><trkpt lat="45.8772366" lon="9.2497596"><ele>744.0</ele><time>2026-04-06T13:46:45.762Z</time></trkpt><trkpt lat="45.8772836" lon="9.2496411"><ele>744.0</ele><time>2026-04-06T13:46:46.762Z</time></trkpt><trkpt lat="45.8773184" lon="9.2495355"><ele>744.0</ele><time>2026-04-06T13:46:47.762Z</time></trkpt><trkpt lat="45.8773412" lon="9.2494419"><ele>746.0</ele><time>2026-04-06T13:46:48.762Z</time></trkpt><trkpt lat="45.877318" lon="9.2492919"><ele>748.0</ele><time>2026-04-06T13:46:50.763Z</time></trkpt><trkpt lat="45.8772124" lon="9.2492257"><ele>750.0</ele><time>2026-04-06T13:46:52.762Z</time></trkpt><trkpt lat="45.8770777" lon="9.2493041"><ele>752.0</ele><time>2026-04-06T13:46:54.762Z</time></trkpt><trkpt lat="45.8770138" lon="9.2493873"><ele>752.0</ele><time>2026-04-06T13:46:55.761Z</time></trkpt><trkpt lat="45.8769517" lon="9.2494642"><ele>752.0</ele><time>2026-04-06T13:46:56.763Z</time></trkpt><trkpt lat="45.8768887" lon="9.2495102"><ele>752.0</ele><time>2026-04-06T13:46:57.762Z</time></trkpt><trkpt lat="45.8767855" lon="9.2494632"><ele>752.0</ele><time>2026-04-06T13:46:59.762Z</time></trkpt><trkpt lat="45.8767569" lon="9.2492836"><ele>752.0</ele><time>2026-04-06T13:47:01.762Z</time></trkpt><trkpt lat="45.8767638" lon="9.2491564"><ele>752.0</ele><time>2026-04-06T13:47:02.763Z</time></trkpt><trkpt lat="45.8767874" lon="9.2490145"><ele>752.0</ele><time>2026-04-06T13:47:03.763Z</time></trkpt><trkpt lat="45.8767993" lon="9.2488909"><ele>752.0</ele><time>2026-04-06T13:47:04.763Z</time></trkpt><trkpt lat="45.8768222" lon="9.2487682"><ele>752.0</ele><time>2026-04-06T13:47:05.762Z</time></trkpt><trkpt lat="45.8768489" lon="9.248639"><ele>752.0</ele><time>2026-04-06T13:47:06.762Z</time></trkpt><trkpt lat="45.8768707" lon="9.2485059"><ele>754.2</ele><time>2026-04-06T13:47:07.762Z</time></trkpt><trkpt lat="45.8768911" lon="9.2483725"><ele>756.4000000000001</ele><time>2026-04-06T13:47:08.762Z</time></trkpt><trkpt lat="45.8769113" lon="9.2482445"><ele>758.5999999999999</ele><time>2026-04-06T13:47:09.763Z</time></trkpt><trkpt lat="45.8769246" lon="9.2481183"><ele>760.8</ele><time>2026-04-06T13:47:10.762Z</time></trkpt><trkpt lat="45.8769433" lon="9.2479931"><ele>763.0</ele><time>2026-04-06T13:47:11.763Z</time></trkpt><trkpt lat="45.876964" lon="9.2478665"><ele>763.8</ele><time>2026-04-06T13:47:12.762Z</time></trkpt><trkpt lat="45.876979" lon="9.2477318"><ele>764.5999999999999</ele><time>2026-04-06T13:47:13.763Z</time></trkpt><trkpt lat="45.876988" lon="9.2475882"><ele>765.4000000000001</ele><time>2026-04-06T13:47:14.762Z</time></trkpt><trkpt lat="45.8769936" lon="9.2474522"><ele>766.2</ele><time>2026-04-06T13:47:15.763Z</time></trkpt><trkpt lat="45.876998" lon="9.2473243"><ele>767.0</ele><time>2026-04-06T13:47:16.763Z</time></trkpt><trkpt lat="45.8770134" lon="9.2472061"><ele>767.0</ele><time>2026-04-06T13:47:17.762Z</time></trkpt><trkpt lat="45.877041" lon="9.2470816"><ele>767.0</ele><time>2026-04-06T13:47:18.763Z</time></trkpt><trkpt lat="45.8770932" lon="9.2469628"><ele>767.0</ele><time>2026-04-06T13:47:19.762Z</time></trkpt><trkpt lat="45.877168" lon="9.2468522"><ele>767.0</ele><time>2026-04-06T13:47:20.762Z</time></trkpt><trkpt lat="45.8772631" lon="9.2467544"><ele>767.0</ele><time>2026-04-06T13:47:21.763Z</time></trkpt><trkpt lat="45.8773759" lon="9.2466743"><ele>767.0</ele><time>2026-04-06T13:47:22.762Z</time></trkpt><trkpt lat="45.8774994" lon="9.2466055"><ele>767.0</ele><time>2026-04-06T13:47:23.762Z</time></trkpt><trkpt lat="45.8776281" lon="9.2465479"><ele>767.0</ele><time>2026-04-06T13:47:24.763Z</time></trkpt><trkpt lat="45.8777521" lon="9.2464545"><ele>767.0</ele><time>2026-04-06T13:47:25.762Z</time></trkpt><trkpt lat="45.8778638" lon="9.2463272"><ele>770.6666666666666</ele><time>2026-04-06T13:47:26.762Z</time></trkpt><trkpt lat="45.87797" lon="9.2461653"><ele>774.3333333333333</ele><time>2026-04-06T13:47:27.763Z</time></trkpt><trkpt lat="45.8780592" lon="9.2459873"><ele>778.0</ele><time>2026-04-06T13:47:28.763Z</time></trkpt><trkpt lat="45.8781419" lon="9.2458161"><ele>778.0</ele><time>2026-04-06T13:47:29.763Z</time></trkpt><trkpt lat="45.8782226" lon="9.2456442"><ele>778.0</ele><time>2026-04-06T13:47:30.763Z</time></trkpt><trkpt lat="45.8782981" lon="9.2454858"><ele>778.0</ele><time>2026-04-06T13:47:31.763Z</time></trkpt><trkpt lat="45.8783589" lon="9.2453319"><ele>778.0</ele><time>2026-04-06T13:47:32.763Z</time></trkpt><trkpt lat="45.878404" lon="9.2452119"><ele>777.3333333333333</ele><time>2026-04-06T13:47:33.762Z</time></trkpt><trkpt lat="45.878431" lon="9.2451129"><ele>776.6666666666666</ele><time>2026-04-06T13:47:34.763Z</time></trkpt><trkpt lat="45.8784501" lon="9.2450211"><ele>776.0</ele><time>2026-04-06T13:47:35.763Z</time></trkpt><trkpt lat="45.878463" lon="9.2449246"><ele>775.3333333333333</ele><time>2026-04-06T13:47:36.763Z</time></trkpt><trkpt lat="45.8784814" lon="9.2448167"><ele>774.6666666666666</ele><time>2026-04-06T13:47:37.763Z</time></trkpt><trkpt lat="45.8785121" lon="9.2447008"><ele>774.0</ele><time>2026-04-06T13:47:38.762Z</time></trkpt><trkpt lat="45.8785594" lon="9.2445831"><ele>776.8000000000001</ele><time>2026-04-06T13:47:39.763Z</time></trkpt><trkpt lat="45.8786139" lon="9.2444567"><ele>779.6</ele><time>2026-04-06T13:47:40.761Z</time></trkpt><trkpt lat="45.8786638" lon="9.2443295"><ele>782.4</ele><time>2026-04-06T13:47:41.761Z</time></trkpt><trkpt lat="45.8787078" lon="9.2441933"><ele>785.2</ele><time>2026-04-06T13:47:42.761Z</time></trkpt><trkpt lat="45.8787348" lon="9.2440518"><ele>788.0</ele><time>2026-04-06T13:47:43.762Z</time></trkpt><trkpt lat="45.8787468" lon="9.243934"><ele>788.0</ele><time>2026-04-06T13:47:44.762Z</time></trkpt><trkpt lat="45.8787462" lon="9.2438404"><ele>788.0</ele><time>2026-04-06T13:47:45.762Z</time></trkpt><trkpt lat="45.8787778" lon="9.2436861"><ele>788.0</ele><time>2026-04-06T13:47:47.762Z</time></trkpt><trkpt lat="45.8788678" lon="9.243683"><ele>788.0</ele><time>2026-04-06T13:47:49.761Z</time></trkpt><trkpt lat="45.8789078" lon="9.2438679"><ele>788.0</ele><time>2026-04-06T13:47:51.762Z</time></trkpt><trkpt lat="45.8789159" lon="9.2440066"><ele>789.2</ele><time>2026-04-06T13:47:52.761Z</time></trkpt><trkpt lat="45.8789309" lon="9.2441743"><ele>790.4</ele><time>2026-04-06T13:47:53.762Z</time></trkpt><trkpt lat="45.8789563" lon="9.2443242"><ele>791.6</ele><time>2026-04-06T13:47:54.761Z</time></trkpt><trkpt lat="45.8789979" lon="9.2444636"><ele>792.8000000000001</ele><time>2026-04-06T13:47:55.761Z</time></trkpt><trkpt lat="45.8790567" lon="9.2446017"><ele>794.0</ele><time>2026-04-06T13:47:56.761Z</time></trkpt><trkpt lat="45.8791217" lon="9.2447376"><ele>795.25</ele><time>2026-04-06T13:47:57.761Z</time></trkpt><trkpt lat="45.8791855" lon="9.2448915"><ele>796.5</ele><time>2026-04-06T13:47:58.762Z</time></trkpt><trkpt lat="45.8792405" lon="9.2450568"><ele>797.75</ele><time>2026-04-06T13:47:59.762Z</time></trkpt><trkpt lat="45.8792993" lon="9.2452286"><ele>799.0</ele><time>2026-04-06T13:48:00.762Z</time></trkpt><trkpt lat="45.8793649" lon="9.2453955"><ele>803.25</ele><time>2026-04-06T13:48:01.761Z</time></trkpt><trkpt lat="45.879425" lon="9.2455424"><ele>807.5</ele><time>2026-04-06T13:48:02.762Z</time></trkpt><trkpt lat="45.8794879" lon="9.2456868"><ele>811.75</ele><time>2026-04-06T13:48:03.761Z</time></trkpt><trkpt lat="45.8795553" lon="9.245837"><ele>816.0</ele><time>2026-04-06T13:48:04.761Z</time></trkpt><trkpt lat="45.8796193" lon="9.2459856"><ele>816.0</ele><time>2026-04-06T13:48:05.76Z</time></trkpt><trkpt lat="45.8796714" lon="9.2461196"><ele>816.0</ele><time>2026-04-06T13:48:06.762Z</time></trkpt><trkpt lat="45.8797167" lon="9.2462509"><ele>816.0</ele><time>2026-04-06T13:48:07.762Z</time></trkpt><trkpt lat="45.8797433" lon="9.246379"><ele>816.0</ele><time>2026-04-06T13:48:08.762Z</time></trkpt><trkpt lat="45.8797546" lon="9.2464966"><ele>816.0</ele><time>2026-04-06T13:48:09.762Z</time></trkpt><trkpt lat="45.8797679" lon="9.2466081"><ele>816.0</ele><time>2026-04-06T13:48:10.761Z</time></trkpt><trkpt lat="45.8798149" lon="9.2466824"><ele>816.0</ele><time>2026-04-06T13:48:11.761Z</time></trkpt><trkpt lat="45.8798804" lon="9.2467021"><ele>816.0</ele><time>2026-04-06T13:48:12.761Z</time></trkpt><trkpt lat="45.8799422" lon="9.2466583"><ele>816.0</ele><time>2026-04-06T13:48:13.762Z</time></trkpt><trkpt lat="45.8799763" lon="9.2465649"><ele>816.0</ele><time>2026-04-06T13:48:14.762Z</time></trkpt><trkpt lat="45.8799733" lon="9.2464131"><ele>816.0</ele><time>2026-04-06T13:48:15.762Z</time></trkpt><trkpt lat="45.8799624" lon="9.2462312"><ele>816.0</ele><time>2026-04-06T13:48:16.762Z</time></trkpt><trkpt lat="45.8799588" lon="9.2460129"><ele>816.0</ele><time>2026-04-06T13:48:17.761Z</time></trkpt><trkpt lat="45.8799638" lon="9.2458091"><ele>816.0</ele><time>2026-04-06T13:48:18.761Z</time></trkpt><trkpt lat="45.8799782" lon="9.2455953"><ele>816.0</ele><time>2026-04-06T13:48:19.762Z</time></trkpt><trkpt lat="45.8799991" lon="9.2453947"><ele>816.0</ele><time>2026-04-06T13:48:20.762Z</time></trkpt><trkpt lat="45.8800084" lon="9.2452198"><ele>816.0</ele><time>2026-04-06T13:48:21.762Z</time></trkpt><trkpt lat="45.8800137" lon="9.2450589"><ele>816.0</ele><time>2026-04-06T13:48:22.761Z</time></trkpt><trkpt lat="45.8800371" lon="9.2448997"><ele>816.0</ele><time>2026-04-06T13:48:23.761Z</time></trkpt><trkpt lat="45.880086" lon="9.2447667"><ele>818.75</ele><time>2026-04-06T13:48:24.761Z</time></trkpt><trkpt lat="45.8801525" lon="9.2446593"><ele>821.5</ele><time>2026-04-06T13:48:25.762Z</time></trkpt><trkpt lat="45.8802437" lon="9.2445765"><ele>824.25</ele><time>2026-04-06T13:48:26.762Z</time></trkpt><trkpt lat="45.8803607" lon="9.2445104"><ele>827.0</ele><time>2026-04-06T13:48:27.761Z</time></trkpt><trkpt lat="45.8804828" lon="9.2444325"><ele>827.0</ele><time>2026-04-06T13:48:28.762Z</time></trkpt><trkpt lat="45.8806469" lon="9.244353"><ele>827.0</ele><time>2026-04-06T13:48:29.761Z</time></trkpt><trkpt lat="45.880785" lon="9.2442714"><ele>827.0</ele><time>2026-04-06T13:48:30.762Z</time></trkpt><trkpt lat="45.8809242" lon="9.2441912"><ele>833.6666666666667</ele><time>2026-04-06T13:48:31.761Z</time></trkpt><trkpt lat="45.8810622" lon="9.2441179"><ele>840.3333333333333</ele><time>2026-04-06T13:48:32.762Z</time></trkpt><trkpt lat="45.8812079" lon="9.2440561"><ele>847.0</ele><time>2026-04-06T13:48:33.762Z</time></trkpt><trkpt lat="45.8813623" lon="9.2440069"><ele>847.0</ele><time>2026-04-06T13:48:34.762Z</time></trkpt><trkpt lat="45.8815114" lon="9.2439684"><ele>847.0</ele><time>2026-04-06T13:48:35.761Z</time></trkpt><trkpt lat="45.8816724" lon="9.2439363"><ele>847.0</ele><time>2026-04-06T13:48:36.761Z</time></trkpt><trkpt lat="45.8818374" lon="9.2439137"><ele>843.3333333333333</ele><time>2026-04-06T13:48:37.761Z</time></trkpt><trkpt lat="45.8820093" lon="9.2439005"><ele>839.6666666666667</ele><time>2026-04-06T13:48:38.761Z</time></trkpt><trkpt lat="45.8821833" lon="9.2438869"><ele>836.0</ele><time>2026-04-06T13:48:39.762Z</time></trkpt><trkpt lat="45.8823481" lon="9.2438765"><ele>836.0</ele><time>2026-04-06T13:48:40.762Z</time></trkpt><trkpt lat="45.8824943" lon="9.2438637"><ele>836.0</ele><time>2026-04-06T13:48:41.761Z</time></trkpt><trkpt lat="45.8826261" lon="9.2438593"><ele>836.0</ele><time>2026-04-06T13:48:42.761Z</time></trkpt><trkpt lat="45.8827453" lon="9.2438565"><ele>836.0</ele><time>2026-04-06T13:48:43.762Z</time></trkpt><trkpt lat="45.8828497" lon="9.2438436"><ele>839.5999999999999</ele><time>2026-04-06T13:48:44.761Z</time></trkpt><trkpt lat="45.8829454" lon="9.243829"><ele>843.2</ele><time>2026-04-06T13:48:45.762Z</time></trkpt><trkpt lat="45.8830425" lon="9.2438206"><ele>846.8000000000001</ele><time>2026-04-06T13:48:46.762Z</time></trkpt><trkpt lat="45.8831461" lon="9.2437953"><ele>850.4000000000001</ele><time>2026-04-06T13:48:47.761Z</time></trkpt><trkpt lat="45.8832482" lon="9.2437281"><ele>854.0</ele><time>2026-04-06T13:48:48.761Z</time></trkpt><trkpt lat="45.8833334" lon="9.2436392"><ele>854.0</ele><time>2026-04-06T13:48:49.761Z</time></trkpt><trkpt lat="45.8834173" lon="9.2435442"><ele>854.0</ele><time>2026-04-06T13:48:50.761Z</time></trkpt><trkpt lat="45.8835277" lon="9.2434617"><ele>854.0</ele><time>2026-04-06T13:48:51.762Z</time></trkpt><trkpt lat="45.8836351" lon="9.2434164"><ele>854.0</ele><time>2026-04-06T13:48:52.761Z</time></trkpt><trkpt lat="45.8837526" lon="9.2433652"><ele>858.0</ele><time>2026-04-06T13:48:53.762Z</time></trkpt><trkpt lat="45.8838852" lon="9.243352"><ele>862.0</ele><time>2026-04-06T13:48:54.762Z</time></trkpt><trkpt lat="45.8840127" lon="9.2433285"><ele>866.0</ele><time>2026-04-06T13:48:55.762Z</time></trkpt><trkpt lat="45.8841592" lon="9.2433139"><ele>870.0</ele><time>2026-04-06T13:48:56.762Z</time></trkpt><trkpt lat="45.8842694" lon="9.2432385"><ele>868.5</ele><time>2026-04-06T13:48:57.762Z</time></trkpt><trkpt lat="45.884372" lon="9.2431317"><ele>867.0</ele><time>2026-04-06T13:48:58.761Z</time></trkpt><trkpt lat="45.8844894" lon="9.2430485"><ele>865.5</ele><time>2026-04-06T13:48:59.762Z</time></trkpt><trkpt lat="45.8846207" lon="9.2429778"><ele>864.0</ele><time>2026-04-06T13:49:00.762Z</time></trkpt><trkpt lat="45.8847675" lon="9.242924"><ele>864.0</ele><time>2026-04-06T13:49:01.761Z</time></trkpt><trkpt lat="45.8849213" lon="9.2428858"><ele>864.0</ele><time>2026-04-06T13:49:02.761Z</time></trkpt><trkpt lat="45.8850642" lon="9.2428461"><ele>864.0</ele><time>2026-04-06T13:49:03.761Z</time></trkpt><trkpt lat="45.885192" lon="9.2427916"><ele>864.0</ele><time>2026-04-06T13:49:04.761Z</time></trkpt><trkpt lat="45.8853186" lon="9.2427393"><ele>867.0</ele><time>2026-04-06T13:49:05.761Z</time></trkpt><trkpt lat="45.8854465" lon="9.2426949"><ele>870.0</ele><time>2026-04-06T13:49:06.762Z</time></trkpt><trkpt lat="45.8855597" lon="9.2426439"><ele>873.0</ele><time>2026-04-06T13:49:07.761Z</time></trkpt><trkpt lat="45.8856695" lon="9.2425979"><ele>876.0</ele><time>2026-04-06T13:49:08.762Z</time></trkpt><trkpt lat="45.885795" lon="9.2425988"><ele>876.0</ele><time>2026-04-06T13:49:09.761Z</time></trkpt><trkpt lat="45.8859215" lon="9.2426427"><ele>876.0</ele><time>2026-04-06T13:49:10.761Z</time></trkpt><trkpt lat="45.8860543" lon="9.2427241"><ele>876.0</ele><time>2026-04-06T13:49:11.761Z</time></trkpt><trkpt lat="45.8861961" lon="9.2428115"><ele>876.0</ele><time>2026-04-06T13:49:12.762Z</time></trkpt><trkpt lat="45.8863274" lon="9.2428826"><ele>877.0</ele><time>2026-04-06T13:49:13.762Z</time></trkpt><trkpt lat="45.8864618" lon="9.2429593"><ele>878.0</ele><time>2026-04-06T13:49:14.762Z</time></trkpt><trkpt lat="45.8866144" lon="9.2430497"><ele>879.0</ele><time>2026-04-06T13:49:15.761Z</time></trkpt><trkpt lat="45.8867549" lon="9.2431452"><ele>882.3333333333333</ele><time>2026-04-06T13:49:16.761Z</time></trkpt><trkpt lat="45.8868933" lon="9.2432258"><ele>885.6666666666666</ele><time>2026-04-06T13:49:17.761Z</time></trkpt><trkpt lat="45.8870501" lon="9.2432941"><ele>889.0</ele><time>2026-04-06T13:49:18.762Z</time></trkpt><trkpt lat="45.8872374" lon="9.2433391"><ele>889.0</ele><time>2026-04-06T13:49:19.762Z</time></trkpt><trkpt lat="45.8874501" lon="9.2433603"><ele>889.0</ele><time>2026-04-06T13:49:20.761Z</time></trkpt><trkpt lat="45.8876802" lon="9.243394"><ele>889.0</ele><time>2026-04-06T13:49:21.762Z</time></trkpt><trkpt lat="45.8879076" lon="9.243442"><ele>892.0</ele><time>2026-04-06T13:49:22.761Z</time></trkpt><trkpt lat="45.8881173" lon="9.2434789"><ele>895.0</ele><time>2026-04-06T13:49:23.761Z</time></trkpt><trkpt lat="45.8883154" lon="9.2435083"><ele>898.0</ele><time>2026-04-06T13:49:24.762Z</time></trkpt><trkpt lat="45.8885123" lon="9.2435346"><ele>901.6666666666666</ele><time>2026-04-06T13:49:25.761Z</time></trkpt><trkpt lat="45.8887029" lon="9.243558"><ele>905.3333333333333</ele><time>2026-04-06T13:49:26.761Z</time></trkpt><trkpt lat="45.8888876" lon="9.2435898"><ele>909.0</ele><time>2026-04-06T13:49:27.762Z</time></trkpt><trkpt lat="45.8890686" lon="9.2436192"><ele>909.0</ele><time>2026-04-06T13:49:28.761Z</time></trkpt><trkpt lat="45.889231" lon="9.2436469"><ele>909.0</ele><time>2026-04-06T13:49:29.762Z</time></trkpt><trkpt lat="45.8893815" lon="9.2436778"><ele>909.0</ele><time>2026-04-06T13:49:30.762Z</time></trkpt><trkpt lat="45.8895023" lon="9.2436952"><ele>909.0</ele><time>2026-04-06T13:49:31.762Z</time></trkpt><trkpt lat="45.8895957" lon="9.2436729"><ele>909.1666666666666</ele><time>2026-04-06T13:49:32.762Z</time></trkpt><trkpt lat="45.8896872" lon="9.2436548"><ele>909.3333333333333</ele><time>2026-04-06T13:49:33.761Z</time></trkpt><trkpt lat="45.8897677" lon="9.2436648"><ele>909.5</ele><time>2026-04-06T13:49:34.761Z</time></trkpt><trkpt lat="45.8898407" lon="9.2436751"><ele>909.6666666666666</ele><time>2026-04-06T13:49:35.762Z</time></trkpt><trkpt lat="45.8898592" lon="9.2438255"><ele>909.8333333333333</ele><time>2026-04-06T13:49:37.761Z</time></trkpt><trkpt lat="45.8898248" lon="9.2439029"><ele>910.0</ele><time>2026-04-06T13:49:38.762Z</time></trkpt><trkpt lat="45.8897602" lon="9.2439203"><ele>910.0</ele><time>2026-04-06T13:49:39.762Z</time></trkpt><trkpt lat="45.8896754" lon="9.2439165"><ele>910.0</ele><time>2026-04-06T13:49:40.762Z</time></trkpt><trkpt lat="45.8895821" lon="9.243905"><ele>910.0</ele><time>2026-04-06T13:49:41.762Z</time></trkpt><trkpt lat="45.8894669" lon="9.2438533"><ele>910.0</ele><time>2026-04-06T13:49:42.761Z</time></trkpt><trkpt lat="45.8893327" lon="9.2438578"><ele>910.0</ele><time>2026-04-06T13:49:43.761Z</time></trkpt><trkpt lat="45.889202" lon="9.243859"><ele>909.6666666666666</ele><time>2026-04-06T13:49:44.762Z</time></trkpt><trkpt lat="45.8890478" lon="9.2438852"><ele>909.3333333333333</ele><time>2026-04-06T13:49:45.761Z</time></trkpt><trkpt lat="45.8889088" lon="9.2439731"><ele>909.0</ele><time>2026-04-06T13:49:46.761Z</time></trkpt><trkpt lat="45.8887583" lon="9.2440776"><ele>913.0</ele><time>2026-04-06T13:49:47.762Z</time></trkpt><trkpt lat="45.8885925" lon="9.2441665"><ele>917.0</ele><time>2026-04-06T13:49:48.761Z</time></trkpt><trkpt lat="45.888408" lon="9.2442816"><ele>921.0</ele><time>2026-04-06T13:49:49.762Z</time></trkpt><trkpt lat="45.8882407" lon="9.244382"><ele>921.0</ele><time>2026-04-06T13:49:50.761Z</time></trkpt><trkpt lat="45.8880685" lon="9.244481"><ele>921.0</ele><time>2026-04-06T13:49:51.761Z</time></trkpt><trkpt lat="45.8878966" lon="9.2446117"><ele>921.0</ele><time>2026-04-06T13:49:52.762Z</time></trkpt><trkpt lat="45.8877277" lon="9.244738"><ele>927.3333333333333</ele><time>2026-04-06T13:49:53.762Z</time></trkpt><trkpt lat="45.8875618" lon="9.2448486"><ele>933.6666666666666</ele><time>2026-04-06T13:49:54.761Z</time></trkpt><trkpt lat="45.8874099" lon="9.244947"><ele>940.0</ele><time>2026-04-06T13:49:55.762Z</time></trkpt><trkpt lat="45.8872701" lon="9.2450181"><ele>940.0</ele><time>2026-04-06T13:49:56.761Z</time></trkpt><trkpt lat="45.8871419" lon="9.2450542"><ele>940.0</ele><time>2026-04-06T13:49:57.762Z</time></trkpt><trkpt lat="45.8870198" lon="9.2450755"><ele>940.0</ele><time>2026-04-06T13:49:58.762Z</time></trkpt><trkpt lat="45.8869243" lon="9.2450754"><ele>940.0</ele><time>2026-04-06T13:49:59.761Z</time></trkpt><trkpt lat="45.8868408" lon="9.2450904"><ele>940.0</ele><time>2026-04-06T13:50:00.761Z</time></trkpt><trkpt lat="45.8867918" lon="9.2452626"><ele>940.0</ele><time>2026-04-06T13:50:02.761Z</time></trkpt><trkpt lat="45.8868279" lon="9.2453531"><ele>940.0</ele><time>2026-04-06T13:50:03.762Z</time></trkpt><trkpt lat="45.886895" lon="9.2453936"><ele>940.0</ele><time>2026-04-06T13:50:04.761Z</time></trkpt><trkpt lat="45.8870032" lon="9.245377"><ele>940.0</ele><time>2026-04-06T13:50:05.762Z</time></trkpt><trkpt lat="45.8871301" lon="9.2453189"><ele>940.0</ele><time>2026-04-06T13:50:06.762Z</time></trkpt><trkpt lat="45.8872927" lon="9.2452591"><ele>940.0</ele><time>2026-04-06T13:50:07.762Z</time></trkpt><trkpt lat="45.8874629" lon="9.2451982"><ele>940.0</ele><time>2026-04-06T13:50:08.761Z</time></trkpt><trkpt lat="45.8876478" lon="9.2451483"><ele>940.0</ele><time>2026-04-06T13:50:09.761Z</time></trkpt><trkpt lat="45.8878399" lon="9.2451173"><ele>943.0</ele><time>2026-04-06T13:50:10.761Z</time></trkpt><trkpt lat="45.8880489" lon="9.2451171"><ele>946.0</ele><time>2026-04-06T13:50:11.761Z</time></trkpt><trkpt lat="45.8882493" lon="9.245102"><ele>949.0</ele><time>2026-04-06T13:50:12.761Z</time></trkpt><trkpt lat="45.888446" lon="9.2450779"><ele>950.6666666666666</ele><time>2026-04-06T13:50:13.762Z</time></trkpt><trkpt lat="45.8886416" lon="9.2450517"><ele>952.3333333333333</ele><time>2026-04-06T13:50:14.762Z</time></trkpt><trkpt lat="45.8888325" lon="9.2450358"><ele>954.0</ele><time>2026-04-06T13:50:15.761Z</time></trkpt><trkpt lat="45.8890086" lon="9.2450632"><ele>954.0</ele><time>2026-04-06T13:50:16.761Z</time></trkpt><trkpt lat="45.8891683" lon="9.2450878"><ele>954.0</ele><time>2026-04-06T13:50:17.762Z</time></trkpt><trkpt lat="45.8893219" lon="9.2451116"><ele>954.0</ele><time>2026-04-06T13:50:18.761Z</time></trkpt><trkpt lat="45.8894773" lon="9.2451295"><ele>955.6666666666667</ele><time>2026-04-06T13:50:19.76Z</time></trkpt><trkpt lat="45.8896317" lon="9.2451589"><ele>957.3333333333334</ele><time>2026-04-06T13:50:20.76Z</time></trkpt><trkpt lat="45.8897878" lon="9.2451892"><ele>959.0</ele><time>2026-04-06T13:50:21.76Z</time></trkpt><trkpt lat="45.8899487" lon="9.2452133"><ele>958.3333333333334</ele><time>2026-04-06T13:50:22.76Z</time></trkpt><trkpt lat="45.8901126" lon="9.2452375"><ele>957.6666666666667</ele><time>2026-04-06T13:50:23.761Z</time></trkpt><trkpt lat="45.8902793" lon="9.245268"><ele>957.0</ele><time>2026-04-06T13:50:24.761Z</time></trkpt><trkpt lat="45.8904508" lon="9.2452943"><ele>957.0</ele><time>2026-04-06T13:50:25.76Z</time></trkpt><trkpt lat="45.8906239" lon="9.2453271"><ele>957.0</ele><time>2026-04-06T13:50:26.761Z</time></trkpt><trkpt lat="45.8908036" lon="9.2453789"><ele>957.0</ele><time>2026-04-06T13:50:27.76Z</time></trkpt><trkpt lat="45.8909874" lon="9.2454503"><ele>956.6666666666667</ele><time>2026-04-06T13:50:28.761Z</time></trkpt><trkpt lat="45.8911803" lon="9.2455201"><ele>956.3333333333334</ele><time>2026-04-06T13:50:29.759Z</time></trkpt><trkpt lat="45.8913792" lon="9.2455834"><ele>956.0</ele><time>2026-04-06T13:50:30.76Z</time></trkpt><trkpt lat="45.8915716" lon="9.2456297"><ele>966.3333333333334</ele><time>2026-04-06T13:50:31.761Z</time></trkpt><trkpt lat="45.8917439" lon="9.2456703"><ele>976.6666666666667</ele><time>2026-04-06T13:50:32.761Z</time></trkpt><trkpt lat="45.8919019" lon="9.2457022"><ele>987.0</ele><time>2026-04-06T13:50:33.76Z</time></trkpt><trkpt lat="45.8920428" lon="9.245727"><ele>988.0</ele><time>2026-04-06T13:50:34.761Z</time></trkpt><trkpt lat="45.8921832" lon="9.2457478"><ele>989.0</ele><time>2026-04-06T13:50:35.76Z</time></trkpt><trkpt lat="45.8923023" lon="9.2457609"><ele>990.0</ele><time>2026-04-06T13:50:36.761Z</time></trkpt><trkpt lat="45.8924187" lon="9.245768"><ele>991.0</ele><time>2026-04-06T13:50:37.76Z</time></trkpt><trkpt lat="45.8925464" lon="9.2457839"><ele>991.5</ele><time>2026-04-06T13:50:38.76Z</time></trkpt><trkpt lat="45.8926852" lon="9.2458034"><ele>992.0</ele><time>2026-04-06T13:50:39.76Z</time></trkpt><trkpt lat="45.89283" lon="9.2458241"><ele>992.5</ele><time>2026-04-06T13:50:40.761Z</time></trkpt><trkpt lat="45.8929748" lon="9.2458551"><ele>993.0</ele><time>2026-04-06T13:50:41.76Z</time></trkpt><trkpt lat="45.8931194" lon="9.2458877"><ele>993.0</ele><time>2026-04-06T13:50:42.76Z</time></trkpt><trkpt lat="45.8932568" lon="9.2459134"><ele>993.0</ele><time>2026-04-06T13:50:43.761Z</time></trkpt><trkpt lat="45.8933936" lon="9.2459374"><ele>993.0</ele><time>2026-04-06T13:50:44.76Z</time></trkpt><trkpt lat="45.8935284" lon="9.2459626"><ele>993.0</ele><time>2026-04-06T13:50:45.76Z</time></trkpt><trkpt lat="45.8936534" lon="9.2459864"><ele>996.5999999999999</ele><time>2026-04-06T13:50:46.761Z</time></trkpt><trkpt lat="45.893762" lon="9.2460003"><ele>1000.1999999999999</ele><time>2026-04-06T13:50:47.76Z</time></trkpt><trkpt lat="45.8938582" lon="9.2460001"><ele>1003.8</ele><time>2026-04-06T13:50:48.761Z</time></trkpt><trkpt lat="45.8939514" lon="9.2459911"><ele>1007.4</ele><time>2026-04-06T13:50:49.761Z</time></trkpt><trkpt lat="45.8940381" lon="9.2459652"><ele>1011.0</ele><time>2026-04-06T13:50:50.761Z</time></trkpt><trkpt lat="45.8941177" lon="9.245933"><ele>1011.0</ele><time>2026-04-06T13:50:51.761Z</time></trkpt><trkpt lat="45.8941791" lon="9.2458664"><ele>1011.0</ele><time>2026-04-06T13:50:52.76Z</time></trkpt><trkpt lat="45.8942268" lon="9.2458014"><ele>1011.0</ele><time>2026-04-06T13:50:53.76Z</time></trkpt><trkpt lat="45.8942451" lon="9.2456864"><ele>1011.0</ele><time>2026-04-06T13:50:55.76Z</time></trkpt><trkpt lat="45.8941974" lon="9.245586"><ele>1011.0</ele><time>2026-04-06T13:50:56.761Z</time></trkpt><trkpt lat="45.8941323" lon="9.2455038"><ele>1011.0</ele><time>2026-04-06T13:50:57.76Z</time></trkpt><trkpt lat="45.8940696" lon="9.2454114"><ele>1011.5999999999999</ele><time>2026-04-06T13:50:58.76Z</time></trkpt><trkpt lat="45.8940265" lon="9.2452856"><ele>1012.1999999999999</ele><time>2026-04-06T13:50:59.761Z</time></trkpt><trkpt lat="45.8940038" lon="9.2451571"><ele>1012.8000000000001</ele><time>2026-04-06T13:51:00.76Z</time></trkpt><trkpt lat="45.8939792" lon="9.2450233"><ele>1013.4000000000001</ele><time>2026-04-06T13:51:01.76Z</time></trkpt><trkpt lat="45.8939703" lon="9.2448776"><ele>1014.0</ele><time>2026-04-06T13:51:02.76Z</time></trkpt><trkpt lat="45.8939584" lon="9.2447217"><ele>1014.0</ele><time>2026-04-06T13:51:03.761Z</time></trkpt><trkpt lat="45.8939691" lon="9.244562"><ele>1014.0</ele><time>2026-04-06T13:51:04.76Z</time></trkpt><trkpt lat="45.8939849" lon="9.2443974"><ele>1014.0</ele><time>2026-04-06T13:51:05.761Z</time></trkpt><trkpt lat="45.8940248" lon="9.2442288"><ele>1014.0</ele><time>2026-04-06T13:51:06.761Z</time></trkpt><trkpt lat="45.8940704" lon="9.2440802"><ele>1010.75</ele><time>2026-04-06T13:51:07.761Z</time></trkpt><trkpt lat="45.8941236" lon="9.243932"><ele>1007.5</ele><time>2026-04-06T13:51:08.76Z</time></trkpt><trkpt lat="45.8942098" lon="9.2438028"><ele>1004.25</ele><time>2026-04-06T13:51:09.76Z</time></trkpt><trkpt lat="45.8942943" lon="9.2436809"><ele>1001.0</ele><time>2026-04-06T13:51:10.761Z</time></trkpt><trkpt lat="45.8943757" lon="9.2435976"><ele>1007.0000000000001</ele><time>2026-04-06T13:51:11.76Z</time></trkpt><trkpt lat="45.8944503" lon="9.2435209"><ele>1013.0</ele><time>2026-04-06T13:51:12.761Z</time></trkpt><trkpt lat="45.8945315" lon="9.2434568"><ele>1019.0</ele><time>2026-04-06T13:51:13.76Z</time></trkpt><trkpt lat="45.8946044" lon="9.2434138"><ele>1025.0</ele><time>2026-04-06T13:51:14.761Z</time></trkpt><trkpt lat="45.894671" lon="9.243396"><ele>1031.0</ele><time>2026-04-06T13:51:15.76Z</time></trkpt><trkpt lat="45.8947304" lon="9.2433585"><ele>1037.0</ele><time>2026-04-06T13:51:16.761Z</time></trkpt><trkpt lat="45.8948048" lon="9.2432515"><ele>1037.8333333333335</ele><time>2026-04-06T13:51:18.761Z</time></trkpt><trkpt lat="45.8948057" lon="9.2431092"><ele>1038.6666666666667</ele><time>2026-04-06T13:51:20.761Z</time></trkpt><trkpt lat="45.894773" lon="9.2430174"><ele>1039.5</ele><time>2026-04-06T13:51:21.76Z</time></trkpt><trkpt lat="45.8947244" lon="9.2429214"><ele>1040.3333333333333</ele><time>2026-04-06T13:51:22.76Z</time></trkpt><trkpt lat="45.8946749" lon="9.2428364"><ele>1041.1666666666665</ele><time>2026-04-06T13:51:23.761Z</time></trkpt><trkpt lat="45.8946321" lon="9.2427525"><ele>1042.0</ele><time>2026-04-06T13:51:24.76Z</time></trkpt><trkpt lat="45.8945989" lon="9.2426415"><ele>1042.0</ele><time>2026-04-06T13:51:25.76Z</time></trkpt><trkpt lat="45.8945905" lon="9.242529"><ele>1042.0</ele><time>2026-04-06T13:51:26.76Z</time></trkpt><trkpt lat="45.8945876" lon="9.242411"><ele>1042.0</ele><time>2026-04-06T13:51:27.761Z</time></trkpt><trkpt lat="45.8945916" lon="9.2422872"><ele>1042.0</ele><time>2026-04-06T13:51:28.76Z</time></trkpt><trkpt lat="45.8945738" lon="9.2421574"><ele>1042.0</ele><time>2026-04-06T13:51:29.761Z</time></trkpt><trkpt lat="45.8945373" lon="9.242046"><ele>1042.0</ele><time>2026-04-06T13:51:30.76Z</time></trkpt><trkpt lat="45.8944953" lon="9.241947"><ele>1045.0</ele><time>2026-04-06T13:51:31.761Z</time></trkpt><trkpt lat="45.8944507" lon="9.2418487"><ele>1048.0</ele><time>2026-04-06T13:51:32.76Z</time></trkpt><trkpt lat="45.8943905" lon="9.241761"><ele>1051.0</ele><time>2026-04-06T13:51:33.76Z</time></trkpt><trkpt lat="45.8943187" lon="9.2416606"><ele>1054.0</ele><time>2026-04-06T13:51:34.761Z</time></trkpt><trkpt lat="45.894247" lon="9.2415668"><ele>1057.0</ele><time>2026-04-06T13:51:35.761Z</time></trkpt><trkpt lat="45.8941808" lon="9.2414677"><ele>1054.8</ele><time>2026-04-06T13:51:36.76Z</time></trkpt><trkpt lat="45.8941148" lon="9.2413608"><ele>1052.6</ele><time>2026-04-06T13:51:37.76Z</time></trkpt><trkpt lat="45.8940537" lon="9.2412434"><ele>1050.3999999999999</ele><time>2026-04-06T13:51:38.761Z</time></trkpt><trkpt lat="45.8940004" lon="9.2411065"><ele>1048.2</ele><time>2026-04-06T13:51:39.76Z</time></trkpt><trkpt lat="45.8939518" lon="9.2409659"><ele>1046.0</ele><time>2026-04-06T13:51:40.76Z</time></trkpt><trkpt lat="45.8939201" lon="9.2408267"><ele>1046.0</ele><time>2026-04-06T13:51:41.76Z</time></trkpt><trkpt lat="45.893896" lon="9.2406937"><ele>1046.0</ele><time>2026-04-06T13:51:42.76Z</time></trkpt><trkpt lat="45.8938684" lon="9.2405574"><ele>1046.0</ele><time>2026-04-06T13:51:43.76Z</time></trkpt><trkpt lat="45.8937926" lon="9.2403604"><ele>1046.0</ele><time>2026-04-06T13:51:44.761Z</time></trkpt><trkpt lat="45.8937301" lon="9.2402052"><ele>1050.0</ele><time>2026-04-06T13:51:45.76Z</time></trkpt><trkpt lat="45.8936725" lon="9.2400707"><ele>1054.0</ele><time>2026-04-06T13:51:46.761Z</time></trkpt><trkpt lat="45.8936234" lon="9.2399442"><ele>1058.0</ele><time>2026-04-06T13:51:47.76Z</time></trkpt><trkpt lat="45.8935536" lon="9.2398386"><ele>1062.0</ele><time>2026-04-06T13:51:48.76Z</time></trkpt><trkpt lat="45.8934807" lon="9.2397208"><ele>1066.0</ele><time>2026-04-06T13:51:49.76Z</time></trkpt><trkpt lat="45.8933861" lon="9.2396536"><ele>1066.8</ele><time>2026-04-06T13:51:50.76Z</time></trkpt><trkpt lat="45.8933087" lon="9.2395719"><ele>1067.6</ele><time>2026-04-06T13:51:51.761Z</time></trkpt><trkpt lat="45.8932345" lon="9.239493"><ele>1068.4</ele><time>2026-04-06T13:51:52.76Z</time></trkpt><trkpt lat="45.8932118" lon="9.239392"><ele>1069.2</ele><time>2026-04-06T13:51:53.761Z</time></trkpt><trkpt lat="45.8931588" lon="9.2392999"><ele>1070.0</ele><time>2026-04-06T13:51:54.76Z</time></trkpt><trkpt lat="45.8930509" lon="9.2393092"><ele>1070.0</ele><time>2026-04-06T13:51:55.761Z</time></trkpt><trkpt lat="45.8929391" lon="9.2392789"><ele>1070.0</ele><time>2026-04-06T13:51:56.76Z</time></trkpt><trkpt lat="45.8927248" lon="9.2393225"><ele>1070.0</ele><time>2026-04-06T13:51:57.76Z</time></trkpt><trkpt lat="45.89259" lon="9.2393051"><ele>1067.0</ele><time>2026-04-06T13:51:58.761Z</time></trkpt><trkpt lat="45.8924406" lon="9.2392724"><ele>1064.0</ele><time>2026-04-06T13:51:59.761Z</time></trkpt><trkpt lat="45.8923052" lon="9.2392271"><ele>1061.0</ele><time>2026-04-06T13:52:00.761Z</time></trkpt><trkpt lat="45.8921599" lon="9.2391755"><ele>1058.0</ele><time>2026-04-06T13:52:01.76Z</time></trkpt><trkpt lat="45.8920631" lon="9.2390646"><ele>1059.5</ele><time>2026-04-06T13:52:02.76Z</time></trkpt><trkpt lat="45.8919592" lon="9.2389508"><ele>1061.0</ele><time>2026-04-06T13:52:03.761Z</time></trkpt><trkpt lat="45.8918572" lon="9.2388231"><ele>1062.5</ele><time>2026-04-06T13:52:04.761Z</time></trkpt><trkpt lat="45.8917765" lon="9.2386438"><ele>1064.0</ele><time>2026-04-06T13:52:05.76Z</time></trkpt><trkpt lat="45.8917074" lon="9.238481"><ele>1064.0</ele><time>2026-04-06T13:52:06.76Z</time></trkpt><trkpt lat="45.8916297" lon="9.2383389"><ele>1064.0</ele><time>2026-04-06T13:52:07.76Z</time></trkpt><trkpt lat="45.8915297" lon="9.2382343"><ele>1064.0</ele><time>2026-04-06T13:52:08.76Z</time></trkpt><trkpt lat="45.8914129" lon="9.2381738"><ele>1064.0</ele><time>2026-04-06T13:52:09.761Z</time></trkpt><trkpt lat="45.8912706" lon="9.2381606"><ele>1064.0</ele><time>2026-04-06T13:52:10.76Z</time></trkpt><trkpt lat="45.8911227" lon="9.2381564"><ele>1064.0</ele><time>2026-04-06T13:52:11.76Z</time></trkpt><trkpt lat="45.8909872" lon="9.2381123"><ele>1064.0</ele><time>2026-04-06T13:52:12.761Z</time></trkpt><trkpt lat="45.8908528" lon="9.2380651"><ele>1064.0</ele><time>2026-04-06T13:52:13.761Z</time></trkpt><trkpt lat="45.8907371" lon="9.2380098"><ele>1069.5</ele><time>2026-04-06T13:52:14.761Z</time></trkpt><trkpt lat="45.890631" lon="9.2379304"><ele>1075.0</ele><time>2026-04-06T13:52:15.76Z</time></trkpt><trkpt lat="45.890522" lon="9.237835"><ele>1080.5</ele><time>2026-04-06T13:52:16.76Z</time></trkpt><trkpt lat="45.8904751" lon="9.2376608"><ele>1086.0</ele><time>2026-04-06T13:52:17.76Z</time></trkpt><trkpt lat="45.890433" lon="9.2375045"><ele>1086.0</ele><time>2026-04-06T13:52:18.761Z</time></trkpt><trkpt lat="45.8903942" lon="9.2373372"><ele>1086.0</ele><time>2026-04-06T13:52:19.76Z</time></trkpt><trkpt lat="45.8903227" lon="9.237204"><ele>1086.0</ele><time>2026-04-06T13:52:20.76Z</time></trkpt><trkpt lat="45.89022" lon="9.2371175"><ele>1086.0</ele><time>2026-04-06T13:52:21.76Z</time></trkpt><trkpt lat="45.8901101" lon="9.2370325"><ele>1088.5</ele><time>2026-04-06T13:52:22.76Z</time></trkpt><trkpt lat="45.8899647" lon="9.236968"><ele>1091.0</ele><time>2026-04-06T13:52:23.761Z</time></trkpt><trkpt lat="45.8898406" lon="9.2368387"><ele>1093.5</ele><time>2026-04-06T13:52:24.761Z</time></trkpt><trkpt lat="45.8897347" lon="9.2367171"><ele>1096.0</ele><time>2026-04-06T13:52:25.761Z</time></trkpt><trkpt lat="45.8896291" lon="9.2365801"><ele>1096.6</ele><time>2026-04-06T13:52:26.761Z</time></trkpt><trkpt lat="45.8895319" lon="9.2364368"><ele>1097.1999999999998</ele><time>2026-04-06T13:52:27.761Z</time></trkpt><trkpt lat="45.8894892" lon="9.2363138"><ele>1097.8000000000002</ele><time>2026-04-06T13:52:28.761Z</time></trkpt><trkpt lat="45.8894085" lon="9.2361957"><ele>1098.4</ele><time>2026-04-06T13:52:29.761Z</time></trkpt><trkpt lat="45.8893348" lon="9.2361048"><ele>1099.0</ele><time>2026-04-06T13:52:30.76Z</time></trkpt><trkpt lat="45.8892296" lon="9.2360728"><ele>1099.0</ele><time>2026-04-06T13:52:31.76Z</time></trkpt><trkpt lat="45.8891101" lon="9.2360791"><ele>1099.0</ele><time>2026-04-06T13:52:32.76Z</time></trkpt><trkpt lat="45.8890014" lon="9.2359727"><ele>1099.0</ele><time>2026-04-06T13:52:33.76Z</time></trkpt><trkpt lat="45.8888795" lon="9.2358746"><ele>1099.0</ele><time>2026-04-06T13:52:34.761Z</time></trkpt><trkpt lat="45.8887816" lon="9.2357503"><ele>1106.25</ele><time>2026-04-06T13:52:35.76Z</time></trkpt><trkpt lat="45.8886932" lon="9.2355929"><ele>1113.5</ele><time>2026-04-06T13:52:36.76Z</time></trkpt><trkpt lat="45.8886258" lon="9.2353981"><ele>1120.75</ele><time>2026-04-06T13:52:37.76Z</time></trkpt><trkpt lat="45.8885772" lon="9.2351985"><ele>1128.0</ele><time>2026-04-06T13:52:38.76Z</time></trkpt><trkpt lat="45.8885356" lon="9.235008"><ele>1128.0</ele><time>2026-04-06T13:52:39.76Z</time></trkpt><trkpt lat="45.8884984" lon="9.2348109"><ele>1128.0</ele><time>2026-04-06T13:52:40.761Z</time></trkpt><trkpt lat="45.8884632" lon="9.2346172"><ele>1128.0</ele><time>2026-04-06T13:52:41.761Z</time></trkpt><trkpt lat="45.888431" lon="9.2344292"><ele>1128.0</ele><time>2026-04-06T13:52:42.76Z</time></trkpt><trkpt lat="45.8883902" lon="9.2342323"><ele>1123.3333333333333</ele><time>2026-04-06T13:52:43.76Z</time></trkpt><trkpt lat="45.8883393" lon="9.2340328"><ele>1118.6666666666665</ele><time>2026-04-06T13:52:44.76Z</time></trkpt><trkpt lat="45.8882626" lon="9.2338338"><ele>1114.0</ele><time>2026-04-06T13:52:45.761Z</time></trkpt><trkpt lat="45.8881835" lon="9.2336362"><ele>1114.0</ele><time>2026-04-06T13:52:46.76Z</time></trkpt><trkpt lat="45.8880769" lon="9.2334353"><ele>1114.0</ele><time>2026-04-06T13:52:47.76Z</time></trkpt><trkpt lat="45.8879719" lon="9.2332433"><ele>1114.0</ele><time>2026-04-06T13:52:48.761Z</time></trkpt><trkpt lat="45.8878615" lon="9.2330554"><ele>1111.0</ele><time>2026-04-06T13:52:49.76Z</time></trkpt><trkpt lat="45.8877578" lon="9.2328693"><ele>1108.0</ele><time>2026-04-06T13:52:50.761Z</time></trkpt><trkpt lat="45.8876633" lon="9.2326971"><ele>1105.0</ele><time>2026-04-06T13:52:51.761Z</time></trkpt><trkpt lat="45.8875681" lon="9.2325464"><ele>1105.0</ele><time>2026-04-06T13:52:52.76Z</time></trkpt><trkpt lat="45.8874682" lon="9.232415"><ele>1105.0</ele><time>2026-04-06T13:52:53.761Z</time></trkpt><trkpt lat="45.8873628" lon="9.2322946"><ele>1105.0</ele><time>2026-04-06T13:52:54.761Z</time></trkpt><trkpt lat="45.8872511" lon="9.2321967"><ele>1105.0</ele><time>2026-04-06T13:52:55.761Z</time></trkpt><trkpt lat="45.8871238" lon="9.2321293"><ele>1111.0</ele><time>2026-04-06T13:52:56.76Z</time></trkpt><trkpt lat="45.8869855" lon="9.2320779"><ele>1117.0</ele><time>2026-04-06T13:52:57.761Z</time></trkpt><trkpt lat="45.8868317" lon="9.2320606"><ele>1123.0</ele><time>2026-04-06T13:52:58.761Z</time></trkpt><trkpt lat="45.8866251" lon="9.2320511"><ele>1123.0</ele><time>2026-04-06T13:52:59.76Z</time></trkpt><trkpt lat="45.8864488" lon="9.2320329"><ele>1123.0</ele><time>2026-04-06T13:53:00.759Z</time></trkpt><trkpt lat="45.8862738" lon="9.2320116"><ele>1123.0</ele><time>2026-04-06T13:53:01.759Z</time></trkpt><trkpt lat="45.8860986" lon="9.23198"><ele>1120.0</ele><time>2026-04-06T13:53:02.76Z</time></trkpt><trkpt lat="45.885928" lon="9.2319105"><ele>1117.0</ele><time>2026-04-06T13:53:03.759Z</time></trkpt><trkpt lat="45.885752" lon="9.2318416"><ele>1114.0</ele><time>2026-04-06T13:53:04.76Z</time></trkpt><trkpt lat="45.8855603" lon="9.2317551"><ele>1114.0</ele><time>2026-04-06T13:53:05.758Z</time></trkpt><trkpt lat="45.8853863" lon="9.2316793"><ele>1114.0</ele><time>2026-04-06T13:53:06.759Z</time></trkpt><trkpt lat="45.8852323" lon="9.2316121"><ele>1114.0</ele><time>2026-04-06T13:53:07.76Z</time></trkpt><trkpt lat="45.8850853" lon="9.2315528"><ele>1111.25</ele><time>2026-04-06T13:53:08.76Z</time></trkpt><trkpt lat="45.8849446" lon="9.2314922"><ele>1108.5</ele><time>2026-04-06T13:53:09.76Z</time></trkpt><trkpt lat="45.8848077" lon="9.2314377"><ele>1105.75</ele><time>2026-04-06T13:53:10.759Z</time></trkpt><trkpt lat="45.8846633" lon="9.2314112"><ele>1103.0</ele><time>2026-04-06T13:53:11.759Z</time></trkpt><trkpt lat="45.8845005" lon="9.2313922"><ele>1102.6666666666667</ele><time>2026-04-06T13:53:12.759Z</time></trkpt><trkpt lat="45.8843443" lon="9.2314002"><ele>1102.3333333333333</ele><time>2026-04-06T13:53:13.759Z</time></trkpt><trkpt lat="45.8841777" lon="9.2314263"><ele>1102.0</ele><time>2026-04-06T13:53:14.759Z</time></trkpt><trkpt lat="45.8840279" lon="9.2314742"><ele>1102.0</ele><time>2026-04-06T13:53:15.76Z</time></trkpt><trkpt lat="45.8838737" lon="9.2315101"><ele>1102.0</ele><time>2026-04-06T13:53:16.76Z</time></trkpt><trkpt lat="45.8837503" lon="9.2315053"><ele>1102.0</ele><time>2026-04-06T13:53:17.76Z</time></trkpt><trkpt lat="45.8836287" lon="9.2315056"><ele>1102.0</ele><time>2026-04-06T13:53:18.759Z</time></trkpt><trkpt lat="45.883519" lon="9.2314896"><ele>1105.2</ele><time>2026-04-06T13:53:19.759Z</time></trkpt><trkpt lat="45.8834199" lon="9.2314472"><ele>1108.4</ele><time>2026-04-06T13:53:20.76Z</time></trkpt><trkpt lat="45.8833232" lon="9.2313794"><ele>1111.6</ele><time>2026-04-06T13:53:21.76Z</time></trkpt><trkpt lat="45.8832389" lon="9.2312813"><ele>1114.8</ele><time>2026-04-06T13:53:22.759Z</time></trkpt><trkpt lat="45.8831705" lon="9.2311586"><ele>1118.0</ele><time>2026-04-06T13:53:23.76Z</time></trkpt><trkpt lat="45.8831093" lon="9.2310151"><ele>1118.0</ele><time>2026-04-06T13:53:24.759Z</time></trkpt><trkpt lat="45.8830701" lon="9.2308559"><ele>1118.0</ele><time>2026-04-06T13:53:25.759Z</time></trkpt><trkpt lat="45.8830592" lon="9.2306582"><ele>1118.0</ele><time>2026-04-06T13:53:26.759Z</time></trkpt><trkpt lat="45.8830486" lon="9.2304835"><ele>1118.0</ele><time>2026-04-06T13:53:27.76Z</time></trkpt><trkpt lat="45.8830367" lon="9.2303295"><ele>1119.0</ele><time>2026-04-06T13:53:28.759Z</time></trkpt><trkpt lat="45.8830236" lon="9.230186"><ele>1120.0</ele><time>2026-04-06T13:53:29.759Z</time></trkpt><trkpt lat="45.8830031" lon="9.2300606"><ele>1121.0</ele><time>2026-04-06T13:53:30.76Z</time></trkpt><trkpt lat="45.8829793" lon="9.2299508"><ele>1122.0</ele><time>2026-04-06T13:53:31.759Z</time></trkpt><trkpt lat="45.8829502" lon="9.2298591"><ele>1123.0</ele><time>2026-04-06T13:53:32.759Z</time></trkpt><trkpt lat="45.8829234" lon="9.2297767"><ele>1124.0</ele><time>2026-04-06T13:53:33.759Z</time></trkpt><trkpt lat="45.8828832" lon="9.2296154"><ele>1124.0</ele><time>2026-04-06T13:53:35.759Z</time></trkpt><trkpt lat="45.8828478" lon="9.2294591"><ele>1124.0</ele><time>2026-04-06T13:53:37.76Z</time></trkpt><trkpt lat="45.8828373" lon="9.2293052"><ele>1124.0</ele><time>2026-04-06T13:53:39.76Z</time></trkpt><trkpt lat="45.8828788" lon="9.2291688"><ele>1124.0</ele><time>2026-04-06T13:53:41.759Z</time></trkpt><trkpt lat="45.88298" lon="9.2290719"><ele>1124.0</ele><time>2026-04-06T13:53:43.76Z</time></trkpt><trkpt lat="45.8830427" lon="9.2290099"><ele>1123.5</ele><time>2026-04-06T13:53:44.76Z</time></trkpt><trkpt lat="45.8831072" lon="9.2289397"><ele>1123.0</ele><time>2026-04-06T13:53:45.76Z</time></trkpt><trkpt lat="45.8831652" lon="9.2288405"><ele>1122.5</ele><time>2026-04-06T13:53:46.76Z</time></trkpt><trkpt lat="45.8832252" lon="9.2287505"><ele>1122.0</ele><time>2026-04-06T13:53:47.76Z</time></trkpt><trkpt lat="45.8832906" lon="9.2286732"><ele>1121.5</ele><time>2026-04-06T13:53:48.76Z</time></trkpt><trkpt lat="45.8833549" lon="9.2286191"><ele>1121.0</ele><time>2026-04-06T13:53:49.76Z</time></trkpt><trkpt lat="45.8834566" lon="9.2285992"><ele>1120.2</ele><time>2026-04-06T13:53:50.759Z</time></trkpt><trkpt lat="45.8835659" lon="9.2285875"><ele>1119.3999999999999</ele><time>2026-04-06T13:53:51.759Z</time></trkpt><trkpt lat="45.8836804" lon="9.2285911"><ele>1118.6</ele><time>2026-04-06T13:53:52.759Z</time></trkpt><trkpt lat="45.8837908" lon="9.2285937"><ele>1117.8</ele><time>2026-04-06T13:53:53.76Z</time></trkpt><trkpt lat="45.8838977" lon="9.228591"><ele>1117.0</ele><time>2026-04-06T13:53:54.76Z</time></trkpt><trkpt lat="45.8840103" lon="9.2285734"><ele>1117.0</ele><time>2026-04-06T13:53:55.76Z</time></trkpt><trkpt lat="45.8841187" lon="9.2285321"><ele>1117.0</ele><time>2026-04-06T13:53:56.76Z</time></trkpt><trkpt lat="45.8842286" lon="9.2284722"><ele>1117.0</ele><time>2026-04-06T13:53:57.76Z</time></trkpt><trkpt lat="45.8843396" lon="9.2283839"><ele>1117.0</ele><time>2026-04-06T13:53:58.759Z</time></trkpt><trkpt lat="45.8844467" lon="9.228283"><ele>1116.75</ele><time>2026-04-06T13:53:59.759Z</time></trkpt><trkpt lat="45.884553" lon="9.2281867"><ele>1116.5</ele><time>2026-04-06T13:54:00.759Z</time></trkpt><trkpt lat="45.8846607" lon="9.2280911"><ele>1116.25</ele><time>2026-04-06T13:54:01.759Z</time></trkpt><trkpt lat="45.8847711" lon="9.2280063"><ele>1116.0</ele><time>2026-04-06T13:54:02.76Z</time></trkpt><trkpt lat="45.8848832" lon="9.227922"><ele>1115.5</ele><time>2026-04-06T13:54:03.76Z</time></trkpt><trkpt lat="45.8849983" lon="9.2278463"><ele>1115.0</ele><time>2026-04-06T13:54:04.76Z</time></trkpt><trkpt lat="45.8851154" lon="9.2277615"><ele>1114.5</ele><time>2026-04-06T13:54:05.76Z</time></trkpt><trkpt lat="45.8852306" lon="9.2276744"><ele>1114.0</ele><time>2026-04-06T13:54:06.759Z</time></trkpt><trkpt lat="45.8853352" lon="9.2275964"><ele>1114.0</ele><time>2026-04-06T13:54:07.759Z</time></trkpt><trkpt lat="45.8854335" lon="9.2275296"><ele>1114.0</ele><time>2026-04-06T13:54:08.759Z</time></trkpt><trkpt lat="45.8855178" lon="9.2274584"><ele>1114.0</ele><time>2026-04-06T13:54:09.759Z</time></trkpt><trkpt lat="45.8855916" lon="9.2273763"><ele>1114.0</ele><time>2026-04-06T13:54:10.759Z</time></trkpt><trkpt lat="45.8856232" lon="9.2272411"><ele>1114.0</ele><time>2026-04-06T13:54:11.759Z</time></trkpt><trkpt lat="45.885652" lon="9.227109"><ele>1111.25</ele><time>2026-04-06T13:54:12.76Z</time></trkpt><trkpt lat="45.8856674" lon="9.226962"><ele>1108.5</ele><time>2026-04-06T13:54:13.76Z</time></trkpt><trkpt lat="45.885657" lon="9.2267806"><ele>1105.75</ele><time>2026-04-06T13:54:14.76Z</time></trkpt><trkpt lat="45.8856638" lon="9.22661"><ele>1103.0</ele><time>2026-04-06T13:54:15.76Z</time></trkpt><trkpt lat="45.8856853" lon="9.2264464"><ele>1098.25</ele><time>2026-04-06T13:54:16.76Z</time></trkpt><trkpt lat="45.8857125" lon="9.2262782"><ele>1093.5</ele><time>2026-04-06T13:54:17.759Z</time></trkpt><trkpt lat="45.8857492" lon="9.2261183"><ele>1088.75</ele><time>2026-04-06T13:54:18.76Z</time></trkpt><trkpt lat="45.8857999" lon="9.2259623"><ele>1084.0</ele><time>2026-04-06T13:54:19.759Z</time></trkpt><trkpt lat="45.8858565" lon="9.2258173"><ele>1085.0</ele><time>2026-04-06T13:54:20.759Z</time></trkpt><trkpt lat="45.8859313" lon="9.2256712"><ele>1086.0</ele><time>2026-04-06T13:54:21.759Z</time></trkpt><trkpt lat="45.8860223" lon="9.2255201"><ele>1087.0</ele><time>2026-04-06T13:54:22.759Z</time></trkpt><trkpt lat="45.8861217" lon="9.2253651"><ele>1088.0</ele><time>2026-04-06T13:54:23.759Z</time></trkpt><trkpt lat="45.8862165" lon="9.2252153"><ele>1088.0</ele><time>2026-04-06T13:54:24.759Z</time></trkpt><trkpt lat="45.886316" lon="9.2250721"><ele>1088.0</ele><time>2026-04-06T13:54:25.759Z</time></trkpt><trkpt lat="45.8864156" lon="9.224924"><ele>1088.0</ele><time>2026-04-06T13:54:26.76Z</time></trkpt><trkpt lat="45.886517" lon="9.2247729"><ele>1088.0</ele><time>2026-04-06T13:54:27.76Z</time></trkpt><trkpt lat="45.886623" lon="9.224615"><ele>1083.5</ele><time>2026-04-06T13:54:28.76Z</time></trkpt><trkpt lat="45.8867286" lon="9.2244636"><ele>1079.0</ele><time>2026-04-06T13:54:29.76Z</time></trkpt><trkpt lat="45.8868209" lon="9.2243232"><ele>1074.5</ele><time>2026-04-06T13:54:30.76Z</time></trkpt><trkpt lat="45.8869063" lon="9.2242013"><ele>1070.0</ele><time>2026-04-06T13:54:31.76Z</time></trkpt><trkpt lat="45.8869868" lon="9.2240939"><ele>1070.0</ele><time>2026-04-06T13:54:32.76Z</time></trkpt><trkpt lat="45.8870759" lon="9.2240008"><ele>1070.0</ele><time>2026-04-06T13:54:33.76Z</time></trkpt><trkpt lat="45.8871762" lon="9.2239298"><ele>1070.0</ele><time>2026-04-06T13:54:34.759Z</time></trkpt><trkpt lat="45.887278" lon="9.2238939"><ele>1070.0</ele><time>2026-04-06T13:54:35.759Z</time></trkpt><trkpt lat="45.8873851" lon="9.2238906"><ele>1070.0</ele><time>2026-04-06T13:54:36.759Z</time></trkpt><trkpt lat="45.8874921" lon="9.223932"><ele>1066.0</ele><time>2026-04-06T13:54:37.76Z</time></trkpt><trkpt lat="45.8876068" lon="9.2240082"><ele>1062.0</ele><time>2026-04-06T13:54:38.76Z</time></trkpt><trkpt lat="45.8877241" lon="9.2241015"><ele>1058.0</ele><time>2026-04-06T13:54:39.759Z</time></trkpt><trkpt lat="45.887839" lon="9.2241902"><ele>1054.0</ele><time>2026-04-06T13:54:40.759Z</time></trkpt><trkpt lat="45.8879549" lon="9.2242657"><ele>1054.0</ele><time>2026-04-06T13:54:41.759Z</time></trkpt><trkpt lat="45.888074" lon="9.2243315"><ele>1054.0</ele><time>2026-04-06T13:54:42.76Z</time></trkpt><trkpt lat="45.8881943" lon="9.2243743"><ele>1054.0</ele><time>2026-04-06T13:54:43.76Z</time></trkpt><trkpt lat="45.8883218" lon="9.2244023"><ele>1054.0</ele><time>2026-04-06T13:54:44.76Z</time></trkpt><trkpt lat="45.8884449" lon="9.2243981"><ele>1051.0</ele><time>2026-04-06T13:54:45.76Z</time></trkpt><trkpt lat="45.8885599" lon="9.2243468"><ele>1048.0</ele><time>2026-04-06T13:54:46.759Z</time></trkpt><trkpt lat="45.8886717" lon="9.224278"><ele>1045.0</ele><time>2026-04-06T13:54:47.759Z</time></trkpt><trkpt lat="45.8887753" lon="9.2242177"><ele>1042.0</ele><time>2026-04-06T13:54:48.759Z</time></trkpt><trkpt lat="45.8888898" lon="9.2241807"><ele>1042.0</ele><time>2026-04-06T13:54:49.759Z</time></trkpt><trkpt lat="45.8890026" lon="9.2241847"><ele>1042.0</ele><time>2026-04-06T13:54:50.759Z</time></trkpt><trkpt lat="45.8891135" lon="9.2242184"><ele>1042.0</ele><time>2026-04-06T13:54:51.759Z</time></trkpt><trkpt lat="45.8892119" lon="9.2242776"><ele>1042.0</ele><time>2026-04-06T13:54:52.759Z</time></trkpt><trkpt lat="45.8892987" lon="9.2243586"><ele>1042.0</ele><time>2026-04-06T13:54:53.76Z</time></trkpt><trkpt lat="45.8893709" lon="9.2244566"><ele>1041.8333333333333</ele><time>2026-04-06T13:54:54.76Z</time></trkpt><trkpt lat="45.8894285" lon="9.2245777"><ele>1041.6666666666665</ele><time>2026-04-06T13:54:55.759Z</time></trkpt><trkpt lat="45.8894728" lon="9.2247049"><ele>1041.5</ele><time>2026-04-06T13:54:56.759Z</time></trkpt><trkpt lat="45.8895019" lon="9.2248291"><ele>1041.3333333333333</ele><time>2026-04-06T13:54:57.76Z</time></trkpt><trkpt lat="45.8895189" lon="9.2249449"><ele>1041.1666666666667</ele><time>2026-04-06T13:54:58.76Z</time></trkpt><trkpt lat="45.8895344" lon="9.2250465"><ele>1041.0</ele><time>2026-04-06T13:54:59.759Z</time></trkpt><trkpt lat="45.8895769" lon="9.2251325"><ele>1041.0</ele><time>2026-04-06T13:55:00.76Z</time></trkpt><trkpt lat="45.8896397" lon="9.2251634"><ele>1041.0</ele><time>2026-04-06T13:55:01.76Z</time></trkpt><trkpt lat="45.889702" lon="9.2251372"><ele>1041.0</ele><time>2026-04-06T13:55:02.759Z</time></trkpt><trkpt lat="45.8897723" lon="9.2250733"><ele>1041.0</ele><time>2026-04-06T13:55:03.759Z</time></trkpt><trkpt lat="45.8898536" lon="9.2249912"><ele>1041.0</ele><time>2026-04-06T13:55:04.759Z</time></trkpt><trkpt lat="45.8899408" lon="9.2249102"><ele>1041.0</ele><time>2026-04-06T13:55:05.76Z</time></trkpt><trkpt lat="45.8900222" lon="9.2248214"><ele>1038.3333333333333</ele><time>2026-04-06T13:55:06.76Z</time></trkpt><trkpt lat="45.8900866" lon="9.2247162"><ele>1035.6666666666667</ele><time>2026-04-06T13:55:07.759Z</time></trkpt><trkpt lat="45.8901313" lon="9.2246097"><ele>1033.0</ele><time>2026-04-06T13:55:08.76Z</time></trkpt><trkpt lat="45.8901694" lon="9.224519"><ele>1030.3333333333335</ele><time>2026-04-06T13:55:09.76Z</time></trkpt><trkpt lat="45.8902061" lon="9.2244287"><ele>1027.6666666666667</ele><time>2026-04-06T13:55:10.759Z</time></trkpt><trkpt lat="45.8902586" lon="9.2243505"><ele>1025.0</ele><time>2026-04-06T13:55:11.759Z</time></trkpt><trkpt lat="45.8903248" lon="9.2242803"><ele>1024.6</ele><time>2026-04-06T13:55:12.759Z</time></trkpt><trkpt lat="45.8903987" lon="9.22422"><ele>1024.2</ele><time>2026-04-06T13:55:13.76Z</time></trkpt><trkpt lat="45.8904739" lon="9.2241657"><ele>1023.8</ele><time>2026-04-06T13:55:14.759Z</time></trkpt><trkpt lat="45.8905762" lon="9.224132"><ele>1023.4</ele><time>2026-04-06T13:55:15.759Z</time></trkpt><trkpt lat="45.890668" lon="9.224088"><ele>1023.0</ele><time>2026-04-06T13:55:16.759Z</time></trkpt><trkpt lat="45.8907573" lon="9.2240301"><ele>1020.8</ele><time>2026-04-06T13:55:17.759Z</time></trkpt><trkpt lat="45.8908426" lon="9.2239745"><ele>1018.5999999999999</ele><time>2026-04-06T13:55:18.759Z</time></trkpt><trkpt lat="45.8909283" lon="9.2239459"><ele>1016.4000000000001</ele><time>2026-04-06T13:55:19.759Z</time></trkpt><trkpt lat="45.8910201" lon="9.2239529"><ele>1014.2</ele><time>2026-04-06T13:55:20.76Z</time></trkpt><trkpt lat="45.8911114" lon="9.2239918"><ele>1012.0</ele><time>2026-04-06T13:55:21.76Z</time></trkpt><trkpt lat="45.8912148" lon="9.2240488"><ele>1012.0</ele><time>2026-04-06T13:55:22.76Z</time></trkpt><trkpt lat="45.891333" lon="9.22411"><ele>1012.0</ele><time>2026-04-06T13:55:23.76Z</time></trkpt><trkpt lat="45.8914503" lon="9.224153"><ele>1012.0</ele><time>2026-04-06T13:55:24.76Z</time></trkpt><trkpt lat="45.8915532" lon="9.2241953"><ele>1012.0</ele><time>2026-04-06T13:55:25.759Z</time></trkpt><trkpt lat="45.8916514" lon="9.224244"><ele>1012.0</ele><time>2026-04-06T13:55:26.76Z</time></trkpt><trkpt lat="45.891743" lon="9.2243197"><ele>1012.0</ele><time>2026-04-06T13:55:27.76Z</time></trkpt><trkpt lat="45.8918203" lon="9.2244244"><ele>1012.0</ele><time>2026-04-06T13:55:28.759Z</time></trkpt><trkpt lat="45.8918926" lon="9.2245601"><ele>1012.0</ele><time>2026-04-06T13:55:29.759Z</time></trkpt><trkpt lat="45.8919656" lon="9.224713"><ele>1009.6</ele><time>2026-04-06T13:55:30.76Z</time></trkpt><trkpt lat="45.8920429" lon="9.2248517"><ele>1007.2</ele><time>2026-04-06T13:55:31.759Z</time></trkpt><trkpt lat="45.8921049" lon="9.2250015"><ele>1004.8</ele><time>2026-04-06T13:55:32.759Z</time></trkpt><trkpt lat="45.8921535" lon="9.2251401"><ele>1002.4</ele><time>2026-04-06T13:55:33.759Z</time></trkpt><trkpt lat="45.8922013" lon="9.2252598"><ele>1000.0</ele><time>2026-04-06T13:55:34.759Z</time></trkpt><trkpt lat="45.8922682" lon="9.2253516"><ele>1000.0</ele><time>2026-04-06T13:55:35.76Z</time></trkpt><trkpt lat="45.8923298" lon="9.2254158"><ele>1000.0</ele><time>2026-04-06T13:55:36.758Z</time></trkpt><trkpt lat="45.892476" lon="9.2253732"><ele>1000.0</ele><time>2026-04-06T13:55:37.759Z</time></trkpt><trkpt lat="45.8925934" lon="9.2254171"><ele>1000.0</ele><time>2026-04-06T13:55:38.758Z</time></trkpt><trkpt lat="45.8926947" lon="9.2254645"><ele>997.2</ele><time>2026-04-06T13:55:39.758Z</time></trkpt><trkpt lat="45.8928053" lon="9.2255059"><ele>994.4</ele><time>2026-04-06T13:55:40.759Z</time></trkpt><trkpt lat="45.892915" lon="9.2255215"><ele>991.5999999999999</ele><time>2026-04-06T13:55:41.758Z</time></trkpt><trkpt lat="45.8930291" lon="9.2255443"><ele>988.8</ele><time>2026-04-06T13:55:42.759Z</time></trkpt><trkpt lat="45.8931347" lon="9.2255313"><ele>986.0</ele><time>2026-04-06T13:55:43.759Z</time></trkpt><trkpt lat="45.8931907" lon="9.2254095"><ele>986.0</ele><time>2026-04-06T13:55:44.759Z</time></trkpt><trkpt lat="45.8932539" lon="9.225308"><ele>985.9999999999999</ele><time>2026-04-06T13:55:45.759Z</time></trkpt><trkpt lat="45.8933033" lon="9.2251952"><ele>985.9999999999999</ele><time>2026-04-06T13:55:46.759Z</time></trkpt><trkpt lat="45.8933603" lon="9.2250737"><ele>986.0</ele><time>2026-04-06T13:55:47.759Z</time></trkpt><trkpt lat="45.8933978" lon="9.2249325"><ele>986.0</ele><time>2026-04-06T13:55:48.759Z</time></trkpt><trkpt lat="45.8934268" lon="9.2247941"><ele>986.75</ele><time>2026-04-06T13:55:49.759Z</time></trkpt><trkpt lat="45.8934487" lon="9.2246506"><ele>987.5</ele><time>2026-04-06T13:55:50.759Z</time></trkpt><trkpt lat="45.893465" lon="9.2244953"><ele>988.25</ele><time>2026-04-06T13:55:51.758Z</time></trkpt><trkpt lat="45.8934859" lon="9.2243213"><ele>989.0</ele><time>2026-04-06T13:55:52.758Z</time></trkpt><trkpt lat="45.8935047" lon="9.2241402"><ele>987.75</ele><time>2026-04-06T13:55:53.758Z</time></trkpt><trkpt lat="45.893521" lon="9.2239616"><ele>986.5</ele><time>2026-04-06T13:55:54.758Z</time></trkpt><trkpt lat="45.8935381" lon="9.2237883"><ele>985.25</ele><time>2026-04-06T13:55:55.759Z</time></trkpt><trkpt lat="45.8935547" lon="9.2236218"><ele>984.0</ele><time>2026-04-06T13:55:56.759Z</time></trkpt><trkpt lat="45.8935798" lon="9.2234365"><ele>984.0</ele><time>2026-04-06T13:55:57.759Z</time></trkpt><trkpt lat="45.8935983" lon="9.223241"><ele>984.0</ele><time>2026-04-06T13:55:58.758Z</time></trkpt><trkpt lat="45.893623" lon="9.2230444"><ele>984.0</ele><time>2026-04-06T13:55:59.759Z</time></trkpt><trkpt lat="45.8936459" lon="9.22285"><ele>984.0</ele><time>2026-04-06T13:56:00.759Z</time></trkpt><trkpt lat="45.8936711" lon="9.2226502"><ele>984.5</ele><time>2026-04-06T13:56:01.759Z</time></trkpt><trkpt lat="45.8936946" lon="9.2224507"><ele>985.0</ele><time>2026-04-06T13:56:02.758Z</time></trkpt><trkpt lat="45.8937197" lon="9.2222469"><ele>985.5</ele><time>2026-04-06T13:56:03.758Z</time></trkpt><trkpt lat="45.8937439" lon="9.2220379"><ele>986.0</ele><time>2026-04-06T13:56:04.758Z</time></trkpt><trkpt lat="45.8937696" lon="9.2218247"><ele>986.3333333333334</ele><time>2026-04-06T13:56:05.759Z</time></trkpt><trkpt lat="45.8937989" lon="9.2216004"><ele>986.6666666666667</ele><time>2026-04-06T13:56:06.759Z</time></trkpt><trkpt lat="45.8938256" lon="9.2213874"><ele>987.0</ele><time>2026-04-06T13:56:07.759Z</time></trkpt><trkpt lat="45.8938478" lon="9.2211784"><ele>986.0</ele><time>2026-04-06T13:56:08.758Z</time></trkpt><trkpt lat="45.8938675" lon="9.2209647"><ele>985.0</ele><time>2026-04-06T13:56:09.759Z</time></trkpt><trkpt lat="45.8938872" lon="9.2207512"><ele>984.0</ele><time>2026-04-06T13:56:10.758Z</time></trkpt><trkpt lat="45.8939075" lon="9.220545"><ele>983.0</ele><time>2026-04-06T13:56:11.758Z</time></trkpt><trkpt lat="45.8939378" lon="9.2203491"><ele>981.25</ele><time>2026-04-06T13:56:12.758Z</time></trkpt><trkpt lat="45.8939838" lon="9.2201497"><ele>979.5</ele><time>2026-04-06T13:56:13.758Z</time></trkpt><trkpt lat="45.8940421" lon="9.2199514"><ele>977.75</ele><time>2026-04-06T13:56:14.758Z</time></trkpt><trkpt lat="45.8941141" lon="9.2197604"><ele>976.0</ele><time>2026-04-06T13:56:15.758Z</time></trkpt><trkpt lat="45.8941969" lon="9.2195631"><ele>977.3333333333333</ele><time>2026-04-06T13:56:16.759Z</time></trkpt><trkpt lat="45.894287" lon="9.2193621"><ele>978.6666666666667</ele><time>2026-04-06T13:56:17.758Z</time></trkpt><trkpt lat="45.8943784" lon="9.2191667"><ele>980.0</ele><time>2026-04-06T13:56:18.759Z</time></trkpt><trkpt lat="45.8944778" lon="9.218974"><ele>980.0</ele><time>2026-04-06T13:56:19.759Z</time></trkpt><trkpt lat="45.8945816" lon="9.2187821"><ele>980.0</ele><time>2026-04-06T13:56:20.759Z</time></trkpt><trkpt lat="45.8946858" lon="9.2185936"><ele>980.0</ele><time>2026-04-06T13:56:21.758Z</time></trkpt><trkpt lat="45.8947902" lon="9.2184159"><ele>980.0</ele><time>2026-04-06T13:56:22.758Z</time></trkpt><trkpt lat="45.8948969" lon="9.2182436"><ele>980.0</ele><time>2026-04-06T13:56:23.758Z</time></trkpt><trkpt lat="45.8949898" lon="9.218066"><ele>980.0</ele><time>2026-04-06T13:56:24.758Z</time></trkpt><trkpt lat="45.8950612" lon="9.2178876"><ele>984.75</ele><time>2026-04-06T13:56:25.758Z</time></trkpt><trkpt lat="45.8951167" lon="9.2177137"><ele>989.5</ele><time>2026-04-06T13:56:26.758Z</time></trkpt><trkpt lat="45.8951473" lon="9.2175399"><ele>994.25</ele><time>2026-04-06T13:56:27.758Z</time></trkpt><trkpt lat="45.895146" lon="9.2173529"><ele>999.0</ele><time>2026-04-06T13:56:28.758Z</time></trkpt><trkpt lat="45.8951052" lon="9.2171834"><ele>994.6</ele><time>2026-04-06T13:56:29.758Z</time></trkpt><trkpt lat="45.8950409" lon="9.2170465"><ele>990.2</ele><time>2026-04-06T13:56:30.759Z</time></trkpt><trkpt lat="45.8950014" lon="9.2169216"><ele>985.8000000000001</ele><time>2026-04-06T13:56:31.759Z</time></trkpt><trkpt lat="45.8949928" lon="9.2167902"><ele>981.4000000000001</ele><time>2026-04-06T13:56:32.759Z</time></trkpt><trkpt lat="45.8949783" lon="9.2166563"><ele>977.0</ele><time>2026-04-06T13:56:33.758Z</time></trkpt><trkpt lat="45.8950275" lon="9.2165248"><ele>976.25</ele><time>2026-04-06T13:56:34.759Z</time></trkpt><trkpt lat="45.895051" lon="9.2164045"><ele>975.5</ele><time>2026-04-06T13:56:35.758Z</time></trkpt><trkpt lat="45.8950867" lon="9.216156"><ele>974.75</ele><time>2026-04-06T13:56:36.758Z</time></trkpt><trkpt lat="45.8951356" lon="9.2159744"><ele>974.0</ele><time>2026-04-06T13:56:37.758Z</time></trkpt><trkpt lat="45.8951958" lon="9.2158045"><ele>974.5</ele><time>2026-04-06T13:56:38.759Z</time></trkpt><trkpt lat="45.8952601" lon="9.2156647"><ele>975.0</ele><time>2026-04-06T13:56:39.759Z</time></trkpt><trkpt lat="45.8953483" lon="9.2155445"><ele>975.5</ele><time>2026-04-06T13:56:40.758Z</time></trkpt><trkpt lat="45.8954542" lon="9.2154267"><ele>976.0</ele><time>2026-04-06T13:56:41.758Z</time></trkpt><trkpt lat="45.8955752" lon="9.2153208"><ele>976.0</ele><time>2026-04-06T13:56:42.759Z</time></trkpt><trkpt lat="45.8957033" lon="9.2151915"><ele>976.0</ele><time>2026-04-06T13:56:43.759Z</time></trkpt><trkpt lat="45.8958124" lon="9.2150509"><ele>976.0</ele><time>2026-04-06T13:56:44.758Z</time></trkpt><trkpt lat="45.8959136" lon="9.2149075"><ele>976.0</ele><time>2026-04-06T13:56:45.758Z</time></trkpt><trkpt lat="45.8959881" lon="9.2147364"><ele>976.25</ele><time>2026-04-06T13:56:46.759Z</time></trkpt><trkpt lat="45.8960523" lon="9.2145606"><ele>976.5</ele><time>2026-04-06T13:56:47.759Z</time></trkpt><trkpt lat="45.8960947" lon="9.2143702"><ele>976.75</ele><time>2026-04-06T13:56:48.759Z</time></trkpt><trkpt lat="45.8961227" lon="9.2141675"><ele>977.0</ele><time>2026-04-06T13:56:49.758Z</time></trkpt><trkpt lat="45.8961499" lon="9.2139592"><ele>977.0</ele><time>2026-04-06T13:56:50.758Z</time></trkpt><trkpt lat="45.8961767" lon="9.2137637"><ele>977.0</ele><time>2026-04-06T13:56:51.759Z</time></trkpt><trkpt lat="45.8962122" lon="9.2135828"><ele>977.0</ele><time>2026-04-06T13:56:52.759Z</time></trkpt><trkpt lat="45.8962524" lon="9.2134062"><ele>977.0</ele><time>2026-04-06T13:56:53.758Z</time></trkpt><trkpt lat="45.8962977" lon="9.2132342"><ele>977.25</ele><time>2026-04-06T13:56:54.758Z</time></trkpt><trkpt lat="45.8963412" lon="9.213056"><ele>977.5</ele><time>2026-04-06T13:56:55.758Z</time></trkpt><trkpt lat="45.8963827" lon="9.2128773"><ele>977.75</ele><time>2026-04-06T13:56:56.759Z</time></trkpt><trkpt lat="45.8964216" lon="9.2127001"><ele>978.0</ele><time>2026-04-06T13:56:57.759Z</time></trkpt><trkpt lat="45.8964557" lon="9.212534"><ele>978.0</ele><time>2026-04-06T13:56:58.759Z</time></trkpt><trkpt lat="45.8964848" lon="9.2123784"><ele>978.0</ele><time>2026-04-06T13:56:59.759Z</time></trkpt><trkpt lat="45.896508" lon="9.2122219"><ele>978.0</ele><time>2026-04-06T13:57:00.758Z</time></trkpt><trkpt lat="45.8965343" lon="9.2120666"><ele>978.0</ele><time>2026-04-06T13:57:01.758Z</time></trkpt><trkpt lat="45.8965522" lon="9.2119115"><ele>978.0</ele><time>2026-04-06T13:57:02.758Z</time></trkpt><trkpt lat="45.8965783" lon="9.2117539"><ele>977.5999999999999</ele><time>2026-04-06T13:57:03.758Z</time></trkpt><trkpt lat="45.8966016" lon="9.2115999"><ele>977.1999999999999</ele><time>2026-04-06T13:57:04.759Z</time></trkpt><trkpt lat="45.8966226" lon="9.2114488"><ele>976.8</ele><time>2026-04-06T13:57:05.758Z</time></trkpt><trkpt lat="45.896636" lon="9.2113115"><ele>976.4</ele><time>2026-04-06T13:57:06.758Z</time></trkpt><trkpt lat="45.8966553" lon="9.2111776"><ele>976.0</ele><time>2026-04-06T13:57:07.758Z</time></trkpt><trkpt lat="45.8966765" lon="9.2110174"><ele>975.9999999999999</ele><time>2026-04-06T13:57:08.758Z</time></trkpt><trkpt lat="45.8966919" lon="9.2109029"><ele>976.0</ele><time>2026-04-06T13:57:09.759Z</time></trkpt><trkpt lat="45.8967062" lon="9.2107793"><ele>976.0</ele><time>2026-04-06T13:57:10.759Z</time></trkpt><trkpt lat="45.8967194" lon="9.2106452"><ele>976.0</ele><time>2026-04-06T13:57:11.759Z</time></trkpt><trkpt lat="45.8967376" lon="9.2105248"><ele>975.9999999999999</ele><time>2026-04-06T13:57:12.759Z</time></trkpt><trkpt lat="45.8967496" lon="9.210412"><ele>976.0</ele><time>2026-04-06T13:57:13.758Z</time></trkpt><trkpt lat="45.8967612" lon="9.2102999"><ele>977.4999999999999</ele><time>2026-04-06T13:57:14.758Z</time></trkpt><trkpt lat="45.8967759" lon="9.2101792"><ele>979.0</ele><time>2026-04-06T13:57:15.759Z</time></trkpt><trkpt lat="45.8967939" lon="9.2100604"><ele>980.5</ele><time>2026-04-06T13:57:16.759Z</time></trkpt><trkpt lat="45.8968144" lon="9.2099384"><ele>982.0</ele><time>2026-04-06T13:57:17.759Z</time></trkpt><trkpt lat="45.8968333" lon="9.2098116"><ele>983.4999999999999</ele><time>2026-04-06T13:57:18.758Z</time></trkpt><trkpt lat="45.8968495" lon="9.2096842"><ele>985.0</ele><time>2026-04-06T13:57:19.758Z</time></trkpt><trkpt lat="45.8968641" lon="9.2095572"><ele>986.6</ele><time>2026-04-06T13:57:20.758Z</time></trkpt><trkpt lat="45.8968827" lon="9.2094262"><ele>988.2</ele><time>2026-04-06T13:57:21.759Z</time></trkpt><trkpt lat="45.8969005" lon="9.2092867"><ele>989.8</ele><time>2026-04-06T13:57:22.759Z</time></trkpt><trkpt lat="45.89692" lon="9.2091394"><ele>991.4</ele><time>2026-04-06T13:57:23.758Z</time></trkpt><trkpt lat="45.8969398" lon="9.2089944"><ele>993.0</ele><time>2026-04-06T13:57:24.758Z</time></trkpt><trkpt lat="45.8969575" lon="9.2088565"><ele>994.0</ele><time>2026-04-06T13:57:25.758Z</time></trkpt><trkpt lat="45.8969743" lon="9.2087257"><ele>995.0</ele><time>2026-04-06T13:57:26.759Z</time></trkpt><trkpt lat="45.8969943" lon="9.2085974"><ele>996.0</ele><time>2026-04-06T13:57:27.759Z</time></trkpt><trkpt lat="45.8970128" lon="9.2084759"><ele>997.0</ele><time>2026-04-06T13:57:28.758Z</time></trkpt><trkpt lat="45.8970289" lon="9.2083504"><ele>998.0</ele><time>2026-04-06T13:57:29.759Z</time></trkpt><trkpt lat="45.8970418" lon="9.2082319"><ele>999.0</ele><time>2026-04-06T13:57:30.759Z</time></trkpt><trkpt lat="45.8970525" lon="9.208128"><ele>1000.0</ele><time>2026-04-06T13:57:31.758Z</time></trkpt><trkpt lat="45.8970575" lon="9.208037"><ele>1000.0</ele><time>2026-04-06T13:57:32.758Z</time></trkpt><trkpt lat="45.8970682" lon="9.2079126"><ele>1000.0</ele><time>2026-04-06T13:57:34.758Z</time></trkpt></trkseg></trk></gpx>